<?xml version="1.0" encoding="UTF-8" standalone="no" ?>
<gpx xmlns="http://www.topografix.com/GPX/1/1" xmlns:xsi="http://www.w3.org/2001/XMLSchema-instance" xsi:schemaLocation="http://www.topografix.com/GPX/1/1 http://www.topografix.com/GPX/1/1/gpx.xsd" version="1.1" creator="VisuGPX - https://www.visugpx.com">
  <metadata>
    <name>Saint front 56 km</name>
  </metadata>
  <trk>
    <name><![CDATA[pauhiac de la bosse]]></name>
    <trkseg>
      <trkpt lat="44.56506" lon="0.82483">
        <ele>147.3</ele>
        <time>2021-12-19T07:46:15Z</time>
      </trkpt>
      <trkpt lat="44.5653" lon="0.8251">
        <ele>147.3</ele>
        <time>2021-12-19T07:46:20Z</time>
      </trkpt>
      <trkpt lat="44.56534" lon="0.82517">
        <ele>147.4</ele>
        <time>2021-12-19T07:46:21Z</time>
      </trkpt>
      <trkpt lat="44.56552" lon="0.82565">
        <ele>147.2</ele>
        <time>2021-12-19T07:46:27Z</time>
      </trkpt>
      <trkpt lat="44.56572" lon="0.82638">
        <ele>147.3</ele>
        <time>2021-12-19T07:46:36Z</time>
      </trkpt>
      <trkpt lat="44.56587" lon="0.82713">
        <ele>147.7</ele>
        <time>2021-12-19T07:46:45Z</time>
      </trkpt>
      <trkpt lat="44.5659" lon="0.8273">
        <ele>147.6</ele>
        <time>2021-12-19T07:46:47Z</time>
      </trkpt>
      <trkpt lat="44.56603" lon="0.82799">
        <ele>147.3</ele>
        <time>2021-12-19T07:46:55Z</time>
      </trkpt>
      <trkpt lat="44.56605" lon="0.82863">
        <ele>147.5</ele>
        <time>2021-12-19T07:47:02Z</time>
      </trkpt>
      <trkpt lat="44.56611" lon="0.82913">
        <ele>147.5</ele>
        <time>2021-12-19T07:47:08Z</time>
      </trkpt>
      <trkpt lat="44.56629" lon="0.82981">
        <ele>147.3</ele>
        <time>2021-12-19T07:47:16Z</time>
      </trkpt>
      <trkpt lat="44.56652" lon="0.83036">
        <ele>147.4</ele>
        <time>2021-12-19T07:47:23Z</time>
      </trkpt>
      <trkpt lat="44.56679" lon="0.83109">
        <ele>148</ele>
        <time>2021-12-19T07:47:32Z</time>
      </trkpt>
      <trkpt lat="44.56684" lon="0.83124">
        <ele>148.3</ele>
        <time>2021-12-19T07:47:34Z</time>
      </trkpt>
      <trkpt lat="44.56703" lon="0.83173">
        <ele>149.8</ele>
        <time>2021-12-19T07:47:41Z</time>
      </trkpt>
      <trkpt lat="44.56727" lon="0.8323">
        <ele>150.9</ele>
        <time>2021-12-19T07:47:50Z</time>
      </trkpt>
      <trkpt lat="44.56758" lon="0.83295">
        <ele>152.1</ele>
        <time>2021-12-19T07:48:00Z</time>
      </trkpt>
      <trkpt lat="44.5679" lon="0.83357">
        <ele>153.6</ele>
        <time>2021-12-19T07:48:10Z</time>
      </trkpt>
      <trkpt lat="44.56817" lon="0.83414">
        <ele>155.2</ele>
        <time>2021-12-19T07:48:19Z</time>
      </trkpt>
      <trkpt lat="44.56837" lon="0.83464">
        <ele>157</ele>
        <time>2021-12-19T07:48:27Z</time>
      </trkpt>
      <trkpt lat="44.56853" lon="0.83508">
        <ele>158.2</ele>
        <time>2021-12-19T07:48:34Z</time>
      </trkpt>
      <trkpt lat="44.56868" lon="0.83547">
        <ele>158.7</ele>
        <time>2021-12-19T07:48:40Z</time>
      </trkpt>
      <trkpt lat="44.56893" lon="0.83603">
        <ele>159.8</ele>
        <time>2021-12-19T07:48:49Z</time>
      </trkpt>
      <trkpt lat="44.56898" lon="0.83613">
        <ele>160.1</ele>
        <time>2021-12-19T07:48:51Z</time>
        <extensions>
          <visugpx:TrkExtension xmlns:visugpx="https://www.visugpx.com/editgpx/">
            <visugpx:node>1</visugpx:node>
            </visugpx:TrkExtension>
        </extensions>
      </trkpt>
      <trkpt lat="44.56897" lon="0.83622">
        <ele>160.4</ele>
        <time>2021-12-19T07:48:53Z</time>
      </trkpt>
      <trkpt lat="44.56888" lon="0.83633">
        <ele>160.8</ele>
        <time>2021-12-19T07:48:57Z</time>
      </trkpt>
      <trkpt lat="44.56874" lon="0.83645">
        <ele>161.5</ele>
        <time>2021-12-19T07:49:02Z</time>
      </trkpt>
      <trkpt lat="44.56858" lon="0.83661">
        <ele>162.3</ele>
        <time>2021-12-19T07:49:07Z</time>
      </trkpt>
      <trkpt lat="44.56838" lon="0.83682">
        <ele>163</ele>
        <time>2021-12-19T07:49:13Z</time>
      </trkpt>
      <trkpt lat="44.5682" lon="0.83695">
        <ele>163.3</ele>
        <time>2021-12-19T07:49:17Z</time>
      </trkpt>
      <trkpt lat="44.56812" lon="0.83699">
        <ele>163.3</ele>
        <time>2021-12-19T07:49:19Z</time>
      </trkpt>
      <trkpt lat="44.5678" lon="0.83718">
        <ele>163.5</ele>
        <time>2021-12-19T07:49:26Z</time>
      </trkpt>
      <trkpt lat="44.56776" lon="0.83721">
        <ele>163.4</ele>
        <time>2021-12-19T07:49:27Z</time>
      </trkpt>
      <trkpt lat="44.56767" lon="0.83723">
        <ele>163.3</ele>
        <time>2021-12-19T07:49:29Z</time>
      </trkpt>
      <trkpt lat="44.56758" lon="0.83724">
        <ele>163.3</ele>
        <time>2021-12-19T07:49:31Z</time>
      </trkpt>
      <trkpt lat="44.56754" lon="0.83725">
        <ele>163.1</ele>
        <time>2021-12-19T07:49:32Z</time>
      </trkpt>
      <trkpt lat="44.56744" lon="0.83735">
        <ele>163</ele>
        <time>2021-12-19T07:49:35Z</time>
      </trkpt>
      <trkpt lat="44.56722" lon="0.83754">
        <ele>162.6</ele>
        <time>2021-12-19T07:49:41Z</time>
      </trkpt>
      <trkpt lat="44.56709" lon="0.83762">
        <ele>162</ele>
        <time>2021-12-19T07:49:45Z</time>
      </trkpt>
      <trkpt lat="44.567" lon="0.83779">
        <ele>161.8</ele>
        <time>2021-12-19T07:49:49Z</time>
      </trkpt>
      <trkpt lat="44.56683" lon="0.83807">
        <ele>162</ele>
        <time>2021-12-19T07:49:54Z</time>
      </trkpt>
      <trkpt lat="44.56676" lon="0.83819">
        <ele>162.3</ele>
        <time>2021-12-19T07:49:56Z</time>
      </trkpt>
      <trkpt lat="44.56666" lon="0.83828">
        <ele>162.5</ele>
        <time>2021-12-19T07:49:58Z</time>
      </trkpt>
      <trkpt lat="44.5666" lon="0.83831">
        <ele>162.5</ele>
        <time>2021-12-19T07:49:59Z</time>
      </trkpt>
      <trkpt lat="44.56655" lon="0.83833">
        <ele>162.3</ele>
        <time>2021-12-19T07:50:00Z</time>
      </trkpt>
      <trkpt lat="44.56645" lon="0.83836">
        <ele>162.1</ele>
        <time>2021-12-19T07:50:02Z</time>
      </trkpt>
      <trkpt lat="44.5664" lon="0.83835">
        <ele>161.7</ele>
        <time>2021-12-19T07:50:03Z</time>
      </trkpt>
      <trkpt lat="44.56631" lon="0.83831">
        <ele>161.4</ele>
        <time>2021-12-19T07:50:05Z</time>
      </trkpt>
      <trkpt lat="44.56624" lon="0.83824">
        <ele>160.9</ele>
        <time>2021-12-19T07:50:07Z</time>
      </trkpt>
      <trkpt lat="44.5662" lon="0.8382">
        <ele>160.5</ele>
        <time>2021-12-19T07:50:08Z</time>
      </trkpt>
      <trkpt lat="44.56613" lon="0.83818">
        <ele>160.2</ele>
        <time>2021-12-19T07:50:10Z</time>
      </trkpt>
      <trkpt lat="44.56602" lon="0.83827">
        <ele>160</ele>
        <time>2021-12-19T07:50:13Z</time>
      </trkpt>
      <trkpt lat="44.56596" lon="0.83836">
        <ele>160</ele>
        <time>2021-12-19T07:50:15Z</time>
      </trkpt>
      <trkpt lat="44.56586" lon="0.83844">
        <ele>159.6</ele>
        <time>2021-12-19T07:50:17Z</time>
      </trkpt>
      <trkpt lat="44.5658" lon="0.83846">
        <ele>159.3</ele>
        <time>2021-12-19T07:50:18Z</time>
      </trkpt>
      <trkpt lat="44.56575" lon="0.83847">
        <ele>159</ele>
        <time>2021-12-19T07:50:19Z</time>
      </trkpt>
      <trkpt lat="44.56566" lon="0.83853">
        <ele>158.5</ele>
        <time>2021-12-19T07:50:21Z</time>
      </trkpt>
      <trkpt lat="44.56553" lon="0.83865">
        <ele>157.7</ele>
        <time>2021-12-19T07:50:24Z</time>
      </trkpt>
      <trkpt lat="44.56541" lon="0.83878">
        <ele>157</ele>
        <time>2021-12-19T07:50:27Z</time>
      </trkpt>
      <trkpt lat="44.56536" lon="0.83882">
        <ele>156.6</ele>
        <time>2021-12-19T07:50:28Z</time>
      </trkpt>
      <trkpt lat="44.56524" lon="0.8389">
        <ele>156.1</ele>
        <time>2021-12-19T07:50:31Z</time>
      </trkpt>
      <trkpt lat="44.56517" lon="0.83878">
        <ele>155.9</ele>
        <time>2021-12-19T07:50:35Z</time>
      </trkpt>
      <trkpt lat="44.56511" lon="0.83872">
        <ele>155.7</ele>
        <time>2021-12-19T07:50:37Z</time>
      </trkpt>
      <trkpt lat="44.56507" lon="0.8387">
        <ele>155.4</ele>
        <time>2021-12-19T07:50:38Z</time>
      </trkpt>
      <trkpt lat="44.56502" lon="0.83868">
        <ele>155</ele>
        <time>2021-12-19T07:50:39Z</time>
      </trkpt>
      <trkpt lat="44.56486" lon="0.83865">
        <ele>154.2</ele>
        <time>2021-12-19T07:50:42Z</time>
      </trkpt>
      <trkpt lat="44.56481" lon="0.83864">
        <ele>153.8</ele>
        <time>2021-12-19T07:50:43Z</time>
      </trkpt>
      <trkpt lat="44.56471" lon="0.83868">
        <ele>153.2</ele>
        <time>2021-12-19T07:50:45Z</time>
      </trkpt>
      <trkpt lat="44.56467" lon="0.83871">
        <ele>152.7</ele>
        <time>2021-12-19T07:50:46Z</time>
      </trkpt>
      <trkpt lat="44.56454" lon="0.83883">
        <ele>151.7</ele>
        <time>2021-12-19T07:50:50Z</time>
      </trkpt>
      <trkpt lat="44.56445" lon="0.83895">
        <ele>150.8</ele>
        <time>2021-12-19T07:50:53Z</time>
      </trkpt>
      <trkpt lat="44.56436" lon="0.839">
        <ele>149.9</ele>
        <time>2021-12-19T07:50:55Z</time>
      </trkpt>
      <trkpt lat="44.56427" lon="0.83903">
        <ele>149.1</ele>
        <time>2021-12-19T07:50:57Z</time>
      </trkpt>
      <trkpt lat="44.56417" lon="0.83911">
        <ele>148</ele>
        <time>2021-12-19T07:51:00Z</time>
      </trkpt>
      <trkpt lat="44.56405" lon="0.83923">
        <ele>146.5</ele>
        <time>2021-12-19T07:51:05Z</time>
      </trkpt>
      <trkpt lat="44.564" lon="0.83925">
        <ele>146.1</ele>
        <time>2021-12-19T07:51:06Z</time>
      </trkpt>
      <trkpt lat="44.56391" lon="0.83927">
        <ele>145</ele>
        <time>2021-12-19T07:51:08Z</time>
      </trkpt>
      <trkpt lat="44.56387" lon="0.8393">
        <ele>144.4</ele>
        <time>2021-12-19T07:51:09Z</time>
      </trkpt>
      <trkpt lat="44.56385" lon="0.83933">
        <ele>144</ele>
        <time>2021-12-19T07:51:10Z</time>
      </trkpt>
      <trkpt lat="44.56384" lon="0.83943">
        <ele>143.4</ele>
        <time>2021-12-19T07:51:12Z</time>
      </trkpt>
      <trkpt lat="44.56383" lon="0.83949">
        <ele>142.7</ele>
        <time>2021-12-19T07:51:13Z</time>
      </trkpt>
      <trkpt lat="44.56379" lon="0.83957">
        <ele>142</ele>
        <time>2021-12-19T07:51:15Z</time>
      </trkpt>
      <trkpt lat="44.56374" lon="0.83966">
        <ele>140.9</ele>
        <time>2021-12-19T07:51:17Z</time>
      </trkpt>
      <trkpt lat="44.56373" lon="0.83972">
        <ele>140.6</ele>
        <time>2021-12-19T07:51:18Z</time>
      </trkpt>
      <trkpt lat="44.56372" lon="0.83986">
        <ele>139.8</ele>
        <time>2021-12-19T07:51:20Z</time>
      </trkpt>
      <trkpt lat="44.56372" lon="0.83996">
        <ele>139.9</ele>
        <time>2021-12-19T07:51:22Z</time>
      </trkpt>
      <trkpt lat="44.56369" lon="0.8401">
        <ele>138.6</ele>
        <time>2021-12-19T07:51:26Z</time>
      </trkpt>
      <trkpt lat="44.56369" lon="0.84012">
        <ele>138.4</ele>
        <time>2021-12-19T07:51:27Z</time>
      </trkpt>
      <trkpt lat="44.56369" lon="0.84017">
        <ele>138.5</ele>
        <time>2021-12-19T07:51:29Z</time>
      </trkpt>
      <trkpt lat="44.56368" lon="0.84024">
        <ele>137.8</ele>
        <time>2021-12-19T07:51:30Z</time>
      </trkpt>
      <trkpt lat="44.56366" lon="0.84031">
        <ele>137.3</ele>
        <time>2021-12-19T07:51:31Z</time>
      </trkpt>
      <trkpt lat="44.56362" lon="0.84049">
        <ele>135.9</ele>
        <time>2021-12-19T07:51:34Z</time>
      </trkpt>
      <trkpt lat="44.56367" lon="0.84059">
        <ele>136.1</ele>
        <time>2021-12-19T07:51:38Z</time>
      </trkpt>
      <trkpt lat="44.56376" lon="0.84065">
        <ele>136.4</ele>
        <time>2021-12-19T07:51:44Z</time>
      </trkpt>
      <trkpt lat="44.56389" lon="0.84077">
        <ele>136.7</ele>
        <time>2021-12-19T07:51:49Z</time>
      </trkpt>
      <trkpt lat="44.56404" lon="0.84087">
        <ele>137</ele>
        <time>2021-12-19T07:51:55Z</time>
      </trkpt>
      <trkpt lat="44.56421" lon="0.84098">
        <ele>137.4</ele>
        <time>2021-12-19T07:52:01Z</time>
      </trkpt>
      <trkpt lat="44.56433" lon="0.84107">
        <ele>137.6</ele>
        <time>2021-12-19T07:52:06Z</time>
      </trkpt>
      <trkpt lat="44.56453" lon="0.84126">
        <ele>138.1</ele>
        <time>2021-12-19T07:52:13Z</time>
      </trkpt>
      <trkpt lat="44.56468" lon="0.84144">
        <ele>138.6</ele>
        <time>2021-12-19T07:52:19Z</time>
      </trkpt>
      <trkpt lat="44.56487" lon="0.84163">
        <ele>139</ele>
        <time>2021-12-19T07:52:26Z</time>
      </trkpt>
      <trkpt lat="44.56505" lon="0.8416">
        <ele>139.3</ele>
        <time>2021-12-19T07:52:31Z</time>
      </trkpt>
      <trkpt lat="44.56523" lon="0.84161">
        <ele>139.8</ele>
        <time>2021-12-19T07:52:36Z</time>
      </trkpt>
      <trkpt lat="44.5654" lon="0.84165">
        <ele>140.3</ele>
        <time>2021-12-19T07:52:41Z</time>
      </trkpt>
      <trkpt lat="44.56555" lon="0.84169">
        <ele>140.7</ele>
        <time>2021-12-19T07:52:45Z</time>
      </trkpt>
      <trkpt lat="44.56576" lon="0.84177">
        <ele>141.1</ele>
        <time>2021-12-19T07:52:50Z</time>
      </trkpt>
      <trkpt lat="44.56609" lon="0.84189">
        <ele>141.5</ele>
        <time>2021-12-19T07:52:57Z</time>
      </trkpt>
      <trkpt lat="44.56635" lon="0.84191">
        <ele>141.6</ele>
        <time>2021-12-19T07:53:02Z</time>
      </trkpt>
      <trkpt lat="44.56645" lon="0.8419">
        <ele>141.6</ele>
        <time>2021-12-19T07:53:04Z</time>
      </trkpt>
      <trkpt lat="44.5667" lon="0.84192">
        <ele>141.6</ele>
        <time>2021-12-19T07:53:09Z</time>
      </trkpt>
      <trkpt lat="44.5668" lon="0.84195">
        <ele>141.7</ele>
        <time>2021-12-19T07:53:11Z</time>
      </trkpt>
      <trkpt lat="44.56691" lon="0.84199">
        <ele>141.8</ele>
        <time>2021-12-19T07:53:13Z</time>
      </trkpt>
      <trkpt lat="44.56705" lon="0.84209">
        <ele>141.9</ele>
        <time>2021-12-19T07:53:16Z</time>
      </trkpt>
      <trkpt lat="44.56714" lon="0.84215">
        <ele>142</ele>
        <time>2021-12-19T07:53:18Z</time>
      </trkpt>
      <trkpt lat="44.56722" lon="0.84224">
        <ele>142</ele>
        <time>2021-12-19T07:53:20Z</time>
      </trkpt>
      <trkpt lat="44.56725" lon="0.84229">
        <ele>142</ele>
        <time>2021-12-19T07:53:21Z</time>
      </trkpt>
      <trkpt lat="44.56743" lon="0.84256">
        <ele>142.3</ele>
        <time>2021-12-19T07:53:26Z</time>
      </trkpt>
      <trkpt lat="44.56746" lon="0.84262">
        <ele>142.4</ele>
        <time>2021-12-19T07:53:27Z</time>
      </trkpt>
      <trkpt lat="44.56761" lon="0.84291">
        <ele>143.1</ele>
        <time>2021-12-19T07:53:32Z</time>
      </trkpt>
      <trkpt lat="44.56764" lon="0.84297">
        <ele>143.4</ele>
        <time>2021-12-19T07:53:33Z</time>
      </trkpt>
      <trkpt lat="44.56774" lon="0.84329">
        <ele>143.4</ele>
        <time>2021-12-19T07:53:39Z</time>
      </trkpt>
      <trkpt lat="44.56778" lon="0.84339">
        <ele>143.3</ele>
        <time>2021-12-19T07:53:41Z</time>
      </trkpt>
      <trkpt lat="44.56782" lon="0.8435">
        <ele>143.2</ele>
        <time>2021-12-19T07:53:43Z</time>
      </trkpt>
      <trkpt lat="44.56784" lon="0.84355">
        <ele>143.2</ele>
        <time>2021-12-19T07:53:44Z</time>
      </trkpt>
      <trkpt lat="44.56786" lon="0.84361">
        <ele>143.2</ele>
        <time>2021-12-19T07:53:45Z</time>
      </trkpt>
      <trkpt lat="44.56785" lon="0.84372">
        <ele>143.2</ele>
        <time>2021-12-19T07:53:47Z</time>
      </trkpt>
      <trkpt lat="44.56777" lon="0.84394">
        <ele>143.3</ele>
        <time>2021-12-19T07:53:51Z</time>
      </trkpt>
      <trkpt lat="44.56775" lon="0.844">
        <ele>143.3</ele>
        <time>2021-12-19T07:53:52Z</time>
      </trkpt>
      <trkpt lat="44.56765" lon="0.84426">
        <ele>143.4</ele>
        <time>2021-12-19T07:53:56Z</time>
      </trkpt>
      <trkpt lat="44.5676" lon="0.8444">
        <ele>143.6</ele>
        <time>2021-12-19T07:53:58Z</time>
      </trkpt>
      <trkpt lat="44.56752" lon="0.84467">
        <ele>143.9</ele>
        <time>2021-12-19T07:54:02Z</time>
      </trkpt>
      <trkpt lat="44.5675" lon="0.8448">
        <ele>144.1</ele>
        <time>2021-12-19T07:54:04Z</time>
      </trkpt>
      <trkpt lat="44.56751" lon="0.84494">
        <ele>144.3</ele>
        <time>2021-12-19T07:54:06Z</time>
      </trkpt>
      <trkpt lat="44.56754" lon="0.84516">
        <ele>144.7</ele>
        <time>2021-12-19T07:54:09Z</time>
      </trkpt>
      <trkpt lat="44.56759" lon="0.84547">
        <ele>145.4</ele>
        <time>2021-12-19T07:54:14Z</time>
      </trkpt>
      <trkpt lat="44.56763" lon="0.84567">
        <ele>145.8</ele>
        <time>2021-12-19T07:54:18Z</time>
      </trkpt>
      <trkpt lat="44.56773" lon="0.84585">
        <ele>146.2</ele>
        <time>2021-12-19T07:54:23Z</time>
      </trkpt>
      <trkpt lat="44.56782" lon="0.846">
        <ele>146.5</ele>
        <time>2021-12-19T07:54:27Z</time>
      </trkpt>
      <trkpt lat="44.56797" lon="0.84617">
        <ele>146.2</ele>
        <time>2021-12-19T07:54:32Z</time>
      </trkpt>
      <trkpt lat="44.56814" lon="0.84629">
        <ele>146.5</ele>
        <time>2021-12-19T07:54:38Z</time>
      </trkpt>
      <trkpt lat="44.56828" lon="0.84638">
        <ele>146.9</ele>
        <time>2021-12-19T07:54:43Z</time>
      </trkpt>
      <trkpt lat="44.56843" lon="0.84649">
        <ele>147.5</ele>
        <time>2021-12-19T07:54:48Z</time>
      </trkpt>
      <trkpt lat="44.56861" lon="0.84674">
        <ele>148.6</ele>
        <time>2021-12-19T07:54:55Z</time>
      </trkpt>
      <trkpt lat="44.56871" lon="0.84693">
        <ele>149.5</ele>
        <time>2021-12-19T07:55:00Z</time>
      </trkpt>
      <trkpt lat="44.56883" lon="0.84718">
        <ele>150.6</ele>
        <time>2021-12-19T07:55:06Z</time>
      </trkpt>
      <trkpt lat="44.56894" lon="0.84732">
        <ele>151.3</ele>
        <time>2021-12-19T07:55:11Z</time>
      </trkpt>
      <trkpt lat="44.56906" lon="0.84756">
        <ele>152.4</ele>
        <time>2021-12-19T07:55:17Z</time>
      </trkpt>
      <trkpt lat="44.56915" lon="0.8478">
        <ele>153.9</ele>
        <time>2021-12-19T07:55:23Z</time>
      </trkpt>
      <trkpt lat="44.5692" lon="0.84797">
        <ele>155</ele>
        <time>2021-12-19T07:55:27Z</time>
      </trkpt>
      <trkpt lat="44.56928" lon="0.84829">
        <ele>156.8</ele>
        <time>2021-12-19T07:55:34Z</time>
      </trkpt>
      <trkpt lat="44.56935" lon="0.84851">
        <ele>158.2</ele>
        <time>2021-12-19T07:55:40Z</time>
      </trkpt>
      <trkpt lat="44.56942" lon="0.8486">
        <ele>158.9</ele>
        <time>2021-12-19T07:55:44Z</time>
      </trkpt>
      <trkpt lat="44.56946" lon="0.84861">
        <ele>159.1</ele>
        <time>2021-12-19T07:55:46Z</time>
      </trkpt>
      <trkpt lat="44.56948" lon="0.84859">
        <ele>159.4</ele>
        <time>2021-12-19T07:55:48Z</time>
      </trkpt>
      <trkpt lat="44.56952" lon="0.84856">
        <ele>159.4</ele>
        <time>2021-12-19T07:55:51Z</time>
      </trkpt>
      <trkpt lat="44.56953" lon="0.84856">
        <ele>159.5</ele>
        <time>2021-12-19T07:55:52Z</time>
      </trkpt>
      <trkpt lat="44.56958" lon="0.84858">
        <ele>160.1</ele>
        <time>2021-12-19T07:55:56Z</time>
      </trkpt>
      <trkpt lat="44.56959" lon="0.84857">
        <ele>160.1</ele>
        <time>2021-12-19T07:55:57Z</time>
      </trkpt>
      <trkpt lat="44.56963" lon="0.84857">
        <ele>160.6</ele>
        <time>2021-12-19T07:56:00Z</time>
      </trkpt>
      <trkpt lat="44.56969" lon="0.84858">
        <ele>161.1</ele>
        <time>2021-12-19T07:56:06Z</time>
      </trkpt>
      <trkpt lat="44.56978" lon="0.84865">
        <ele>162.1</ele>
        <time>2021-12-19T07:56:12Z</time>
      </trkpt>
      <trkpt lat="44.56985" lon="0.84869">
        <ele>162.7</ele>
        <time>2021-12-19T07:56:17Z</time>
      </trkpt>
      <trkpt lat="44.57" lon="0.84886">
        <ele>164.5</ele>
        <time>2021-12-19T07:57:09Z</time>
      </trkpt>
      <trkpt lat="44.57004" lon="0.84885">
        <ele>164.9</ele>
        <time>2021-12-19T07:57:12Z</time>
      </trkpt>
      <trkpt lat="44.57007" lon="0.84884">
        <ele>165.3</ele>
        <time>2021-12-19T07:57:14Z</time>
      </trkpt>
      <trkpt lat="44.57012" lon="0.84883">
        <ele>166</ele>
        <time>2021-12-19T07:57:17Z</time>
      </trkpt>
      <trkpt lat="44.57019" lon="0.84881">
        <ele>166.8</ele>
        <time>2021-12-19T07:57:21Z</time>
      </trkpt>
      <trkpt lat="44.57021" lon="0.84883">
        <ele>167.1</ele>
        <time>2021-12-19T07:57:22Z</time>
      </trkpt>
      <trkpt lat="44.57033" lon="0.84895">
        <ele>168.2</ele>
        <time>2021-12-19T07:57:29Z</time>
      </trkpt>
      <trkpt lat="44.57043" lon="0.849">
        <ele>168.6</ele>
        <time>2021-12-19T07:57:34Z</time>
      </trkpt>
      <trkpt lat="44.57051" lon="0.84904">
        <ele>169.1</ele>
        <time>2021-12-19T07:57:40Z</time>
      </trkpt>
      <trkpt lat="44.5706" lon="0.84916">
        <ele>169.3</ele>
        <time>2021-12-19T07:57:48Z</time>
      </trkpt>
      <trkpt lat="44.57067" lon="0.84915">
        <ele>169.6</ele>
        <time>2021-12-19T07:57:52Z</time>
      </trkpt>
      <trkpt lat="44.57068" lon="0.84915">
        <ele>169.6</ele>
        <time>2021-12-19T07:57:54Z</time>
      </trkpt>
      <trkpt lat="44.57073" lon="0.84916">
        <ele>169.7</ele>
        <time>2021-12-19T07:59:34Z</time>
      </trkpt>
      <trkpt lat="44.57075" lon="0.84916">
        <ele>169.8</ele>
        <time>2021-12-19T07:59:35Z</time>
      </trkpt>
      <trkpt lat="44.57077" lon="0.84916">
        <ele>169.9</ele>
        <time>2021-12-19T07:59:36Z</time>
      </trkpt>
      <trkpt lat="44.57087" lon="0.84916">
        <ele>169.9</ele>
        <time>2021-12-19T07:59:40Z</time>
      </trkpt>
      <trkpt lat="44.57094" lon="0.84916">
        <ele>169.9</ele>
        <time>2021-12-19T07:59:43Z</time>
      </trkpt>
      <trkpt lat="44.57099" lon="0.84914">
        <ele>169.9</ele>
        <time>2021-12-19T07:59:45Z</time>
      </trkpt>
      <trkpt lat="44.57111" lon="0.8491">
        <ele>169.9</ele>
        <time>2021-12-19T07:59:50Z</time>
      </trkpt>
      <trkpt lat="44.57115" lon="0.84908">
        <ele>170</ele>
        <time>2021-12-19T07:59:52Z</time>
      </trkpt>
      <trkpt lat="44.57123" lon="0.84911">
        <ele>170</ele>
        <time>2021-12-19T07:59:55Z</time>
      </trkpt>
      <trkpt lat="44.57139" lon="0.84912">
        <ele>170.1</ele>
        <time>2021-12-19T08:00:01Z</time>
      </trkpt>
      <trkpt lat="44.57152" lon="0.84908">
        <ele>170.3</ele>
        <time>2021-12-19T08:00:06Z</time>
      </trkpt>
      <trkpt lat="44.57163" lon="0.84906">
        <ele>170.5</ele>
        <time>2021-12-19T08:00:10Z</time>
      </trkpt>
      <trkpt lat="44.57178" lon="0.84913">
        <ele>170.6</ele>
        <time>2021-12-19T08:00:16Z</time>
      </trkpt>
      <trkpt lat="44.57191" lon="0.8492">
        <ele>170.7</ele>
        <time>2021-12-19T08:00:21Z</time>
      </trkpt>
      <trkpt lat="44.57204" lon="0.84918">
        <ele>171</ele>
        <time>2021-12-19T08:00:26Z</time>
      </trkpt>
      <trkpt lat="44.57222" lon="0.84913">
        <ele>171.3</ele>
        <time>2021-12-19T08:00:32Z</time>
      </trkpt>
      <trkpt lat="44.57226" lon="0.84914">
        <ele>171.4</ele>
        <time>2021-12-19T08:00:34Z</time>
      </trkpt>
      <trkpt lat="44.57227" lon="0.84918">
        <ele>171.3</ele>
        <time>2021-12-19T08:00:36Z</time>
      </trkpt>
      <trkpt lat="44.5722" lon="0.84937">
        <ele>171</ele>
        <time>2021-12-19T08:00:41Z</time>
      </trkpt>
      <trkpt lat="44.5721" lon="0.84961">
        <ele>170.3</ele>
        <time>2021-12-19T08:00:45Z</time>
      </trkpt>
      <trkpt lat="44.57194" lon="0.84996">
        <ele>168.8</ele>
        <time>2021-12-19T08:00:49Z</time>
      </trkpt>
      <trkpt lat="44.57172" lon="0.85057">
        <ele>166.3</ele>
        <time>2021-12-19T08:00:54Z</time>
      </trkpt>
      <trkpt lat="44.57156" lon="0.85104">
        <ele>164.5</ele>
        <time>2021-12-19T08:00:58Z</time>
      </trkpt>
      <trkpt lat="44.57155" lon="0.85149">
        <ele>163.7</ele>
        <time>2021-12-19T08:01:02Z</time>
      </trkpt>
      <trkpt lat="44.57156" lon="0.85175">
        <ele>163.4</ele>
        <time>2021-12-19T08:01:04Z</time>
      </trkpt>
      <trkpt lat="44.57159" lon="0.852">
        <ele>163.5</ele>
        <time>2021-12-19T08:01:06Z</time>
      </trkpt>
      <trkpt lat="44.5716" lon="0.8521">
        <ele>163.8</ele>
        <time>2021-12-19T08:01:07Z</time>
      </trkpt>
      <trkpt lat="44.57159" lon="0.85216">
        <ele>163.9</ele>
        <time>2021-12-19T08:01:08Z</time>
      </trkpt>
      <trkpt lat="44.57155" lon="0.85228">
        <ele>164.6</ele>
        <time>2021-12-19T08:01:11Z</time>
      </trkpt>
      <trkpt lat="44.57155" lon="0.85233">
        <ele>164.9</ele>
        <time>2021-12-19T08:01:12Z</time>
      </trkpt>
      <trkpt lat="44.57148" lon="0.85255">
        <ele>166.2</ele>
        <time>2021-12-19T08:01:17Z</time>
      </trkpt>
      <trkpt lat="44.57144" lon="0.85259">
        <ele>166.5</ele>
        <time>2021-12-19T08:01:18Z</time>
      </trkpt>
      <trkpt lat="44.5713" lon="0.85268">
        <ele>167.6</ele>
        <time>2021-12-19T08:01:21Z</time>
      </trkpt>
      <trkpt lat="44.57125" lon="0.85272">
        <ele>167.9</ele>
        <time>2021-12-19T08:01:22Z</time>
      </trkpt>
      <trkpt lat="44.57119" lon="0.85283">
        <ele>168.7</ele>
        <time>2021-12-19T08:01:24Z</time>
      </trkpt>
      <trkpt lat="44.57116" lon="0.85295">
        <ele>169.5</ele>
        <time>2021-12-19T08:01:26Z</time>
      </trkpt>
      <trkpt lat="44.57113" lon="0.85298">
        <ele>169.7</ele>
        <time>2021-12-19T08:01:27Z</time>
      </trkpt>
      <trkpt lat="44.5711" lon="0.85299">
        <ele>170.2</ele>
        <time>2021-12-19T08:01:28Z</time>
      </trkpt>
      <trkpt lat="44.57104" lon="0.85298">
        <ele>170.3</ele>
        <time>2021-12-19T08:01:30Z</time>
      </trkpt>
      <trkpt lat="44.57092" lon="0.85299">
        <ele>171.1</ele>
        <time>2021-12-19T08:01:35Z</time>
      </trkpt>
      <trkpt lat="44.57078" lon="0.85307">
        <ele>171.7</ele>
        <time>2021-12-19T08:01:40Z</time>
      </trkpt>
      <trkpt lat="44.57065" lon="0.85307">
        <ele>172.1</ele>
        <time>2021-12-19T08:01:45Z</time>
      </trkpt>
      <trkpt lat="44.5706" lon="0.8531">
        <ele>172.2</ele>
        <time>2021-12-19T08:01:47Z</time>
      </trkpt>
      <trkpt lat="44.57055" lon="0.85317">
        <ele>172.8</ele>
        <time>2021-12-19T08:01:50Z</time>
      </trkpt>
      <trkpt lat="44.57047" lon="0.8533">
        <ele>173.6</ele>
        <time>2021-12-19T08:01:55Z</time>
      </trkpt>
      <trkpt lat="44.57046" lon="0.85337">
        <ele>173.8</ele>
        <time>2021-12-19T08:01:58Z</time>
      </trkpt>
      <trkpt lat="44.57047" lon="0.85344">
        <ele>174.3</ele>
        <time>2021-12-19T08:02:00Z</time>
      </trkpt>
      <trkpt lat="44.57051" lon="0.85368">
        <ele>174.8</ele>
        <time>2021-12-19T08:02:06Z</time>
      </trkpt>
      <trkpt lat="44.57055" lon="0.85392">
        <ele>175.3</ele>
        <time>2021-12-19T08:02:12Z</time>
      </trkpt>
      <trkpt lat="44.57057" lon="0.85412">
        <ele>175.7</ele>
        <time>2021-12-19T08:02:17Z</time>
      </trkpt>
      <trkpt lat="44.57054" lon="0.85425">
        <ele>175.9</ele>
        <time>2021-12-19T08:02:21Z</time>
      </trkpt>
      <trkpt lat="44.57048" lon="0.85433">
        <ele>176.1</ele>
        <time>2021-12-19T08:02:24Z</time>
      </trkpt>
      <trkpt lat="44.57048" lon="0.85435">
        <ele>176.2</ele>
        <time>2021-12-19T08:02:25Z</time>
      </trkpt>
      <trkpt lat="44.57052" lon="0.85438">
        <ele>176.1</ele>
        <time>2021-12-19T08:02:29Z</time>
      </trkpt>
      <trkpt lat="44.57056" lon="0.85439">
        <ele>176.1</ele>
        <time>2021-12-19T08:02:31Z</time>
      </trkpt>
      <trkpt lat="44.57065" lon="0.85439">
        <ele>176.1</ele>
        <time>2021-12-19T08:02:35Z</time>
      </trkpt>
      <trkpt lat="44.57079" lon="0.8544">
        <ele>176</ele>
        <time>2021-12-19T08:02:40Z</time>
      </trkpt>
      <trkpt lat="44.5709" lon="0.85447">
        <ele>176</ele>
        <time>2021-12-19T08:02:44Z</time>
      </trkpt>
      <trkpt lat="44.57105" lon="0.85449">
        <ele>175.7</ele>
        <time>2021-12-19T08:02:48Z</time>
      </trkpt>
      <trkpt lat="44.57112" lon="0.85452">
        <ele>175.4</ele>
        <time>2021-12-19T08:02:50Z</time>
      </trkpt>
      <trkpt lat="44.57114" lon="0.85454">
        <ele>175.5</ele>
        <time>2021-12-19T08:02:51Z</time>
      </trkpt>
      <trkpt lat="44.57114" lon="0.85459">
        <ele>175.6</ele>
        <time>2021-12-19T08:02:52Z</time>
      </trkpt>
      <trkpt lat="44.57116" lon="0.85467">
        <ele>175.5</ele>
        <time>2021-12-19T08:02:54Z</time>
      </trkpt>
      <trkpt lat="44.57123" lon="0.8548">
        <ele>175.3</ele>
        <time>2021-12-19T08:02:57Z</time>
      </trkpt>
      <trkpt lat="44.57127" lon="0.85484">
        <ele>175.2</ele>
        <time>2021-12-19T08:02:58Z</time>
      </trkpt>
      <trkpt lat="44.57131" lon="0.85486">
        <ele>174.9</ele>
        <time>2021-12-19T08:02:59Z</time>
      </trkpt>
      <trkpt lat="44.57139" lon="0.85485">
        <ele>174.6</ele>
        <time>2021-12-19T08:03:01Z</time>
      </trkpt>
      <trkpt lat="44.57143" lon="0.85482">
        <ele>174.1</ele>
        <time>2021-12-19T08:03:02Z</time>
      </trkpt>
      <trkpt lat="44.57148" lon="0.85471">
        <ele>173.8</ele>
        <time>2021-12-19T08:03:04Z</time>
      </trkpt>
      <trkpt lat="44.57154" lon="0.8546">
        <ele>173.1</ele>
        <time>2021-12-19T08:03:06Z</time>
      </trkpt>
      <trkpt lat="44.57162" lon="0.85454">
        <ele>172.3</ele>
        <time>2021-12-19T08:03:08Z</time>
      </trkpt>
      <trkpt lat="44.57174" lon="0.85452">
        <ele>171.8</ele>
        <time>2021-12-19T08:03:11Z</time>
      </trkpt>
      <trkpt lat="44.5718" lon="0.85453">
        <ele>172</ele>
        <time>2021-12-19T08:03:13Z</time>
      </trkpt>
      <trkpt lat="44.57186" lon="0.8545">
        <ele>171.9</ele>
        <time>2021-12-19T08:03:15Z</time>
      </trkpt>
      <trkpt lat="44.57203" lon="0.8545">
        <ele>172.5</ele>
        <time>2021-12-19T08:03:20Z</time>
      </trkpt>
      <trkpt lat="44.57206" lon="0.85451">
        <ele>172.7</ele>
        <time>2021-12-19T08:03:21Z</time>
      </trkpt>
      <trkpt lat="44.57219" lon="0.8545">
        <ele>173.5</ele>
        <time>2021-12-19T08:03:24Z</time>
      </trkpt>
      <trkpt lat="44.57241" lon="0.8545">
        <ele>174.4</ele>
        <time>2021-12-19T08:03:29Z</time>
      </trkpt>
      <trkpt lat="44.57254" lon="0.85451">
        <ele>174.9</ele>
        <time>2021-12-19T08:03:33Z</time>
      </trkpt>
      <trkpt lat="44.57272" lon="0.85452">
        <ele>175.4</ele>
        <time>2021-12-19T08:03:39Z</time>
      </trkpt>
      <trkpt lat="44.57286" lon="0.85454">
        <ele>175.8</ele>
        <time>2021-12-19T08:03:44Z</time>
      </trkpt>
      <trkpt lat="44.5729" lon="0.8545">
        <ele>176.1</ele>
        <time>2021-12-19T08:03:46Z</time>
      </trkpt>
      <trkpt lat="44.57293" lon="0.85444">
        <ele>176.1</ele>
        <time>2021-12-19T08:03:48Z</time>
      </trkpt>
      <trkpt lat="44.57302" lon="0.85444">
        <ele>176.5</ele>
        <time>2021-12-19T08:03:51Z</time>
      </trkpt>
      <trkpt lat="44.57318" lon="0.85447">
        <ele>177.2</ele>
        <time>2021-12-19T08:03:56Z</time>
      </trkpt>
      <trkpt lat="44.57336" lon="0.85455">
        <ele>178</ele>
        <time>2021-12-19T08:04:01Z</time>
      </trkpt>
      <trkpt lat="44.57344" lon="0.85455">
        <ele>178.2</ele>
        <time>2021-12-19T08:04:03Z</time>
      </trkpt>
      <trkpt lat="44.57347" lon="0.85452">
        <ele>178.3</ele>
        <time>2021-12-19T08:04:04Z</time>
      </trkpt>
      <trkpt lat="44.57353" lon="0.85444">
        <ele>178.2</ele>
        <time>2021-12-19T08:04:07Z</time>
      </trkpt>
      <trkpt lat="44.57359" lon="0.85444">
        <ele>178.2</ele>
        <time>2021-12-19T08:04:09Z</time>
      </trkpt>
      <trkpt lat="44.57363" lon="0.85446">
        <ele>178.4</ele>
        <time>2021-12-19T08:04:10Z</time>
      </trkpt>
      <trkpt lat="44.57384" lon="0.85444">
        <ele>179.7</ele>
        <time>2021-12-19T08:04:15Z</time>
      </trkpt>
      <trkpt lat="44.5739" lon="0.85447">
        <ele>180.1</ele>
        <time>2021-12-19T08:04:17Z</time>
      </trkpt>
      <trkpt lat="44.57391" lon="0.85451">
        <ele>180.2</ele>
        <time>2021-12-19T08:04:18Z</time>
      </trkpt>
      <trkpt lat="44.57393" lon="0.8546">
        <ele>180.4</ele>
        <time>2021-12-19T08:04:20Z</time>
      </trkpt>
      <trkpt lat="44.57395" lon="0.85463">
        <ele>180.5</ele>
        <time>2021-12-19T08:04:21Z</time>
      </trkpt>
      <trkpt lat="44.57404" lon="0.8547">
        <ele>180.8</ele>
        <time>2021-12-19T08:04:24Z</time>
      </trkpt>
      <trkpt lat="44.57406" lon="0.85475">
        <ele>180.9</ele>
        <time>2021-12-19T08:04:25Z</time>
      </trkpt>
      <trkpt lat="44.57408" lon="0.855">
        <ele>181.6</ele>
        <time>2021-12-19T08:04:30Z</time>
      </trkpt>
      <trkpt lat="44.57409" lon="0.8553">
        <ele>182.8</ele>
        <time>2021-12-19T08:04:36Z</time>
      </trkpt>
      <trkpt lat="44.57408" lon="0.85559">
        <ele>184.1</ele>
        <time>2021-12-19T08:04:42Z</time>
      </trkpt>
      <trkpt lat="44.57408" lon="0.85583">
        <ele>184.9</ele>
        <time>2021-12-19T08:04:47Z</time>
      </trkpt>
      <trkpt lat="44.57408" lon="0.85612">
        <ele>185.7</ele>
        <time>2021-12-19T08:04:53Z</time>
      </trkpt>
      <trkpt lat="44.5741" lon="0.85644">
        <ele>186.4</ele>
        <time>2021-12-19T08:04:59Z</time>
      </trkpt>
      <trkpt lat="44.57411" lon="0.85678">
        <ele>187.1</ele>
        <time>2021-12-19T08:05:06Z</time>
      </trkpt>
      <trkpt lat="44.57411" lon="0.85706">
        <ele>187.2</ele>
        <time>2021-12-19T08:05:11Z</time>
      </trkpt>
      <trkpt lat="44.57411" lon="0.85718">
        <ele>187.1</ele>
        <time>2021-12-19T08:05:13Z</time>
      </trkpt>
      <trkpt lat="44.57411" lon="0.85731">
        <ele>187</ele>
        <time>2021-12-19T08:05:15Z</time>
      </trkpt>
      <trkpt lat="44.57412" lon="0.85737">
        <ele>186.9</ele>
        <time>2021-12-19T08:05:16Z</time>
      </trkpt>
      <trkpt lat="44.57412" lon="0.85745">
        <ele>186.9</ele>
        <time>2021-12-19T08:05:17Z</time>
      </trkpt>
      <trkpt lat="44.57412" lon="0.85759">
        <ele>186.8</ele>
        <time>2021-12-19T08:05:19Z</time>
      </trkpt>
      <trkpt lat="44.57412" lon="0.85772">
        <ele>186.9</ele>
        <time>2021-12-19T08:05:21Z</time>
      </trkpt>
      <trkpt lat="44.57412" lon="0.85786">
        <ele>187</ele>
        <time>2021-12-19T08:05:23Z</time>
      </trkpt>
      <trkpt lat="44.57411" lon="0.85792">
        <ele>187.1</ele>
        <time>2021-12-19T08:05:24Z</time>
      </trkpt>
      <trkpt lat="44.5741" lon="0.85798">
        <ele>187.1</ele>
        <time>2021-12-19T08:05:25Z</time>
      </trkpt>
      <trkpt lat="44.57405" lon="0.85821">
        <ele>187.3</ele>
        <time>2021-12-19T08:05:29Z</time>
      </trkpt>
      <trkpt lat="44.57399" lon="0.85839">
        <ele>187.5</ele>
        <time>2021-12-19T08:05:33Z</time>
      </trkpt>
      <trkpt lat="44.57396" lon="0.85863">
        <ele>187.9</ele>
        <time>2021-12-19T08:05:39Z</time>
      </trkpt>
      <trkpt lat="44.57393" lon="0.85879">
        <ele>188.2</ele>
        <time>2021-12-19T08:05:45Z</time>
      </trkpt>
      <trkpt lat="44.57386" lon="0.85893">
        <ele>188.4</ele>
        <time>2021-12-19T08:05:51Z</time>
      </trkpt>
      <trkpt lat="44.57381" lon="0.85909">
        <ele>188.6</ele>
        <time>2021-12-19T08:05:57Z</time>
      </trkpt>
      <trkpt lat="44.5738" lon="0.85911">
        <ele>188.7</ele>
        <time>2021-12-19T08:05:59Z</time>
      </trkpt>
      <trkpt lat="44.57378" lon="0.85912">
        <ele>188.9</ele>
        <time>2021-12-19T08:06:01Z</time>
      </trkpt>
      <trkpt lat="44.57378" lon="0.85919">
        <ele>189</ele>
        <time>2021-12-19T08:06:05Z</time>
      </trkpt>
      <trkpt lat="44.57379" lon="0.85919">
        <ele>189</ele>
        <time>2021-12-19T08:06:06Z</time>
      </trkpt>
      <trkpt lat="44.5738" lon="0.85916">
        <ele>189.1</ele>
        <time>2021-12-19T08:06:09Z</time>
      </trkpt>
      <trkpt lat="44.5738" lon="0.85913">
        <ele>189.1</ele>
        <time>2021-12-19T08:06:10Z</time>
      </trkpt>
      <trkpt lat="44.57379" lon="0.85913">
        <ele>189.2</ele>
        <time>2021-12-19T08:06:12Z</time>
      </trkpt>
      <trkpt lat="44.57378" lon="0.85915">
        <ele>189.2</ele>
        <time>2021-12-19T08:06:13Z</time>
      </trkpt>
      <trkpt lat="44.57374" lon="0.85932">
        <ele>189.7</ele>
        <time>2021-12-19T08:06:20Z</time>
      </trkpt>
      <trkpt lat="44.57367" lon="0.85955">
        <ele>190.3</ele>
        <time>2021-12-19T08:06:26Z</time>
      </trkpt>
      <trkpt lat="44.57357" lon="0.85977">
        <ele>190.9</ele>
        <time>2021-12-19T08:06:32Z</time>
      </trkpt>
      <trkpt lat="44.57347" lon="0.85998">
        <ele>191.5</ele>
        <time>2021-12-19T08:06:37Z</time>
      </trkpt>
      <trkpt lat="44.57329" lon="0.86035">
        <ele>192.2</ele>
        <time>2021-12-19T08:06:45Z</time>
      </trkpt>
      <trkpt lat="44.57322" lon="0.86064">
        <ele>193</ele>
        <time>2021-12-19T08:06:51Z</time>
      </trkpt>
      <trkpt lat="44.57321" lon="0.86073">
        <ele>193.3</ele>
        <time>2021-12-19T08:06:54Z</time>
      </trkpt>
      <trkpt lat="44.57321" lon="0.86076">
        <ele>193.4</ele>
        <time>2021-12-19T08:06:55Z</time>
      </trkpt>
      <trkpt lat="44.57316" lon="0.86107">
        <ele>194.3</ele>
        <time>2021-12-19T08:07:00Z</time>
      </trkpt>
      <trkpt lat="44.57316" lon="0.86129">
        <ele>194.9</ele>
        <time>2021-12-19T08:07:04Z</time>
      </trkpt>
      <trkpt lat="44.57319" lon="0.86162">
        <ele>195.8</ele>
        <time>2021-12-19T08:07:10Z</time>
      </trkpt>
      <trkpt lat="44.5732" lon="0.86168">
        <ele>195.9</ele>
        <time>2021-12-19T08:07:11Z</time>
      </trkpt>
      <trkpt lat="44.57321" lon="0.86189">
        <ele>196.5</ele>
        <time>2021-12-19T08:07:15Z</time>
      </trkpt>
      <trkpt lat="44.57322" lon="0.86227">
        <ele>197.6</ele>
        <time>2021-12-19T08:07:22Z</time>
      </trkpt>
      <trkpt lat="44.57324" lon="0.86254">
        <ele>198.4</ele>
        <time>2021-12-19T08:07:27Z</time>
      </trkpt>
      <trkpt lat="44.57327" lon="0.8628">
        <ele>199</ele>
        <time>2021-12-19T08:07:32Z</time>
      </trkpt>
      <trkpt lat="44.57331" lon="0.86309">
        <ele>199.3</ele>
        <time>2021-12-19T08:07:37Z</time>
      </trkpt>
      <trkpt lat="44.57333" lon="0.86326">
        <ele>199.4</ele>
        <time>2021-12-19T08:07:40Z</time>
      </trkpt>
      <trkpt lat="44.57334" lon="0.86337">
        <ele>199.4</ele>
        <time>2021-12-19T08:07:42Z</time>
      </trkpt>
      <trkpt lat="44.57335" lon="0.86356">
        <ele>199.5</ele>
        <time>2021-12-19T08:07:45Z</time>
      </trkpt>
      <trkpt lat="44.57338" lon="0.86375">
        <ele>199.6</ele>
        <time>2021-12-19T08:07:48Z</time>
      </trkpt>
      <trkpt lat="44.57343" lon="0.86395">
        <ele>199.8</ele>
        <time>2021-12-19T08:07:51Z</time>
      </trkpt>
      <trkpt lat="44.57347" lon="0.86407">
        <ele>199.9</ele>
        <time>2021-12-19T08:07:53Z</time>
      </trkpt>
      <trkpt lat="44.57356" lon="0.86432">
        <ele>200</ele>
        <time>2021-12-19T08:07:57Z</time>
      </trkpt>
      <trkpt lat="44.57358" lon="0.86438">
        <ele>200</ele>
        <time>2021-12-19T08:07:58Z</time>
      </trkpt>
      <trkpt lat="44.57359" lon="0.86444">
        <ele>200.1</ele>
        <time>2021-12-19T08:07:59Z</time>
      </trkpt>
      <trkpt lat="44.57359" lon="0.86464">
        <ele>200.1</ele>
        <time>2021-12-19T08:08:02Z</time>
      </trkpt>
      <trkpt lat="44.57358" lon="0.8647">
        <ele>200.1</ele>
        <time>2021-12-19T08:08:03Z</time>
      </trkpt>
      <trkpt lat="44.57352" lon="0.865">
        <ele>200.1</ele>
        <time>2021-12-19T08:08:08Z</time>
      </trkpt>
      <trkpt lat="44.57342" lon="0.86533">
        <ele>200.1</ele>
        <time>2021-12-19T08:08:13Z</time>
      </trkpt>
      <trkpt lat="44.57326" lon="0.86578">
        <ele>200.2</ele>
        <time>2021-12-19T08:08:20Z</time>
      </trkpt>
      <trkpt lat="44.57304" lon="0.86633">
        <ele>200.1</ele>
        <time>2021-12-19T08:08:29Z</time>
      </trkpt>
      <trkpt lat="44.57299" lon="0.86646">
        <ele>199.9</ele>
        <time>2021-12-19T08:08:31Z</time>
      </trkpt>
      <trkpt lat="44.57291" lon="0.86666">
        <ele>199.6</ele>
        <time>2021-12-19T08:08:34Z</time>
      </trkpt>
      <trkpt lat="44.57273" lon="0.86712">
        <ele>198.9</ele>
        <time>2021-12-19T08:08:41Z</time>
      </trkpt>
      <trkpt lat="44.57261" lon="0.86739">
        <ele>198.6</ele>
        <time>2021-12-19T08:08:45Z</time>
      </trkpt>
      <trkpt lat="44.57254" lon="0.86752">
        <ele>198.6</ele>
        <time>2021-12-19T08:08:47Z</time>
      </trkpt>
      <trkpt lat="44.57251" lon="0.86758">
        <ele>198.7</ele>
        <time>2021-12-19T08:08:48Z</time>
      </trkpt>
      <trkpt lat="44.57244" lon="0.86778">
        <ele>198.8</ele>
        <time>2021-12-19T08:08:51Z</time>
      </trkpt>
      <trkpt lat="44.57234" lon="0.86814">
        <ele>199</ele>
        <time>2021-12-19T08:08:56Z</time>
      </trkpt>
      <trkpt lat="44.5723" lon="0.86829">
        <ele>199</ele>
        <time>2021-12-19T08:08:58Z</time>
      </trkpt>
      <trkpt lat="44.57226" lon="0.86844">
        <ele>198.9</ele>
        <time>2021-12-19T08:09:00Z</time>
      </trkpt>
      <trkpt lat="44.57217" lon="0.86873">
        <ele>198.6</ele>
        <time>2021-12-19T08:09:04Z</time>
      </trkpt>
      <trkpt lat="44.57211" lon="0.86885">
        <ele>198.3</ele>
        <time>2021-12-19T08:09:06Z</time>
      </trkpt>
      <trkpt lat="44.57197" lon="0.86895">
        <ele>198.5</ele>
        <time>2021-12-19T08:09:10Z</time>
      </trkpt>
      <trkpt lat="44.57195" lon="0.86905">
        <ele>198.6</ele>
        <time>2021-12-19T08:09:13Z</time>
      </trkpt>
      <trkpt lat="44.57195" lon="0.86911">
        <ele>198.6</ele>
        <time>2021-12-19T08:09:15Z</time>
      </trkpt>
      <trkpt lat="44.57194" lon="0.86914">
        <ele>198.7</ele>
        <time>2021-12-19T08:09:16Z</time>
      </trkpt>
      <trkpt lat="44.57183" lon="0.86929">
        <ele>198.7</ele>
        <time>2021-12-19T08:09:21Z</time>
      </trkpt>
      <trkpt lat="44.57181" lon="0.86937">
        <ele>198.8</ele>
        <time>2021-12-19T08:09:23Z</time>
      </trkpt>
      <trkpt lat="44.57177" lon="0.86944">
        <ele>198.8</ele>
        <time>2021-12-19T08:09:25Z</time>
      </trkpt>
      <trkpt lat="44.57175" lon="0.86947">
        <ele>198.9</ele>
        <time>2021-12-19T08:09:26Z</time>
      </trkpt>
      <trkpt lat="44.57174" lon="0.8696">
        <ele>199</ele>
        <time>2021-12-19T08:09:29Z</time>
      </trkpt>
      <trkpt lat="44.57173" lon="0.86985">
        <ele>199.3</ele>
        <time>2021-12-19T08:09:34Z</time>
      </trkpt>
      <trkpt lat="44.57172" lon="0.86989">
        <ele>199.3</ele>
        <time>2021-12-19T08:09:35Z</time>
      </trkpt>
      <trkpt lat="44.57167" lon="0.86996">
        <ele>199.3</ele>
        <time>2021-12-19T08:09:39Z</time>
      </trkpt>
      <trkpt lat="44.57162" lon="0.87">
        <ele>199.2</ele>
        <time>2021-12-19T08:09:43Z</time>
      </trkpt>
      <trkpt lat="44.57161" lon="0.87">
        <ele>199.2</ele>
        <time>2021-12-19T08:09:44Z</time>
      </trkpt>
      <trkpt lat="44.57151" lon="0.87">
        <ele>199</ele>
        <time>2021-12-19T08:09:49Z</time>
      </trkpt>
      <trkpt lat="44.57138" lon="0.87011">
        <ele>198.9</ele>
        <time>2021-12-19T08:09:54Z</time>
      </trkpt>
      <trkpt lat="44.57129" lon="0.87023">
        <ele>199.1</ele>
        <time>2021-12-19T08:09:59Z</time>
      </trkpt>
      <trkpt lat="44.57122" lon="0.8703">
        <ele>199.2</ele>
        <time>2021-12-19T08:10:03Z</time>
      </trkpt>
      <trkpt lat="44.57119" lon="0.87036">
        <ele>199.2</ele>
        <time>2021-12-19T08:10:05Z</time>
      </trkpt>
      <trkpt lat="44.57111" lon="0.8705">
        <ele>199.3</ele>
        <time>2021-12-19T08:10:08Z</time>
      </trkpt>
      <trkpt lat="44.57092" lon="0.87071">
        <ele>199.4</ele>
        <time>2021-12-19T08:10:14Z</time>
      </trkpt>
      <trkpt lat="44.57067" lon="0.87095">
        <ele>199.7</ele>
        <time>2021-12-19T08:10:21Z</time>
      </trkpt>
      <trkpt lat="44.57042" lon="0.8711">
        <ele>200.2</ele>
        <time>2021-12-19T08:10:27Z</time>
      </trkpt>
      <trkpt lat="44.57034" lon="0.87115">
        <ele>200.3</ele>
        <time>2021-12-19T08:10:29Z</time>
      </trkpt>
      <trkpt lat="44.5702" lon="0.8712">
        <ele>200.5</ele>
        <time>2021-12-19T08:10:32Z</time>
      </trkpt>
      <trkpt lat="44.57011" lon="0.87126">
        <ele>200.5</ele>
        <time>2021-12-19T08:10:34Z</time>
      </trkpt>
      <trkpt lat="44.56996" lon="0.87133">
        <ele>200.6</ele>
        <time>2021-12-19T08:10:37Z</time>
      </trkpt>
      <trkpt lat="44.56991" lon="0.87135">
        <ele>200.7</ele>
        <time>2021-12-19T08:10:38Z</time>
      </trkpt>
      <trkpt lat="44.5697" lon="0.87139">
        <ele>200.9</ele>
        <time>2021-12-19T08:10:42Z</time>
      </trkpt>
      <trkpt lat="44.56959" lon="0.8714">
        <ele>201</ele>
        <time>2021-12-19T08:10:44Z</time>
      </trkpt>
      <trkpt lat="44.56912" lon="0.87148">
        <ele>201.2</ele>
        <time>2021-12-19T08:10:53Z</time>
      </trkpt>
      <trkpt lat="44.56868" lon="0.87154">
        <ele>201.2</ele>
        <time>2021-12-19T08:11:01Z</time>
      </trkpt>
      <trkpt lat="44.56829" lon="0.87157">
        <ele>201</ele>
        <time>2021-12-19T08:11:08Z</time>
      </trkpt>
      <trkpt lat="44.56795" lon="0.87168">
        <ele>201.3</ele>
        <time>2021-12-19T08:11:14Z</time>
      </trkpt>
      <trkpt lat="44.56757" lon="0.87178">
        <ele>202.1</ele>
        <time>2021-12-19T08:11:21Z</time>
      </trkpt>
      <trkpt lat="44.56741" lon="0.87183">
        <ele>202.5</ele>
        <time>2021-12-19T08:11:24Z</time>
      </trkpt>
      <trkpt lat="44.56719" lon="0.87187">
        <ele>203.1</ele>
        <time>2021-12-19T08:11:28Z</time>
      </trkpt>
      <trkpt lat="44.56681" lon="0.87197">
        <ele>203.3</ele>
        <time>2021-12-19T08:11:36Z</time>
      </trkpt>
      <trkpt lat="44.56655" lon="0.87202">
        <ele>201.4</ele>
        <time>2021-12-19T08:11:41Z</time>
      </trkpt>
      <trkpt lat="44.56626" lon="0.87207">
        <ele>199.6</ele>
        <time>2021-12-19T08:11:45Z</time>
      </trkpt>
      <trkpt lat="44.56618" lon="0.87207">
        <ele>199.1</ele>
        <time>2021-12-19T08:11:46Z</time>
      </trkpt>
      <trkpt lat="44.56573" lon="0.87207">
        <ele>197.2</ele>
        <time>2021-12-19T08:11:52Z</time>
      </trkpt>
      <trkpt lat="44.56566" lon="0.87208">
        <ele>196.9</ele>
        <time>2021-12-19T08:11:53Z</time>
      </trkpt>
      <trkpt lat="44.56544" lon="0.87208">
        <ele>196.1</ele>
        <time>2021-12-19T08:11:56Z</time>
      </trkpt>
      <trkpt lat="44.56491" lon="0.87211">
        <ele>195.8</ele>
        <time>2021-12-19T08:12:03Z</time>
      </trkpt>
      <trkpt lat="44.56477" lon="0.87211">
        <ele>196.3</ele>
        <time>2021-12-19T08:12:05Z</time>
      </trkpt>
      <trkpt lat="44.56464" lon="0.87211">
        <ele>197</ele>
        <time>2021-12-19T08:12:07Z</time>
      </trkpt>
      <trkpt lat="44.56452" lon="0.87211">
        <ele>197.7</ele>
        <time>2021-12-19T08:12:09Z</time>
      </trkpt>
      <trkpt lat="44.5644" lon="0.8721">
        <ele>198.4</ele>
        <time>2021-12-19T08:12:11Z</time>
      </trkpt>
      <trkpt lat="44.56434" lon="0.8721">
        <ele>198.6</ele>
        <time>2021-12-19T08:12:12Z</time>
      </trkpt>
      <trkpt lat="44.56412" lon="0.87214">
        <ele>199.2</ele>
        <time>2021-12-19T08:12:16Z</time>
      </trkpt>
      <trkpt lat="44.56377" lon="0.87222">
        <ele>197.7</ele>
        <time>2021-12-19T08:12:22Z</time>
      </trkpt>
      <trkpt lat="44.56339" lon="0.87241">
        <ele>195.6</ele>
        <time>2021-12-19T08:12:28Z</time>
      </trkpt>
      <trkpt lat="44.56304" lon="0.87261">
        <ele>194.5</ele>
        <time>2021-12-19T08:12:33Z</time>
      </trkpt>
      <trkpt lat="44.56298" lon="0.87264">
        <ele>194.3</ele>
        <time>2021-12-19T08:12:34Z</time>
      </trkpt>
      <trkpt lat="44.56276" lon="0.87268">
        <ele>194</ele>
        <time>2021-12-19T08:12:37Z</time>
      </trkpt>
      <trkpt lat="44.56243" lon="0.87274">
        <ele>193.6</ele>
        <time>2021-12-19T08:12:42Z</time>
      </trkpt>
      <trkpt lat="44.56237" lon="0.87274">
        <ele>193.5</ele>
        <time>2021-12-19T08:12:43Z</time>
      </trkpt>
      <trkpt lat="44.56203" lon="0.87278">
        <ele>193.2</ele>
        <time>2021-12-19T08:12:49Z</time>
      </trkpt>
      <trkpt lat="44.56197" lon="0.87278">
        <ele>193.1</ele>
        <time>2021-12-19T08:12:50Z</time>
      </trkpt>
      <trkpt lat="44.56185" lon="0.87277">
        <ele>192.9</ele>
        <time>2021-12-19T08:12:52Z</time>
      </trkpt>
      <trkpt lat="44.56161" lon="0.87275">
        <ele>192.5</ele>
        <time>2021-12-19T08:12:56Z</time>
      </trkpt>
      <trkpt lat="44.56113" lon="0.87266">
        <ele>191.8</ele>
        <time>2021-12-19T08:13:04Z</time>
      </trkpt>
      <trkpt lat="44.56083" lon="0.87264">
        <ele>191</ele>
        <time>2021-12-19T08:13:09Z</time>
      </trkpt>
      <trkpt lat="44.56037" lon="0.87265">
        <ele>188.5</ele>
        <time>2021-12-19T08:13:16Z</time>
      </trkpt>
      <trkpt lat="44.55983" lon="0.87264">
        <ele>184.8</ele>
        <time>2021-12-19T08:13:23Z</time>
      </trkpt>
      <trkpt lat="44.55927" lon="0.87266">
        <ele>180</ele>
        <time>2021-12-19T08:13:29Z</time>
      </trkpt>
      <trkpt lat="44.55865" lon="0.87275">
        <ele>174.5</ele>
        <time>2021-12-19T08:13:35Z</time>
      </trkpt>
      <trkpt lat="44.55809" lon="0.87285">
        <ele>169.5</ele>
        <time>2021-12-19T08:13:40Z</time>
      </trkpt>
      <trkpt lat="44.55798" lon="0.8729">
        <ele>168.7</ele>
        <time>2021-12-19T08:13:41Z</time>
      </trkpt>
      <trkpt lat="44.55769" lon="0.87314">
        <ele>167.4</ele>
        <time>2021-12-19T08:13:44Z</time>
      </trkpt>
      <trkpt lat="44.55719" lon="0.87367">
        <ele>167.2</ele>
        <time>2021-12-19T08:13:50Z</time>
      </trkpt>
      <trkpt lat="44.5568" lon="0.87412">
        <ele>167.9</ele>
        <time>2021-12-19T08:13:56Z</time>
      </trkpt>
      <trkpt lat="44.55652" lon="0.87437">
        <ele>168.1</ele>
        <time>2021-12-19T08:14:01Z</time>
      </trkpt>
      <trkpt lat="44.55647" lon="0.87441">
        <ele>168.2</ele>
        <time>2021-12-19T08:14:02Z</time>
      </trkpt>
      <trkpt lat="44.55646" lon="0.87449">
        <ele>168.3</ele>
        <time>2021-12-19T08:14:04Z</time>
      </trkpt>
      <trkpt lat="44.55655" lon="0.87459">
        <ele>168.5</ele>
        <time>2021-12-19T08:14:08Z</time>
      </trkpt>
      <trkpt lat="44.55663" lon="0.87473">
        <ele>168.7</ele>
        <time>2021-12-19T08:14:12Z</time>
      </trkpt>
      <trkpt lat="44.55675" lon="0.87487">
        <ele>168.9</ele>
        <time>2021-12-19T08:14:16Z</time>
      </trkpt>
      <trkpt lat="44.5569" lon="0.87503">
        <ele>168.5</ele>
        <time>2021-12-19T08:14:20Z</time>
      </trkpt>
      <trkpt lat="44.55694" lon="0.87512">
        <ele>168.2</ele>
        <time>2021-12-19T08:14:22Z</time>
      </trkpt>
      <trkpt lat="44.55694" lon="0.87518">
        <ele>167.9</ele>
        <time>2021-12-19T08:14:23Z</time>
      </trkpt>
      <trkpt lat="44.55694" lon="0.87524">
        <ele>167.6</ele>
        <time>2021-12-19T08:14:24Z</time>
      </trkpt>
      <trkpt lat="44.55691" lon="0.8754">
        <ele>166.8</ele>
        <time>2021-12-19T08:14:26Z</time>
      </trkpt>
      <trkpt lat="44.5569" lon="0.87551">
        <ele>166.3</ele>
        <time>2021-12-19T08:14:27Z</time>
      </trkpt>
      <trkpt lat="44.55685" lon="0.87595">
        <ele>166.6</ele>
        <time>2021-12-19T08:14:31Z</time>
      </trkpt>
      <trkpt lat="44.55679" lon="0.87638">
        <ele>168.3</ele>
        <time>2021-12-19T08:14:36Z</time>
      </trkpt>
      <trkpt lat="44.55678" lon="0.87676">
        <ele>169.6</ele>
        <time>2021-12-19T08:14:42Z</time>
      </trkpt>
      <trkpt lat="44.55689" lon="0.8769">
        <ele>170.1</ele>
        <time>2021-12-19T08:14:46Z</time>
      </trkpt>
      <trkpt lat="44.55701" lon="0.87702">
        <ele>170.7</ele>
        <time>2021-12-19T08:14:51Z</time>
      </trkpt>
      <trkpt lat="44.55719" lon="0.8772">
        <ele>171.1</ele>
        <time>2021-12-19T08:14:58Z</time>
      </trkpt>
      <trkpt lat="44.55734" lon="0.87736">
        <ele>171.4</ele>
        <time>2021-12-19T08:15:03Z</time>
      </trkpt>
      <trkpt lat="44.55741" lon="0.87744">
        <ele>171.7</ele>
        <time>2021-12-19T08:15:05Z</time>
      </trkpt>
      <trkpt lat="44.55748" lon="0.87752">
        <ele>172.1</ele>
        <time>2021-12-19T08:15:07Z</time>
      </trkpt>
      <trkpt lat="44.55765" lon="0.87767">
        <ele>173.3</ele>
        <time>2021-12-19T08:15:12Z</time>
      </trkpt>
      <trkpt lat="44.55788" lon="0.87787">
        <ele>175.5</ele>
        <time>2021-12-19T08:15:20Z</time>
      </trkpt>
      <trkpt lat="44.558" lon="0.87799">
        <ele>176.6</ele>
        <time>2021-12-19T08:15:25Z</time>
      </trkpt>
      <trkpt lat="44.55801" lon="0.87801">
        <ele>176.7</ele>
        <time>2021-12-19T08:15:26Z</time>
      </trkpt>
      <trkpt lat="44.55813" lon="0.87815">
        <ele>177.5</ele>
        <time>2021-12-19T08:15:32Z</time>
      </trkpt>
      <trkpt lat="44.55819" lon="0.87827">
        <ele>177.7</ele>
        <time>2021-12-19T08:15:37Z</time>
      </trkpt>
      <trkpt lat="44.55825" lon="0.87835">
        <ele>177.5</ele>
        <time>2021-12-19T08:15:42Z</time>
      </trkpt>
      <trkpt lat="44.55827" lon="0.87839">
        <ele>177.3</ele>
        <time>2021-12-19T08:15:56Z</time>
      </trkpt>
      <trkpt lat="44.55835" lon="0.87856">
        <ele>176.2</ele>
        <time>2021-12-19T08:16:00Z</time>
      </trkpt>
      <trkpt lat="44.55843" lon="0.87874">
        <ele>173.7</ele>
        <time>2021-12-19T08:16:04Z</time>
      </trkpt>
      <trkpt lat="44.55853" lon="0.87887">
        <ele>170.6</ele>
        <time>2021-12-19T08:16:08Z</time>
      </trkpt>
      <trkpt lat="44.55855" lon="0.87891">
        <ele>169.7</ele>
        <time>2021-12-19T08:16:09Z</time>
      </trkpt>
      <trkpt lat="44.55859" lon="0.87903">
        <ele>167.6</ele>
        <time>2021-12-19T08:16:11Z</time>
      </trkpt>
      <trkpt lat="44.55865" lon="0.87937">
        <ele>162.3</ele>
        <time>2021-12-19T08:16:16Z</time>
      </trkpt>
      <trkpt lat="44.55868" lon="0.87956">
        <ele>160</ele>
        <time>2021-12-19T08:16:20Z</time>
      </trkpt>
      <trkpt lat="44.55869" lon="0.87963">
        <ele>159.2</ele>
        <time>2021-12-19T08:16:23Z</time>
      </trkpt>
      <trkpt lat="44.55865" lon="0.87981">
        <ele>157.2</ele>
        <time>2021-12-19T08:17:26Z</time>
      </trkpt>
      <trkpt lat="44.55865" lon="0.87984">
        <ele>156.9</ele>
        <time>2021-12-19T08:17:27Z</time>
      </trkpt>
      <trkpt lat="44.55857" lon="0.87998">
        <ele>155</ele>
        <time>2021-12-19T08:17:32Z</time>
      </trkpt>
      <trkpt lat="44.55848" lon="0.88013">
        <ele>153</ele>
        <time>2021-12-19T08:17:37Z</time>
      </trkpt>
      <trkpt lat="44.55837" lon="0.8803">
        <ele>150.8</ele>
        <time>2021-12-19T08:17:42Z</time>
      </trkpt>
      <trkpt lat="44.55834" lon="0.88052">
        <ele>149.4</ele>
        <time>2021-12-19T08:17:46Z</time>
      </trkpt>
      <trkpt lat="44.55832" lon="0.8806">
        <ele>149.1</ele>
        <time>2021-12-19T08:17:47Z</time>
      </trkpt>
      <trkpt lat="44.55825" lon="0.88071">
        <ele>148.8</ele>
        <time>2021-12-19T08:17:49Z</time>
      </trkpt>
      <trkpt lat="44.55815" lon="0.88084">
        <ele>148.8</ele>
        <time>2021-12-19T08:17:52Z</time>
      </trkpt>
      <trkpt lat="44.5581" lon="0.88092">
        <ele>149</ele>
        <time>2021-12-19T08:17:54Z</time>
      </trkpt>
      <trkpt lat="44.55809" lon="0.88094">
        <ele>149.1</ele>
        <time>2021-12-19T08:17:56Z</time>
      </trkpt>
      <trkpt lat="44.55801" lon="0.8811">
        <ele>150</ele>
        <time>2021-12-19T08:18:07Z</time>
      </trkpt>
      <trkpt lat="44.55793" lon="0.88128">
        <ele>150.7</ele>
        <time>2021-12-19T08:18:12Z</time>
      </trkpt>
      <trkpt lat="44.5578" lon="0.88155">
        <ele>151.3</ele>
        <time>2021-12-19T08:18:17Z</time>
      </trkpt>
      <trkpt lat="44.55777" lon="0.88161">
        <ele>151.4</ele>
        <time>2021-12-19T08:18:18Z</time>
      </trkpt>
      <trkpt lat="44.55773" lon="0.8818">
        <ele>151.8</ele>
        <time>2021-12-19T08:18:21Z</time>
      </trkpt>
      <trkpt lat="44.55771" lon="0.88186">
        <ele>151.9</ele>
        <time>2021-12-19T08:18:22Z</time>
      </trkpt>
      <trkpt lat="44.55761" lon="0.8822">
        <ele>152.3</ele>
        <time>2021-12-19T08:18:28Z</time>
      </trkpt>
      <trkpt lat="44.5575" lon="0.88245">
        <ele>151.8</ele>
        <time>2021-12-19T08:18:32Z</time>
      </trkpt>
      <trkpt lat="44.55741" lon="0.88264">
        <ele>150.8</ele>
        <time>2021-12-19T08:18:35Z</time>
      </trkpt>
      <trkpt lat="44.55735" lon="0.88278">
        <ele>149.8</ele>
        <time>2021-12-19T08:18:37Z</time>
      </trkpt>
      <trkpt lat="44.55727" lon="0.88297">
        <ele>148.1</ele>
        <time>2021-12-19T08:18:40Z</time>
      </trkpt>
      <trkpt lat="44.55721" lon="0.88308">
        <ele>146.9</ele>
        <time>2021-12-19T08:18:42Z</time>
      </trkpt>
      <trkpt lat="44.55707" lon="0.88339">
        <ele>143</ele>
        <time>2021-12-19T08:18:48Z</time>
      </trkpt>
      <trkpt lat="44.55693" lon="0.88356">
        <ele>140.7</ele>
        <time>2021-12-19T08:18:52Z</time>
      </trkpt>
      <trkpt lat="44.55681" lon="0.88367">
        <ele>138.9</ele>
        <time>2021-12-19T08:18:56Z</time>
      </trkpt>
      <trkpt lat="44.55667" lon="0.8838">
        <ele>136.8</ele>
        <time>2021-12-19T08:19:00Z</time>
      </trkpt>
      <trkpt lat="44.55656" lon="0.88394">
        <ele>134.9</ele>
        <time>2021-12-19T08:19:04Z</time>
      </trkpt>
      <trkpt lat="44.55654" lon="0.884">
        <ele>134.3</ele>
        <time>2021-12-19T08:19:06Z</time>
      </trkpt>
      <trkpt lat="44.55655" lon="0.88404">
        <ele>133.9</ele>
        <time>2021-12-19T08:19:07Z</time>
      </trkpt>
      <trkpt lat="44.55659" lon="0.88416">
        <ele>132.7</ele>
        <time>2021-12-19T08:19:10Z</time>
      </trkpt>
      <trkpt lat="44.55662" lon="0.88419">
        <ele>132.2</ele>
        <time>2021-12-19T08:19:11Z</time>
      </trkpt>
      <trkpt lat="44.55677" lon="0.88434">
        <ele>130.3</ele>
        <time>2021-12-19T08:19:16Z</time>
      </trkpt>
      <trkpt lat="44.55687" lon="0.88438">
        <ele>129.2</ele>
        <time>2021-12-19T08:19:19Z</time>
      </trkpt>
      <trkpt lat="44.5569" lon="0.88437">
        <ele>128.8</ele>
        <time>2021-12-19T08:19:20Z</time>
      </trkpt>
      <trkpt lat="44.55703" lon="0.88434">
        <ele>127.4</ele>
        <time>2021-12-19T08:19:24Z</time>
      </trkpt>
      <trkpt lat="44.5572" lon="0.8842">
        <ele>125.4</ele>
        <time>2021-12-19T08:19:30Z</time>
      </trkpt>
      <trkpt lat="44.55726" lon="0.88414">
        <ele>124.7</ele>
        <time>2021-12-19T08:19:34Z</time>
      </trkpt>
      <trkpt lat="44.5573" lon="0.88409">
        <ele>124.2</ele>
        <time>2021-12-19T08:19:40Z</time>
      </trkpt>
      <trkpt lat="44.55732" lon="0.88406">
        <ele>123.8</ele>
        <time>2021-12-19T08:19:41Z</time>
      </trkpt>
      <trkpt lat="44.55735" lon="0.88403">
        <ele>123.4</ele>
        <time>2021-12-19T08:19:42Z</time>
      </trkpt>
      <trkpt lat="44.55749" lon="0.88387">
        <ele>121.1</ele>
        <time>2021-12-19T08:19:46Z</time>
      </trkpt>
      <trkpt lat="44.55759" lon="0.88374">
        <ele>119.3</ele>
        <time>2021-12-19T08:19:49Z</time>
      </trkpt>
      <trkpt lat="44.55768" lon="0.88363">
        <ele>117.8</ele>
        <time>2021-12-19T08:19:51Z</time>
      </trkpt>
      <trkpt lat="44.55776" lon="0.88352">
        <ele>116.8</ele>
        <time>2021-12-19T08:19:53Z</time>
      </trkpt>
      <trkpt lat="44.55783" lon="0.88346">
        <ele>116.2</ele>
        <time>2021-12-19T08:19:55Z</time>
      </trkpt>
      <trkpt lat="44.55785" lon="0.88348">
        <ele>116</ele>
        <time>2021-12-19T08:19:56Z</time>
      </trkpt>
      <trkpt lat="44.55793" lon="0.88363">
        <ele>115.2</ele>
        <time>2021-12-19T08:19:59Z</time>
      </trkpt>
      <trkpt lat="44.55797" lon="0.88368">
        <ele>115.6</ele>
        <time>2021-12-19T08:20:00Z</time>
      </trkpt>
      <trkpt lat="44.5581" lon="0.88373">
        <ele>116.9</ele>
        <time>2021-12-19T08:20:02Z</time>
      </trkpt>
      <trkpt lat="44.55824" lon="0.88376">
        <ele>119</ele>
        <time>2021-12-19T08:20:05Z</time>
      </trkpt>
      <trkpt lat="44.55835" lon="0.88373">
        <ele>119.8</ele>
        <time>2021-12-19T08:20:09Z</time>
      </trkpt>
      <trkpt lat="44.55843" lon="0.88369">
        <ele>119.8</ele>
        <time>2021-12-19T08:20:11Z</time>
      </trkpt>
      <trkpt lat="44.55852" lon="0.88365">
        <ele>119.8</ele>
        <time>2021-12-19T08:20:13Z</time>
      </trkpt>
      <trkpt lat="44.55867" lon="0.88368">
        <ele>119.9</ele>
        <time>2021-12-19T08:20:17Z</time>
      </trkpt>
      <trkpt lat="44.55872" lon="0.88369">
        <ele>119.9</ele>
        <time>2021-12-19T08:20:19Z</time>
      </trkpt>
      <trkpt lat="44.55873" lon="0.88368">
        <ele>119.9</ele>
        <time>2021-12-19T08:20:20Z</time>
      </trkpt>
      <trkpt lat="44.55869" lon="0.88367">
        <ele>119.9</ele>
        <time>2021-12-19T08:20:23Z</time>
      </trkpt>
      <trkpt lat="44.55856" lon="0.88363">
        <ele>120</ele>
        <time>2021-12-19T08:20:28Z</time>
      </trkpt>
      <trkpt lat="44.55846" lon="0.88365">
        <ele>120.1</ele>
        <time>2021-12-19T08:20:33Z</time>
      </trkpt>
      <trkpt lat="44.55833" lon="0.88377">
        <ele>120.1</ele>
        <time>2021-12-19T08:20:40Z</time>
      </trkpt>
      <trkpt lat="44.55829" lon="0.88378">
        <ele>120.1</ele>
        <time>2021-12-19T08:20:42Z</time>
      </trkpt>
      <trkpt lat="44.55826" lon="0.88378">
        <ele>120.2</ele>
        <time>2021-12-19T08:20:44Z</time>
      </trkpt>
      <trkpt lat="44.55829" lon="0.88382">
        <ele>120.2</ele>
        <time>2021-12-19T08:20:47Z</time>
      </trkpt>
      <trkpt lat="44.55831" lon="0.88381">
        <ele>120.2</ele>
        <time>2021-12-19T08:20:48Z</time>
      </trkpt>
      <trkpt lat="44.55832" lon="0.88375">
        <ele>120.2</ele>
        <time>2021-12-19T08:20:50Z</time>
      </trkpt>
      <trkpt lat="44.55832" lon="0.8837">
        <ele>120.2</ele>
        <time>2021-12-19T08:20:54Z</time>
      </trkpt>
      <trkpt lat="44.55839" lon="0.88366">
        <ele>120.3</ele>
        <time>2021-12-19T08:21:27Z</time>
      </trkpt>
      <trkpt lat="44.55851" lon="0.88365">
        <ele>120.3</ele>
        <time>2021-12-19T08:21:32Z</time>
      </trkpt>
      <trkpt lat="44.55873" lon="0.88368">
        <ele>120.5</ele>
        <time>2021-12-19T08:21:38Z</time>
      </trkpt>
      <trkpt lat="44.55881" lon="0.88372">
        <ele>120.5</ele>
        <time>2021-12-19T08:21:40Z</time>
      </trkpt>
      <trkpt lat="44.55888" lon="0.88377">
        <ele>120.5</ele>
        <time>2021-12-19T08:21:42Z</time>
      </trkpt>
      <trkpt lat="44.55895" lon="0.88384">
        <ele>120.6</ele>
        <time>2021-12-19T08:21:44Z</time>
      </trkpt>
      <trkpt lat="44.5592" lon="0.88414">
        <ele>120.7</ele>
        <time>2021-12-19T08:21:51Z</time>
      </trkpt>
      <trkpt lat="44.55944" lon="0.88449">
        <ele>120.8</ele>
        <time>2021-12-19T08:21:58Z</time>
      </trkpt>
      <trkpt lat="44.55967" lon="0.88487">
        <ele>120.8</ele>
        <time>2021-12-19T08:22:05Z</time>
      </trkpt>
      <trkpt lat="44.55985" lon="0.88521">
        <ele>120.7</ele>
        <time>2021-12-19T08:22:11Z</time>
      </trkpt>
      <trkpt lat="44.56004" lon="0.88563">
        <ele>120.7</ele>
        <time>2021-12-19T08:22:18Z</time>
      </trkpt>
      <trkpt lat="44.5601" lon="0.8858">
        <ele>120.7</ele>
        <time>2021-12-19T08:22:21Z</time>
      </trkpt>
      <trkpt lat="44.56011" lon="0.88593">
        <ele>121</ele>
        <time>2021-12-19T08:22:23Z</time>
      </trkpt>
      <trkpt lat="44.56011" lon="0.88599">
        <ele>121.1</ele>
        <time>2021-12-19T08:22:24Z</time>
      </trkpt>
      <trkpt lat="44.56009" lon="0.88632">
        <ele>121.8</ele>
        <time>2021-12-19T08:22:29Z</time>
      </trkpt>
      <trkpt lat="44.56005" lon="0.88686">
        <ele>122.6</ele>
        <time>2021-12-19T08:22:37Z</time>
      </trkpt>
      <trkpt lat="44.55999" lon="0.88704">
        <ele>123.2</ele>
        <time>2021-12-19T08:22:40Z</time>
      </trkpt>
      <trkpt lat="44.55991" lon="0.88718">
        <ele>123.9</ele>
        <time>2021-12-19T08:22:43Z</time>
      </trkpt>
      <trkpt lat="44.55977" lon="0.88752">
        <ele>125.7</ele>
        <time>2021-12-19T08:22:50Z</time>
      </trkpt>
      <trkpt lat="44.55976" lon="0.88757">
        <ele>126</ele>
        <time>2021-12-19T08:22:51Z</time>
      </trkpt>
      <trkpt lat="44.55975" lon="0.88762">
        <ele>126.4</ele>
        <time>2021-12-19T08:22:52Z</time>
      </trkpt>
      <trkpt lat="44.55976" lon="0.88785">
        <ele>127.8</ele>
        <time>2021-12-19T08:22:56Z</time>
      </trkpt>
      <trkpt lat="44.55981" lon="0.88815">
        <ele>129.8</ele>
        <time>2021-12-19T08:23:02Z</time>
      </trkpt>
      <trkpt lat="44.55989" lon="0.88842">
        <ele>131.9</ele>
        <time>2021-12-19T08:23:08Z</time>
      </trkpt>
      <trkpt lat="44.56004" lon="0.88869">
        <ele>134.6</ele>
        <time>2021-12-19T08:23:15Z</time>
      </trkpt>
      <trkpt lat="44.56013" lon="0.88884">
        <ele>136.1</ele>
        <time>2021-12-19T08:23:20Z</time>
      </trkpt>
      <trkpt lat="44.56025" lon="0.88899">
        <ele>137.6</ele>
        <time>2021-12-19T08:23:25Z</time>
      </trkpt>
      <trkpt lat="44.56044" lon="0.88915">
        <ele>139.6</ele>
        <time>2021-12-19T08:23:31Z</time>
      </trkpt>
      <trkpt lat="44.56068" lon="0.88933">
        <ele>142</ele>
        <time>2021-12-19T08:23:38Z</time>
      </trkpt>
      <trkpt lat="44.56091" lon="0.88951">
        <ele>144.3</ele>
        <time>2021-12-19T08:23:45Z</time>
      </trkpt>
      <trkpt lat="44.56114" lon="0.88966">
        <ele>146.6</ele>
        <time>2021-12-19T08:23:53Z</time>
      </trkpt>
      <trkpt lat="44.56129" lon="0.88976">
        <ele>148</ele>
        <time>2021-12-19T08:23:59Z</time>
      </trkpt>
      <trkpt lat="44.56134" lon="0.88981">
        <ele>148.6</ele>
        <time>2021-12-19T08:24:04Z</time>
      </trkpt>
      <trkpt lat="44.56136" lon="0.88984">
        <ele>148.9</ele>
        <time>2021-12-19T08:24:06Z</time>
      </trkpt>
      <trkpt lat="44.56144" lon="0.88997">
        <ele>150.1</ele>
        <time>2021-12-19T08:24:14Z</time>
      </trkpt>
      <trkpt lat="44.5615" lon="0.89009">
        <ele>151.1</ele>
        <time>2021-12-19T08:24:20Z</time>
      </trkpt>
      <trkpt lat="44.56156" lon="0.89027">
        <ele>152.4</ele>
        <time>2021-12-19T08:24:28Z</time>
      </trkpt>
      <trkpt lat="44.56158" lon="0.89034">
        <ele>153.4</ele>
        <time>2021-12-19T08:24:31Z</time>
      </trkpt>
      <trkpt lat="44.56163" lon="0.8904">
        <ele>153.8</ele>
        <time>2021-12-19T08:24:34Z</time>
      </trkpt>
      <trkpt lat="44.56173" lon="0.89045">
        <ele>154.6</ele>
        <time>2021-12-19T08:24:40Z</time>
      </trkpt>
      <trkpt lat="44.56187" lon="0.89042">
        <ele>155.5</ele>
        <time>2021-12-19T08:24:48Z</time>
      </trkpt>
      <trkpt lat="44.56196" lon="0.8904">
        <ele>156.1</ele>
        <time>2021-12-19T08:24:53Z</time>
      </trkpt>
      <trkpt lat="44.56197" lon="0.89041">
        <ele>156</ele>
        <time>2021-12-19T08:24:54Z</time>
      </trkpt>
      <trkpt lat="44.56197" lon="0.89043">
        <ele>156</ele>
        <time>2021-12-19T08:24:55Z</time>
      </trkpt>
      <trkpt lat="44.56202" lon="0.89049">
        <ele>155.7</ele>
        <time>2021-12-19T08:24:57Z</time>
      </trkpt>
      <trkpt lat="44.56217" lon="0.89054">
        <ele>155.2</ele>
        <time>2021-12-19T08:25:01Z</time>
      </trkpt>
      <trkpt lat="44.5623" lon="0.89057">
        <ele>155.3</ele>
        <time>2021-12-19T08:25:06Z</time>
      </trkpt>
      <trkpt lat="44.56242" lon="0.89061">
        <ele>155.6</ele>
        <time>2021-12-19T08:25:11Z</time>
      </trkpt>
      <trkpt lat="44.56255" lon="0.89066">
        <ele>155.9</ele>
        <time>2021-12-19T08:25:16Z</time>
      </trkpt>
      <trkpt lat="44.56266" lon="0.89075">
        <ele>156.1</ele>
        <time>2021-12-19T08:25:21Z</time>
      </trkpt>
      <trkpt lat="44.56272" lon="0.89077">
        <ele>156.2</ele>
        <time>2021-12-19T08:25:24Z</time>
      </trkpt>
      <trkpt lat="44.56277" lon="0.89079">
        <ele>156.3</ele>
        <time>2021-12-19T08:25:26Z</time>
      </trkpt>
      <trkpt lat="44.56288" lon="0.89086">
        <ele>156.8</ele>
        <time>2021-12-19T08:25:31Z</time>
      </trkpt>
      <trkpt lat="44.5629" lon="0.8909">
        <ele>157.1</ele>
        <time>2021-12-19T08:25:35Z</time>
      </trkpt>
      <trkpt lat="44.56289" lon="0.891">
        <ele>157.7</ele>
        <time>2021-12-19T08:25:39Z</time>
      </trkpt>
      <trkpt lat="44.56288" lon="0.89103">
        <ele>157.9</ele>
        <time>2021-12-19T08:25:40Z</time>
      </trkpt>
      <trkpt lat="44.56284" lon="0.89118">
        <ele>159.1</ele>
        <time>2021-12-19T08:25:45Z</time>
      </trkpt>
      <trkpt lat="44.56285" lon="0.8912">
        <ele>159.3</ele>
        <time>2021-12-19T08:25:46Z</time>
      </trkpt>
      <trkpt lat="44.56291" lon="0.89127">
        <ele>160.2</ele>
        <time>2021-12-19T08:25:49Z</time>
      </trkpt>
      <trkpt lat="44.563" lon="0.89138">
        <ele>161.9</ele>
        <time>2021-12-19T08:25:55Z</time>
      </trkpt>
      <trkpt lat="44.56306" lon="0.89151">
        <ele>163.6</ele>
        <time>2021-12-19T08:26:01Z</time>
      </trkpt>
      <trkpt lat="44.5631" lon="0.89159">
        <ele>164.9</ele>
        <time>2021-12-19T08:26:06Z</time>
      </trkpt>
      <trkpt lat="44.56318" lon="0.89181">
        <ele>167.9</ele>
        <time>2021-12-19T08:26:34Z</time>
      </trkpt>
      <trkpt lat="44.56319" lon="0.89186">
        <ele>168.5</ele>
        <time>2021-12-19T08:26:36Z</time>
      </trkpt>
      <trkpt lat="44.56323" lon="0.89197">
        <ele>169.7</ele>
        <time>2021-12-19T08:26:42Z</time>
      </trkpt>
      <trkpt lat="44.56326" lon="0.89205">
        <ele>170.4</ele>
        <time>2021-12-19T08:26:46Z</time>
      </trkpt>
      <trkpt lat="44.56327" lon="0.89207">
        <ele>170.6</ele>
        <time>2021-12-19T08:26:47Z</time>
      </trkpt>
      <trkpt lat="44.56336" lon="0.89223">
        <ele>171.3</ele>
        <time>2021-12-19T08:26:53Z</time>
      </trkpt>
      <trkpt lat="44.56341" lon="0.89237">
        <ele>171.3</ele>
        <time>2021-12-19T08:26:57Z</time>
      </trkpt>
      <trkpt lat="44.56343" lon="0.8924">
        <ele>171.3</ele>
        <time>2021-12-19T08:26:58Z</time>
      </trkpt>
      <trkpt lat="44.56349" lon="0.89264">
        <ele>171.2</ele>
        <time>2021-12-19T08:27:03Z</time>
      </trkpt>
      <trkpt lat="44.56353" lon="0.89287">
        <ele>171.1</ele>
        <time>2021-12-19T08:27:08Z</time>
      </trkpt>
      <trkpt lat="44.56357" lon="0.89321">
        <ele>171.2</ele>
        <time>2021-12-19T08:27:15Z</time>
      </trkpt>
      <trkpt lat="44.56364" lon="0.89344">
        <ele>171.7</ele>
        <time>2021-12-19T08:27:20Z</time>
      </trkpt>
      <trkpt lat="44.56371" lon="0.8936">
        <ele>172.3</ele>
        <time>2021-12-19T08:27:24Z</time>
      </trkpt>
      <trkpt lat="44.56382" lon="0.89372">
        <ele>172.9</ele>
        <time>2021-12-19T08:27:29Z</time>
      </trkpt>
      <trkpt lat="44.5639" lon="0.89383">
        <ele>173.3</ele>
        <time>2021-12-19T08:27:33Z</time>
      </trkpt>
      <trkpt lat="44.56401" lon="0.89402">
        <ele>173.9</ele>
        <time>2021-12-19T08:27:38Z</time>
      </trkpt>
      <trkpt lat="44.56409" lon="0.89411">
        <ele>174.9</ele>
        <time>2021-12-19T08:27:42Z</time>
      </trkpt>
      <trkpt lat="44.56414" lon="0.89416">
        <ele>174.9</ele>
        <time>2021-12-19T08:27:47Z</time>
      </trkpt>
      <trkpt lat="44.56411" lon="0.8942">
        <ele>174.9</ele>
        <time>2021-12-19T08:28:05Z</time>
      </trkpt>
      <trkpt lat="44.56409" lon="0.89422">
        <ele>174.9</ele>
        <time>2021-12-19T08:28:07Z</time>
      </trkpt>
      <trkpt lat="44.56407" lon="0.89423">
        <ele>174.9</ele>
        <time>2021-12-19T08:28:08Z</time>
      </trkpt>
      <trkpt lat="44.56397" lon="0.8943">
        <ele>177.4</ele>
        <time>2021-12-19T08:28:14Z</time>
      </trkpt>
      <trkpt lat="44.56385" lon="0.89438">
        <ele>178.2</ele>
        <time>2021-12-19T08:28:20Z</time>
      </trkpt>
      <trkpt lat="44.56376" lon="0.89443">
        <ele>178.8</ele>
        <time>2021-12-19T08:28:25Z</time>
      </trkpt>
      <trkpt lat="44.56373" lon="0.89445">
        <ele>179</ele>
        <time>2021-12-19T08:28:27Z</time>
      </trkpt>
      <trkpt lat="44.5636" lon="0.89452">
        <ele>179.7</ele>
        <time>2021-12-19T08:28:34Z</time>
      </trkpt>
      <trkpt lat="44.56354" lon="0.89456">
        <ele>180</ele>
        <time>2021-12-19T08:28:37Z</time>
      </trkpt>
      <trkpt lat="44.56348" lon="0.89456">
        <ele>180.2</ele>
        <time>2021-12-19T08:28:39Z</time>
      </trkpt>
      <trkpt lat="44.56338" lon="0.89457">
        <ele>180.5</ele>
        <time>2021-12-19T08:28:43Z</time>
      </trkpt>
      <trkpt lat="44.56328" lon="0.89462">
        <ele>180.8</ele>
        <time>2021-12-19T08:28:48Z</time>
      </trkpt>
      <trkpt lat="44.5632" lon="0.89466">
        <ele>180.8</ele>
        <time>2021-12-19T08:28:53Z</time>
      </trkpt>
      <trkpt lat="44.56317" lon="0.89468">
        <ele>180.8</ele>
        <time>2021-12-19T08:28:55Z</time>
      </trkpt>
      <trkpt lat="44.56312" lon="0.89475">
        <ele>180.7</ele>
        <time>2021-12-19T08:28:59Z</time>
      </trkpt>
      <trkpt lat="44.56305" lon="0.89481">
        <ele>180.5</ele>
        <time>2021-12-19T08:29:04Z</time>
      </trkpt>
      <trkpt lat="44.56305" lon="0.89483">
        <ele>180.5</ele>
        <time>2021-12-19T08:29:05Z</time>
      </trkpt>
      <trkpt lat="44.56305" lon="0.89485">
        <ele>180.5</ele>
        <time>2021-12-19T08:29:06Z</time>
      </trkpt>
      <trkpt lat="44.56306" lon="0.89488">
        <ele>180.4</ele>
        <time>2021-12-19T08:29:08Z</time>
      </trkpt>
      <trkpt lat="44.56307" lon="0.89487">
        <ele>180.4</ele>
        <time>2021-12-19T08:29:09Z</time>
      </trkpt>
      <trkpt lat="44.56308" lon="0.89485">
        <ele>180.4</ele>
        <time>2021-12-19T08:29:11Z</time>
      </trkpt>
      <trkpt lat="44.56309" lon="0.89478">
        <ele>180.2</ele>
        <time>2021-12-19T08:29:16Z</time>
      </trkpt>
      <trkpt lat="44.56312" lon="0.89474">
        <ele>180.1</ele>
        <time>2021-12-19T08:29:18Z</time>
      </trkpt>
      <trkpt lat="44.56321" lon="0.89467">
        <ele>180.5</ele>
        <time>2021-12-19T08:29:22Z</time>
      </trkpt>
      <trkpt lat="44.56334" lon="0.89463">
        <ele>180.8</ele>
        <time>2021-12-19T08:29:28Z</time>
      </trkpt>
      <trkpt lat="44.56347" lon="0.89462">
        <ele>180.7</ele>
        <time>2021-12-19T08:29:33Z</time>
      </trkpt>
      <trkpt lat="44.56361" lon="0.89456">
        <ele>180.2</ele>
        <time>2021-12-19T08:29:38Z</time>
      </trkpt>
      <trkpt lat="44.56374" lon="0.89446">
        <ele>179.3</ele>
        <time>2021-12-19T08:29:45Z</time>
      </trkpt>
      <trkpt lat="44.56388" lon="0.89435">
        <ele>178.2</ele>
        <time>2021-12-19T08:29:50Z</time>
      </trkpt>
      <trkpt lat="44.56407" lon="0.89427">
        <ele>176.5</ele>
        <time>2021-12-19T08:29:56Z</time>
      </trkpt>
      <trkpt lat="44.56421" lon="0.89424">
        <ele>175.4</ele>
        <time>2021-12-19T08:30:00Z</time>
      </trkpt>
      <trkpt lat="44.56439" lon="0.89426">
        <ele>174.7</ele>
        <time>2021-12-19T08:30:05Z</time>
      </trkpt>
      <trkpt lat="44.56454" lon="0.89419">
        <ele>175</ele>
        <time>2021-12-19T08:30:10Z</time>
      </trkpt>
      <trkpt lat="44.5647" lon="0.89411">
        <ele>175.9</ele>
        <time>2021-12-19T08:30:15Z</time>
      </trkpt>
      <trkpt lat="44.56486" lon="0.89398">
        <ele>176.5</ele>
        <time>2021-12-19T08:30:21Z</time>
      </trkpt>
      <trkpt lat="44.56502" lon="0.8939">
        <ele>176.5</ele>
        <time>2021-12-19T08:30:27Z</time>
      </trkpt>
      <trkpt lat="44.56517" lon="0.89393">
        <ele>176.4</ele>
        <time>2021-12-19T08:30:33Z</time>
      </trkpt>
      <trkpt lat="44.56523" lon="0.89399">
        <ele>176.3</ele>
        <time>2021-12-19T08:30:36Z</time>
      </trkpt>
      <trkpt lat="44.56531" lon="0.89399">
        <ele>176.2</ele>
        <time>2021-12-19T08:30:38Z</time>
      </trkpt>
      <trkpt lat="44.56549" lon="0.89399">
        <ele>175.7</ele>
        <time>2021-12-19T08:30:43Z</time>
      </trkpt>
      <trkpt lat="44.56577" lon="0.89391">
        <ele>175.3</ele>
        <time>2021-12-19T08:30:48Z</time>
      </trkpt>
      <trkpt lat="44.56596" lon="0.89383">
        <ele>175.5</ele>
        <time>2021-12-19T08:30:52Z</time>
      </trkpt>
      <trkpt lat="44.5662" lon="0.89375">
        <ele>175.7</ele>
        <time>2021-12-19T08:30:57Z</time>
      </trkpt>
      <trkpt lat="44.56645" lon="0.8937">
        <ele>175.8</ele>
        <time>2021-12-19T08:31:03Z</time>
      </trkpt>
      <trkpt lat="44.56663" lon="0.89368">
        <ele>175.5</ele>
        <time>2021-12-19T08:31:08Z</time>
      </trkpt>
      <trkpt lat="44.56677" lon="0.89365">
        <ele>175.1</ele>
        <time>2021-12-19T08:31:12Z</time>
      </trkpt>
      <trkpt lat="44.56696" lon="0.89359">
        <ele>174.8</ele>
        <time>2021-12-19T08:31:16Z</time>
      </trkpt>
      <trkpt lat="44.56726" lon="0.8934">
        <ele>174.8</ele>
        <time>2021-12-19T08:31:22Z</time>
      </trkpt>
      <trkpt lat="44.56747" lon="0.89316">
        <ele>174.8</ele>
        <time>2021-12-19T08:31:28Z</time>
      </trkpt>
      <trkpt lat="44.56762" lon="0.89304">
        <ele>174.5</ele>
        <time>2021-12-19T08:31:33Z</time>
      </trkpt>
      <trkpt lat="44.56781" lon="0.89298">
        <ele>174.2</ele>
        <time>2021-12-19T08:31:38Z</time>
      </trkpt>
      <trkpt lat="44.56797" lon="0.89296">
        <ele>174.1</ele>
        <time>2021-12-19T08:31:42Z</time>
      </trkpt>
      <trkpt lat="44.56824" lon="0.89296">
        <ele>173.6</ele>
        <time>2021-12-19T08:31:48Z</time>
      </trkpt>
      <trkpt lat="44.56836" lon="0.89295">
        <ele>173.6</ele>
        <time>2021-12-19T08:31:50Z</time>
      </trkpt>
      <trkpt lat="44.56852" lon="0.89294">
        <ele>174.1</ele>
        <time>2021-12-19T08:31:53Z</time>
      </trkpt>
      <trkpt lat="44.56867" lon="0.89287">
        <ele>174.8</ele>
        <time>2021-12-19T08:31:57Z</time>
      </trkpt>
      <trkpt lat="44.5688" lon="0.89277">
        <ele>174.9</ele>
        <time>2021-12-19T08:32:00Z</time>
      </trkpt>
      <trkpt lat="44.56889" lon="0.89271">
        <ele>174.5</ele>
        <time>2021-12-19T08:32:02Z</time>
      </trkpt>
      <trkpt lat="44.56918" lon="0.89254">
        <ele>172.6</ele>
        <time>2021-12-19T08:32:07Z</time>
      </trkpt>
      <trkpt lat="44.56931" lon="0.89247">
        <ele>172.1</ele>
        <time>2021-12-19T08:32:09Z</time>
      </trkpt>
      <trkpt lat="44.56953" lon="0.8923">
        <ele>171.7</ele>
        <time>2021-12-19T08:32:13Z</time>
      </trkpt>
      <trkpt lat="44.56984" lon="0.89207">
        <ele>171.3</ele>
        <time>2021-12-19T08:32:19Z</time>
      </trkpt>
      <trkpt lat="44.56999" lon="0.8919">
        <ele>171</ele>
        <time>2021-12-19T08:32:22Z</time>
      </trkpt>
      <trkpt lat="44.57002" lon="0.89183">
        <ele>170.9</ele>
        <time>2021-12-19T08:32:23Z</time>
      </trkpt>
      <trkpt lat="44.57004" lon="0.89175">
        <ele>170.9</ele>
        <time>2021-12-19T08:32:24Z</time>
      </trkpt>
      <trkpt lat="44.57" lon="0.89158">
        <ele>170.8</ele>
        <time>2021-12-19T08:32:26Z</time>
      </trkpt>
      <trkpt lat="44.56979" lon="0.89126">
        <ele>170.8</ele>
        <time>2021-12-19T08:32:31Z</time>
      </trkpt>
      <trkpt lat="44.56968" lon="0.89099">
        <ele>171.1</ele>
        <time>2021-12-19T08:32:35Z</time>
      </trkpt>
      <trkpt lat="44.56966" lon="0.89092">
        <ele>171.1</ele>
        <time>2021-12-19T08:32:36Z</time>
      </trkpt>
      <trkpt lat="44.56968" lon="0.89086">
        <ele>171</ele>
        <time>2021-12-19T08:32:37Z</time>
      </trkpt>
      <trkpt lat="44.56974" lon="0.8908">
        <ele>171</ele>
        <time>2021-12-19T08:32:39Z</time>
      </trkpt>
      <trkpt lat="44.56982" lon="0.89075">
        <ele>171.1</ele>
        <time>2021-12-19T08:32:41Z</time>
      </trkpt>
      <trkpt lat="44.56994" lon="0.89067">
        <ele>171.2</ele>
        <time>2021-12-19T08:32:44Z</time>
      </trkpt>
      <trkpt lat="44.57006" lon="0.89057">
        <ele>171.4</ele>
        <time>2021-12-19T08:32:47Z</time>
      </trkpt>
      <trkpt lat="44.57016" lon="0.89044">
        <ele>171.6</ele>
        <time>2021-12-19T08:32:50Z</time>
      </trkpt>
      <trkpt lat="44.57019" lon="0.8904">
        <ele>171.7</ele>
        <time>2021-12-19T08:32:51Z</time>
      </trkpt>
      <trkpt lat="44.57034" lon="0.8902">
        <ele>172.1</ele>
        <time>2021-12-19T08:32:55Z</time>
      </trkpt>
      <trkpt lat="44.57052" lon="0.88997">
        <ele>173</ele>
        <time>2021-12-19T08:33:00Z</time>
      </trkpt>
      <trkpt lat="44.57059" lon="0.88984">
        <ele>173.5</ele>
        <time>2021-12-19T08:33:02Z</time>
      </trkpt>
      <trkpt lat="44.57063" lon="0.88972">
        <ele>174.1</ele>
        <time>2021-12-19T08:33:04Z</time>
      </trkpt>
      <trkpt lat="44.57072" lon="0.88954">
        <ele>175.1</ele>
        <time>2021-12-19T08:33:08Z</time>
      </trkpt>
      <trkpt lat="44.57084" lon="0.88933">
        <ele>176.2</ele>
        <time>2021-12-19T08:33:13Z</time>
      </trkpt>
      <trkpt lat="44.57093" lon="0.88917">
        <ele>177.1</ele>
        <time>2021-12-19T08:33:17Z</time>
      </trkpt>
      <trkpt lat="44.57104" lon="0.88898">
        <ele>178.3</ele>
        <time>2021-12-19T08:33:22Z</time>
      </trkpt>
      <trkpt lat="44.57115" lon="0.88881">
        <ele>180</ele>
        <time>2021-12-19T08:33:28Z</time>
      </trkpt>
      <trkpt lat="44.57123" lon="0.8887">
        <ele>181.2</ele>
        <time>2021-12-19T08:33:33Z</time>
      </trkpt>
      <trkpt lat="44.5713" lon="0.88857">
        <ele>182.5</ele>
        <time>2021-12-19T08:33:38Z</time>
      </trkpt>
      <trkpt lat="44.57136" lon="0.88848">
        <ele>183.3</ele>
        <time>2021-12-19T08:33:44Z</time>
      </trkpt>
      <trkpt lat="44.57145" lon="0.88836">
        <ele>184.2</ele>
        <time>2021-12-19T08:33:50Z</time>
      </trkpt>
      <trkpt lat="44.57154" lon="0.88819">
        <ele>185.1</ele>
        <time>2021-12-19T08:33:55Z</time>
      </trkpt>
      <trkpt lat="44.5717" lon="0.88803">
        <ele>185.7</ele>
        <time>2021-12-19T08:34:02Z</time>
      </trkpt>
      <trkpt lat="44.57192" lon="0.88775">
        <ele>186.3</ele>
        <time>2021-12-19T08:34:11Z</time>
      </trkpt>
      <trkpt lat="44.5721" lon="0.88746">
        <ele>186.8</ele>
        <time>2021-12-19T08:34:19Z</time>
      </trkpt>
      <trkpt lat="44.57222" lon="0.88715">
        <ele>187.3</ele>
        <time>2021-12-19T08:34:26Z</time>
      </trkpt>
      <trkpt lat="44.57234" lon="0.88696">
        <ele>187.7</ele>
        <time>2021-12-19T08:34:31Z</time>
      </trkpt>
      <trkpt lat="44.57248" lon="0.88686">
        <ele>188.1</ele>
        <time>2021-12-19T08:34:36Z</time>
      </trkpt>
      <trkpt lat="44.57267" lon="0.8868">
        <ele>188.7</ele>
        <time>2021-12-19T08:34:42Z</time>
      </trkpt>
      <trkpt lat="44.5729" lon="0.88671">
        <ele>190</ele>
        <time>2021-12-19T08:34:48Z</time>
      </trkpt>
      <trkpt lat="44.57314" lon="0.88661">
        <ele>192.1</ele>
        <time>2021-12-19T08:34:55Z</time>
      </trkpt>
      <trkpt lat="44.57331" lon="0.88654">
        <ele>193.4</ele>
        <time>2021-12-19T08:35:00Z</time>
      </trkpt>
      <trkpt lat="44.57352" lon="0.88643">
        <ele>195</ele>
        <time>2021-12-19T08:35:06Z</time>
      </trkpt>
      <trkpt lat="44.57373" lon="0.88634">
        <ele>197.1</ele>
        <time>2021-12-19T08:35:12Z</time>
      </trkpt>
      <trkpt lat="44.5739" lon="0.88626">
        <ele>199.1</ele>
        <time>2021-12-19T08:35:18Z</time>
      </trkpt>
      <trkpt lat="44.57406" lon="0.8862">
        <ele>200.7</ele>
        <time>2021-12-19T08:35:24Z</time>
      </trkpt>
      <trkpt lat="44.57422" lon="0.88609">
        <ele>201.9</ele>
        <time>2021-12-19T08:35:30Z</time>
      </trkpt>
      <trkpt lat="44.57439" lon="0.88598">
        <ele>202.6</ele>
        <time>2021-12-19T08:35:36Z</time>
      </trkpt>
      <trkpt lat="44.57457" lon="0.88583">
        <ele>202.9</ele>
        <time>2021-12-19T08:35:42Z</time>
      </trkpt>
      <trkpt lat="44.57478" lon="0.88566">
        <ele>203.2</ele>
        <time>2021-12-19T08:35:49Z</time>
      </trkpt>
      <trkpt lat="44.57501" lon="0.88556">
        <ele>203.7</ele>
        <time>2021-12-19T08:35:56Z</time>
      </trkpt>
      <trkpt lat="44.57524" lon="0.8855">
        <ele>204.5</ele>
        <time>2021-12-19T08:36:03Z</time>
      </trkpt>
      <trkpt lat="44.57543" lon="0.88551">
        <ele>204.8</ele>
        <time>2021-12-19T08:36:09Z</time>
      </trkpt>
      <trkpt lat="44.57557" lon="0.88553">
        <ele>204.7</ele>
        <time>2021-12-19T08:36:14Z</time>
      </trkpt>
      <trkpt lat="44.57571" lon="0.88555">
        <ele>204.5</ele>
        <time>2021-12-19T08:36:18Z</time>
      </trkpt>
      <trkpt lat="44.57604" lon="0.88553">
        <ele>203.8</ele>
        <time>2021-12-19T08:36:26Z</time>
      </trkpt>
      <trkpt lat="44.57636" lon="0.88549">
        <ele>203.4</ele>
        <time>2021-12-19T08:36:33Z</time>
      </trkpt>
      <trkpt lat="44.57675" lon="0.88552">
        <ele>203.3</ele>
        <time>2021-12-19T08:36:40Z</time>
      </trkpt>
      <trkpt lat="44.57681" lon="0.88552">
        <ele>203.5</ele>
        <time>2021-12-19T08:36:41Z</time>
      </trkpt>
      <trkpt lat="44.57703" lon="0.88549">
        <ele>204.2</ele>
        <time>2021-12-19T08:36:45Z</time>
      </trkpt>
      <trkpt lat="44.57709" lon="0.88547">
        <ele>204.3</ele>
        <time>2021-12-19T08:36:46Z</time>
      </trkpt>
      <trkpt lat="44.5772" lon="0.88543">
        <ele>204.7</ele>
        <time>2021-12-19T08:36:48Z</time>
      </trkpt>
      <trkpt lat="44.5773" lon="0.88537">
        <ele>205.1</ele>
        <time>2021-12-19T08:36:50Z</time>
      </trkpt>
      <trkpt lat="44.57759" lon="0.88523">
        <ele>206.4</ele>
        <time>2021-12-19T08:36:56Z</time>
      </trkpt>
      <trkpt lat="44.57763" lon="0.8852">
        <ele>206.6</ele>
        <time>2021-12-19T08:36:57Z</time>
      </trkpt>
      <trkpt lat="44.57776" lon="0.88515">
        <ele>206.7</ele>
        <time>2021-12-19T08:37:00Z</time>
      </trkpt>
      <trkpt lat="44.5778" lon="0.88513">
        <ele>206.7</ele>
        <time>2021-12-19T08:37:01Z</time>
      </trkpt>
      <trkpt lat="44.57806" lon="0.88501">
        <ele>205.6</ele>
        <time>2021-12-19T08:37:06Z</time>
      </trkpt>
      <trkpt lat="44.57812" lon="0.885">
        <ele>205.4</ele>
        <time>2021-12-19T08:37:07Z</time>
      </trkpt>
      <trkpt lat="44.57831" lon="0.88498">
        <ele>204.7</ele>
        <time>2021-12-19T08:37:10Z</time>
      </trkpt>
      <trkpt lat="44.57843" lon="0.88493">
        <ele>204.4</ele>
        <time>2021-12-19T08:37:12Z</time>
      </trkpt>
      <trkpt lat="44.5785" lon="0.88489">
        <ele>204.2</ele>
        <time>2021-12-19T08:37:13Z</time>
      </trkpt>
      <trkpt lat="44.5788" lon="0.88468">
        <ele>203.8</ele>
        <time>2021-12-19T08:37:18Z</time>
      </trkpt>
      <trkpt lat="44.57923" lon="0.88433">
        <ele>202.9</ele>
        <time>2021-12-19T08:37:26Z</time>
      </trkpt>
      <trkpt lat="44.57944" lon="0.88414">
        <ele>202.3</ele>
        <time>2021-12-19T08:37:31Z</time>
      </trkpt>
      <trkpt lat="44.57951" lon="0.88411">
        <ele>202.1</ele>
        <time>2021-12-19T08:37:34Z</time>
      </trkpt>
      <trkpt lat="44.57959" lon="0.88409">
        <ele>201.9</ele>
        <time>2021-12-19T08:37:51Z</time>
      </trkpt>
      <trkpt lat="44.57963" lon="0.88406">
        <ele>201.8</ele>
        <time>2021-12-19T08:37:54Z</time>
      </trkpt>
      <trkpt lat="44.57977" lon="0.88398">
        <ele>201.4</ele>
        <time>2021-12-19T08:37:59Z</time>
      </trkpt>
      <trkpt lat="44.57996" lon="0.88388">
        <ele>201</ele>
        <time>2021-12-19T08:38:06Z</time>
      </trkpt>
      <trkpt lat="44.58012" lon="0.8838">
        <ele>200.5</ele>
        <time>2021-12-19T08:38:15Z</time>
      </trkpt>
      <trkpt lat="44.58026" lon="0.88373">
        <ele>199.7</ele>
        <time>2021-12-19T08:38:23Z</time>
      </trkpt>
      <trkpt lat="44.58035" lon="0.88368">
        <ele>199</ele>
        <time>2021-12-19T08:38:28Z</time>
      </trkpt>
      <trkpt lat="44.5805" lon="0.8836">
        <ele>197.5</ele>
        <time>2021-12-19T08:38:35Z</time>
      </trkpt>
      <trkpt lat="44.58061" lon="0.88352">
        <ele>196.2</ele>
        <time>2021-12-19T08:38:38Z</time>
      </trkpt>
      <trkpt lat="44.58069" lon="0.88347">
        <ele>195.3</ele>
        <time>2021-12-19T08:38:40Z</time>
      </trkpt>
      <trkpt lat="44.58087" lon="0.88337">
        <ele>193.5</ele>
        <time>2021-12-19T08:38:45Z</time>
      </trkpt>
      <trkpt lat="44.58094" lon="0.88333">
        <ele>192.9</ele>
        <time>2021-12-19T08:38:49Z</time>
      </trkpt>
      <trkpt lat="44.58095" lon="0.88333">
        <ele>192.8</ele>
        <time>2021-12-19T08:38:51Z</time>
      </trkpt>
      <trkpt lat="44.581" lon="0.88329">
        <ele>192.3</ele>
        <time>2021-12-19T08:39:13Z</time>
      </trkpt>
      <trkpt lat="44.58102" lon="0.88328">
        <ele>192.1</ele>
        <time>2021-12-19T08:39:14Z</time>
      </trkpt>
      <trkpt lat="44.58117" lon="0.88318">
        <ele>190.6</ele>
        <time>2021-12-19T08:39:19Z</time>
      </trkpt>
      <trkpt lat="44.58139" lon="0.88295">
        <ele>188.8</ele>
        <time>2021-12-19T08:39:24Z</time>
      </trkpt>
      <trkpt lat="44.58146" lon="0.88286">
        <ele>188.4</ele>
        <time>2021-12-19T08:39:26Z</time>
      </trkpt>
      <trkpt lat="44.58155" lon="0.88273">
        <ele>188.3</ele>
        <time>2021-12-19T08:39:29Z</time>
      </trkpt>
      <trkpt lat="44.58173" lon="0.88257">
        <ele>189.2</ele>
        <time>2021-12-19T08:39:34Z</time>
      </trkpt>
      <trkpt lat="44.58182" lon="0.8826">
        <ele>190</ele>
        <time>2021-12-19T08:39:38Z</time>
      </trkpt>
      <trkpt lat="44.58198" lon="0.88252">
        <ele>191.1</ele>
        <time>2021-12-19T08:39:43Z</time>
      </trkpt>
      <trkpt lat="44.58211" lon="0.88243">
        <ele>191.1</ele>
        <time>2021-12-19T08:39:48Z</time>
      </trkpt>
      <trkpt lat="44.58224" lon="0.88233">
        <ele>190.1</ele>
        <time>2021-12-19T08:39:53Z</time>
      </trkpt>
      <trkpt lat="44.5824" lon="0.88225">
        <ele>188.3</ele>
        <time>2021-12-19T08:39:58Z</time>
      </trkpt>
      <trkpt lat="44.58257" lon="0.88219">
        <ele>185.5</ele>
        <time>2021-12-19T08:40:03Z</time>
      </trkpt>
      <trkpt lat="44.58268" lon="0.88219">
        <ele>183.7</ele>
        <time>2021-12-19T08:40:07Z</time>
      </trkpt>
      <trkpt lat="44.58272" lon="0.88218">
        <ele>182.9</ele>
        <time>2021-12-19T08:40:20Z</time>
      </trkpt>
      <trkpt lat="44.58276" lon="0.88219">
        <ele>182.3</ele>
        <time>2021-12-19T08:40:21Z</time>
      </trkpt>
      <trkpt lat="44.58293" lon="0.88214">
        <ele>179.4</ele>
        <time>2021-12-19T08:40:25Z</time>
      </trkpt>
      <trkpt lat="44.58309" lon="0.88207">
        <ele>176.8</ele>
        <time>2021-12-19T08:40:28Z</time>
      </trkpt>
      <trkpt lat="44.58321" lon="0.88202">
        <ele>174.9</ele>
        <time>2021-12-19T08:40:30Z</time>
      </trkpt>
      <trkpt lat="44.58344" lon="0.88191">
        <ele>171.8</ele>
        <time>2021-12-19T08:40:34Z</time>
      </trkpt>
      <trkpt lat="44.58356" lon="0.88186">
        <ele>170.9</ele>
        <time>2021-12-19T08:40:36Z</time>
      </trkpt>
      <trkpt lat="44.58377" lon="0.88172">
        <ele>169</ele>
        <time>2021-12-19T08:40:39Z</time>
      </trkpt>
      <trkpt lat="44.58386" lon="0.88169">
        <ele>167.9</ele>
        <time>2021-12-19T08:40:40Z</time>
      </trkpt>
      <trkpt lat="44.5842" lon="0.88158">
        <ele>164.8</ele>
        <time>2021-12-19T08:40:44Z</time>
      </trkpt>
      <trkpt lat="44.58428" lon="0.88155">
        <ele>164.4</ele>
        <time>2021-12-19T08:40:45Z</time>
      </trkpt>
      <trkpt lat="44.58461" lon="0.88141">
        <ele>163.3</ele>
        <time>2021-12-19T08:40:50Z</time>
      </trkpt>
      <trkpt lat="44.585" lon="0.88129">
        <ele>160.7</ele>
        <time>2021-12-19T08:40:56Z</time>
      </trkpt>
      <trkpt lat="44.58533" lon="0.88119">
        <ele>159.5</ele>
        <time>2021-12-19T08:41:01Z</time>
      </trkpt>
      <trkpt lat="44.58544" lon="0.88108">
        <ele>159.7</ele>
        <time>2021-12-19T08:41:03Z</time>
      </trkpt>
      <trkpt lat="44.58549" lon="0.88102">
        <ele>159.9</ele>
        <time>2021-12-19T08:41:04Z</time>
      </trkpt>
      <trkpt lat="44.5856" lon="0.88084">
        <ele>160.7</ele>
        <time>2021-12-19T08:41:07Z</time>
      </trkpt>
      <trkpt lat="44.58569" lon="0.88076">
        <ele>160.9</ele>
        <time>2021-12-19T08:41:09Z</time>
      </trkpt>
      <trkpt lat="44.58579" lon="0.88075">
        <ele>160.8</ele>
        <time>2021-12-19T08:41:11Z</time>
      </trkpt>
      <trkpt lat="44.58584" lon="0.88077">
        <ele>160.7</ele>
        <time>2021-12-19T08:41:12Z</time>
      </trkpt>
      <trkpt lat="44.58596" lon="0.88081">
        <ele>160.3</ele>
        <time>2021-12-19T08:41:14Z</time>
      </trkpt>
      <trkpt lat="44.58606" lon="0.88089">
        <ele>159.9</ele>
        <time>2021-12-19T08:41:16Z</time>
      </trkpt>
      <trkpt lat="44.58616" lon="0.88097">
        <ele>159.3</ele>
        <time>2021-12-19T08:41:18Z</time>
      </trkpt>
      <trkpt lat="44.58633" lon="0.88106">
        <ele>157.3</ele>
        <time>2021-12-19T08:41:21Z</time>
      </trkpt>
      <trkpt lat="44.5864" lon="0.88109">
        <ele>156.3</ele>
        <time>2021-12-19T08:41:22Z</time>
      </trkpt>
      <trkpt lat="44.58653" lon="0.88113">
        <ele>154.9</ele>
        <time>2021-12-19T08:41:24Z</time>
      </trkpt>
      <trkpt lat="44.5866" lon="0.88113">
        <ele>154.3</ele>
        <time>2021-12-19T08:41:25Z</time>
      </trkpt>
      <trkpt lat="44.587" lon="0.8811">
        <ele>152.2</ele>
        <time>2021-12-19T08:41:31Z</time>
      </trkpt>
      <trkpt lat="44.58715" lon="0.88107">
        <ele>151</ele>
        <time>2021-12-19T08:41:33Z</time>
      </trkpt>
      <trkpt lat="44.58722" lon="0.88103">
        <ele>150.5</ele>
        <time>2021-12-19T08:41:34Z</time>
      </trkpt>
      <trkpt lat="44.58728" lon="0.88099">
        <ele>150.2</ele>
        <time>2021-12-19T08:41:35Z</time>
      </trkpt>
      <trkpt lat="44.5874" lon="0.88089">
        <ele>149.9</ele>
        <time>2021-12-19T08:41:37Z</time>
      </trkpt>
      <trkpt lat="44.58745" lon="0.88086">
        <ele>149.8</ele>
        <time>2021-12-19T08:41:38Z</time>
      </trkpt>
      <trkpt lat="44.5875" lon="0.88084">
        <ele>149.7</ele>
        <time>2021-12-19T08:41:39Z</time>
      </trkpt>
      <trkpt lat="44.58761" lon="0.88082">
        <ele>149.2</ele>
        <time>2021-12-19T08:41:41Z</time>
      </trkpt>
      <trkpt lat="44.58767" lon="0.88082">
        <ele>148.9</ele>
        <time>2021-12-19T08:41:42Z</time>
      </trkpt>
      <trkpt lat="44.58776" lon="0.88085">
        <ele>148.3</ele>
        <time>2021-12-19T08:41:45Z</time>
      </trkpt>
      <trkpt lat="44.5878" lon="0.88086">
        <ele>148.1</ele>
        <time>2021-12-19T08:41:49Z</time>
      </trkpt>
      <trkpt lat="44.58785" lon="0.88088">
        <ele>147.9</ele>
        <time>2021-12-19T08:42:03Z</time>
      </trkpt>
      <trkpt lat="44.5879" lon="0.8809">
        <ele>147.7</ele>
        <time>2021-12-19T08:42:06Z</time>
      </trkpt>
      <trkpt lat="44.58791" lon="0.88091">
        <ele>147.7</ele>
        <time>2021-12-19T08:42:07Z</time>
      </trkpt>
      <trkpt lat="44.58803" lon="0.881">
        <ele>147.5</ele>
        <time>2021-12-19T08:42:12Z</time>
      </trkpt>
      <trkpt lat="44.58815" lon="0.88103">
        <ele>147.4</ele>
        <time>2021-12-19T08:42:16Z</time>
      </trkpt>
      <trkpt lat="44.5882" lon="0.88104">
        <ele>147.4</ele>
        <time>2021-12-19T08:42:17Z</time>
      </trkpt>
      <trkpt lat="44.58842" lon="0.88107">
        <ele>147.9</ele>
        <time>2021-12-19T08:42:22Z</time>
      </trkpt>
      <trkpt lat="44.58851" lon="0.88105">
        <ele>148.3</ele>
        <time>2021-12-19T08:42:24Z</time>
      </trkpt>
      <trkpt lat="44.58859" lon="0.881">
        <ele>148.8</ele>
        <time>2021-12-19T08:42:26Z</time>
      </trkpt>
      <trkpt lat="44.5887" lon="0.88092">
        <ele>149.5</ele>
        <time>2021-12-19T08:42:29Z</time>
      </trkpt>
      <trkpt lat="44.58878" lon="0.88085">
        <ele>150.1</ele>
        <time>2021-12-19T08:42:31Z</time>
      </trkpt>
      <trkpt lat="44.58892" lon="0.88072">
        <ele>151.7</ele>
        <time>2021-12-19T08:42:36Z</time>
      </trkpt>
      <trkpt lat="44.58895" lon="0.88071">
        <ele>151.8</ele>
        <time>2021-12-19T08:42:37Z</time>
      </trkpt>
      <trkpt lat="44.589" lon="0.88072">
        <ele>151.8</ele>
        <time>2021-12-19T08:42:39Z</time>
      </trkpt>
      <trkpt lat="44.58912" lon="0.88084">
        <ele>153</ele>
        <time>2021-12-19T08:42:44Z</time>
      </trkpt>
      <trkpt lat="44.58923" lon="0.88102">
        <ele>154.8</ele>
        <time>2021-12-19T08:42:50Z</time>
      </trkpt>
      <trkpt lat="44.58936" lon="0.88117">
        <ele>156.8</ele>
        <time>2021-12-19T08:42:56Z</time>
      </trkpt>
      <trkpt lat="44.58949" lon="0.88135">
        <ele>159.2</ele>
        <time>2021-12-19T08:43:03Z</time>
      </trkpt>
      <trkpt lat="44.58957" lon="0.88149">
        <ele>160.8</ele>
        <time>2021-12-19T08:43:08Z</time>
      </trkpt>
      <trkpt lat="44.5897" lon="0.8816">
        <ele>162.6</ele>
        <time>2021-12-19T08:43:14Z</time>
      </trkpt>
      <trkpt lat="44.58981" lon="0.88172">
        <ele>164.3</ele>
        <time>2021-12-19T08:43:20Z</time>
      </trkpt>
      <trkpt lat="44.58991" lon="0.88179">
        <ele>164.1</ele>
        <time>2021-12-19T08:43:26Z</time>
      </trkpt>
      <trkpt lat="44.59004" lon="0.88194">
        <ele>163.6</ele>
        <time>2021-12-19T08:43:33Z</time>
      </trkpt>
      <trkpt lat="44.59016" lon="0.88206">
        <ele>162.6</ele>
        <time>2021-12-19T08:43:38Z</time>
      </trkpt>
      <trkpt lat="44.59026" lon="0.88226">
        <ele>161.2</ele>
        <time>2021-12-19T08:43:43Z</time>
      </trkpt>
      <trkpt lat="44.59031" lon="0.88243">
        <ele>159.6</ele>
        <time>2021-12-19T08:43:47Z</time>
      </trkpt>
      <trkpt lat="44.59039" lon="0.88252">
        <ele>158.8</ele>
        <time>2021-12-19T08:43:51Z</time>
      </trkpt>
      <trkpt lat="44.59053" lon="0.88261">
        <ele>157.6</ele>
        <time>2021-12-19T08:43:56Z</time>
      </trkpt>
      <trkpt lat="44.59071" lon="0.88268">
        <ele>156.3</ele>
        <time>2021-12-19T08:44:00Z</time>
      </trkpt>
      <trkpt lat="44.59077" lon="0.88269">
        <ele>156</ele>
        <time>2021-12-19T08:44:01Z</time>
      </trkpt>
      <trkpt lat="44.59115" lon="0.88286">
        <ele>154.6</ele>
        <time>2021-12-19T08:44:08Z</time>
      </trkpt>
      <trkpt lat="44.59121" lon="0.88288">
        <ele>154.7</ele>
        <time>2021-12-19T08:44:09Z</time>
      </trkpt>
      <trkpt lat="44.59134" lon="0.88292">
        <ele>155.1</ele>
        <time>2021-12-19T08:44:12Z</time>
      </trkpt>
      <trkpt lat="44.5915" lon="0.88296">
        <ele>156</ele>
        <time>2021-12-19T08:44:17Z</time>
      </trkpt>
      <trkpt lat="44.59171" lon="0.88296">
        <ele>157</ele>
        <time>2021-12-19T08:44:23Z</time>
      </trkpt>
      <trkpt lat="44.59193" lon="0.88301">
        <ele>157.4</ele>
        <time>2021-12-19T08:44:29Z</time>
      </trkpt>
      <trkpt lat="44.59208" lon="0.88303">
        <ele>157.3</ele>
        <time>2021-12-19T08:44:33Z</time>
      </trkpt>
      <trkpt lat="44.59213" lon="0.88305">
        <ele>157.2</ele>
        <time>2021-12-19T08:44:34Z</time>
      </trkpt>
      <trkpt lat="44.59232" lon="0.88309">
        <ele>156.8</ele>
        <time>2021-12-19T08:44:38Z</time>
      </trkpt>
      <trkpt lat="44.59238" lon="0.88311">
        <ele>156.8</ele>
        <time>2021-12-19T08:44:39Z</time>
      </trkpt>
      <trkpt lat="44.59243" lon="0.88314">
        <ele>156.8</ele>
        <time>2021-12-19T08:44:40Z</time>
      </trkpt>
      <trkpt lat="44.59251" lon="0.88321">
        <ele>156.8</ele>
        <time>2021-12-19T08:44:42Z</time>
      </trkpt>
      <trkpt lat="44.59278" lon="0.88351">
        <ele>157.1</ele>
        <time>2021-12-19T08:44:49Z</time>
      </trkpt>
      <trkpt lat="44.59303" lon="0.88372">
        <ele>157.5</ele>
        <time>2021-12-19T08:44:55Z</time>
      </trkpt>
      <trkpt lat="44.59311" lon="0.88388">
        <ele>157.7</ele>
        <time>2021-12-19T08:44:59Z</time>
      </trkpt>
      <trkpt lat="44.59321" lon="0.88427">
        <ele>158.2</ele>
        <time>2021-12-19T08:45:06Z</time>
      </trkpt>
      <trkpt lat="44.59326" lon="0.88471">
        <ele>159.2</ele>
        <time>2021-12-19T08:45:13Z</time>
      </trkpt>
      <trkpt lat="44.59329" lon="0.88507">
        <ele>161.2</ele>
        <time>2021-12-19T08:45:19Z</time>
      </trkpt>
      <trkpt lat="44.59329" lon="0.88538">
        <ele>163.8</ele>
        <time>2021-12-19T08:45:25Z</time>
      </trkpt>
      <trkpt lat="44.59331" lon="0.88558">
        <ele>165.7</ele>
        <time>2021-12-19T08:45:30Z</time>
      </trkpt>
      <trkpt lat="44.5934" lon="0.88569">
        <ele>167</ele>
        <time>2021-12-19T08:45:35Z</time>
      </trkpt>
      <trkpt lat="44.59348" lon="0.88585">
        <ele>168.7</ele>
        <time>2021-12-19T08:45:40Z</time>
      </trkpt>
      <trkpt lat="44.59355" lon="0.88601">
        <ele>170.5</ele>
        <time>2021-12-19T08:45:46Z</time>
      </trkpt>
      <trkpt lat="44.5936" lon="0.88613">
        <ele>171.8</ele>
        <time>2021-12-19T08:45:51Z</time>
      </trkpt>
      <trkpt lat="44.59361" lon="0.88615">
        <ele>172</ele>
        <time>2021-12-19T08:45:52Z</time>
      </trkpt>
      <trkpt lat="44.59368" lon="0.88636">
        <ele>173</ele>
        <time>2021-12-19T08:46:00Z</time>
      </trkpt>
      <trkpt lat="44.59376" lon="0.88651">
        <ele>172.9</ele>
        <time>2021-12-19T08:46:07Z</time>
      </trkpt>
      <trkpt lat="44.59383" lon="0.88666">
        <ele>172.4</ele>
        <time>2021-12-19T08:46:11Z</time>
      </trkpt>
      <trkpt lat="44.59399" lon="0.88697">
        <ele>171.2</ele>
        <time>2021-12-19T08:46:17Z</time>
      </trkpt>
      <trkpt lat="44.59409" lon="0.88715">
        <ele>170.6</ele>
        <time>2021-12-19T08:46:21Z</time>
      </trkpt>
      <trkpt lat="44.59413" lon="0.88727">
        <ele>170.2</ele>
        <time>2021-12-19T08:46:25Z</time>
      </trkpt>
      <trkpt lat="44.59422" lon="0.88744">
        <ele>169</ele>
        <time>2021-12-19T08:46:30Z</time>
      </trkpt>
      <trkpt lat="44.59436" lon="0.88764">
        <ele>167</ele>
        <time>2021-12-19T08:46:35Z</time>
      </trkpt>
      <trkpt lat="44.5945" lon="0.88779">
        <ele>165.4</ele>
        <time>2021-12-19T08:46:39Z</time>
      </trkpt>
      <trkpt lat="44.59456" lon="0.88783">
        <ele>165.1</ele>
        <time>2021-12-19T08:46:40Z</time>
      </trkpt>
      <trkpt lat="44.59461" lon="0.88788">
        <ele>165</ele>
        <time>2021-12-19T08:46:41Z</time>
      </trkpt>
      <trkpt lat="44.59471" lon="0.888">
        <ele>165.2</ele>
        <time>2021-12-19T08:46:44Z</time>
      </trkpt>
      <trkpt lat="44.59486" lon="0.88819">
        <ele>166.5</ele>
        <time>2021-12-19T08:46:49Z</time>
      </trkpt>
      <trkpt lat="44.59499" lon="0.88836">
        <ele>168.8</ele>
        <time>2021-12-19T08:46:55Z</time>
      </trkpt>
      <trkpt lat="44.59513" lon="0.88854">
        <ele>171.2</ele>
        <time>2021-12-19T08:47:01Z</time>
      </trkpt>
      <trkpt lat="44.59531" lon="0.8888">
        <ele>173.4</ele>
        <time>2021-12-19T08:47:09Z</time>
      </trkpt>
      <trkpt lat="44.59541" lon="0.88895">
        <ele>174.7</ele>
        <time>2021-12-19T08:47:14Z</time>
      </trkpt>
      <trkpt lat="44.59553" lon="0.88913">
        <ele>176.6</ele>
        <time>2021-12-19T08:47:22Z</time>
      </trkpt>
      <trkpt lat="44.59564" lon="0.8893">
        <ele>178.1</ele>
        <time>2021-12-19T08:47:29Z</time>
      </trkpt>
      <trkpt lat="44.59575" lon="0.88952">
        <ele>179.4</ele>
        <time>2021-12-19T08:47:37Z</time>
      </trkpt>
      <trkpt lat="44.5959" lon="0.88981">
        <ele>180.5</ele>
        <time>2021-12-19T08:47:47Z</time>
      </trkpt>
      <trkpt lat="44.59602" lon="0.89005">
        <ele>180.9</ele>
        <time>2021-12-19T08:47:56Z</time>
      </trkpt>
      <trkpt lat="44.59604" lon="0.89012">
        <ele>180.9</ele>
        <time>2021-12-19T08:49:04Z</time>
      </trkpt>
      <trkpt lat="44.59606" lon="0.89015">
        <ele>181</ele>
        <time>2021-12-19T08:49:06Z</time>
      </trkpt>
      <trkpt lat="44.59613" lon="0.89028">
        <ele>181</ele>
        <time>2021-12-19T08:49:12Z</time>
      </trkpt>
      <trkpt lat="44.59621" lon="0.89043">
        <ele>181.1</ele>
        <time>2021-12-19T08:49:18Z</time>
      </trkpt>
      <trkpt lat="44.59629" lon="0.89061">
        <ele>180.9</ele>
        <time>2021-12-19T08:49:25Z</time>
      </trkpt>
      <trkpt lat="44.59634" lon="0.89075">
        <ele>180.5</ele>
        <time>2021-12-19T08:49:30Z</time>
      </trkpt>
      <trkpt lat="44.59636" lon="0.8908">
        <ele>180.2</ele>
        <time>2021-12-19T08:49:31Z</time>
      </trkpt>
      <trkpt lat="44.59641" lon="0.89091">
        <ele>179.4</ele>
        <time>2021-12-19T08:49:33Z</time>
      </trkpt>
      <trkpt lat="44.59649" lon="0.89102">
        <ele>178.3</ele>
        <time>2021-12-19T08:49:35Z</time>
      </trkpt>
      <trkpt lat="44.5966" lon="0.89114">
        <ele>176.8</ele>
        <time>2021-12-19T08:49:37Z</time>
      </trkpt>
      <trkpt lat="44.59689" lon="0.89138">
        <ele>173.3</ele>
        <time>2021-12-19T08:49:41Z</time>
      </trkpt>
      <trkpt lat="44.59741" lon="0.89181">
        <ele>169.8</ele>
        <time>2021-12-19T08:49:47Z</time>
      </trkpt>
      <trkpt lat="44.59756" lon="0.89195">
        <ele>169.6</ele>
        <time>2021-12-19T08:49:49Z</time>
      </trkpt>
      <trkpt lat="44.59769" lon="0.89213">
        <ele>169.6</ele>
        <time>2021-12-19T08:49:51Z</time>
      </trkpt>
      <trkpt lat="44.59785" lon="0.8924">
        <ele>169.9</ele>
        <time>2021-12-19T08:49:54Z</time>
      </trkpt>
      <trkpt lat="44.59796" lon="0.89254">
        <ele>170</ele>
        <time>2021-12-19T08:49:56Z</time>
      </trkpt>
      <trkpt lat="44.59829" lon="0.89295">
        <ele>170.4</ele>
        <time>2021-12-19T08:50:02Z</time>
      </trkpt>
      <trkpt lat="44.59855" lon="0.89328">
        <ele>171.4</ele>
        <time>2021-12-19T08:50:07Z</time>
      </trkpt>
      <trkpt lat="44.59885" lon="0.8936">
        <ele>173</ele>
        <time>2021-12-19T08:50:13Z</time>
      </trkpt>
      <trkpt lat="44.5991" lon="0.89389">
        <ele>174.6</ele>
        <time>2021-12-19T08:50:19Z</time>
      </trkpt>
      <trkpt lat="44.59936" lon="0.89423">
        <ele>176.1</ele>
        <time>2021-12-19T08:50:26Z</time>
      </trkpt>
      <trkpt lat="44.59946" lon="0.89434">
        <ele>176.2</ele>
        <time>2021-12-19T08:50:29Z</time>
      </trkpt>
      <trkpt lat="44.59954" lon="0.89442">
        <ele>176.1</ele>
        <time>2021-12-19T08:50:31Z</time>
      </trkpt>
      <trkpt lat="44.59962" lon="0.8945">
        <ele>176</ele>
        <time>2021-12-19T08:50:33Z</time>
      </trkpt>
      <trkpt lat="44.5997" lon="0.8946">
        <ele>175.7</ele>
        <time>2021-12-19T08:50:35Z</time>
      </trkpt>
      <trkpt lat="44.59986" lon="0.89472">
        <ele>175.2</ele>
        <time>2021-12-19T08:50:38Z</time>
      </trkpt>
      <trkpt lat="44.59991" lon="0.89473">
        <ele>174.9</ele>
        <time>2021-12-19T08:50:39Z</time>
      </trkpt>
      <trkpt lat="44.60003" lon="0.89475">
        <ele>174.4</ele>
        <time>2021-12-19T08:50:41Z</time>
      </trkpt>
      <trkpt lat="44.60023" lon="0.89476">
        <ele>173.4</ele>
        <time>2021-12-19T08:50:44Z</time>
      </trkpt>
      <trkpt lat="44.6003" lon="0.89476">
        <ele>173.1</ele>
        <time>2021-12-19T08:50:45Z</time>
      </trkpt>
      <trkpt lat="44.60043" lon="0.89482">
        <ele>172.5</ele>
        <time>2021-12-19T08:50:47Z</time>
      </trkpt>
      <trkpt lat="44.60049" lon="0.89486">
        <ele>172.2</ele>
        <time>2021-12-19T08:50:48Z</time>
      </trkpt>
      <trkpt lat="44.60054" lon="0.8949">
        <ele>172</ele>
        <time>2021-12-19T08:50:49Z</time>
      </trkpt>
      <trkpt lat="44.60061" lon="0.89498">
        <ele>171.6</ele>
        <time>2021-12-19T08:50:51Z</time>
      </trkpt>
      <trkpt lat="44.60061" lon="0.89502">
        <ele>170.7</ele>
        <time>2021-12-19T08:50:52Z</time>
      </trkpt>
      <trkpt lat="44.60059" lon="0.89507">
        <ele>170.4</ele>
        <time>2021-12-19T08:50:53Z</time>
      </trkpt>
      <trkpt lat="44.60055" lon="0.8951">
        <ele>170.2</ele>
        <time>2021-12-19T08:50:54Z</time>
      </trkpt>
      <trkpt lat="44.6004" lon="0.89517">
        <ele>169.4</ele>
        <time>2021-12-19T08:50:57Z</time>
      </trkpt>
      <trkpt lat="44.6003" lon="0.89523">
        <ele>168.9</ele>
        <time>2021-12-19T08:50:59Z</time>
      </trkpt>
      <trkpt lat="44.6002" lon="0.8953">
        <ele>168.5</ele>
        <time>2021-12-19T08:51:01Z</time>
      </trkpt>
      <trkpt lat="44.60016" lon="0.89535">
        <ele>168.3</ele>
        <time>2021-12-19T08:51:02Z</time>
      </trkpt>
      <trkpt lat="44.60013" lon="0.89542">
        <ele>168</ele>
        <time>2021-12-19T08:51:03Z</time>
      </trkpt>
      <trkpt lat="44.6001" lon="0.89559">
        <ele>167.8</ele>
        <time>2021-12-19T08:51:05Z</time>
      </trkpt>
      <trkpt lat="44.60006" lon="0.89614">
        <ele>166.8</ele>
        <time>2021-12-19T08:51:11Z</time>
      </trkpt>
      <trkpt lat="44.60002" lon="0.89683">
        <ele>166.3</ele>
        <time>2021-12-19T08:51:19Z</time>
      </trkpt>
      <trkpt lat="44.59999" lon="0.89728">
        <ele>167.1</ele>
        <time>2021-12-19T08:51:25Z</time>
      </trkpt>
      <trkpt lat="44.6" lon="0.89732">
        <ele>167.1</ele>
        <time>2021-12-19T08:51:26Z</time>
      </trkpt>
      <trkpt lat="44.60005" lon="0.8974">
        <ele>167.3</ele>
        <time>2021-12-19T08:51:28Z</time>
      </trkpt>
      <trkpt lat="44.60016" lon="0.89742">
        <ele>168.5</ele>
        <time>2021-12-19T08:51:31Z</time>
      </trkpt>
      <trkpt lat="44.60032" lon="0.89747">
        <ele>170.1</ele>
        <time>2021-12-19T08:51:36Z</time>
      </trkpt>
      <trkpt lat="44.60034" lon="0.89751">
        <ele>170.1</ele>
        <time>2021-12-19T08:51:37Z</time>
      </trkpt>
      <trkpt lat="44.60034" lon="0.89761">
        <ele>170.1</ele>
        <time>2021-12-19T08:51:39Z</time>
      </trkpt>
      <trkpt lat="44.60033" lon="0.89782">
        <ele>169</ele>
        <time>2021-12-19T08:51:43Z</time>
      </trkpt>
      <trkpt lat="44.60032" lon="0.8979">
        <ele>168.3</ele>
        <time>2021-12-19T08:51:44Z</time>
      </trkpt>
      <trkpt lat="44.60027" lon="0.8982">
        <ele>165.1</ele>
        <time>2021-12-19T08:51:47Z</time>
      </trkpt>
      <trkpt lat="44.60025" lon="0.89832">
        <ele>163.8</ele>
        <time>2021-12-19T08:51:48Z</time>
      </trkpt>
      <trkpt lat="44.60018" lon="0.89856">
        <ele>161.2</ele>
        <time>2021-12-19T08:51:50Z</time>
      </trkpt>
      <trkpt lat="44.60015" lon="0.89867">
        <ele>160.5</ele>
        <time>2021-12-19T08:51:51Z</time>
      </trkpt>
      <trkpt lat="44.60017" lon="0.89889">
        <ele>160.2</ele>
        <time>2021-12-19T08:51:53Z</time>
      </trkpt>
      <trkpt lat="44.60023" lon="0.89909">
        <ele>160</ele>
        <time>2021-12-19T08:51:55Z</time>
      </trkpt>
      <trkpt lat="44.60023" lon="0.8993">
        <ele>159.8</ele>
        <time>2021-12-19T08:51:57Z</time>
      </trkpt>
      <trkpt lat="44.60018" lon="0.89957">
        <ele>159.6</ele>
        <time>2021-12-19T08:52:00Z</time>
      </trkpt>
      <trkpt lat="44.60013" lon="0.89973">
        <ele>159.5</ele>
        <time>2021-12-19T08:52:02Z</time>
      </trkpt>
      <trkpt lat="44.59991" lon="0.9004">
        <ele>160.1</ele>
        <time>2021-12-19T08:52:11Z</time>
      </trkpt>
      <trkpt lat="44.59971" lon="0.90085">
        <ele>161.1</ele>
        <time>2021-12-19T08:52:18Z</time>
      </trkpt>
      <trkpt lat="44.59955" lon="0.90116">
        <ele>162.8</ele>
        <time>2021-12-19T08:52:24Z</time>
      </trkpt>
      <trkpt lat="44.59953" lon="0.90137">
        <ele>164.1</ele>
        <time>2021-12-19T08:52:28Z</time>
      </trkpt>
      <trkpt lat="44.59954" lon="0.90143">
        <ele>164.6</ele>
        <time>2021-12-19T08:52:29Z</time>
      </trkpt>
      <trkpt lat="44.59958" lon="0.90162">
        <ele>166.1</ele>
        <time>2021-12-19T08:52:33Z</time>
      </trkpt>
      <trkpt lat="44.59964" lon="0.90186">
        <ele>168.3</ele>
        <time>2021-12-19T08:52:40Z</time>
      </trkpt>
      <trkpt lat="44.59971" lon="0.90208">
        <ele>170.3</ele>
        <time>2021-12-19T08:52:47Z</time>
      </trkpt>
      <trkpt lat="44.5998" lon="0.90232">
        <ele>172.2</ele>
        <time>2021-12-19T08:52:54Z</time>
      </trkpt>
      <trkpt lat="44.59988" lon="0.9026">
        <ele>173.5</ele>
        <time>2021-12-19T08:53:01Z</time>
      </trkpt>
      <trkpt lat="44.5999" lon="0.90288">
        <ele>175.1</ele>
        <time>2021-12-19T08:53:08Z</time>
      </trkpt>
      <trkpt lat="44.59991" lon="0.90316">
        <ele>176.8</ele>
        <time>2021-12-19T08:53:15Z</time>
      </trkpt>
      <trkpt lat="44.59995" lon="0.90351">
        <ele>178.8</ele>
        <time>2021-12-19T08:53:24Z</time>
      </trkpt>
      <trkpt lat="44.59997" lon="0.90375">
        <ele>179.6</ele>
        <time>2021-12-19T08:53:30Z</time>
      </trkpt>
      <trkpt lat="44.60001" lon="0.90421">
        <ele>180.5</ele>
        <time>2021-12-19T08:53:40Z</time>
      </trkpt>
      <trkpt lat="44.60003" lon="0.9046">
        <ele>181.4</ele>
        <time>2021-12-19T08:53:48Z</time>
      </trkpt>
      <trkpt lat="44.60005" lon="0.90509">
        <ele>182.9</ele>
        <time>2021-12-19T08:53:58Z</time>
      </trkpt>
      <trkpt lat="44.60006" lon="0.90538">
        <ele>184.3</ele>
        <time>2021-12-19T08:54:04Z</time>
      </trkpt>
      <trkpt lat="44.60005" lon="0.90569">
        <ele>187</ele>
        <time>2021-12-19T08:54:11Z</time>
      </trkpt>
      <trkpt lat="44.60003" lon="0.90584">
        <ele>188.9</ele>
        <time>2021-12-19T08:54:16Z</time>
      </trkpt>
      <trkpt lat="44.60003" lon="0.90598">
        <ele>190.8</ele>
        <time>2021-12-19T08:54:22Z</time>
      </trkpt>
      <trkpt lat="44.60006" lon="0.9061">
        <ele>192.3</ele>
        <time>2021-12-19T08:54:27Z</time>
      </trkpt>
      <trkpt lat="44.60007" lon="0.90622">
        <ele>193.3</ele>
        <time>2021-12-19T08:54:31Z</time>
      </trkpt>
      <trkpt lat="44.60007" lon="0.90625">
        <ele>193.5</ele>
        <time>2021-12-19T08:54:32Z</time>
      </trkpt>
      <trkpt lat="44.60001" lon="0.90644">
        <ele>194.5</ele>
        <time>2021-12-19T08:54:38Z</time>
      </trkpt>
      <trkpt lat="44.59992" lon="0.9066">
        <ele>194.9</ele>
        <time>2021-12-19T08:54:44Z</time>
      </trkpt>
      <trkpt lat="44.59981" lon="0.90679">
        <ele>194.8</ele>
        <time>2021-12-19T08:54:50Z</time>
      </trkpt>
      <trkpt lat="44.5997" lon="0.90711">
        <ele>194.7</ele>
        <time>2021-12-19T08:54:56Z</time>
      </trkpt>
      <trkpt lat="44.59962" lon="0.90749">
        <ele>195</ele>
        <time>2021-12-19T08:55:03Z</time>
      </trkpt>
      <trkpt lat="44.59958" lon="0.90787">
        <ele>195.9</ele>
        <time>2021-12-19T08:55:10Z</time>
      </trkpt>
      <trkpt lat="44.59953" lon="0.90818">
        <ele>196.9</ele>
        <time>2021-12-19T08:55:16Z</time>
      </trkpt>
      <trkpt lat="44.59947" lon="0.9086">
        <ele>198.7</ele>
        <time>2021-12-19T08:55:24Z</time>
      </trkpt>
      <trkpt lat="44.59942" lon="0.90889">
        <ele>200.5</ele>
        <time>2021-12-19T08:55:30Z</time>
      </trkpt>
      <trkpt lat="44.59935" lon="0.90914">
        <ele>202.3</ele>
        <time>2021-12-19T08:55:36Z</time>
      </trkpt>
      <trkpt lat="44.59923" lon="0.90934">
        <ele>203.3</ele>
        <time>2021-12-19T08:55:42Z</time>
      </trkpt>
      <trkpt lat="44.59904" lon="0.90957">
        <ele>205.5</ele>
        <time>2021-12-19T08:55:50Z</time>
      </trkpt>
      <trkpt lat="44.59891" lon="0.90975">
        <ele>207.1</ele>
        <time>2021-12-19T08:55:56Z</time>
      </trkpt>
      <trkpt lat="44.59876" lon="0.90991">
        <ele>209</ele>
        <time>2021-12-19T08:56:02Z</time>
      </trkpt>
      <trkpt lat="44.59861" lon="0.91009">
        <ele>211</ele>
        <time>2021-12-19T08:56:09Z</time>
      </trkpt>
      <trkpt lat="44.59843" lon="0.91031">
        <ele>213.5</ele>
        <time>2021-12-19T08:56:17Z</time>
      </trkpt>
      <trkpt lat="44.59833" lon="0.9105">
        <ele>215.2</ele>
        <time>2021-12-19T08:56:23Z</time>
      </trkpt>
      <trkpt lat="44.59822" lon="0.9107">
        <ele>216.8</ele>
        <time>2021-12-19T08:56:29Z</time>
      </trkpt>
      <trkpt lat="44.59814" lon="0.91088">
        <ele>218.2</ele>
        <time>2021-12-19T08:56:34Z</time>
      </trkpt>
      <trkpt lat="44.59801" lon="0.91113">
        <ele>220.3</ele>
        <time>2021-12-19T08:56:41Z</time>
      </trkpt>
      <trkpt lat="44.5979" lon="0.91139">
        <ele>222.6</ele>
        <time>2021-12-19T08:56:48Z</time>
      </trkpt>
      <trkpt lat="44.59783" lon="0.91146">
        <ele>223.2</ele>
        <time>2021-12-19T08:56:52Z</time>
      </trkpt>
      <trkpt lat="44.59775" lon="0.91151">
        <ele>223.7</ele>
        <time>2021-12-19T08:56:57Z</time>
      </trkpt>
      <trkpt lat="44.59775" lon="0.91154">
        <ele>223.9</ele>
        <time>2021-12-19T08:56:58Z</time>
      </trkpt>
      <trkpt lat="44.59774" lon="0.91163">
        <ele>224.2</ele>
        <time>2021-12-19T08:57:03Z</time>
      </trkpt>
      <trkpt lat="44.59775" lon="0.91164">
        <ele>224.3</ele>
        <time>2021-12-19T08:57:04Z</time>
      </trkpt>
      <trkpt lat="44.59777" lon="0.91159">
        <ele>224.5</ele>
        <time>2021-12-19T08:57:08Z</time>
      </trkpt>
      <trkpt lat="44.59778" lon="0.91152">
        <ele>224.7</ele>
        <time>2021-12-19T08:57:11Z</time>
      </trkpt>
      <trkpt lat="44.5978" lon="0.91152">
        <ele>224.8</ele>
        <time>2021-12-19T08:57:12Z</time>
      </trkpt>
      <trkpt lat="44.59781" lon="0.9116">
        <ele>225.1</ele>
        <time>2021-12-19T08:57:15Z</time>
      </trkpt>
      <trkpt lat="44.59772" lon="0.91192">
        <ele>225.9</ele>
        <time>2021-12-19T08:57:23Z</time>
      </trkpt>
      <trkpt lat="44.59766" lon="0.91215">
        <ele>226.4</ele>
        <time>2021-12-19T08:57:29Z</time>
      </trkpt>
      <trkpt lat="44.5976" lon="0.91243">
        <ele>226.9</ele>
        <time>2021-12-19T08:57:37Z</time>
      </trkpt>
      <trkpt lat="44.59754" lon="0.91267">
        <ele>227.2</ele>
        <time>2021-12-19T08:57:45Z</time>
      </trkpt>
      <trkpt lat="44.5975" lon="0.91293">
        <ele>227.3</ele>
        <time>2021-12-19T08:57:52Z</time>
      </trkpt>
      <trkpt lat="44.59746" lon="0.91323">
        <ele>227.3</ele>
        <time>2021-12-19T08:58:00Z</time>
      </trkpt>
      <trkpt lat="44.59744" lon="0.91342">
        <ele>227.1</ele>
        <time>2021-12-19T08:58:07Z</time>
      </trkpt>
      <trkpt lat="44.59738" lon="0.91356">
        <ele>226.7</ele>
        <time>2021-12-19T08:58:12Z</time>
      </trkpt>
      <trkpt lat="44.59733" lon="0.91372">
        <ele>226.4</ele>
        <time>2021-12-19T08:58:17Z</time>
      </trkpt>
      <trkpt lat="44.59729" lon="0.91402">
        <ele>225.7</ele>
        <time>2021-12-19T08:58:23Z</time>
      </trkpt>
      <trkpt lat="44.59723" lon="0.91444">
        <ele>225</ele>
        <time>2021-12-19T08:58:31Z</time>
      </trkpt>
      <trkpt lat="44.59718" lon="0.91486">
        <ele>224.4</ele>
        <time>2021-12-19T08:58:38Z</time>
      </trkpt>
      <trkpt lat="44.59716" lon="0.91499">
        <ele>224.3</ele>
        <time>2021-12-19T08:58:40Z</time>
      </trkpt>
      <trkpt lat="44.59712" lon="0.91517">
        <ele>224.3</ele>
        <time>2021-12-19T08:58:43Z</time>
      </trkpt>
      <trkpt lat="44.59702" lon="0.91557">
        <ele>224.5</ele>
        <time>2021-12-19T08:58:50Z</time>
      </trkpt>
      <trkpt lat="44.59699" lon="0.91568">
        <ele>224.6</ele>
        <time>2021-12-19T08:58:53Z</time>
      </trkpt>
      <trkpt lat="44.59697" lon="0.9157">
        <ele>224.5</ele>
        <time>2021-12-19T08:58:54Z</time>
      </trkpt>
      <trkpt lat="44.59681" lon="0.91577">
        <ele>223.7</ele>
        <time>2021-12-19T08:58:59Z</time>
      </trkpt>
      <trkpt lat="44.59669" lon="0.91582">
        <ele>223.1</ele>
        <time>2021-12-19T08:59:02Z</time>
      </trkpt>
      <trkpt lat="44.59664" lon="0.91584">
        <ele>222.8</ele>
        <time>2021-12-19T08:59:03Z</time>
      </trkpt>
      <trkpt lat="44.5964" lon="0.91596">
        <ele>221.9</ele>
        <time>2021-12-19T08:59:08Z</time>
      </trkpt>
      <trkpt lat="44.59623" lon="0.91604">
        <ele>221.7</ele>
        <time>2021-12-19T08:59:13Z</time>
      </trkpt>
      <trkpt lat="44.59606" lon="0.91612">
        <ele>221.8</ele>
        <time>2021-12-19T08:59:17Z</time>
      </trkpt>
      <trkpt lat="44.59602" lon="0.91611">
        <ele>221.9</ele>
        <time>2021-12-19T08:59:18Z</time>
      </trkpt>
      <trkpt lat="44.59598" lon="0.9161">
        <ele>221.9</ele>
        <time>2021-12-19T08:59:19Z</time>
      </trkpt>
      <trkpt lat="44.59589" lon="0.9161">
        <ele>222.1</ele>
        <time>2021-12-19T08:59:21Z</time>
      </trkpt>
      <trkpt lat="44.59586" lon="0.91611">
        <ele>222.2</ele>
        <time>2021-12-19T08:59:22Z</time>
      </trkpt>
      <trkpt lat="44.59561" lon="0.9162">
        <ele>222.5</ele>
        <time>2021-12-19T08:59:28Z</time>
      </trkpt>
      <trkpt lat="44.59546" lon="0.91627">
        <ele>222.1</ele>
        <time>2021-12-19T08:59:32Z</time>
      </trkpt>
      <trkpt lat="44.59531" lon="0.91628">
        <ele>221.3</ele>
        <time>2021-12-19T08:59:35Z</time>
      </trkpt>
      <trkpt lat="44.59521" lon="0.91629">
        <ele>220.5</ele>
        <time>2021-12-19T08:59:37Z</time>
      </trkpt>
      <trkpt lat="44.59513" lon="0.91636">
        <ele>219.6</ele>
        <time>2021-12-19T08:59:39Z</time>
      </trkpt>
      <trkpt lat="44.59509" lon="0.91642">
        <ele>218.9</ele>
        <time>2021-12-19T08:59:40Z</time>
      </trkpt>
      <trkpt lat="44.59495" lon="0.91667">
        <ele>216.7</ele>
        <time>2021-12-19T08:59:43Z</time>
      </trkpt>
      <trkpt lat="44.59491" lon="0.91674">
        <ele>216.1</ele>
        <time>2021-12-19T08:59:44Z</time>
      </trkpt>
      <trkpt lat="44.59479" lon="0.91687">
        <ele>214.9</ele>
        <time>2021-12-19T08:59:46Z</time>
      </trkpt>
      <trkpt lat="44.59467" lon="0.917">
        <ele>214.2</ele>
        <time>2021-12-19T08:59:48Z</time>
      </trkpt>
      <trkpt lat="44.59456" lon="0.91707">
        <ele>213.9</ele>
        <time>2021-12-19T08:59:51Z</time>
      </trkpt>
      <trkpt lat="44.5943" lon="0.9172">
        <ele>214.2</ele>
        <time>2021-12-19T08:59:58Z</time>
      </trkpt>
      <trkpt lat="44.59417" lon="0.91726">
        <ele>215.1</ele>
        <time>2021-12-19T09:00:02Z</time>
      </trkpt>
      <trkpt lat="44.59403" lon="0.9173">
        <ele>216.5</ele>
        <time>2021-12-19T09:00:08Z</time>
      </trkpt>
      <trkpt lat="44.59391" lon="0.91731">
        <ele>217.9</ele>
        <time>2021-12-19T09:00:14Z</time>
      </trkpt>
      <trkpt lat="44.59387" lon="0.91731">
        <ele>218.5</ele>
        <time>2021-12-19T09:00:16Z</time>
      </trkpt>
      <trkpt lat="44.59381" lon="0.91732">
        <ele>219.2</ele>
        <time>2021-12-19T09:00:19Z</time>
      </trkpt>
      <trkpt lat="44.59373" lon="0.91736">
        <ele>220.2</ele>
        <time>2021-12-19T09:00:24Z</time>
      </trkpt>
      <trkpt lat="44.59364" lon="0.9174">
        <ele>221.5</ele>
        <time>2021-12-19T09:00:30Z</time>
      </trkpt>
      <trkpt lat="44.5936" lon="0.91741">
        <ele>221.9</ele>
        <time>2021-12-19T09:00:32Z</time>
      </trkpt>
      <trkpt lat="44.59357" lon="0.91742">
        <ele>222.3</ele>
        <time>2021-12-19T09:00:34Z</time>
      </trkpt>
      <trkpt lat="44.59355" lon="0.91743">
        <ele>222.5</ele>
        <time>2021-12-19T09:00:35Z</time>
      </trkpt>
      <trkpt lat="44.59342" lon="0.91748">
        <ele>223.9</ele>
        <time>2021-12-19T09:00:42Z</time>
      </trkpt>
      <trkpt lat="44.59329" lon="0.91752">
        <ele>225.1</ele>
        <time>2021-12-19T09:00:48Z</time>
      </trkpt>
      <trkpt lat="44.59311" lon="0.91762">
        <ele>226.5</ele>
        <time>2021-12-19T09:00:55Z</time>
      </trkpt>
      <trkpt lat="44.59295" lon="0.91767">
        <ele>227.1</ele>
        <time>2021-12-19T09:01:00Z</time>
      </trkpt>
      <trkpt lat="44.59274" lon="0.91782">
        <ele>227.5</ele>
        <time>2021-12-19T09:01:06Z</time>
      </trkpt>
      <trkpt lat="44.59272" lon="0.91799">
        <ele>229.1</ele>
        <time>2021-12-19T09:01:10Z</time>
      </trkpt>
      <trkpt lat="44.59268" lon="0.91825">
        <ele>229.8</ele>
        <time>2021-12-19T09:01:15Z</time>
      </trkpt>
      <trkpt lat="44.59257" lon="0.9185">
        <ele>230.5</ele>
        <time>2021-12-19T09:01:20Z</time>
      </trkpt>
      <trkpt lat="44.59245" lon="0.91873">
        <ele>231.2</ele>
        <time>2021-12-19T09:01:26Z</time>
      </trkpt>
      <trkpt lat="44.59238" lon="0.91896">
        <ele>231.8</ele>
        <time>2021-12-19T09:01:31Z</time>
      </trkpt>
      <trkpt lat="44.59238" lon="0.91934">
        <ele>232.7</ele>
        <time>2021-12-19T09:01:38Z</time>
      </trkpt>
      <trkpt lat="44.59238" lon="0.91956">
        <ele>233.4</ele>
        <time>2021-12-19T09:01:43Z</time>
      </trkpt>
      <trkpt lat="44.5924" lon="0.91989">
        <ele>234.2</ele>
        <time>2021-12-19T09:01:51Z</time>
      </trkpt>
      <trkpt lat="44.59242" lon="0.92012">
        <ele>234.5</ele>
        <time>2021-12-19T09:01:57Z</time>
      </trkpt>
      <trkpt lat="44.59247" lon="0.92024">
        <ele>234.5</ele>
        <time>2021-12-19T09:02:02Z</time>
      </trkpt>
      <trkpt lat="44.59247" lon="0.92027">
        <ele>234.5</ele>
        <time>2021-12-19T09:02:03Z</time>
      </trkpt>
      <trkpt lat="44.59244" lon="0.92047">
        <ele>234.3</ele>
        <time>2021-12-19T09:02:09Z</time>
      </trkpt>
      <trkpt lat="44.59245" lon="0.92066">
        <ele>233.9</ele>
        <time>2021-12-19T09:02:14Z</time>
      </trkpt>
      <trkpt lat="44.59247" lon="0.92082">
        <ele>233.5</ele>
        <time>2021-12-19T09:02:17Z</time>
      </trkpt>
      <trkpt lat="44.5925" lon="0.92095">
        <ele>233.1</ele>
        <time>2021-12-19T09:02:19Z</time>
      </trkpt>
      <trkpt lat="44.59257" lon="0.92128">
        <ele>232</ele>
        <time>2021-12-19T09:02:23Z</time>
      </trkpt>
      <trkpt lat="44.59269" lon="0.92187">
        <ele>231.5</ele>
        <time>2021-12-19T09:02:29Z</time>
      </trkpt>
      <trkpt lat="44.59277" lon="0.92235">
        <ele>232.6</ele>
        <time>2021-12-19T09:02:35Z</time>
      </trkpt>
      <trkpt lat="44.59287" lon="0.92289">
        <ele>234.9</ele>
        <time>2021-12-19T09:02:43Z</time>
      </trkpt>
      <trkpt lat="44.59296" lon="0.92328">
        <ele>236.8</ele>
        <time>2021-12-19T09:02:49Z</time>
      </trkpt>
      <trkpt lat="44.59296" lon="0.92334">
        <ele>237.1</ele>
        <time>2021-12-19T09:02:50Z</time>
      </trkpt>
      <trkpt lat="44.59304" lon="0.92374">
        <ele>238.5</ele>
        <time>2021-12-19T09:02:56Z</time>
      </trkpt>
      <trkpt lat="44.59312" lon="0.92413">
        <ele>240.1</ele>
        <time>2021-12-19T09:03:03Z</time>
      </trkpt>
      <trkpt lat="44.59313" lon="0.9245">
        <ele>240.9</ele>
        <time>2021-12-19T09:03:10Z</time>
      </trkpt>
      <trkpt lat="44.59312" lon="0.92455">
        <ele>240.9</ele>
        <time>2021-12-19T09:03:11Z</time>
      </trkpt>
      <trkpt lat="44.59303" lon="0.92481">
        <ele>241.5</ele>
        <time>2021-12-19T09:03:16Z</time>
      </trkpt>
      <trkpt lat="44.59287" lon="0.92521">
        <ele>242.3</ele>
        <time>2021-12-19T09:03:24Z</time>
      </trkpt>
      <trkpt lat="44.59276" lon="0.92542">
        <ele>242.5</ele>
        <time>2021-12-19T09:03:29Z</time>
      </trkpt>
      <trkpt lat="44.59259" lon="0.92575">
        <ele>242.2</ele>
        <time>2021-12-19T09:03:36Z</time>
      </trkpt>
      <trkpt lat="44.59236" lon="0.92625">
        <ele>241.7</ele>
        <time>2021-12-19T09:03:44Z</time>
      </trkpt>
      <trkpt lat="44.59221" lon="0.92665">
        <ele>241.9</ele>
        <time>2021-12-19T09:03:50Z</time>
      </trkpt>
      <trkpt lat="44.59206" lon="0.92705">
        <ele>242.2</ele>
        <time>2021-12-19T09:03:56Z</time>
      </trkpt>
      <trkpt lat="44.59198" lon="0.92738">
        <ele>242.5</ele>
        <time>2021-12-19T09:04:02Z</time>
      </trkpt>
      <trkpt lat="44.59205" lon="0.92759">
        <ele>242.6</ele>
        <time>2021-12-19T09:04:07Z</time>
      </trkpt>
      <trkpt lat="44.59222" lon="0.92782">
        <ele>242.6</ele>
        <time>2021-12-19T09:04:13Z</time>
      </trkpt>
      <trkpt lat="44.59225" lon="0.92787">
        <ele>242.6</ele>
        <time>2021-12-19T09:04:14Z</time>
      </trkpt>
      <trkpt lat="44.59237" lon="0.9282">
        <ele>242.3</ele>
        <time>2021-12-19T09:04:20Z</time>
      </trkpt>
      <trkpt lat="44.59238" lon="0.92826">
        <ele>242.2</ele>
        <time>2021-12-19T09:04:21Z</time>
      </trkpt>
      <trkpt lat="44.5924" lon="0.92839">
        <ele>242</ele>
        <time>2021-12-19T09:04:23Z</time>
      </trkpt>
      <trkpt lat="44.59242" lon="0.92844">
        <ele>241.8</ele>
        <time>2021-12-19T09:04:24Z</time>
      </trkpt>
      <trkpt lat="44.59247" lon="0.92848">
        <ele>241.6</ele>
        <time>2021-12-19T09:04:25Z</time>
      </trkpt>
      <trkpt lat="44.59259" lon="0.92854">
        <ele>241.2</ele>
        <time>2021-12-19T09:04:27Z</time>
      </trkpt>
      <trkpt lat="44.59294" lon="0.92869">
        <ele>240.8</ele>
        <time>2021-12-19T09:04:33Z</time>
      </trkpt>
      <trkpt lat="44.5931" lon="0.92878">
        <ele>240.8</ele>
        <time>2021-12-19T09:04:36Z</time>
      </trkpt>
      <trkpt lat="44.5932" lon="0.92887">
        <ele>240.8</ele>
        <time>2021-12-19T09:04:38Z</time>
      </trkpt>
      <trkpt lat="44.59344" lon="0.92923">
        <ele>240.7</ele>
        <time>2021-12-19T09:04:44Z</time>
      </trkpt>
      <trkpt lat="44.59381" lon="0.92978">
        <ele>240.9</ele>
        <time>2021-12-19T09:04:53Z</time>
      </trkpt>
      <trkpt lat="44.59397" lon="0.92999">
        <ele>241.1</ele>
        <time>2021-12-19T09:04:57Z</time>
      </trkpt>
      <trkpt lat="44.5941" lon="0.93012">
        <ele>241.2</ele>
        <time>2021-12-19T09:05:00Z</time>
      </trkpt>
      <trkpt lat="44.59413" lon="0.93016">
        <ele>241.3</ele>
        <time>2021-12-19T09:05:01Z</time>
      </trkpt>
      <trkpt lat="44.59418" lon="0.93025">
        <ele>241.3</ele>
        <time>2021-12-19T09:05:03Z</time>
      </trkpt>
      <trkpt lat="44.59419" lon="0.9303">
        <ele>241.4</ele>
        <time>2021-12-19T09:05:04Z</time>
      </trkpt>
      <trkpt lat="44.5942" lon="0.9306">
        <ele>241.7</ele>
        <time>2021-12-19T09:05:09Z</time>
      </trkpt>
      <trkpt lat="44.5942" lon="0.93073">
        <ele>241.9</ele>
        <time>2021-12-19T09:05:11Z</time>
      </trkpt>
      <trkpt lat="44.59421" lon="0.93091">
        <ele>242.1</ele>
        <time>2021-12-19T09:05:14Z</time>
      </trkpt>
      <trkpt lat="44.59423" lon="0.93105">
        <ele>242.2</ele>
        <time>2021-12-19T09:05:16Z</time>
      </trkpt>
      <trkpt lat="44.59427" lon="0.93138">
        <ele>242.4</ele>
        <time>2021-12-19T09:05:21Z</time>
      </trkpt>
      <trkpt lat="44.59436" lon="0.93183">
        <ele>242.3</ele>
        <time>2021-12-19T09:05:29Z</time>
      </trkpt>
      <trkpt lat="44.59444" lon="0.93223">
        <ele>242.1</ele>
        <time>2021-12-19T09:05:37Z</time>
      </trkpt>
      <trkpt lat="44.59452" lon="0.93256">
        <ele>242.1</ele>
        <time>2021-12-19T09:05:44Z</time>
      </trkpt>
      <trkpt lat="44.59463" lon="0.93276">
        <ele>242</ele>
        <time>2021-12-19T09:05:49Z</time>
      </trkpt>
      <trkpt lat="44.59473" lon="0.93298">
        <ele>242</ele>
        <time>2021-12-19T09:05:54Z</time>
      </trkpt>
      <trkpt lat="44.59475" lon="0.93302">
        <ele>242</ele>
        <time>2021-12-19T09:05:55Z</time>
      </trkpt>
      <trkpt lat="44.59483" lon="0.9332">
        <ele>242.1</ele>
        <time>2021-12-19T09:05:59Z</time>
      </trkpt>
      <trkpt lat="44.595" lon="0.93345">
        <ele>242.1</ele>
        <time>2021-12-19T09:06:05Z</time>
      </trkpt>
      <trkpt lat="44.59518" lon="0.93373">
        <ele>241.8</ele>
        <time>2021-12-19T09:06:12Z</time>
      </trkpt>
      <trkpt lat="44.59523" lon="0.93383">
        <ele>241.5</ele>
        <time>2021-12-19T09:06:15Z</time>
      </trkpt>
      <trkpt lat="44.59523" lon="0.93392">
        <ele>241.1</ele>
        <time>2021-12-19T09:06:17Z</time>
      </trkpt>
      <trkpt lat="44.59523" lon="0.93397">
        <ele>240.9</ele>
        <time>2021-12-19T09:06:18Z</time>
      </trkpt>
      <trkpt lat="44.59528" lon="0.93408">
        <ele>240.4</ele>
        <time>2021-12-19T09:06:20Z</time>
      </trkpt>
      <trkpt lat="44.59541" lon="0.93444">
        <ele>238.4</ele>
        <time>2021-12-19T09:06:25Z</time>
      </trkpt>
      <trkpt lat="44.5956" lon="0.93497">
        <ele>236.7</ele>
        <time>2021-12-19T09:06:31Z</time>
      </trkpt>
      <trkpt lat="44.59576" lon="0.9354">
        <ele>235.6</ele>
        <time>2021-12-19T09:06:36Z</time>
      </trkpt>
      <trkpt lat="44.59595" lon="0.936">
        <ele>234.5</ele>
        <time>2021-12-19T09:06:43Z</time>
      </trkpt>
      <trkpt lat="44.59597" lon="0.93608">
        <ele>234.4</ele>
        <time>2021-12-19T09:06:44Z</time>
      </trkpt>
      <trkpt lat="44.59599" lon="0.93634">
        <ele>234.1</ele>
        <time>2021-12-19T09:06:47Z</time>
      </trkpt>
      <trkpt lat="44.59598" lon="0.93652">
        <ele>233.8</ele>
        <time>2021-12-19T09:06:49Z</time>
      </trkpt>
      <trkpt lat="44.59596" lon="0.93668">
        <ele>233.5</ele>
        <time>2021-12-19T09:06:51Z</time>
      </trkpt>
      <trkpt lat="44.59598" lon="0.93687">
        <ele>233.1</ele>
        <time>2021-12-19T09:06:53Z</time>
      </trkpt>
      <trkpt lat="44.59602" lon="0.93705">
        <ele>232.8</ele>
        <time>2021-12-19T09:06:55Z</time>
      </trkpt>
      <trkpt lat="44.5961" lon="0.9372">
        <ele>232.5</ele>
        <time>2021-12-19T09:06:57Z</time>
      </trkpt>
      <trkpt lat="44.5963" lon="0.93743">
        <ele>231.8</ele>
        <time>2021-12-19T09:07:01Z</time>
      </trkpt>
      <trkpt lat="44.59641" lon="0.93751">
        <ele>231.4</ele>
        <time>2021-12-19T09:07:03Z</time>
      </trkpt>
      <trkpt lat="44.59652" lon="0.93757">
        <ele>230.9</ele>
        <time>2021-12-19T09:07:05Z</time>
      </trkpt>
      <trkpt lat="44.59661" lon="0.93766">
        <ele>230.4</ele>
        <time>2021-12-19T09:07:07Z</time>
      </trkpt>
      <trkpt lat="44.59665" lon="0.93771">
        <ele>230.1</ele>
        <time>2021-12-19T09:07:08Z</time>
      </trkpt>
      <trkpt lat="44.59674" lon="0.93783">
        <ele>229.6</ele>
        <time>2021-12-19T09:07:10Z</time>
      </trkpt>
      <trkpt lat="44.59689" lon="0.93803">
        <ele>228.7</ele>
        <time>2021-12-19T09:07:13Z</time>
      </trkpt>
      <trkpt lat="44.5972" lon="0.93846">
        <ele>227</ele>
        <time>2021-12-19T09:07:19Z</time>
      </trkpt>
      <trkpt lat="44.59729" lon="0.93862">
        <ele>226.5</ele>
        <time>2021-12-19T09:07:21Z</time>
      </trkpt>
      <trkpt lat="44.59739" lon="0.93875">
        <ele>227.2</ele>
        <time>2021-12-19T09:07:23Z</time>
      </trkpt>
      <trkpt lat="44.59748" lon="0.93893">
        <ele>228.2</ele>
        <time>2021-12-19T09:07:26Z</time>
      </trkpt>
      <trkpt lat="44.5975" lon="0.93907">
        <ele>228.9</ele>
        <time>2021-12-19T09:07:28Z</time>
      </trkpt>
      <trkpt lat="44.59751" lon="0.93915">
        <ele>229.3</ele>
        <time>2021-12-19T09:07:29Z</time>
      </trkpt>
      <trkpt lat="44.59752" lon="0.93922">
        <ele>229.8</ele>
        <time>2021-12-19T09:07:30Z</time>
      </trkpt>
      <trkpt lat="44.59755" lon="0.93936">
        <ele>230.7</ele>
        <time>2021-12-19T09:07:32Z</time>
      </trkpt>
      <trkpt lat="44.59756" lon="0.93942">
        <ele>230.9</ele>
        <time>2021-12-19T09:07:33Z</time>
      </trkpt>
      <trkpt lat="44.59762" lon="0.93961">
        <ele>230.8</ele>
        <time>2021-12-19T09:07:37Z</time>
      </trkpt>
      <trkpt lat="44.59766" lon="0.93968">
        <ele>230.7</ele>
        <time>2021-12-19T09:07:38Z</time>
      </trkpt>
      <trkpt lat="44.59777" lon="0.93987">
        <ele>230.4</ele>
        <time>2021-12-19T09:07:41Z</time>
      </trkpt>
      <trkpt lat="44.59779" lon="0.93993">
        <ele>230.3</ele>
        <time>2021-12-19T09:07:42Z</time>
      </trkpt>
      <trkpt lat="44.59781" lon="0.94017">
        <ele>230.3</ele>
        <time>2021-12-19T09:07:46Z</time>
      </trkpt>
      <trkpt lat="44.59781" lon="0.94045">
        <ele>230.5</ele>
        <time>2021-12-19T09:07:50Z</time>
      </trkpt>
      <trkpt lat="44.59782" lon="0.9407">
        <ele>231.1</ele>
        <time>2021-12-19T09:07:54Z</time>
      </trkpt>
      <trkpt lat="44.59781" lon="0.94096">
        <ele>232</ele>
        <time>2021-12-19T09:07:58Z</time>
      </trkpt>
      <trkpt lat="44.59782" lon="0.9412">
        <ele>233.1</ele>
        <time>2021-12-19T09:08:02Z</time>
      </trkpt>
      <trkpt lat="44.59785" lon="0.94143">
        <ele>234.5</ele>
        <time>2021-12-19T09:08:06Z</time>
      </trkpt>
      <trkpt lat="44.59787" lon="0.9415">
        <ele>234.9</ele>
        <time>2021-12-19T09:08:08Z</time>
      </trkpt>
      <trkpt lat="44.59789" lon="0.94158">
        <ele>235.4</ele>
        <time>2021-12-19T09:08:10Z</time>
      </trkpt>
      <trkpt lat="44.59795" lon="0.94176">
        <ele>236.5</ele>
        <time>2021-12-19T09:08:14Z</time>
      </trkpt>
      <trkpt lat="44.59799" lon="0.94189">
        <ele>237.5</ele>
        <time>2021-12-19T09:08:18Z</time>
      </trkpt>
      <trkpt lat="44.598" lon="0.94192">
        <ele>237.7</ele>
        <time>2021-12-19T09:08:19Z</time>
      </trkpt>
      <trkpt lat="44.59805" lon="0.94208">
        <ele>239</ele>
        <time>2021-12-19T09:08:25Z</time>
      </trkpt>
      <trkpt lat="44.59811" lon="0.94221">
        <ele>240.1</ele>
        <time>2021-12-19T09:08:30Z</time>
      </trkpt>
      <trkpt lat="44.59817" lon="0.94229">
        <ele>240.9</ele>
        <time>2021-12-19T09:08:35Z</time>
      </trkpt>
      <trkpt lat="44.59825" lon="0.94237">
        <ele>241.7</ele>
        <time>2021-12-19T09:08:40Z</time>
      </trkpt>
      <trkpt lat="44.59837" lon="0.94254">
        <ele>242.1</ele>
        <time>2021-12-19T09:08:46Z</time>
      </trkpt>
      <trkpt lat="44.59843" lon="0.94266">
        <ele>241.8</ele>
        <time>2021-12-19T09:08:49Z</time>
      </trkpt>
      <trkpt lat="44.59846" lon="0.9427">
        <ele>241.7</ele>
        <time>2021-12-19T09:08:50Z</time>
      </trkpt>
      <trkpt lat="44.5985" lon="0.94275">
        <ele>241.5</ele>
        <time>2021-12-19T09:08:51Z</time>
      </trkpt>
      <trkpt lat="44.59857" lon="0.94286">
        <ele>241.1</ele>
        <time>2021-12-19T09:08:53Z</time>
      </trkpt>
      <trkpt lat="44.5986" lon="0.94293">
        <ele>240.8</ele>
        <time>2021-12-19T09:08:54Z</time>
      </trkpt>
      <trkpt lat="44.59863" lon="0.943">
        <ele>240.6</ele>
        <time>2021-12-19T09:08:55Z</time>
      </trkpt>
      <trkpt lat="44.59871" lon="0.94312">
        <ele>240.2</ele>
        <time>2021-12-19T09:08:57Z</time>
      </trkpt>
      <trkpt lat="44.59883" lon="0.94326">
        <ele>239.9</ele>
        <time>2021-12-19T09:09:00Z</time>
      </trkpt>
      <trkpt lat="44.59889" lon="0.94336">
        <ele>239.8</ele>
        <time>2021-12-19T09:09:02Z</time>
      </trkpt>
      <trkpt lat="44.59898" lon="0.9435">
        <ele>239.8</ele>
        <time>2021-12-19T09:09:05Z</time>
      </trkpt>
      <trkpt lat="44.59901" lon="0.94355">
        <ele>239.8</ele>
        <time>2021-12-19T09:09:06Z</time>
      </trkpt>
      <trkpt lat="44.59905" lon="0.94368">
        <ele>239.5</ele>
        <time>2021-12-19T09:09:08Z</time>
      </trkpt>
      <trkpt lat="44.59908" lon="0.94381">
        <ele>238.5</ele>
        <time>2021-12-19T09:09:10Z</time>
      </trkpt>
      <trkpt lat="44.59906" lon="0.94402">
        <ele>238</ele>
        <time>2021-12-19T09:09:14Z</time>
      </trkpt>
      <trkpt lat="44.59905" lon="0.94431">
        <ele>237.6</ele>
        <time>2021-12-19T09:09:18Z</time>
      </trkpt>
      <trkpt lat="44.59901" lon="0.94471">
        <ele>237</ele>
        <time>2021-12-19T09:09:23Z</time>
      </trkpt>
      <trkpt lat="44.59898" lon="0.945">
        <ele>236.6</ele>
        <time>2021-12-19T09:09:27Z</time>
      </trkpt>
      <trkpt lat="44.59895" lon="0.94539">
        <ele>236.1</ele>
        <time>2021-12-19T09:09:33Z</time>
      </trkpt>
      <trkpt lat="44.59891" lon="0.94569">
        <ele>235.8</ele>
        <time>2021-12-19T09:09:37Z</time>
      </trkpt>
      <trkpt lat="44.5989" lon="0.94576">
        <ele>235.7</ele>
        <time>2021-12-19T09:09:38Z</time>
      </trkpt>
      <trkpt lat="44.59888" lon="0.94591">
        <ele>235.5</ele>
        <time>2021-12-19T09:09:40Z</time>
      </trkpt>
      <trkpt lat="44.59885" lon="0.94612">
        <ele>235.3</ele>
        <time>2021-12-19T09:09:43Z</time>
      </trkpt>
      <trkpt lat="44.59883" lon="0.94619">
        <ele>235.3</ele>
        <time>2021-12-19T09:09:44Z</time>
      </trkpt>
      <trkpt lat="44.59877" lon="0.94639">
        <ele>235.3</ele>
        <time>2021-12-19T09:09:47Z</time>
      </trkpt>
      <trkpt lat="44.59869" lon="0.94657">
        <ele>235.5</ele>
        <time>2021-12-19T09:09:50Z</time>
      </trkpt>
      <trkpt lat="44.59866" lon="0.94663">
        <ele>235.6</ele>
        <time>2021-12-19T09:09:51Z</time>
      </trkpt>
      <trkpt lat="44.59856" lon="0.94681">
        <ele>236</ele>
        <time>2021-12-19T09:09:55Z</time>
      </trkpt>
      <trkpt lat="44.59847" lon="0.94704">
        <ele>236.5</ele>
        <time>2021-12-19T09:10:00Z</time>
      </trkpt>
      <trkpt lat="44.5984" lon="0.94729">
        <ele>236.9</ele>
        <time>2021-12-19T09:10:05Z</time>
      </trkpt>
      <trkpt lat="44.59822" lon="0.94766">
        <ele>237.7</ele>
        <time>2021-12-19T09:10:12Z</time>
      </trkpt>
      <trkpt lat="44.59809" lon="0.94794">
        <ele>238.4</ele>
        <time>2021-12-19T09:10:18Z</time>
      </trkpt>
      <trkpt lat="44.598" lon="0.94811">
        <ele>238.9</ele>
        <time>2021-12-19T09:10:22Z</time>
      </trkpt>
      <trkpt lat="44.59782" lon="0.94838">
        <ele>239.7</ele>
        <time>2021-12-19T09:10:30Z</time>
      </trkpt>
      <trkpt lat="44.59765" lon="0.94855">
        <ele>240.2</ele>
        <time>2021-12-19T09:10:36Z</time>
      </trkpt>
      <trkpt lat="44.59752" lon="0.94872">
        <ele>240.6</ele>
        <time>2021-12-19T09:10:41Z</time>
      </trkpt>
      <trkpt lat="44.59737" lon="0.94898">
        <ele>240.9</ele>
        <time>2021-12-19T09:10:48Z</time>
      </trkpt>
      <trkpt lat="44.59725" lon="0.94928">
        <ele>240.4</ele>
        <time>2021-12-19T09:10:53Z</time>
      </trkpt>
      <trkpt lat="44.59715" lon="0.94953">
        <ele>239.3</ele>
        <time>2021-12-19T09:10:57Z</time>
      </trkpt>
      <trkpt lat="44.59712" lon="0.9496">
        <ele>238.9</ele>
        <time>2021-12-19T09:10:58Z</time>
      </trkpt>
      <trkpt lat="44.59701" lon="0.94989">
        <ele>236.6</ele>
        <time>2021-12-19T09:11:02Z</time>
      </trkpt>
      <trkpt lat="44.59698" lon="0.94995">
        <ele>236.1</ele>
        <time>2021-12-19T09:11:03Z</time>
      </trkpt>
      <trkpt lat="44.59694" lon="0.94998">
        <ele>235.6</ele>
        <time>2021-12-19T09:11:04Z</time>
      </trkpt>
      <trkpt lat="44.59685" lon="0.94998">
        <ele>234.5</ele>
        <time>2021-12-19T09:11:06Z</time>
      </trkpt>
      <trkpt lat="44.59675" lon="0.94995">
        <ele>233.3</ele>
        <time>2021-12-19T09:11:08Z</time>
      </trkpt>
      <trkpt lat="44.59664" lon="0.94998">
        <ele>232</ele>
        <time>2021-12-19T09:11:10Z</time>
      </trkpt>
      <trkpt lat="44.59655" lon="0.95011">
        <ele>230.5</ele>
        <time>2021-12-19T09:11:12Z</time>
      </trkpt>
      <trkpt lat="44.5965" lon="0.95031">
        <ele>229.4</ele>
        <time>2021-12-19T09:11:14Z</time>
      </trkpt>
      <trkpt lat="44.5965" lon="0.95041">
        <ele>229.2</ele>
        <time>2021-12-19T09:11:15Z</time>
      </trkpt>
      <trkpt lat="44.5965" lon="0.9505">
        <ele>229.2</ele>
        <time>2021-12-19T09:11:16Z</time>
      </trkpt>
      <trkpt lat="44.59655" lon="0.95063">
        <ele>229.3</ele>
        <time>2021-12-19T09:11:18Z</time>
      </trkpt>
      <trkpt lat="44.59667" lon="0.95079">
        <ele>229.6</ele>
        <time>2021-12-19T09:11:23Z</time>
      </trkpt>
      <trkpt lat="44.59676" lon="0.95083">
        <ele>229.6</ele>
        <time>2021-12-19T09:11:27Z</time>
      </trkpt>
      <trkpt lat="44.59676" lon="0.95087">
        <ele>229.6</ele>
        <time>2021-12-19T09:11:28Z</time>
      </trkpt>
      <trkpt lat="44.59667" lon="0.95095">
        <ele>229.1</ele>
        <time>2021-12-19T09:11:32Z</time>
      </trkpt>
      <trkpt lat="44.59654" lon="0.95103">
        <ele>228.5</ele>
        <time>2021-12-19T09:11:36Z</time>
      </trkpt>
      <trkpt lat="44.59646" lon="0.95109">
        <ele>228.1</ele>
        <time>2021-12-19T09:11:38Z</time>
      </trkpt>
      <trkpt lat="44.59638" lon="0.95115">
        <ele>227.7</ele>
        <time>2021-12-19T09:11:40Z</time>
      </trkpt>
      <trkpt lat="44.59634" lon="0.9512">
        <ele>227.5</ele>
        <time>2021-12-19T09:11:41Z</time>
      </trkpt>
      <trkpt lat="44.59621" lon="0.95135">
        <ele>226.9</ele>
        <time>2021-12-19T09:11:44Z</time>
      </trkpt>
      <trkpt lat="44.59614" lon="0.95147">
        <ele>226.5</ele>
        <time>2021-12-19T09:11:46Z</time>
      </trkpt>
      <trkpt lat="44.59595" lon="0.95182">
        <ele>225.2</ele>
        <time>2021-12-19T09:11:51Z</time>
      </trkpt>
      <trkpt lat="44.59588" lon="0.95194">
        <ele>224.6</ele>
        <time>2021-12-19T09:11:53Z</time>
      </trkpt>
      <trkpt lat="44.59586" lon="0.952">
        <ele>224.3</ele>
        <time>2021-12-19T09:11:54Z</time>
      </trkpt>
      <trkpt lat="44.59581" lon="0.95213">
        <ele>223.5</ele>
        <time>2021-12-19T09:11:56Z</time>
      </trkpt>
      <trkpt lat="44.59575" lon="0.95236">
        <ele>222.3</ele>
        <time>2021-12-19T09:11:59Z</time>
      </trkpt>
      <trkpt lat="44.59574" lon="0.95244">
        <ele>221.9</ele>
        <time>2021-12-19T09:12:00Z</time>
      </trkpt>
      <trkpt lat="44.59571" lon="0.9526">
        <ele>221.4</ele>
        <time>2021-12-19T09:12:02Z</time>
      </trkpt>
      <trkpt lat="44.5957" lon="0.95267">
        <ele>221.1</ele>
        <time>2021-12-19T09:12:03Z</time>
      </trkpt>
      <trkpt lat="44.59571" lon="0.95282">
        <ele>220.5</ele>
        <time>2021-12-19T09:12:05Z</time>
      </trkpt>
      <trkpt lat="44.59574" lon="0.95307">
        <ele>218.8</ele>
        <time>2021-12-19T09:12:08Z</time>
      </trkpt>
      <trkpt lat="44.59575" lon="0.95316">
        <ele>218.2</ele>
        <time>2021-12-19T09:12:09Z</time>
      </trkpt>
      <trkpt lat="44.59575" lon="0.95341">
        <ele>216.2</ele>
        <time>2021-12-19T09:12:12Z</time>
      </trkpt>
      <trkpt lat="44.59575" lon="0.95349">
        <ele>215.5</ele>
        <time>2021-12-19T09:12:13Z</time>
      </trkpt>
      <trkpt lat="44.59575" lon="0.9539">
        <ele>212.8</ele>
        <time>2021-12-19T09:12:18Z</time>
      </trkpt>
      <trkpt lat="44.59572" lon="0.95417">
        <ele>210.7</ele>
        <time>2021-12-19T09:12:22Z</time>
      </trkpt>
      <trkpt lat="44.59571" lon="0.95424">
        <ele>210.1</ele>
        <time>2021-12-19T09:12:23Z</time>
      </trkpt>
      <trkpt lat="44.59566" lon="0.95457">
        <ele>207.3</ele>
        <time>2021-12-19T09:12:28Z</time>
      </trkpt>
      <trkpt lat="44.59566" lon="0.95464">
        <ele>206.8</ele>
        <time>2021-12-19T09:12:29Z</time>
      </trkpt>
      <trkpt lat="44.59563" lon="0.95494">
        <ele>204.4</ele>
        <time>2021-12-19T09:12:34Z</time>
      </trkpt>
      <trkpt lat="44.59563" lon="0.95523">
        <ele>201.6</ele>
        <time>2021-12-19T09:12:39Z</time>
      </trkpt>
      <trkpt lat="44.59561" lon="0.95546">
        <ele>199.6</ele>
        <time>2021-12-19T09:12:44Z</time>
      </trkpt>
      <trkpt lat="44.59567" lon="0.95573">
        <ele>197.6</ele>
        <time>2021-12-19T09:12:49Z</time>
      </trkpt>
      <trkpt lat="44.59573" lon="0.95591">
        <ele>196.5</ele>
        <time>2021-12-19T09:12:52Z</time>
      </trkpt>
      <trkpt lat="44.59577" lon="0.95603">
        <ele>195.8</ele>
        <time>2021-12-19T09:12:54Z</time>
      </trkpt>
      <trkpt lat="44.59581" lon="0.95614">
        <ele>195.1</ele>
        <time>2021-12-19T09:12:56Z</time>
      </trkpt>
      <trkpt lat="44.59586" lon="0.95627">
        <ele>194.4</ele>
        <time>2021-12-19T09:12:58Z</time>
      </trkpt>
      <trkpt lat="44.59588" lon="0.95634">
        <ele>194</ele>
        <time>2021-12-19T09:12:59Z</time>
      </trkpt>
      <trkpt lat="44.59591" lon="0.95646">
        <ele>193.3</ele>
        <time>2021-12-19T09:13:01Z</time>
      </trkpt>
      <trkpt lat="44.59597" lon="0.95658">
        <ele>192.5</ele>
        <time>2021-12-19T09:13:03Z</time>
      </trkpt>
      <trkpt lat="44.59599" lon="0.95664">
        <ele>192.2</ele>
        <time>2021-12-19T09:13:04Z</time>
      </trkpt>
      <trkpt lat="44.59602" lon="0.95676">
        <ele>191.7</ele>
        <time>2021-12-19T09:13:06Z</time>
      </trkpt>
      <trkpt lat="44.59604" lon="0.95687">
        <ele>191</ele>
        <time>2021-12-19T09:13:08Z</time>
      </trkpt>
      <trkpt lat="44.59604" lon="0.95691">
        <ele>190.7</ele>
        <time>2021-12-19T09:13:09Z</time>
      </trkpt>
      <trkpt lat="44.59604" lon="0.957">
        <ele>190.2</ele>
        <time>2021-12-19T09:13:11Z</time>
      </trkpt>
      <trkpt lat="44.59604" lon="0.95714">
        <ele>189.2</ele>
        <time>2021-12-19T09:13:16Z</time>
      </trkpt>
      <trkpt lat="44.59601" lon="0.95733">
        <ele>187.8</ele>
        <time>2021-12-19T09:13:20Z</time>
      </trkpt>
      <trkpt lat="44.59598" lon="0.95744">
        <ele>186.9</ele>
        <time>2021-12-19T09:13:22Z</time>
      </trkpt>
      <trkpt lat="44.59595" lon="0.95753">
        <ele>186</ele>
        <time>2021-12-19T09:13:24Z</time>
      </trkpt>
      <trkpt lat="44.59589" lon="0.95777">
        <ele>184.2</ele>
        <time>2021-12-19T09:13:29Z</time>
      </trkpt>
      <trkpt lat="44.59585" lon="0.95794">
        <ele>182.8</ele>
        <time>2021-12-19T09:13:32Z</time>
      </trkpt>
      <trkpt lat="44.59583" lon="0.95799">
        <ele>182.4</ele>
        <time>2021-12-19T09:13:33Z</time>
      </trkpt>
      <trkpt lat="44.59581" lon="0.95814">
        <ele>181.4</ele>
        <time>2021-12-19T09:13:36Z</time>
      </trkpt>
      <trkpt lat="44.5958" lon="0.95819">
        <ele>181.1</ele>
        <time>2021-12-19T09:13:37Z</time>
      </trkpt>
      <trkpt lat="44.59576" lon="0.95842">
        <ele>179.8</ele>
        <time>2021-12-19T09:13:42Z</time>
      </trkpt>
      <trkpt lat="44.59577" lon="0.95861">
        <ele>178.8</ele>
        <time>2021-12-19T09:13:46Z</time>
      </trkpt>
      <trkpt lat="44.59575" lon="0.95884">
        <ele>177.5</ele>
        <time>2021-12-19T09:13:50Z</time>
      </trkpt>
      <trkpt lat="44.59574" lon="0.95898">
        <ele>176.8</ele>
        <time>2021-12-19T09:13:53Z</time>
      </trkpt>
      <trkpt lat="44.59572" lon="0.95905">
        <ele>176.4</ele>
        <time>2021-12-19T09:13:55Z</time>
      </trkpt>
      <trkpt lat="44.59571" lon="0.95933">
        <ele>174.5</ele>
        <time>2021-12-19T09:14:00Z</time>
      </trkpt>
      <trkpt lat="44.59574" lon="0.95961">
        <ele>172.3</ele>
        <time>2021-12-19T09:14:05Z</time>
      </trkpt>
      <trkpt lat="44.59575" lon="0.95991">
        <ele>170.1</ele>
        <time>2021-12-19T09:14:10Z</time>
      </trkpt>
      <trkpt lat="44.59577" lon="0.96016">
        <ele>168.2</ele>
        <time>2021-12-19T09:14:14Z</time>
      </trkpt>
      <trkpt lat="44.59577" lon="0.96029">
        <ele>167.2</ele>
        <time>2021-12-19T09:14:16Z</time>
      </trkpt>
      <trkpt lat="44.5958" lon="0.96041">
        <ele>166</ele>
        <time>2021-12-19T09:14:18Z</time>
      </trkpt>
      <trkpt lat="44.5958" lon="0.96056">
        <ele>164.4</ele>
        <time>2021-12-19T09:14:21Z</time>
      </trkpt>
      <trkpt lat="44.59579" lon="0.96059">
        <ele>164.1</ele>
        <time>2021-12-19T09:14:22Z</time>
      </trkpt>
      <trkpt lat="44.59569" lon="0.9607">
        <ele>162.3</ele>
        <time>2021-12-19T09:14:26Z</time>
      </trkpt>
      <trkpt lat="44.59556" lon="0.96078">
        <ele>160.3</ele>
        <time>2021-12-19T09:14:30Z</time>
      </trkpt>
      <trkpt lat="44.5954" lon="0.96086">
        <ele>158.1</ele>
        <time>2021-12-19T09:14:34Z</time>
      </trkpt>
      <trkpt lat="44.59523" lon="0.96092">
        <ele>155.9</ele>
        <time>2021-12-19T09:14:39Z</time>
      </trkpt>
      <trkpt lat="44.5951" lon="0.96086">
        <ele>154</ele>
        <time>2021-12-19T09:14:44Z</time>
      </trkpt>
      <trkpt lat="44.59502" lon="0.96083">
        <ele>153.1</ele>
        <time>2021-12-19T09:14:46Z</time>
      </trkpt>
      <trkpt lat="44.59493" lon="0.96082">
        <ele>152</ele>
        <time>2021-12-19T09:14:48Z</time>
      </trkpt>
      <trkpt lat="44.59489" lon="0.96083">
        <ele>151.4</ele>
        <time>2021-12-19T09:14:49Z</time>
      </trkpt>
      <trkpt lat="44.59474" lon="0.96089">
        <ele>149</ele>
        <time>2021-12-19T09:14:52Z</time>
      </trkpt>
      <trkpt lat="44.5947" lon="0.96091">
        <ele>148.3</ele>
        <time>2021-12-19T09:14:53Z</time>
      </trkpt>
      <trkpt lat="44.59462" lon="0.96094">
        <ele>147.1</ele>
        <time>2021-12-19T09:14:55Z</time>
      </trkpt>
      <trkpt lat="44.59457" lon="0.96094">
        <ele>146.5</ele>
        <time>2021-12-19T09:14:56Z</time>
      </trkpt>
      <trkpt lat="44.59442" lon="0.96094">
        <ele>144.6</ele>
        <time>2021-12-19T09:14:59Z</time>
      </trkpt>
      <trkpt lat="44.59435" lon="0.96094">
        <ele>143.6</ele>
        <time>2021-12-19T09:15:01Z</time>
      </trkpt>
      <trkpt lat="44.59433" lon="0.96107">
        <ele>142.2</ele>
        <time>2021-12-19T09:15:04Z</time>
      </trkpt>
      <trkpt lat="44.59437" lon="0.96119">
        <ele>140.9</ele>
        <time>2021-12-19T09:15:06Z</time>
      </trkpt>
      <trkpt lat="44.5944" lon="0.96125">
        <ele>140.4</ele>
        <time>2021-12-19T09:15:07Z</time>
      </trkpt>
      <trkpt lat="44.59445" lon="0.96131">
        <ele>139.5</ele>
        <time>2021-12-19T09:15:08Z</time>
      </trkpt>
      <trkpt lat="44.59456" lon="0.96138">
        <ele>137.7</ele>
        <time>2021-12-19T09:15:10Z</time>
      </trkpt>
      <trkpt lat="44.59467" lon="0.96144">
        <ele>135.9</ele>
        <time>2021-12-19T09:15:12Z</time>
      </trkpt>
      <trkpt lat="44.59471" lon="0.96153">
        <ele>134.6</ele>
        <time>2021-12-19T09:15:14Z</time>
      </trkpt>
      <trkpt lat="44.5947" lon="0.96157">
        <ele>132.9</ele>
        <time>2021-12-19T09:15:17Z</time>
      </trkpt>
      <trkpt lat="44.59472" lon="0.96165">
        <ele>132.6</ele>
        <time>2021-12-19T09:23:25Z</time>
      </trkpt>
      <trkpt lat="44.59467" lon="0.96165">
        <ele>132.3</ele>
        <time>2021-12-19T09:23:27Z</time>
      </trkpt>
      <trkpt lat="44.59449" lon="0.96164">
        <ele>131.4</ele>
        <time>2021-12-19T09:23:32Z</time>
      </trkpt>
      <trkpt lat="44.59418" lon="0.96166">
        <ele>130.1</ele>
        <time>2021-12-19T09:23:38Z</time>
      </trkpt>
      <trkpt lat="44.59412" lon="0.96168">
        <ele>129.8</ele>
        <time>2021-12-19T09:23:39Z</time>
      </trkpt>
      <trkpt lat="44.59403" lon="0.96177">
        <ele>129.2</ele>
        <time>2021-12-19T09:23:41Z</time>
      </trkpt>
      <trkpt lat="44.59398" lon="0.96191">
        <ele>129.1</ele>
        <time>2021-12-19T09:23:43Z</time>
      </trkpt>
      <trkpt lat="44.59396" lon="0.96206">
        <ele>129</ele>
        <time>2021-12-19T09:23:45Z</time>
      </trkpt>
      <trkpt lat="44.59384" lon="0.96262">
        <ele>128.8</ele>
        <time>2021-12-19T09:23:53Z</time>
      </trkpt>
      <trkpt lat="44.59366" lon="0.96309">
        <ele>128.5</ele>
        <time>2021-12-19T09:24:00Z</time>
      </trkpt>
      <trkpt lat="44.5934" lon="0.96348">
        <ele>128.1</ele>
        <time>2021-12-19T09:24:07Z</time>
      </trkpt>
      <trkpt lat="44.59309" lon="0.96395">
        <ele>127</ele>
        <time>2021-12-19T09:24:15Z</time>
      </trkpt>
      <trkpt lat="44.59277" lon="0.96442">
        <ele>125.8</ele>
        <time>2021-12-19T09:24:23Z</time>
      </trkpt>
      <trkpt lat="44.59272" lon="0.96446">
        <ele>125.7</ele>
        <time>2021-12-19T09:24:24Z</time>
      </trkpt>
      <trkpt lat="44.59266" lon="0.96447">
        <ele>125.6</ele>
        <time>2021-12-19T09:24:25Z</time>
      </trkpt>
      <trkpt lat="44.59253" lon="0.96443">
        <ele>125.6</ele>
        <time>2021-12-19T09:24:27Z</time>
      </trkpt>
      <trkpt lat="44.59242" lon="0.96436">
        <ele>125.6</ele>
        <time>2021-12-19T09:24:29Z</time>
      </trkpt>
      <trkpt lat="44.59225" lon="0.96433">
        <ele>126.1</ele>
        <time>2021-12-19T09:24:32Z</time>
      </trkpt>
      <trkpt lat="44.59211" lon="0.96436">
        <ele>126.7</ele>
        <time>2021-12-19T09:24:35Z</time>
      </trkpt>
      <trkpt lat="44.59203" lon="0.96442">
        <ele>127.2</ele>
        <time>2021-12-19T09:24:37Z</time>
      </trkpt>
      <trkpt lat="44.59193" lon="0.96461">
        <ele>128</ele>
        <time>2021-12-19T09:24:41Z</time>
      </trkpt>
      <trkpt lat="44.59186" lon="0.96501">
        <ele>127</ele>
        <time>2021-12-19T09:24:47Z</time>
      </trkpt>
      <trkpt lat="44.59184" lon="0.96509">
        <ele>126.8</ele>
        <time>2021-12-19T09:24:48Z</time>
      </trkpt>
      <trkpt lat="44.59177" lon="0.96535">
        <ele>125.9</ele>
        <time>2021-12-19T09:24:51Z</time>
      </trkpt>
      <trkpt lat="44.59161" lon="0.96581">
        <ele>123.5</ele>
        <time>2021-12-19T09:24:56Z</time>
      </trkpt>
      <trkpt lat="44.59139" lon="0.96618">
        <ele>121.7</ele>
        <time>2021-12-19T09:25:00Z</time>
      </trkpt>
      <trkpt lat="44.59133" lon="0.96625">
        <ele>121.4</ele>
        <time>2021-12-19T09:25:01Z</time>
      </trkpt>
      <trkpt lat="44.59106" lon="0.9665">
        <ele>121.2</ele>
        <time>2021-12-19T09:25:05Z</time>
      </trkpt>
      <trkpt lat="44.59065" lon="0.96674">
        <ele>121.7</ele>
        <time>2021-12-19T09:25:11Z</time>
      </trkpt>
      <trkpt lat="44.59058" lon="0.96676">
        <ele>121.7</ele>
        <time>2021-12-19T09:25:12Z</time>
      </trkpt>
      <trkpt lat="44.59032" lon="0.96677">
        <ele>122</ele>
        <time>2021-12-19T09:25:16Z</time>
      </trkpt>
      <trkpt lat="44.58996" lon="0.96667">
        <ele>122.2</ele>
        <time>2021-12-19T09:25:22Z</time>
      </trkpt>
      <trkpt lat="44.58962" lon="0.96654">
        <ele>122.9</ele>
        <time>2021-12-19T09:25:28Z</time>
      </trkpt>
      <trkpt lat="44.58943" lon="0.96647">
        <ele>123.1</ele>
        <time>2021-12-19T09:25:32Z</time>
      </trkpt>
      <trkpt lat="44.58933" lon="0.96646">
        <ele>123</ele>
        <time>2021-12-19T09:25:34Z</time>
      </trkpt>
      <trkpt lat="44.5891" lon="0.96643">
        <ele>122.9</ele>
        <time>2021-12-19T09:25:38Z</time>
      </trkpt>
      <trkpt lat="44.58905" lon="0.96641">
        <ele>123</ele>
        <time>2021-12-19T09:25:39Z</time>
      </trkpt>
      <trkpt lat="44.58872" lon="0.9662">
        <ele>123.9</ele>
        <time>2021-12-19T09:25:46Z</time>
      </trkpt>
      <trkpt lat="44.58867" lon="0.96618">
        <ele>124.1</ele>
        <time>2021-12-19T09:25:47Z</time>
      </trkpt>
      <trkpt lat="44.5886" lon="0.96618">
        <ele>124.4</ele>
        <time>2021-12-19T09:25:49Z</time>
      </trkpt>
      <trkpt lat="44.58841" lon="0.96618">
        <ele>124.9</ele>
        <time>2021-12-19T09:25:53Z</time>
      </trkpt>
      <trkpt lat="44.58819" lon="0.96618">
        <ele>125.2</ele>
        <time>2021-12-19T09:25:58Z</time>
      </trkpt>
      <trkpt lat="44.58795" lon="0.96616">
        <ele>125.1</ele>
        <time>2021-12-19T09:26:03Z</time>
      </trkpt>
      <trkpt lat="44.5878" lon="0.96614">
        <ele>125.3</ele>
        <time>2021-12-19T09:26:06Z</time>
      </trkpt>
      <trkpt lat="44.58775" lon="0.96613">
        <ele>125.3</ele>
        <time>2021-12-19T09:26:07Z</time>
      </trkpt>
      <trkpt lat="44.58759" lon="0.96621">
        <ele>125.1</ele>
        <time>2021-12-19T09:26:11Z</time>
      </trkpt>
      <trkpt lat="44.58742" lon="0.96635">
        <ele>124.4</ele>
        <time>2021-12-19T09:26:15Z</time>
      </trkpt>
      <trkpt lat="44.58738" lon="0.9664">
        <ele>124.3</ele>
        <time>2021-12-19T09:26:16Z</time>
      </trkpt>
      <trkpt lat="44.58735" lon="0.96646">
        <ele>124</ele>
        <time>2021-12-19T09:26:17Z</time>
      </trkpt>
      <trkpt lat="44.5873" lon="0.96661">
        <ele>123.5</ele>
        <time>2021-12-19T09:26:19Z</time>
      </trkpt>
      <trkpt lat="44.58728" lon="0.96667">
        <ele>123.3</ele>
        <time>2021-12-19T09:26:20Z</time>
      </trkpt>
      <trkpt lat="44.58721" lon="0.96677">
        <ele>122.9</ele>
        <time>2021-12-19T09:26:22Z</time>
      </trkpt>
      <trkpt lat="44.5871" lon="0.96683">
        <ele>122.6</ele>
        <time>2021-12-19T09:26:25Z</time>
      </trkpt>
      <trkpt lat="44.58691" lon="0.96701">
        <ele>122.2</ele>
        <time>2021-12-19T09:26:31Z</time>
      </trkpt>
      <trkpt lat="44.58673" lon="0.96719">
        <ele>121.8</ele>
        <time>2021-12-19T09:26:35Z</time>
      </trkpt>
      <trkpt lat="44.58659" lon="0.96735">
        <ele>121.2</ele>
        <time>2021-12-19T09:26:38Z</time>
      </trkpt>
      <trkpt lat="44.5865" lon="0.96748">
        <ele>120.6</ele>
        <time>2021-12-19T09:26:40Z</time>
      </trkpt>
      <trkpt lat="44.58636" lon="0.9677">
        <ele>119.6</ele>
        <time>2021-12-19T09:26:43Z</time>
      </trkpt>
      <trkpt lat="44.58627" lon="0.96783">
        <ele>119.1</ele>
        <time>2021-12-19T09:26:45Z</time>
      </trkpt>
      <trkpt lat="44.58607" lon="0.96797">
        <ele>118.9</ele>
        <time>2021-12-19T09:26:50Z</time>
      </trkpt>
      <trkpt lat="44.58592" lon="0.96805">
        <ele>118.9</ele>
        <time>2021-12-19T09:26:53Z</time>
      </trkpt>
      <trkpt lat="44.58586" lon="0.96809">
        <ele>118.9</ele>
        <time>2021-12-19T09:26:54Z</time>
      </trkpt>
      <trkpt lat="44.58561" lon="0.96821">
        <ele>119</ele>
        <time>2021-12-19T09:26:59Z</time>
      </trkpt>
      <trkpt lat="44.58545" lon="0.96826">
        <ele>119.3</ele>
        <time>2021-12-19T09:27:04Z</time>
      </trkpt>
      <trkpt lat="44.58523" lon="0.96837">
        <ele>119</ele>
        <time>2021-12-19T09:27:09Z</time>
      </trkpt>
      <trkpt lat="44.58494" lon="0.96854">
        <ele>117.9</ele>
        <time>2021-12-19T09:27:14Z</time>
      </trkpt>
      <trkpt lat="44.58468" lon="0.96868">
        <ele>117.3</ele>
        <time>2021-12-19T09:27:19Z</time>
      </trkpt>
      <trkpt lat="44.58457" lon="0.96874">
        <ele>117.2</ele>
        <time>2021-12-19T09:27:21Z</time>
      </trkpt>
      <trkpt lat="44.58446" lon="0.9688">
        <ele>116.9</ele>
        <time>2021-12-19T09:27:23Z</time>
      </trkpt>
      <trkpt lat="44.58435" lon="0.96886">
        <ele>116.5</ele>
        <time>2021-12-19T09:27:25Z</time>
      </trkpt>
      <trkpt lat="44.58416" lon="0.96894">
        <ele>115.8</ele>
        <time>2021-12-19T09:27:29Z</time>
      </trkpt>
      <trkpt lat="44.5841" lon="0.96897">
        <ele>115.6</ele>
        <time>2021-12-19T09:27:30Z</time>
      </trkpt>
      <trkpt lat="44.5838" lon="0.96913">
        <ele>115.5</ele>
        <time>2021-12-19T09:27:35Z</time>
      </trkpt>
      <trkpt lat="44.5835" lon="0.96928">
        <ele>117</ele>
        <time>2021-12-19T09:27:41Z</time>
      </trkpt>
      <trkpt lat="44.58327" lon="0.96937">
        <ele>117.8</ele>
        <time>2021-12-19T09:27:47Z</time>
      </trkpt>
      <trkpt lat="44.58318" lon="0.96939">
        <ele>117.5</ele>
        <time>2021-12-19T09:27:49Z</time>
      </trkpt>
      <trkpt lat="44.58307" lon="0.96943">
        <ele>116.9</ele>
        <time>2021-12-19T09:27:51Z</time>
      </trkpt>
      <trkpt lat="44.58273" lon="0.96954">
        <ele>115.8</ele>
        <time>2021-12-19T09:27:57Z</time>
      </trkpt>
      <trkpt lat="44.58249" lon="0.96962">
        <ele>115.9</ele>
        <time>2021-12-19T09:28:02Z</time>
      </trkpt>
      <trkpt lat="44.58221" lon="0.9697">
        <ele>115.3</ele>
        <time>2021-12-19T09:28:07Z</time>
      </trkpt>
      <trkpt lat="44.58202" lon="0.96976">
        <ele>114.7</ele>
        <time>2021-12-19T09:28:10Z</time>
      </trkpt>
      <trkpt lat="44.58191" lon="0.96984">
        <ele>114.5</ele>
        <time>2021-12-19T09:28:12Z</time>
      </trkpt>
      <trkpt lat="44.58157" lon="0.97004">
        <ele>114.6</ele>
        <time>2021-12-19T09:28:18Z</time>
      </trkpt>
      <trkpt lat="44.58145" lon="0.97008">
        <ele>114.5</ele>
        <time>2021-12-19T09:28:20Z</time>
      </trkpt>
      <trkpt lat="44.58127" lon="0.9701">
        <ele>114.2</ele>
        <time>2021-12-19T09:28:23Z</time>
      </trkpt>
      <trkpt lat="44.5811" lon="0.97007">
        <ele>113.7</ele>
        <time>2021-12-19T09:28:26Z</time>
      </trkpt>
      <trkpt lat="44.58099" lon="0.97004">
        <ele>113.3</ele>
        <time>2021-12-19T09:28:28Z</time>
      </trkpt>
      <trkpt lat="44.58066" lon="0.96988">
        <ele>112.6</ele>
        <time>2021-12-19T09:28:34Z</time>
      </trkpt>
      <trkpt lat="44.58061" lon="0.96985">
        <ele>112.6</ele>
        <time>2021-12-19T09:28:35Z</time>
      </trkpt>
      <trkpt lat="44.5804" lon="0.96979">
        <ele>113.4</ele>
        <time>2021-12-19T09:28:39Z</time>
      </trkpt>
      <trkpt lat="44.58035" lon="0.96977">
        <ele>113.6</ele>
        <time>2021-12-19T09:28:40Z</time>
      </trkpt>
      <trkpt lat="44.58019" lon="0.96973">
        <ele>113.9</ele>
        <time>2021-12-19T09:28:44Z</time>
      </trkpt>
      <trkpt lat="44.57997" lon="0.96962">
        <ele>113.2</ele>
        <time>2021-12-19T09:28:48Z</time>
      </trkpt>
      <trkpt lat="44.57992" lon="0.9696">
        <ele>113.1</ele>
        <time>2021-12-19T09:28:49Z</time>
      </trkpt>
      <trkpt lat="44.5798" lon="0.96955">
        <ele>112.9</ele>
        <time>2021-12-19T09:28:51Z</time>
      </trkpt>
      <trkpt lat="44.57975" lon="0.96952">
        <ele>112.8</ele>
        <time>2021-12-19T09:28:52Z</time>
      </trkpt>
      <trkpt lat="44.57969" lon="0.9695">
        <ele>112.7</ele>
        <time>2021-12-19T09:28:53Z</time>
      </trkpt>
      <trkpt lat="44.57958" lon="0.96948">
        <ele>112.4</ele>
        <time>2021-12-19T09:28:55Z</time>
      </trkpt>
      <trkpt lat="44.57953" lon="0.96951">
        <ele>112.2</ele>
        <time>2021-12-19T09:28:56Z</time>
      </trkpt>
      <trkpt lat="44.57948" lon="0.96957">
        <ele>112</ele>
        <time>2021-12-19T09:28:57Z</time>
      </trkpt>
      <trkpt lat="44.57938" lon="0.96964">
        <ele>111.7</ele>
        <time>2021-12-19T09:28:59Z</time>
      </trkpt>
      <trkpt lat="44.57914" lon="0.96957">
        <ele>111.2</ele>
        <time>2021-12-19T09:29:04Z</time>
      </trkpt>
      <trkpt lat="44.57879" lon="0.9695">
        <ele>110.3</ele>
        <time>2021-12-19T09:29:11Z</time>
      </trkpt>
      <trkpt lat="44.57845" lon="0.96943">
        <ele>109.6</ele>
        <time>2021-12-19T09:29:17Z</time>
      </trkpt>
      <trkpt lat="44.57822" lon="0.9694">
        <ele>109.4</ele>
        <time>2021-12-19T09:29:21Z</time>
      </trkpt>
      <trkpt lat="44.57811" lon="0.96937">
        <ele>109.4</ele>
        <time>2021-12-19T09:29:23Z</time>
      </trkpt>
      <trkpt lat="44.57772" lon="0.96919">
        <ele>109.4</ele>
        <time>2021-12-19T09:29:30Z</time>
      </trkpt>
      <trkpt lat="44.57741" lon="0.96907">
        <ele>109.6</ele>
        <time>2021-12-19T09:29:36Z</time>
      </trkpt>
      <trkpt lat="44.57732" lon="0.96906">
        <ele>109.6</ele>
        <time>2021-12-19T09:29:38Z</time>
      </trkpt>
      <trkpt lat="44.57725" lon="0.96905">
        <ele>109.6</ele>
        <time>2021-12-19T09:29:40Z</time>
      </trkpt>
      <trkpt lat="44.57721" lon="0.96908">
        <ele>109.6</ele>
        <time>2021-12-19T09:29:44Z</time>
      </trkpt>
      <trkpt lat="44.57718" lon="0.96911">
        <ele>109.6</ele>
        <time>2021-12-19T09:29:49Z</time>
      </trkpt>
      <trkpt lat="44.57717" lon="0.96914">
        <ele>109.6</ele>
        <time>2021-12-19T09:29:50Z</time>
      </trkpt>
      <trkpt lat="44.57716" lon="0.96919">
        <ele>109.5</ele>
        <time>2021-12-19T09:29:51Z</time>
      </trkpt>
      <trkpt lat="44.57715" lon="0.9693">
        <ele>109.4</ele>
        <time>2021-12-19T09:29:53Z</time>
      </trkpt>
      <trkpt lat="44.57716" lon="0.96942">
        <ele>109.2</ele>
        <time>2021-12-19T09:29:55Z</time>
      </trkpt>
      <trkpt lat="44.57717" lon="0.96998">
        <ele>108.7</ele>
        <time>2021-12-19T09:30:03Z</time>
      </trkpt>
      <trkpt lat="44.57717" lon="0.97021">
        <ele>108.8</ele>
        <time>2021-12-19T09:30:06Z</time>
      </trkpt>
      <trkpt lat="44.57716" lon="0.97036">
        <ele>109</ele>
        <time>2021-12-19T09:30:08Z</time>
      </trkpt>
      <trkpt lat="44.57706" lon="0.9708">
        <ele>109.7</ele>
        <time>2021-12-19T09:30:14Z</time>
      </trkpt>
      <trkpt lat="44.57695" lon="0.97127">
        <ele>111</ele>
        <time>2021-12-19T09:30:22Z</time>
      </trkpt>
      <trkpt lat="44.57693" lon="0.97131">
        <ele>111</ele>
        <time>2021-12-19T09:30:23Z</time>
      </trkpt>
      <trkpt lat="44.57689" lon="0.97132">
        <ele>110.9</ele>
        <time>2021-12-19T09:30:24Z</time>
      </trkpt>
      <trkpt lat="44.57685" lon="0.97131">
        <ele>110.9</ele>
        <time>2021-12-19T09:30:25Z</time>
      </trkpt>
      <trkpt lat="44.57673" lon="0.97126">
        <ele>110.8</ele>
        <time>2021-12-19T09:30:28Z</time>
      </trkpt>
      <trkpt lat="44.57647" lon="0.97121">
        <ele>110.7</ele>
        <time>2021-12-19T09:30:34Z</time>
      </trkpt>
      <trkpt lat="44.57619" lon="0.97114">
        <ele>110.1</ele>
        <time>2021-12-19T09:30:40Z</time>
      </trkpt>
      <trkpt lat="44.5758" lon="0.97105">
        <ele>109.1</ele>
        <time>2021-12-19T09:30:47Z</time>
      </trkpt>
      <trkpt lat="44.57571" lon="0.97103">
        <ele>108.9</ele>
        <time>2021-12-19T09:30:49Z</time>
      </trkpt>
      <trkpt lat="44.5756" lon="0.97105">
        <ele>108.6</ele>
        <time>2021-12-19T09:30:51Z</time>
      </trkpt>
      <trkpt lat="44.57548" lon="0.97114">
        <ele>108.2</ele>
        <time>2021-12-19T09:30:53Z</time>
      </trkpt>
      <trkpt lat="44.57544" lon="0.97119">
        <ele>108</ele>
        <time>2021-12-19T09:30:54Z</time>
      </trkpt>
      <trkpt lat="44.57516" lon="0.97152">
        <ele>107.4</ele>
        <time>2021-12-19T09:30:59Z</time>
      </trkpt>
      <trkpt lat="44.57511" lon="0.97159">
        <ele>107.4</ele>
        <time>2021-12-19T09:31:00Z</time>
      </trkpt>
      <trkpt lat="44.5749" lon="0.97203">
        <ele>107.4</ele>
        <time>2021-12-19T09:31:06Z</time>
      </trkpt>
      <trkpt lat="44.57473" lon="0.97239">
        <ele>108.1</ele>
        <time>2021-12-19T09:31:12Z</time>
      </trkpt>
      <trkpt lat="44.57461" lon="0.97261">
        <ele>108.8</ele>
        <time>2021-12-19T09:31:16Z</time>
      </trkpt>
      <trkpt lat="44.57457" lon="0.97265">
        <ele>108.9</ele>
        <time>2021-12-19T09:31:17Z</time>
      </trkpt>
      <trkpt lat="44.57454" lon="0.97269">
        <ele>108.9</ele>
        <time>2021-12-19T09:31:18Z</time>
      </trkpt>
      <trkpt lat="44.57437" lon="0.97281">
        <ele>109.1</ele>
        <time>2021-12-19T09:31:22Z</time>
      </trkpt>
      <trkpt lat="44.57433" lon="0.97283">
        <ele>109.1</ele>
        <time>2021-12-19T09:31:23Z</time>
      </trkpt>
      <trkpt lat="44.57413" lon="0.97291">
        <ele>109.1</ele>
        <time>2021-12-19T09:31:27Z</time>
      </trkpt>
      <trkpt lat="44.57406" lon="0.97299">
        <ele>109.1</ele>
        <time>2021-12-19T09:31:29Z</time>
      </trkpt>
      <trkpt lat="44.57403" lon="0.97313">
        <ele>109</ele>
        <time>2021-12-19T09:31:31Z</time>
      </trkpt>
      <trkpt lat="44.57405" lon="0.9732">
        <ele>108.9</ele>
        <time>2021-12-19T09:31:32Z</time>
      </trkpt>
      <trkpt lat="44.57419" lon="0.97376">
        <ele>109</ele>
        <time>2021-12-19T09:31:40Z</time>
      </trkpt>
      <trkpt lat="44.57429" lon="0.97409">
        <ele>109.5</ele>
        <time>2021-12-19T09:31:45Z</time>
      </trkpt>
      <trkpt lat="44.57431" lon="0.97424">
        <ele>109.9</ele>
        <time>2021-12-19T09:31:47Z</time>
      </trkpt>
      <trkpt lat="44.57435" lon="0.97462">
        <ele>111.2</ele>
        <time>2021-12-19T09:31:52Z</time>
      </trkpt>
      <trkpt lat="44.57436" lon="0.97475">
        <ele>111.7</ele>
        <time>2021-12-19T09:31:54Z</time>
      </trkpt>
      <trkpt lat="44.57442" lon="0.97523">
        <ele>114</ele>
        <time>2021-12-19T09:32:02Z</time>
      </trkpt>
      <trkpt lat="44.57446" lon="0.97566">
        <ele>116.2</ele>
        <time>2021-12-19T09:32:10Z</time>
      </trkpt>
      <trkpt lat="44.57444" lon="0.97598">
        <ele>117.8</ele>
        <time>2021-12-19T09:32:16Z</time>
      </trkpt>
      <trkpt lat="44.57439" lon="0.97643">
        <ele>120.1</ele>
        <time>2021-12-19T09:32:25Z</time>
      </trkpt>
      <trkpt lat="44.57431" lon="0.97674">
        <ele>121.6</ele>
        <time>2021-12-19T09:32:32Z</time>
      </trkpt>
      <trkpt lat="44.5742" lon="0.97699">
        <ele>122.8</ele>
        <time>2021-12-19T09:32:38Z</time>
      </trkpt>
      <trkpt lat="44.57409" lon="0.97724">
        <ele>124.1</ele>
        <time>2021-12-19T09:32:45Z</time>
      </trkpt>
      <trkpt lat="44.57396" lon="0.97752">
        <ele>125.7</ele>
        <time>2021-12-19T09:32:52Z</time>
      </trkpt>
      <trkpt lat="44.57384" lon="0.97788">
        <ele>127.4</ele>
        <time>2021-12-19T09:33:00Z</time>
      </trkpt>
      <trkpt lat="44.57379" lon="0.9782">
        <ele>128.7</ele>
        <time>2021-12-19T09:33:07Z</time>
      </trkpt>
      <trkpt lat="44.57382" lon="0.97854">
        <ele>130.1</ele>
        <time>2021-12-19T09:33:15Z</time>
      </trkpt>
      <trkpt lat="44.57384" lon="0.97881">
        <ele>131.2</ele>
        <time>2021-12-19T09:33:22Z</time>
      </trkpt>
      <trkpt lat="44.57383" lon="0.97884">
        <ele>131.5</ele>
        <time>2021-12-19T09:33:23Z</time>
      </trkpt>
      <trkpt lat="44.57378" lon="0.97887">
        <ele>131.9</ele>
        <time>2021-12-19T09:33:25Z</time>
      </trkpt>
      <trkpt lat="44.57369" lon="0.97888">
        <ele>132.8</ele>
        <time>2021-12-19T09:33:29Z</time>
      </trkpt>
      <trkpt lat="44.57359" lon="0.97896">
        <ele>133.9</ele>
        <time>2021-12-19T09:33:36Z</time>
      </trkpt>
      <trkpt lat="44.57353" lon="0.97909">
        <ele>134.8</ele>
        <time>2021-12-19T09:33:42Z</time>
      </trkpt>
      <trkpt lat="44.5735" lon="0.97929">
        <ele>136.2</ele>
        <time>2021-12-19T09:33:50Z</time>
      </trkpt>
      <trkpt lat="44.57348" lon="0.97944">
        <ele>137.5</ele>
        <time>2021-12-19T09:33:56Z</time>
      </trkpt>
      <trkpt lat="44.57347" lon="0.97953">
        <ele>138.2</ele>
        <time>2021-12-19T09:34:00Z</time>
      </trkpt>
      <trkpt lat="44.57346" lon="0.97957">
        <ele>138.7</ele>
        <time>2021-12-19T09:34:02Z</time>
      </trkpt>
      <trkpt lat="44.57346" lon="0.97961">
        <ele>139</ele>
        <time>2021-12-19T09:34:04Z</time>
      </trkpt>
      <trkpt lat="44.57345" lon="0.97965">
        <ele>139.4</ele>
        <time>2021-12-19T09:34:06Z</time>
      </trkpt>
      <trkpt lat="44.57343" lon="0.97977">
        <ele>140.5</ele>
        <time>2021-12-19T09:34:12Z</time>
      </trkpt>
      <trkpt lat="44.57342" lon="0.97979">
        <ele>140.7</ele>
        <time>2021-12-19T09:34:13Z</time>
      </trkpt>
      <trkpt lat="44.5734" lon="0.97994">
        <ele>142.1</ele>
        <time>2021-12-19T09:34:20Z</time>
      </trkpt>
      <trkpt lat="44.5734" lon="0.98001">
        <ele>142.8</ele>
        <time>2021-12-19T09:34:23Z</time>
      </trkpt>
      <trkpt lat="44.57339" lon="0.98007">
        <ele>143.3</ele>
        <time>2021-12-19T09:34:26Z</time>
      </trkpt>
      <trkpt lat="44.57338" lon="0.98011">
        <ele>143.8</ele>
        <time>2021-12-19T09:34:28Z</time>
      </trkpt>
      <trkpt lat="44.57338" lon="0.98016">
        <ele>144.2</ele>
        <time>2021-12-19T09:34:30Z</time>
      </trkpt>
      <trkpt lat="44.57337" lon="0.98018">
        <ele>144.4</ele>
        <time>2021-12-19T09:34:31Z</time>
      </trkpt>
      <trkpt lat="44.57337" lon="0.9802">
        <ele>144.6</ele>
        <time>2021-12-19T09:34:32Z</time>
      </trkpt>
      <trkpt lat="44.57336" lon="0.98027">
        <ele>145.3</ele>
        <time>2021-12-19T09:34:36Z</time>
      </trkpt>
      <trkpt lat="44.57333" lon="0.98038">
        <ele>146.3</ele>
        <time>2021-12-19T09:34:41Z</time>
      </trkpt>
      <trkpt lat="44.57332" lon="0.9805">
        <ele>147.4</ele>
        <time>2021-12-19T09:34:47Z</time>
      </trkpt>
      <trkpt lat="44.57329" lon="0.98061">
        <ele>148.4</ele>
        <time>2021-12-19T09:34:52Z</time>
      </trkpt>
      <trkpt lat="44.57327" lon="0.98075">
        <ele>149.3</ele>
        <time>2021-12-19T09:34:58Z</time>
      </trkpt>
      <trkpt lat="44.57325" lon="0.9809">
        <ele>150.1</ele>
        <time>2021-12-19T09:35:04Z</time>
      </trkpt>
      <trkpt lat="44.57325" lon="0.98106">
        <ele>150.9</ele>
        <time>2021-12-19T09:35:10Z</time>
      </trkpt>
      <trkpt lat="44.57323" lon="0.9812">
        <ele>151.4</ele>
        <time>2021-12-19T09:35:16Z</time>
      </trkpt>
      <trkpt lat="44.57321" lon="0.98142">
        <ele>152.4</ele>
        <time>2021-12-19T09:35:24Z</time>
      </trkpt>
      <trkpt lat="44.57315" lon="0.98159">
        <ele>153.2</ele>
        <time>2021-12-19T09:35:30Z</time>
      </trkpt>
      <trkpt lat="44.57311" lon="0.98174">
        <ele>153.8</ele>
        <time>2021-12-19T09:35:35Z</time>
      </trkpt>
      <trkpt lat="44.57304" lon="0.98196">
        <ele>154.9</ele>
        <time>2021-12-19T09:35:42Z</time>
      </trkpt>
      <trkpt lat="44.57303" lon="0.98199">
        <ele>155</ele>
        <time>2021-12-19T09:35:43Z</time>
      </trkpt>
      <trkpt lat="44.57299" lon="0.98212">
        <ele>155.7</ele>
        <time>2021-12-19T09:35:47Z</time>
      </trkpt>
      <trkpt lat="44.57293" lon="0.9823">
        <ele>156.9</ele>
        <time>2021-12-19T09:35:53Z</time>
      </trkpt>
      <trkpt lat="44.57288" lon="0.98234">
        <ele>157.6</ele>
        <time>2021-12-19T09:35:56Z</time>
      </trkpt>
      <trkpt lat="44.57286" lon="0.98235">
        <ele>157.8</ele>
        <time>2021-12-19T09:35:57Z</time>
      </trkpt>
      <trkpt lat="44.5728" lon="0.98235">
        <ele>158.5</ele>
        <time>2021-12-19T09:36:01Z</time>
      </trkpt>
      <trkpt lat="44.57269" lon="0.98238">
        <ele>159.4</ele>
        <time>2021-12-19T09:36:08Z</time>
      </trkpt>
      <trkpt lat="44.57257" lon="0.98239">
        <ele>161</ele>
        <time>2021-12-19T09:36:15Z</time>
      </trkpt>
      <trkpt lat="44.57248" lon="0.98235">
        <ele>162.3</ele>
        <time>2021-12-19T09:36:21Z</time>
      </trkpt>
      <trkpt lat="44.57236" lon="0.98231">
        <ele>163.6</ele>
        <time>2021-12-19T09:36:29Z</time>
      </trkpt>
      <trkpt lat="44.57225" lon="0.98227">
        <ele>165</ele>
        <time>2021-12-19T09:36:37Z</time>
      </trkpt>
      <trkpt lat="44.57217" lon="0.98224">
        <ele>165.8</ele>
        <time>2021-12-19T09:36:43Z</time>
      </trkpt>
      <trkpt lat="44.57204" lon="0.98222">
        <ele>167</ele>
        <time>2021-12-19T09:36:51Z</time>
      </trkpt>
      <trkpt lat="44.57191" lon="0.9822">
        <ele>168.4</ele>
        <time>2021-12-19T09:37:00Z</time>
      </trkpt>
      <trkpt lat="44.57177" lon="0.98218">
        <ele>169.5</ele>
        <time>2021-12-19T09:37:09Z</time>
      </trkpt>
      <trkpt lat="44.57165" lon="0.98217">
        <ele>170.9</ele>
        <time>2021-12-19T09:37:16Z</time>
      </trkpt>
      <trkpt lat="44.57151" lon="0.98215">
        <ele>173.1</ele>
        <time>2021-12-19T09:37:25Z</time>
      </trkpt>
      <trkpt lat="44.57143" lon="0.98215">
        <ele>174.1</ele>
        <time>2021-12-19T09:37:31Z</time>
      </trkpt>
      <trkpt lat="44.5713" lon="0.98216">
        <ele>176.2</ele>
        <time>2021-12-19T09:37:39Z</time>
      </trkpt>
      <trkpt lat="44.57121" lon="0.98216">
        <ele>177.7</ele>
        <time>2021-12-19T09:37:45Z</time>
      </trkpt>
      <trkpt lat="44.5711" lon="0.98213">
        <ele>179.2</ele>
        <time>2021-12-19T09:37:52Z</time>
      </trkpt>
      <trkpt lat="44.571" lon="0.98212">
        <ele>180.6</ele>
        <time>2021-12-19T09:37:59Z</time>
      </trkpt>
      <trkpt lat="44.57086" lon="0.98211">
        <ele>182.3</ele>
        <time>2021-12-19T09:38:08Z</time>
      </trkpt>
      <trkpt lat="44.57077" lon="0.98209">
        <ele>183.5</ele>
        <time>2021-12-19T09:38:14Z</time>
      </trkpt>
      <trkpt lat="44.57076" lon="0.98208">
        <ele>183.6</ele>
        <time>2021-12-19T09:38:15Z</time>
      </trkpt>
      <trkpt lat="44.57067" lon="0.98209">
        <ele>184.5</ele>
        <time>2021-12-19T09:38:21Z</time>
      </trkpt>
      <trkpt lat="44.57054" lon="0.98204">
        <ele>185.4</ele>
        <time>2021-12-19T09:38:29Z</time>
      </trkpt>
      <trkpt lat="44.57052" lon="0.982">
        <ele>185.3</ele>
        <time>2021-12-19T09:38:31Z</time>
      </trkpt>
      <trkpt lat="44.57053" lon="0.98194">
        <ele>185.1</ele>
        <time>2021-12-19T09:38:33Z</time>
      </trkpt>
      <trkpt lat="44.57057" lon="0.98165">
        <ele>184.1</ele>
        <time>2021-12-19T09:38:40Z</time>
      </trkpt>
      <trkpt lat="44.57058" lon="0.98135">
        <ele>183.1</ele>
        <time>2021-12-19T09:38:45Z</time>
      </trkpt>
      <trkpt lat="44.5705" lon="0.98091">
        <ele>181.6</ele>
        <time>2021-12-19T09:38:51Z</time>
      </trkpt>
      <trkpt lat="44.57045" lon="0.98059">
        <ele>180.8</ele>
        <time>2021-12-19T09:38:55Z</time>
      </trkpt>
      <trkpt lat="44.57046" lon="0.98042">
        <ele>181.2</ele>
        <time>2021-12-19T09:38:57Z</time>
      </trkpt>
      <trkpt lat="44.5705" lon="0.98017">
        <ele>181.9</ele>
        <time>2021-12-19T09:39:00Z</time>
      </trkpt>
      <trkpt lat="44.5705" lon="0.98009">
        <ele>182.1</ele>
        <time>2021-12-19T09:39:01Z</time>
      </trkpt>
      <trkpt lat="44.57049" lon="0.98001">
        <ele>182.3</ele>
        <time>2021-12-19T09:39:02Z</time>
      </trkpt>
      <trkpt lat="44.57046" lon="0.97986">
        <ele>182.7</ele>
        <time>2021-12-19T09:39:04Z</time>
      </trkpt>
      <trkpt lat="44.57043" lon="0.97979">
        <ele>182.9</ele>
        <time>2021-12-19T09:39:05Z</time>
      </trkpt>
      <trkpt lat="44.57028" lon="0.97938">
        <ele>184.1</ele>
        <time>2021-12-19T09:39:12Z</time>
      </trkpt>
      <trkpt lat="44.5702" lon="0.97911">
        <ele>184.9</ele>
        <time>2021-12-19T09:39:18Z</time>
      </trkpt>
      <trkpt lat="44.57018" lon="0.97885">
        <ele>185.5</ele>
        <time>2021-12-19T09:39:25Z</time>
      </trkpt>
      <trkpt lat="44.57023" lon="0.97862">
        <ele>186.2</ele>
        <time>2021-12-19T09:39:32Z</time>
      </trkpt>
      <trkpt lat="44.57025" lon="0.97839">
        <ele>186.8</ele>
        <time>2021-12-19T09:39:38Z</time>
      </trkpt>
      <trkpt lat="44.57025" lon="0.97822">
        <ele>187.2</ele>
        <time>2021-12-19T09:39:43Z</time>
      </trkpt>
      <trkpt lat="44.57025" lon="0.97801">
        <ele>187.8</ele>
        <time>2021-12-19T09:39:49Z</time>
      </trkpt>
      <trkpt lat="44.57026" lon="0.97777">
        <ele>188.4</ele>
        <time>2021-12-19T09:39:56Z</time>
      </trkpt>
      <trkpt lat="44.57027" lon="0.97753">
        <ele>189.1</ele>
        <time>2021-12-19T09:40:03Z</time>
      </trkpt>
      <trkpt lat="44.57027" lon="0.97732">
        <ele>189.6</ele>
        <time>2021-12-19T09:40:09Z</time>
      </trkpt>
      <trkpt lat="44.57024" lon="0.97716">
        <ele>190</ele>
        <time>2021-12-19T09:40:14Z</time>
      </trkpt>
      <trkpt lat="44.57021" lon="0.97693">
        <ele>190.6</ele>
        <time>2021-12-19T09:40:21Z</time>
      </trkpt>
      <trkpt lat="44.57021" lon="0.9767">
        <ele>191.2</ele>
        <time>2021-12-19T09:40:28Z</time>
      </trkpt>
      <trkpt lat="44.57023" lon="0.97655">
        <ele>191.6</ele>
        <time>2021-12-19T09:40:33Z</time>
      </trkpt>
      <trkpt lat="44.57029" lon="0.97637">
        <ele>192.2</ele>
        <time>2021-12-19T09:40:40Z</time>
      </trkpt>
      <trkpt lat="44.57032" lon="0.97623">
        <ele>192.6</ele>
        <time>2021-12-19T09:40:45Z</time>
      </trkpt>
      <trkpt lat="44.57036" lon="0.97605">
        <ele>193</ele>
        <time>2021-12-19T09:40:51Z</time>
      </trkpt>
      <trkpt lat="44.57041" lon="0.97583">
        <ele>193.7</ele>
        <time>2021-12-19T09:40:58Z</time>
      </trkpt>
      <trkpt lat="44.57046" lon="0.97564">
        <ele>194.2</ele>
        <time>2021-12-19T09:41:04Z</time>
      </trkpt>
      <trkpt lat="44.57053" lon="0.97543">
        <ele>194.8</ele>
        <time>2021-12-19T09:41:10Z</time>
      </trkpt>
      <trkpt lat="44.57053" lon="0.97523">
        <ele>195.3</ele>
        <time>2021-12-19T09:41:14Z</time>
      </trkpt>
      <trkpt lat="44.57053" lon="0.97505">
        <ele>195.8</ele>
        <time>2021-12-19T09:41:19Z</time>
      </trkpt>
      <trkpt lat="44.57051" lon="0.97477">
        <ele>196.5</ele>
        <time>2021-12-19T09:41:24Z</time>
      </trkpt>
      <trkpt lat="44.57048" lon="0.97441">
        <ele>197.5</ele>
        <time>2021-12-19T09:41:28Z</time>
      </trkpt>
      <trkpt lat="44.57037" lon="0.97391">
        <ele>198.8</ele>
        <time>2021-12-19T09:41:32Z</time>
      </trkpt>
      <trkpt lat="44.57024" lon="0.97328">
        <ele>200.6</ele>
        <time>2021-12-19T09:41:37Z</time>
      </trkpt>
      <trkpt lat="44.57019" lon="0.97286">
        <ele>201.7</ele>
        <time>2021-12-19T09:41:41Z</time>
      </trkpt>
      <trkpt lat="44.57018" lon="0.97278">
        <ele>201.9</ele>
        <time>2021-12-19T09:41:42Z</time>
      </trkpt>
      <trkpt lat="44.57014" lon="0.97257">
        <ele>202.4</ele>
        <time>2021-12-19T09:41:45Z</time>
      </trkpt>
      <trkpt lat="44.57006" lon="0.97235">
        <ele>203.1</ele>
        <time>2021-12-19T09:41:49Z</time>
      </trkpt>
      <trkpt lat="44.57003" lon="0.97223">
        <ele>203.4</ele>
        <time>2021-12-19T09:41:51Z</time>
      </trkpt>
      <trkpt lat="44.56991" lon="0.97187">
        <ele>204.5</ele>
        <time>2021-12-19T09:41:58Z</time>
      </trkpt>
      <trkpt lat="44.56976" lon="0.97137">
        <ele>205.9</ele>
        <time>2021-12-19T09:42:07Z</time>
      </trkpt>
      <trkpt lat="44.56965" lon="0.97091">
        <ele>207.2</ele>
        <time>2021-12-19T09:42:14Z</time>
      </trkpt>
      <trkpt lat="44.56964" lon="0.97083">
        <ele>207.4</ele>
        <time>2021-12-19T09:42:15Z</time>
      </trkpt>
      <trkpt lat="44.5696" lon="0.97044">
        <ele>208.4</ele>
        <time>2021-12-19T09:42:20Z</time>
      </trkpt>
      <trkpt lat="44.56957" lon="0.96971">
        <ele>210.3</ele>
        <time>2021-12-19T09:42:29Z</time>
      </trkpt>
      <trkpt lat="44.56957" lon="0.96926">
        <ele>211.5</ele>
        <time>2021-12-19T09:42:36Z</time>
      </trkpt>
      <trkpt lat="44.56961" lon="0.969">
        <ele>212.2</ele>
        <time>2021-12-19T09:42:41Z</time>
      </trkpt>
      <trkpt lat="44.56974" lon="0.96871">
        <ele>213.1</ele>
        <time>2021-12-19T09:42:48Z</time>
      </trkpt>
      <trkpt lat="44.56985" lon="0.96843">
        <ele>212.7</ele>
        <time>2021-12-19T09:42:54Z</time>
      </trkpt>
      <trkpt lat="44.56994" lon="0.96804">
        <ele>212.4</ele>
        <time>2021-12-19T09:43:01Z</time>
      </trkpt>
      <trkpt lat="44.56998" lon="0.96792">
        <ele>212.3</ele>
        <time>2021-12-19T09:43:03Z</time>
      </trkpt>
      <trkpt lat="44.57003" lon="0.96781">
        <ele>212.2</ele>
        <time>2021-12-19T09:43:05Z</time>
      </trkpt>
      <trkpt lat="44.57018" lon="0.96751">
        <ele>211.7</ele>
        <time>2021-12-19T09:43:10Z</time>
      </trkpt>
      <trkpt lat="44.57027" lon="0.96717">
        <ele>211.7</ele>
        <time>2021-12-19T09:43:15Z</time>
      </trkpt>
      <trkpt lat="44.57028" lon="0.96701">
        <ele>211.5</ele>
        <time>2021-12-19T09:43:17Z</time>
      </trkpt>
      <trkpt lat="44.57026" lon="0.96685">
        <ele>211.3</ele>
        <time>2021-12-19T09:43:19Z</time>
      </trkpt>
      <trkpt lat="44.57024" lon="0.96677">
        <ele>211.2</ele>
        <time>2021-12-19T09:43:20Z</time>
      </trkpt>
      <trkpt lat="44.57015" lon="0.96653">
        <ele>210.3</ele>
        <time>2021-12-19T09:43:23Z</time>
      </trkpt>
      <trkpt lat="44.57012" lon="0.96645">
        <ele>209.9</ele>
        <time>2021-12-19T09:43:24Z</time>
      </trkpt>
      <trkpt lat="44.57001" lon="0.96634">
        <ele>209.4</ele>
        <time>2021-12-19T09:43:26Z</time>
      </trkpt>
      <trkpt lat="44.56991" lon="0.96623">
        <ele>208.7</ele>
        <time>2021-12-19T09:43:28Z</time>
      </trkpt>
      <trkpt lat="44.56987" lon="0.96616">
        <ele>208.3</ele>
        <time>2021-12-19T09:43:29Z</time>
      </trkpt>
      <trkpt lat="44.56982" lon="0.96608">
        <ele>207.4</ele>
        <time>2021-12-19T09:43:30Z</time>
      </trkpt>
      <trkpt lat="44.56967" lon="0.96581">
        <ele>203.8</ele>
        <time>2021-12-19T09:43:33Z</time>
      </trkpt>
      <trkpt lat="44.56959" lon="0.96555">
        <ele>200.6</ele>
        <time>2021-12-19T09:43:36Z</time>
      </trkpt>
      <trkpt lat="44.56957" lon="0.96547">
        <ele>199.6</ele>
        <time>2021-12-19T09:43:39Z</time>
      </trkpt>
      <trkpt lat="44.56955" lon="0.96545">
        <ele>199.3</ele>
        <time>2021-12-19T09:43:40Z</time>
      </trkpt>
      <trkpt lat="44.56953" lon="0.96543">
        <ele>199.3</ele>
        <time>2021-12-19T09:43:48Z</time>
      </trkpt>
      <trkpt lat="44.56951" lon="0.96541">
        <ele>198.6</ele>
        <time>2021-12-19T09:43:49Z</time>
      </trkpt>
      <trkpt lat="44.5694" lon="0.96523">
        <ele>195.5</ele>
        <time>2021-12-19T09:43:52Z</time>
      </trkpt>
      <trkpt lat="44.56925" lon="0.96475">
        <ele>190.1</ele>
        <time>2021-12-19T09:43:57Z</time>
      </trkpt>
      <trkpt lat="44.56913" lon="0.96418">
        <ele>184.2</ele>
        <time>2021-12-19T09:44:03Z</time>
      </trkpt>
      <trkpt lat="44.56908" lon="0.96371">
        <ele>179.6</ele>
        <time>2021-12-19T09:44:08Z</time>
      </trkpt>
      <trkpt lat="44.56909" lon="0.9635">
        <ele>177.6</ele>
        <time>2021-12-19T09:44:11Z</time>
      </trkpt>
      <trkpt lat="44.56909" lon="0.96343">
        <ele>176.6</ele>
        <time>2021-12-19T09:44:12Z</time>
      </trkpt>
      <trkpt lat="44.56908" lon="0.96337">
        <ele>176</ele>
        <time>2021-12-19T09:44:13Z</time>
      </trkpt>
      <trkpt lat="44.56901" lon="0.96316">
        <ele>172.4</ele>
        <time>2021-12-19T09:44:16Z</time>
      </trkpt>
      <trkpt lat="44.56892" lon="0.96294">
        <ele>168.8</ele>
        <time>2021-12-19T09:44:19Z</time>
      </trkpt>
      <trkpt lat="44.56888" lon="0.96282">
        <ele>166.3</ele>
        <time>2021-12-19T09:44:21Z</time>
      </trkpt>
      <trkpt lat="44.56888" lon="0.96267">
        <ele>163.6</ele>
        <time>2021-12-19T09:44:23Z</time>
      </trkpt>
      <trkpt lat="44.56889" lon="0.96259">
        <ele>162.4</ele>
        <time>2021-12-19T09:44:24Z</time>
      </trkpt>
      <trkpt lat="44.56892" lon="0.96251">
        <ele>161.6</ele>
        <time>2021-12-19T09:44:25Z</time>
      </trkpt>
      <trkpt lat="44.569" lon="0.96235">
        <ele>158.9</ele>
        <time>2021-12-19T09:44:27Z</time>
      </trkpt>
      <trkpt lat="44.56928" lon="0.96205">
        <ele>153.7</ele>
        <time>2021-12-19T09:44:32Z</time>
      </trkpt>
      <trkpt lat="44.56935" lon="0.96193">
        <ele>151.1</ele>
        <time>2021-12-19T09:44:34Z</time>
      </trkpt>
      <trkpt lat="44.5694" lon="0.9618">
        <ele>149</ele>
        <time>2021-12-19T09:44:36Z</time>
      </trkpt>
      <trkpt lat="44.56946" lon="0.96159">
        <ele>144.9</ele>
        <time>2021-12-19T09:44:40Z</time>
      </trkpt>
      <trkpt lat="44.56941" lon="0.96146">
        <ele>142.8</ele>
        <time>2021-12-19T09:44:42Z</time>
      </trkpt>
      <trkpt lat="44.56936" lon="0.96141">
        <ele>142.1</ele>
        <time>2021-12-19T09:44:43Z</time>
      </trkpt>
      <trkpt lat="44.56926" lon="0.96131">
        <ele>140.5</ele>
        <time>2021-12-19T09:44:45Z</time>
      </trkpt>
      <trkpt lat="44.56913" lon="0.96119">
        <ele>137.9</ele>
        <time>2021-12-19T09:44:48Z</time>
      </trkpt>
      <trkpt lat="44.56902" lon="0.9611">
        <ele>135.8</ele>
        <time>2021-12-19T09:44:51Z</time>
      </trkpt>
      <trkpt lat="44.56901" lon="0.96108">
        <ele>135</ele>
        <time>2021-12-19T09:44:52Z</time>
      </trkpt>
      <trkpt lat="44.56901" lon="0.96101">
        <ele>134</ele>
        <time>2021-12-19T09:44:54Z</time>
      </trkpt>
      <trkpt lat="44.56901" lon="0.96098">
        <ele>133.5</ele>
        <time>2021-12-19T09:44:56Z</time>
      </trkpt>
      <trkpt lat="44.56902" lon="0.96096">
        <ele>132.8</ele>
        <time>2021-12-19T09:45:05Z</time>
      </trkpt>
      <trkpt lat="44.56902" lon="0.96093">
        <ele>132.8</ele>
        <time>2021-12-19T09:45:07Z</time>
      </trkpt>
      <trkpt lat="44.56903" lon="0.96091">
        <ele>132</ele>
        <time>2021-12-19T09:45:08Z</time>
      </trkpt>
      <trkpt lat="44.56903" lon="0.96088">
        <ele>132</ele>
        <time>2021-12-19T09:45:11Z</time>
      </trkpt>
      <trkpt lat="44.56904" lon="0.96085">
        <ele>131.5</ele>
        <time>2021-12-19T09:45:12Z</time>
      </trkpt>
      <trkpt lat="44.56909" lon="0.96067">
        <ele>129</ele>
        <time>2021-12-19T09:45:15Z</time>
      </trkpt>
      <trkpt lat="44.56913" lon="0.96055">
        <ele>127.5</ele>
        <time>2021-12-19T09:45:17Z</time>
      </trkpt>
      <trkpt lat="44.56923" lon="0.96022">
        <ele>124</ele>
        <time>2021-12-19T09:45:21Z</time>
      </trkpt>
      <trkpt lat="44.56936" lon="0.95974">
        <ele>119.2</ele>
        <time>2021-12-19T09:45:26Z</time>
      </trkpt>
      <trkpt lat="44.56938" lon="0.95967">
        <ele>118.9</ele>
        <time>2021-12-19T09:45:27Z</time>
      </trkpt>
      <trkpt lat="44.56943" lon="0.95947">
        <ele>116.7</ele>
        <time>2021-12-19T09:45:30Z</time>
      </trkpt>
      <trkpt lat="44.56945" lon="0.95941">
        <ele>115.9</ele>
        <time>2021-12-19T09:45:31Z</time>
      </trkpt>
      <trkpt lat="44.56952" lon="0.95932">
        <ele>115.2</ele>
        <time>2021-12-19T09:45:33Z</time>
      </trkpt>
      <trkpt lat="44.56967" lon="0.95923">
        <ele>115</ele>
        <time>2021-12-19T09:45:36Z</time>
      </trkpt>
      <trkpt lat="44.5697" lon="0.9592">
        <ele>114.7</ele>
        <time>2021-12-19T09:45:37Z</time>
      </trkpt>
      <trkpt lat="44.5697" lon="0.95916">
        <ele>114.3</ele>
        <time>2021-12-19T09:45:38Z</time>
      </trkpt>
      <trkpt lat="44.56965" lon="0.95908">
        <ele>113.4</ele>
        <time>2021-12-19T09:45:40Z</time>
      </trkpt>
      <trkpt lat="44.5696" lon="0.95906">
        <ele>112.8</ele>
        <time>2021-12-19T09:45:41Z</time>
      </trkpt>
      <trkpt lat="44.56955" lon="0.95906">
        <ele>112.4</ele>
        <time>2021-12-19T09:45:42Z</time>
      </trkpt>
      <trkpt lat="44.56946" lon="0.9591">
        <ele>112.2</ele>
        <time>2021-12-19T09:45:44Z</time>
      </trkpt>
      <trkpt lat="44.5694" lon="0.95912">
        <ele>112.3</ele>
        <time>2021-12-19T09:45:45Z</time>
      </trkpt>
      <trkpt lat="44.56931" lon="0.95917">
        <ele>112.2</ele>
        <time>2021-12-19T09:45:48Z</time>
      </trkpt>
      <trkpt lat="44.56921" lon="0.95923">
        <ele>112.1</ele>
        <time>2021-12-19T09:45:54Z</time>
      </trkpt>
      <trkpt lat="44.56915" lon="0.9593">
        <ele>112.7</ele>
        <time>2021-12-19T09:45:56Z</time>
      </trkpt>
      <trkpt lat="44.56907" lon="0.95941">
        <ele>113.4</ele>
        <time>2021-12-19T09:45:58Z</time>
      </trkpt>
      <trkpt lat="44.56903" lon="0.95948">
        <ele>114.1</ele>
        <time>2021-12-19T09:45:59Z</time>
      </trkpt>
      <trkpt lat="44.56894" lon="0.95968">
        <ele>115.7</ele>
        <time>2021-12-19T09:46:02Z</time>
      </trkpt>
      <trkpt lat="44.56879" lon="0.96002">
        <ele>118.1</ele>
        <time>2021-12-19T09:46:08Z</time>
      </trkpt>
      <trkpt lat="44.56865" lon="0.96023">
        <ele>119.4</ele>
        <time>2021-12-19T09:46:13Z</time>
      </trkpt>
      <trkpt lat="44.56851" lon="0.96037">
        <ele>119.3</ele>
        <time>2021-12-19T09:46:17Z</time>
      </trkpt>
      <trkpt lat="44.56835" lon="0.96048">
        <ele>119</ele>
        <time>2021-12-19T09:46:21Z</time>
      </trkpt>
      <trkpt lat="44.56826" lon="0.96053">
        <ele>118.6</ele>
        <time>2021-12-19T09:46:23Z</time>
      </trkpt>
      <trkpt lat="44.56799" lon="0.96073">
        <ele>118</ele>
        <time>2021-12-19T09:46:30Z</time>
      </trkpt>
      <trkpt lat="44.56796" lon="0.96076">
        <ele>118.2</ele>
        <time>2021-12-19T09:46:31Z</time>
      </trkpt>
      <trkpt lat="44.56772" lon="0.96102">
        <ele>117.6</ele>
        <time>2021-12-19T09:46:38Z</time>
      </trkpt>
      <trkpt lat="44.5676" lon="0.96118">
        <ele>118.6</ele>
        <time>2021-12-19T09:46:42Z</time>
      </trkpt>
      <trkpt lat="44.56751" lon="0.96129">
        <ele>119.1</ele>
        <time>2021-12-19T09:46:45Z</time>
      </trkpt>
      <trkpt lat="44.56733" lon="0.9616">
        <ele>120.3</ele>
        <time>2021-12-19T09:46:52Z</time>
      </trkpt>
      <trkpt lat="44.5672" lon="0.96196">
        <ele>121.9</ele>
        <time>2021-12-19T09:46:59Z</time>
      </trkpt>
      <trkpt lat="44.56715" lon="0.96234">
        <ele>122.8</ele>
        <time>2021-12-19T09:47:06Z</time>
      </trkpt>
      <trkpt lat="44.5671" lon="0.96275">
        <ele>122.7</ele>
        <time>2021-12-19T09:47:14Z</time>
      </trkpt>
      <trkpt lat="44.56709" lon="0.96311">
        <ele>124.7</ele>
        <time>2021-12-19T09:47:21Z</time>
      </trkpt>
      <trkpt lat="44.56714" lon="0.96344">
        <ele>126.6</ele>
        <time>2021-12-19T09:47:28Z</time>
      </trkpt>
      <trkpt lat="44.56714" lon="0.96369">
        <ele>128.4</ele>
        <time>2021-12-19T09:47:33Z</time>
      </trkpt>
      <trkpt lat="44.56715" lon="0.96406">
        <ele>129.3</ele>
        <time>2021-12-19T09:47:40Z</time>
      </trkpt>
      <trkpt lat="44.56716" lon="0.96441">
        <ele>129.1</ele>
        <time>2021-12-19T09:47:47Z</time>
      </trkpt>
      <trkpt lat="44.56722" lon="0.96466">
        <ele>131</ele>
        <time>2021-12-19T09:47:53Z</time>
      </trkpt>
      <trkpt lat="44.56724" lon="0.96484">
        <ele>132.2</ele>
        <time>2021-12-19T09:47:57Z</time>
      </trkpt>
      <trkpt lat="44.56726" lon="0.96507">
        <ele>132.3</ele>
        <time>2021-12-19T09:48:02Z</time>
      </trkpt>
      <trkpt lat="44.56727" lon="0.96529">
        <ele>133.5</ele>
        <time>2021-12-19T09:48:07Z</time>
      </trkpt>
      <trkpt lat="44.56728" lon="0.96553">
        <ele>134</ele>
        <time>2021-12-19T09:48:13Z</time>
      </trkpt>
      <trkpt lat="44.56727" lon="0.96561">
        <ele>133.4</ele>
        <time>2021-12-19T09:48:15Z</time>
      </trkpt>
      <trkpt lat="44.56723" lon="0.96569">
        <ele>132.8</ele>
        <time>2021-12-19T09:48:17Z</time>
      </trkpt>
      <trkpt lat="44.56713" lon="0.96592">
        <ele>131.8</ele>
        <time>2021-12-19T09:48:23Z</time>
      </trkpt>
      <trkpt lat="44.56701" lon="0.96601">
        <ele>130</ele>
        <time>2021-12-19T09:48:27Z</time>
      </trkpt>
      <trkpt lat="44.56686" lon="0.9662">
        <ele>129.7</ele>
        <time>2021-12-19T09:48:33Z</time>
      </trkpt>
      <trkpt lat="44.56674" lon="0.96645">
        <ele>130.9</ele>
        <time>2021-12-19T09:48:40Z</time>
      </trkpt>
      <trkpt lat="44.56661" lon="0.96666">
        <ele>131.6</ele>
        <time>2021-12-19T09:48:46Z</time>
      </trkpt>
      <trkpt lat="44.56652" lon="0.96689">
        <ele>133.4</ele>
        <time>2021-12-19T09:48:52Z</time>
      </trkpt>
      <trkpt lat="44.56644" lon="0.967">
        <ele>134.1</ele>
        <time>2021-12-19T09:48:56Z</time>
      </trkpt>
      <trkpt lat="44.56635" lon="0.96714">
        <ele>134.9</ele>
        <time>2021-12-19T09:49:00Z</time>
      </trkpt>
      <trkpt lat="44.56624" lon="0.96732">
        <ele>135.6</ele>
        <time>2021-12-19T09:49:05Z</time>
      </trkpt>
      <trkpt lat="44.56615" lon="0.96752">
        <ele>136.1</ele>
        <time>2021-12-19T09:49:10Z</time>
      </trkpt>
      <trkpt lat="44.56606" lon="0.96773">
        <ele>137</ele>
        <time>2021-12-19T09:49:15Z</time>
      </trkpt>
      <trkpt lat="44.56597" lon="0.96793">
        <ele>137.5</ele>
        <time>2021-12-19T09:49:20Z</time>
      </trkpt>
      <trkpt lat="44.5659" lon="0.96815">
        <ele>138.2</ele>
        <time>2021-12-19T09:49:25Z</time>
      </trkpt>
      <trkpt lat="44.56581" lon="0.96841">
        <ele>139.5</ele>
        <time>2021-12-19T09:49:31Z</time>
      </trkpt>
      <trkpt lat="44.56574" lon="0.96862">
        <ele>140.5</ele>
        <time>2021-12-19T09:49:36Z</time>
      </trkpt>
      <trkpt lat="44.56572" lon="0.96882">
        <ele>141.7</ele>
        <time>2021-12-19T09:49:40Z</time>
      </trkpt>
      <trkpt lat="44.56571" lon="0.96895">
        <ele>142.5</ele>
        <time>2021-12-19T09:49:44Z</time>
      </trkpt>
      <trkpt lat="44.56568" lon="0.96915">
        <ele>143.3</ele>
        <time>2021-12-19T09:49:49Z</time>
      </trkpt>
      <trkpt lat="44.56569" lon="0.96934">
        <ele>144.2</ele>
        <time>2021-12-19T09:49:54Z</time>
      </trkpt>
      <trkpt lat="44.56569" lon="0.96951">
        <ele>144.6</ele>
        <time>2021-12-19T09:49:58Z</time>
      </trkpt>
      <trkpt lat="44.56569" lon="0.96976">
        <ele>145.1</ele>
        <time>2021-12-19T09:50:04Z</time>
      </trkpt>
      <trkpt lat="44.56568" lon="0.96982">
        <ele>145.2</ele>
        <time>2021-12-19T09:50:06Z</time>
      </trkpt>
      <trkpt lat="44.56568" lon="0.96991">
        <ele>145.6</ele>
        <time>2021-12-19T09:50:08Z</time>
      </trkpt>
      <trkpt lat="44.56568" lon="0.97013">
        <ele>146.2</ele>
        <time>2021-12-19T09:50:13Z</time>
      </trkpt>
      <trkpt lat="44.56569" lon="0.97033">
        <ele>146.4</ele>
        <time>2021-12-19T09:50:18Z</time>
      </trkpt>
      <trkpt lat="44.56575" lon="0.97052">
        <ele>147</ele>
        <time>2021-12-19T09:50:23Z</time>
      </trkpt>
      <trkpt lat="44.56582" lon="0.97068">
        <ele>147.7</ele>
        <time>2021-12-19T09:50:28Z</time>
      </trkpt>
      <trkpt lat="44.56582" lon="0.97072">
        <ele>147.7</ele>
        <time>2021-12-19T09:50:29Z</time>
      </trkpt>
      <trkpt lat="44.56585" lon="0.97084">
        <ele>147.9</ele>
        <time>2021-12-19T09:50:32Z</time>
      </trkpt>
      <trkpt lat="44.56587" lon="0.97091">
        <ele>148.4</ele>
        <time>2021-12-19T09:50:34Z</time>
      </trkpt>
      <trkpt lat="44.56588" lon="0.97099">
        <ele>148.2</ele>
        <time>2021-12-19T09:50:36Z</time>
      </trkpt>
      <trkpt lat="44.56591" lon="0.97123">
        <ele>148.3</ele>
        <time>2021-12-19T09:50:42Z</time>
      </trkpt>
      <trkpt lat="44.56592" lon="0.97127">
        <ele>148.3</ele>
        <time>2021-12-19T09:50:43Z</time>
      </trkpt>
      <trkpt lat="44.56596" lon="0.97137">
        <ele>149.3</ele>
        <time>2021-12-19T09:50:46Z</time>
      </trkpt>
      <trkpt lat="44.56606" lon="0.97149">
        <ele>150.5</ele>
        <time>2021-12-19T09:50:50Z</time>
      </trkpt>
      <trkpt lat="44.56614" lon="0.9716">
        <ele>151.6</ele>
        <time>2021-12-19T09:50:54Z</time>
      </trkpt>
      <trkpt lat="44.56624" lon="0.97172">
        <ele>152.3</ele>
        <time>2021-12-19T09:50:58Z</time>
      </trkpt>
      <trkpt lat="44.56638" lon="0.97184">
        <ele>153.5</ele>
        <time>2021-12-19T09:51:03Z</time>
      </trkpt>
      <trkpt lat="44.56648" lon="0.97198">
        <ele>154</ele>
        <time>2021-12-19T09:51:08Z</time>
      </trkpt>
      <trkpt lat="44.5666" lon="0.97214">
        <ele>154.4</ele>
        <time>2021-12-19T09:51:14Z</time>
      </trkpt>
      <trkpt lat="44.56672" lon="0.97232">
        <ele>154.6</ele>
        <time>2021-12-19T09:51:20Z</time>
      </trkpt>
      <trkpt lat="44.56681" lon="0.97242">
        <ele>154.4</ele>
        <time>2021-12-19T09:51:24Z</time>
      </trkpt>
      <trkpt lat="44.56682" lon="0.97242">
        <ele>154.8</ele>
        <time>2021-12-19T09:51:25Z</time>
      </trkpt>
      <trkpt lat="44.56691" lon="0.97235">
        <ele>155.7</ele>
        <time>2021-12-19T09:51:29Z</time>
      </trkpt>
      <trkpt lat="44.56693" lon="0.97236">
        <ele>155.9</ele>
        <time>2021-12-19T09:51:30Z</time>
      </trkpt>
      <trkpt lat="44.56698" lon="0.9724">
        <ele>156</ele>
        <time>2021-12-19T09:51:33Z</time>
      </trkpt>
      <trkpt lat="44.56704" lon="0.97244">
        <ele>156.5</ele>
        <time>2021-12-19T09:51:38Z</time>
      </trkpt>
      <trkpt lat="44.56715" lon="0.97255">
        <ele>157.5</ele>
        <time>2021-12-19T09:51:45Z</time>
      </trkpt>
      <trkpt lat="44.56726" lon="0.97261">
        <ele>158.7</ele>
        <time>2021-12-19T09:51:51Z</time>
      </trkpt>
      <trkpt lat="44.56732" lon="0.97266">
        <ele>159.6</ele>
        <time>2021-12-19T09:51:55Z</time>
      </trkpt>
      <trkpt lat="44.56733" lon="0.97267">
        <ele>159.6</ele>
        <time>2021-12-19T09:51:56Z</time>
      </trkpt>
      <trkpt lat="44.56741" lon="0.97283">
        <ele>160.4</ele>
        <time>2021-12-19T09:52:03Z</time>
      </trkpt>
      <trkpt lat="44.56748" lon="0.973">
        <ele>161.1</ele>
        <time>2021-12-19T09:52:08Z</time>
      </trkpt>
      <trkpt lat="44.56752" lon="0.97317">
        <ele>161.8</ele>
        <time>2021-12-19T09:52:12Z</time>
      </trkpt>
      <trkpt lat="44.56757" lon="0.97337">
        <ele>161.6</ele>
        <time>2021-12-19T09:52:17Z</time>
      </trkpt>
      <trkpt lat="44.56759" lon="0.97345">
        <ele>162</ele>
        <time>2021-12-19T09:52:19Z</time>
      </trkpt>
      <trkpt lat="44.56761" lon="0.97351">
        <ele>162.7</ele>
        <time>2021-12-19T09:52:21Z</time>
      </trkpt>
      <trkpt lat="44.56765" lon="0.97366">
        <ele>163.2</ele>
        <time>2021-12-19T09:52:25Z</time>
      </trkpt>
      <trkpt lat="44.56771" lon="0.97388">
        <ele>164.4</ele>
        <time>2021-12-19T09:52:31Z</time>
      </trkpt>
      <trkpt lat="44.56775" lon="0.97413">
        <ele>164.9</ele>
        <time>2021-12-19T09:52:38Z</time>
      </trkpt>
      <trkpt lat="44.56779" lon="0.9743">
        <ele>165.9</ele>
        <time>2021-12-19T09:52:44Z</time>
      </trkpt>
      <trkpt lat="44.56782" lon="0.97438">
        <ele>165.8</ele>
        <time>2021-12-19T09:52:48Z</time>
      </trkpt>
      <trkpt lat="44.56785" lon="0.97444">
        <ele>166.2</ele>
        <time>2021-12-19T09:52:51Z</time>
      </trkpt>
      <trkpt lat="44.56787" lon="0.97449">
        <ele>166.7</ele>
        <time>2021-12-19T09:52:53Z</time>
      </trkpt>
      <trkpt lat="44.56794" lon="0.97463">
        <ele>167.9</ele>
        <time>2021-12-19T09:52:59Z</time>
      </trkpt>
      <trkpt lat="44.56795" lon="0.97466">
        <ele>167.7</ele>
        <time>2021-12-19T09:53:00Z</time>
      </trkpt>
      <trkpt lat="44.56807" lon="0.97478">
        <ele>169.8</ele>
        <time>2021-12-19T09:53:06Z</time>
      </trkpt>
      <trkpt lat="44.56814" lon="0.97484">
        <ele>171</ele>
        <time>2021-12-19T09:53:11Z</time>
      </trkpt>
      <trkpt lat="44.56815" lon="0.97496">
        <ele>171.2</ele>
        <time>2021-12-19T09:53:15Z</time>
      </trkpt>
      <trkpt lat="44.56816" lon="0.97499">
        <ele>171.2</ele>
        <time>2021-12-19T09:53:16Z</time>
      </trkpt>
      <trkpt lat="44.56821" lon="0.97513">
        <ele>170.8</ele>
        <time>2021-12-19T09:53:21Z</time>
      </trkpt>
      <trkpt lat="44.56827" lon="0.97528">
        <ele>171.3</ele>
        <time>2021-12-19T09:53:26Z</time>
      </trkpt>
      <trkpt lat="44.56832" lon="0.97541">
        <ele>172</ele>
        <time>2021-12-19T09:53:31Z</time>
      </trkpt>
      <trkpt lat="44.56837" lon="0.97558">
        <ele>172.5</ele>
        <time>2021-12-19T09:53:36Z</time>
      </trkpt>
      <trkpt lat="44.5684" lon="0.97577">
        <ele>171.9</ele>
        <time>2021-12-19T09:53:40Z</time>
      </trkpt>
      <trkpt lat="44.56843" lon="0.97586">
        <ele>171.6</ele>
        <time>2021-12-19T09:53:42Z</time>
      </trkpt>
      <trkpt lat="44.56844" lon="0.9759">
        <ele>172</ele>
        <time>2021-12-19T09:53:43Z</time>
      </trkpt>
      <trkpt lat="44.56853" lon="0.97612">
        <ele>173.4</ele>
        <time>2021-12-19T09:53:48Z</time>
      </trkpt>
      <trkpt lat="44.5686" lon="0.97632">
        <ele>174.7</ele>
        <time>2021-12-19T09:53:53Z</time>
      </trkpt>
      <trkpt lat="44.56866" lon="0.97647">
        <ele>175.9</ele>
        <time>2021-12-19T09:53:58Z</time>
      </trkpt>
      <trkpt lat="44.56869" lon="0.97669">
        <ele>176.3</ele>
        <time>2021-12-19T09:54:03Z</time>
      </trkpt>
      <trkpt lat="44.56871" lon="0.97695">
        <ele>176.7</ele>
        <time>2021-12-19T09:54:09Z</time>
      </trkpt>
      <trkpt lat="44.56873" lon="0.97721">
        <ele>176</ele>
        <time>2021-12-19T09:54:14Z</time>
      </trkpt>
      <trkpt lat="44.56877" lon="0.97748">
        <ele>176</ele>
        <time>2021-12-19T09:54:20Z</time>
      </trkpt>
      <trkpt lat="44.56879" lon="0.97766">
        <ele>175.5</ele>
        <time>2021-12-19T09:54:24Z</time>
      </trkpt>
      <trkpt lat="44.56881" lon="0.97787">
        <ele>175.5</ele>
        <time>2021-12-19T09:54:29Z</time>
      </trkpt>
      <trkpt lat="44.56887" lon="0.97816">
        <ele>175.7</ele>
        <time>2021-12-19T09:54:37Z</time>
      </trkpt>
      <trkpt lat="44.56892" lon="0.97837">
        <ele>175.8</ele>
        <time>2021-12-19T09:54:43Z</time>
      </trkpt>
      <trkpt lat="44.56895" lon="0.97855">
        <ele>175.6</ele>
        <time>2021-12-19T09:54:48Z</time>
      </trkpt>
      <trkpt lat="44.56899" lon="0.97874">
        <ele>175.2</ele>
        <time>2021-12-19T09:54:54Z</time>
      </trkpt>
      <trkpt lat="44.56904" lon="0.97894">
        <ele>174.9</ele>
        <time>2021-12-19T09:55:00Z</time>
      </trkpt>
      <trkpt lat="44.56905" lon="0.97903">
        <ele>174.9</ele>
        <time>2021-12-19T09:55:03Z</time>
      </trkpt>
      <trkpt lat="44.56903" lon="0.97909">
        <ele>174.3</ele>
        <time>2021-12-19T09:55:05Z</time>
      </trkpt>
      <trkpt lat="44.56891" lon="0.97914">
        <ele>172.7</ele>
        <time>2021-12-19T09:55:10Z</time>
      </trkpt>
      <trkpt lat="44.56879" lon="0.97906">
        <ele>172.1</ele>
        <time>2021-12-19T09:55:15Z</time>
      </trkpt>
      <trkpt lat="44.56867" lon="0.97903">
        <ele>171.6</ele>
        <time>2021-12-19T09:55:20Z</time>
      </trkpt>
      <trkpt lat="44.56853" lon="0.97903">
        <ele>171.5</ele>
        <time>2021-12-19T09:55:26Z</time>
      </trkpt>
      <trkpt lat="44.56842" lon="0.97901">
        <ele>171.3</ele>
        <time>2021-12-19T09:55:33Z</time>
      </trkpt>
      <trkpt lat="44.56834" lon="0.97896">
        <ele>171.1</ele>
        <time>2021-12-19T09:55:39Z</time>
      </trkpt>
      <trkpt lat="44.56832" lon="0.97893">
        <ele>171</ele>
        <time>2021-12-19T09:55:43Z</time>
      </trkpt>
      <trkpt lat="44.56829" lon="0.9789">
        <ele>171</ele>
        <time>2021-12-19T09:55:58Z</time>
      </trkpt>
      <trkpt lat="44.56824" lon="0.97881">
        <ele>170.6</ele>
        <time>2021-12-19T09:56:02Z</time>
      </trkpt>
      <trkpt lat="44.56824" lon="0.97879">
        <ele>170.6</ele>
        <time>2021-12-19T09:56:03Z</time>
      </trkpt>
      <trkpt lat="44.56823" lon="0.97876">
        <ele>170.4</ele>
        <time>2021-12-19T09:56:05Z</time>
      </trkpt>
      <trkpt lat="44.56821" lon="0.97866">
        <ele>170.1</ele>
        <time>2021-12-19T09:56:09Z</time>
      </trkpt>
      <trkpt lat="44.56812" lon="0.97852">
        <ele>169.8</ele>
        <time>2021-12-19T09:56:15Z</time>
      </trkpt>
      <trkpt lat="44.56803" lon="0.97852">
        <ele>170</ele>
        <time>2021-12-19T09:56:20Z</time>
      </trkpt>
      <trkpt lat="44.56799" lon="0.97854">
        <ele>170.4</ele>
        <time>2021-12-19T09:56:25Z</time>
      </trkpt>
      <trkpt lat="44.56809" lon="0.97851">
        <ele>169.8</ele>
        <time>2021-12-19T09:56:34Z</time>
      </trkpt>
      <trkpt lat="44.56814" lon="0.9785">
        <ele>169.6</ele>
        <time>2021-12-19T09:56:38Z</time>
      </trkpt>
      <trkpt lat="44.56816" lon="0.97848">
        <ele>169.6</ele>
        <time>2021-12-19T09:56:40Z</time>
      </trkpt>
      <trkpt lat="44.56818" lon="0.97841">
        <ele>169.5</ele>
        <time>2021-12-19T09:57:57Z</time>
      </trkpt>
      <trkpt lat="44.56819" lon="0.97837">
        <ele>169.4</ele>
        <time>2021-12-19T09:57:59Z</time>
      </trkpt>
      <trkpt lat="44.56818" lon="0.97828">
        <ele>169.4</ele>
        <time>2021-12-19T09:58:04Z</time>
      </trkpt>
      <trkpt lat="44.56813" lon="0.97824">
        <ele>169.4</ele>
        <time>2021-12-19T09:58:07Z</time>
      </trkpt>
      <trkpt lat="44.5681" lon="0.97822">
        <ele>169.5</ele>
        <time>2021-12-19T09:58:09Z</time>
      </trkpt>
      <trkpt lat="44.568" lon="0.97824">
        <ele>170.1</ele>
        <time>2021-12-19T09:58:13Z</time>
      </trkpt>
      <trkpt lat="44.56782" lon="0.97819">
        <ele>171.4</ele>
        <time>2021-12-19T09:58:19Z</time>
      </trkpt>
      <trkpt lat="44.56777" lon="0.97818">
        <ele>172</ele>
        <time>2021-12-19T09:58:22Z</time>
      </trkpt>
      <trkpt lat="44.56762" lon="0.97815">
        <ele>173.7</ele>
        <time>2021-12-19T09:58:29Z</time>
      </trkpt>
      <trkpt lat="44.56756" lon="0.97813">
        <ele>174.4</ele>
        <time>2021-12-19T09:58:32Z</time>
      </trkpt>
      <trkpt lat="44.5675" lon="0.9781">
        <ele>175.1</ele>
        <time>2021-12-19T09:58:35Z</time>
      </trkpt>
      <trkpt lat="44.56738" lon="0.97802">
        <ele>176.5</ele>
        <time>2021-12-19T09:58:41Z</time>
      </trkpt>
      <trkpt lat="44.56735" lon="0.97799">
        <ele>176.8</ele>
        <time>2021-12-19T09:58:43Z</time>
      </trkpt>
      <trkpt lat="44.56727" lon="0.9778">
        <ele>177.5</ele>
        <time>2021-12-19T09:58:55Z</time>
      </trkpt>
      <trkpt lat="44.56728" lon="0.97778">
        <ele>177.6</ele>
        <time>2021-12-19T09:58:56Z</time>
      </trkpt>
      <trkpt lat="44.56732" lon="0.97767">
        <ele>177.3</ele>
        <time>2021-12-19T09:59:01Z</time>
      </trkpt>
      <trkpt lat="44.56732" lon="0.97763">
        <ele>177.3</ele>
        <time>2021-12-19T09:59:03Z</time>
      </trkpt>
      <trkpt lat="44.5673" lon="0.97757">
        <ele>177.5</ele>
        <time>2021-12-19T09:59:07Z</time>
      </trkpt>
      <trkpt lat="44.56728" lon="0.97754">
        <ele>177.9</ele>
        <time>2021-12-19T09:59:09Z</time>
      </trkpt>
      <trkpt lat="44.56725" lon="0.9775">
        <ele>178.5</ele>
        <time>2021-12-19T09:59:12Z</time>
      </trkpt>
      <trkpt lat="44.56724" lon="0.97747">
        <ele>178.6</ele>
        <time>2021-12-19T09:59:14Z</time>
      </trkpt>
      <trkpt lat="44.56719" lon="0.97737">
        <ele>179.7</ele>
        <time>2021-12-19T09:59:20Z</time>
      </trkpt>
      <trkpt lat="44.56717" lon="0.97734">
        <ele>180.2</ele>
        <time>2021-12-19T09:59:22Z</time>
      </trkpt>
      <trkpt lat="44.5671" lon="0.97727">
        <ele>181.2</ele>
        <time>2021-12-19T09:59:28Z</time>
      </trkpt>
      <trkpt lat="44.56707" lon="0.97727">
        <ele>181.7</ele>
        <time>2021-12-19T09:59:30Z</time>
      </trkpt>
      <trkpt lat="44.56704" lon="0.9773">
        <ele>182.3</ele>
        <time>2021-12-19T09:59:33Z</time>
      </trkpt>
      <trkpt lat="44.56694" lon="0.97733">
        <ele>184.5</ele>
        <time>2021-12-19T09:59:40Z</time>
      </trkpt>
      <trkpt lat="44.56685" lon="0.97736">
        <ele>186.2</ele>
        <time>2021-12-19T09:59:46Z</time>
      </trkpt>
      <trkpt lat="44.56674" lon="0.97734">
        <ele>188.8</ele>
        <time>2021-12-19T09:59:53Z</time>
      </trkpt>
      <trkpt lat="44.56669" lon="0.97731">
        <ele>189.7</ele>
        <time>2021-12-19T09:59:57Z</time>
      </trkpt>
      <trkpt lat="44.56667" lon="0.97731">
        <ele>190.3</ele>
        <time>2021-12-19T09:59:58Z</time>
      </trkpt>
      <trkpt lat="44.5666" lon="0.9773">
        <ele>191.7</ele>
        <time>2021-12-19T10:00:04Z</time>
      </trkpt>
      <trkpt lat="44.56658" lon="0.97728">
        <ele>192.4</ele>
        <time>2021-12-19T10:00:07Z</time>
      </trkpt>
      <trkpt lat="44.56517" lon="0.97641">
        <ele>212.7</ele>
        <time>2021-12-19T10:02:20Z</time>
      </trkpt>
      <trkpt lat="44.56509" lon="0.97641">
        <ele>213</ele>
        <time>2021-12-19T10:02:24Z</time>
      </trkpt>
      <trkpt lat="44.56498" lon="0.97639">
        <ele>213.3</ele>
        <time>2021-12-19T10:02:30Z</time>
      </trkpt>
      <trkpt lat="44.56489" lon="0.9764">
        <ele>213.5</ele>
        <time>2021-12-19T10:02:35Z</time>
      </trkpt>
      <trkpt lat="44.56477" lon="0.97639">
        <ele>213.8</ele>
        <time>2021-12-19T10:02:41Z</time>
      </trkpt>
      <trkpt lat="44.56462" lon="0.9764">
        <ele>214.1</ele>
        <time>2021-12-19T10:02:49Z</time>
      </trkpt>
      <trkpt lat="44.56456" lon="0.97641">
        <ele>214.3</ele>
        <time>2021-12-19T10:02:53Z</time>
      </trkpt>
      <trkpt lat="44.56446" lon="0.97641">
        <ele>214.5</ele>
        <time>2021-12-19T10:02:58Z</time>
      </trkpt>
      <trkpt lat="44.56435" lon="0.97641">
        <ele>214.8</ele>
        <time>2021-12-19T10:03:03Z</time>
      </trkpt>
      <trkpt lat="44.56433" lon="0.97642">
        <ele>214.9</ele>
        <time>2021-12-19T10:03:04Z</time>
      </trkpt>
      <trkpt lat="44.56428" lon="0.97643">
        <ele>214.9</ele>
        <time>2021-12-19T10:03:07Z</time>
      </trkpt>
      <trkpt lat="44.56423" lon="0.97644">
        <ele>215.1</ele>
        <time>2021-12-19T10:03:11Z</time>
      </trkpt>
      <trkpt lat="44.56417" lon="0.97647">
        <ele>215.3</ele>
        <time>2021-12-19T10:03:16Z</time>
      </trkpt>
      <trkpt lat="44.56412" lon="0.97649">
        <ele>215.4</ele>
        <time>2021-12-19T10:03:20Z</time>
      </trkpt>
      <trkpt lat="44.56404" lon="0.97653">
        <ele>215.7</ele>
        <time>2021-12-19T10:03:26Z</time>
      </trkpt>
      <trkpt lat="44.56393" lon="0.97658">
        <ele>216</ele>
        <time>2021-12-19T10:03:32Z</time>
      </trkpt>
      <trkpt lat="44.56383" lon="0.97668">
        <ele>216.2</ele>
        <time>2021-12-19T10:03:38Z</time>
      </trkpt>
      <trkpt lat="44.5637" lon="0.97676">
        <ele>216.3</ele>
        <time>2021-12-19T10:03:44Z</time>
      </trkpt>
      <trkpt lat="44.56355" lon="0.97687">
        <ele>216.4</ele>
        <time>2021-12-19T10:03:51Z</time>
      </trkpt>
      <trkpt lat="44.56344" lon="0.97695">
        <ele>216.2</ele>
        <time>2021-12-19T10:03:57Z</time>
      </trkpt>
      <trkpt lat="44.5634" lon="0.97699">
        <ele>216</ele>
        <time>2021-12-19T10:03:59Z</time>
      </trkpt>
      <trkpt lat="44.56336" lon="0.97702">
        <ele>215.9</ele>
        <time>2021-12-19T10:04:01Z</time>
      </trkpt>
      <trkpt lat="44.56322" lon="0.9771">
        <ele>215.6</ele>
        <time>2021-12-19T10:04:07Z</time>
      </trkpt>
      <trkpt lat="44.56304" lon="0.9772">
        <ele>214.9</ele>
        <time>2021-12-19T10:04:13Z</time>
      </trkpt>
      <trkpt lat="44.56291" lon="0.97732">
        <ele>214.4</ele>
        <time>2021-12-19T10:04:17Z</time>
      </trkpt>
      <trkpt lat="44.56274" lon="0.97757">
        <ele>213.8</ele>
        <time>2021-12-19T10:04:23Z</time>
      </trkpt>
      <trkpt lat="44.56255" lon="0.97784">
        <ele>213.6</ele>
        <time>2021-12-19T10:04:30Z</time>
      </trkpt>
      <trkpt lat="44.56233" lon="0.97816">
        <ele>214</ele>
        <time>2021-12-19T10:04:38Z</time>
      </trkpt>
      <trkpt lat="44.56221" lon="0.9784">
        <ele>214.7</ele>
        <time>2021-12-19T10:04:44Z</time>
      </trkpt>
      <trkpt lat="44.5622" lon="0.97866">
        <ele>215.3</ele>
        <time>2021-12-19T10:04:49Z</time>
      </trkpt>
      <trkpt lat="44.56221" lon="0.9789">
        <ele>215.9</ele>
        <time>2021-12-19T10:04:54Z</time>
      </trkpt>
      <trkpt lat="44.56218" lon="0.97922">
        <ele>218.2</ele>
        <time>2021-12-19T10:05:00Z</time>
      </trkpt>
      <trkpt lat="44.5621" lon="0.97931">
        <ele>219.2</ele>
        <time>2021-12-19T10:05:03Z</time>
      </trkpt>
      <trkpt lat="44.562" lon="0.97921">
        <ele>218.3</ele>
        <time>2021-12-19T10:05:07Z</time>
      </trkpt>
      <trkpt lat="44.56185" lon="0.97903">
        <ele>216.5</ele>
        <time>2021-12-19T10:05:11Z</time>
      </trkpt>
      <trkpt lat="44.56177" lon="0.97892">
        <ele>215.2</ele>
        <time>2021-12-19T10:05:13Z</time>
      </trkpt>
      <trkpt lat="44.56169" lon="0.97877">
        <ele>213.9</ele>
        <time>2021-12-19T10:05:15Z</time>
      </trkpt>
      <trkpt lat="44.56146" lon="0.97829">
        <ele>210.2</ele>
        <time>2021-12-19T10:05:20Z</time>
      </trkpt>
      <trkpt lat="44.56118" lon="0.9776">
        <ele>206</ele>
        <time>2021-12-19T10:05:26Z</time>
      </trkpt>
      <trkpt lat="44.56113" lon="0.97749">
        <ele>205.6</ele>
        <time>2021-12-19T10:05:27Z</time>
      </trkpt>
      <trkpt lat="44.56077" lon="0.97681">
        <ele>203.2</ele>
        <time>2021-12-19T10:05:33Z</time>
      </trkpt>
      <trkpt lat="44.56066" lon="0.9766">
        <ele>202.5</ele>
        <time>2021-12-19T10:05:35Z</time>
      </trkpt>
      <trkpt lat="44.56032" lon="0.97598">
        <ele>201</ele>
        <time>2021-12-19T10:05:41Z</time>
      </trkpt>
      <trkpt lat="44.55996" lon="0.97538">
        <ele>200.7</ele>
        <time>2021-12-19T10:05:47Z</time>
      </trkpt>
      <trkpt lat="44.5599" lon="0.97528">
        <ele>200.8</ele>
        <time>2021-12-19T10:05:48Z</time>
      </trkpt>
      <trkpt lat="44.55965" lon="0.97487">
        <ele>201.5</ele>
        <time>2021-12-19T10:05:53Z</time>
      </trkpt>
      <trkpt lat="44.55962" lon="0.97478">
        <ele>201.5</ele>
        <time>2021-12-19T10:05:54Z</time>
      </trkpt>
      <trkpt lat="44.55957" lon="0.97461">
        <ele>201.6</ele>
        <time>2021-12-19T10:05:56Z</time>
      </trkpt>
      <trkpt lat="44.55956" lon="0.97453">
        <ele>201.6</ele>
        <time>2021-12-19T10:05:57Z</time>
      </trkpt>
      <trkpt lat="44.55955" lon="0.97445">
        <ele>201.5</ele>
        <time>2021-12-19T10:05:58Z</time>
      </trkpt>
      <trkpt lat="44.55953" lon="0.97413">
        <ele>200.7</ele>
        <time>2021-12-19T10:06:02Z</time>
      </trkpt>
      <trkpt lat="44.5595" lon="0.974">
        <ele>200.3</ele>
        <time>2021-12-19T10:06:04Z</time>
      </trkpt>
      <trkpt lat="44.55947" lon="0.97395">
        <ele>200.1</ele>
        <time>2021-12-19T10:06:05Z</time>
      </trkpt>
      <trkpt lat="44.55941" lon="0.97387">
        <ele>199.6</ele>
        <time>2021-12-19T10:06:07Z</time>
      </trkpt>
      <trkpt lat="44.55931" lon="0.97383">
        <ele>199.1</ele>
        <time>2021-12-19T10:06:09Z</time>
      </trkpt>
      <trkpt lat="44.55918" lon="0.97383">
        <ele>198.5</ele>
        <time>2021-12-19T10:06:11Z</time>
      </trkpt>
      <trkpt lat="44.55906" lon="0.97387">
        <ele>198</ele>
        <time>2021-12-19T10:06:13Z</time>
      </trkpt>
      <trkpt lat="44.55871" lon="0.97401">
        <ele>196.5</ele>
        <time>2021-12-19T10:06:18Z</time>
      </trkpt>
      <trkpt lat="44.55856" lon="0.97402">
        <ele>195.9</ele>
        <time>2021-12-19T10:06:20Z</time>
      </trkpt>
      <trkpt lat="44.55841" lon="0.97402">
        <ele>195.1</ele>
        <time>2021-12-19T10:06:22Z</time>
      </trkpt>
      <trkpt lat="44.55829" lon="0.97408">
        <ele>193.6</ele>
        <time>2021-12-19T10:06:24Z</time>
      </trkpt>
      <trkpt lat="44.55823" lon="0.97414">
        <ele>192.8</ele>
        <time>2021-12-19T10:06:25Z</time>
      </trkpt>
      <trkpt lat="44.55812" lon="0.97428">
        <ele>191.6</ele>
        <time>2021-12-19T10:06:27Z</time>
      </trkpt>
      <trkpt lat="44.55803" lon="0.97445">
        <ele>190.3</ele>
        <time>2021-12-19T10:06:29Z</time>
      </trkpt>
      <trkpt lat="44.55795" lon="0.97477">
        <ele>188.4</ele>
        <time>2021-12-19T10:06:32Z</time>
      </trkpt>
      <trkpt lat="44.55794" lon="0.97487">
        <ele>187.8</ele>
        <time>2021-12-19T10:06:33Z</time>
      </trkpt>
      <trkpt lat="44.55794" lon="0.97498">
        <ele>187.1</ele>
        <time>2021-12-19T10:06:34Z</time>
      </trkpt>
      <trkpt lat="44.55797" lon="0.97518">
        <ele>185.5</ele>
        <time>2021-12-19T10:06:36Z</time>
      </trkpt>
      <trkpt lat="44.55808" lon="0.97534">
        <ele>183.7</ele>
        <time>2021-12-19T10:06:38Z</time>
      </trkpt>
      <trkpt lat="44.55814" lon="0.97541">
        <ele>182.9</ele>
        <time>2021-12-19T10:06:39Z</time>
      </trkpt>
      <trkpt lat="44.55821" lon="0.97548">
        <ele>182.1</ele>
        <time>2021-12-19T10:06:40Z</time>
      </trkpt>
      <trkpt lat="44.5583" lon="0.97566">
        <ele>180.5</ele>
        <time>2021-12-19T10:06:42Z</time>
      </trkpt>
      <trkpt lat="44.55832" lon="0.97588">
        <ele>179.2</ele>
        <time>2021-12-19T10:06:44Z</time>
      </trkpt>
      <trkpt lat="44.5583" lon="0.97599">
        <ele>178.7</ele>
        <time>2021-12-19T10:06:45Z</time>
      </trkpt>
      <trkpt lat="44.55825" lon="0.97609">
        <ele>178.4</ele>
        <time>2021-12-19T10:06:46Z</time>
      </trkpt>
      <trkpt lat="44.55812" lon="0.97626">
        <ele>177.6</ele>
        <time>2021-12-19T10:06:48Z</time>
      </trkpt>
      <trkpt lat="44.55795" lon="0.97636">
        <ele>176.7</ele>
        <time>2021-12-19T10:06:50Z</time>
      </trkpt>
      <trkpt lat="44.55787" lon="0.97638">
        <ele>176.3</ele>
        <time>2021-12-19T10:06:51Z</time>
      </trkpt>
      <trkpt lat="44.55735" lon="0.97653">
        <ele>174.7</ele>
        <time>2021-12-19T10:06:57Z</time>
      </trkpt>
      <trkpt lat="44.55727" lon="0.97654">
        <ele>174.7</ele>
        <time>2021-12-19T10:06:58Z</time>
      </trkpt>
      <trkpt lat="44.5571" lon="0.9765">
        <ele>175.1</ele>
        <time>2021-12-19T10:07:00Z</time>
      </trkpt>
      <trkpt lat="44.55685" lon="0.97626">
        <ele>177.5</ele>
        <time>2021-12-19T10:07:04Z</time>
      </trkpt>
      <trkpt lat="44.55669" lon="0.97611">
        <ele>179.2</ele>
        <time>2021-12-19T10:07:07Z</time>
      </trkpt>
      <trkpt lat="44.55664" lon="0.97608">
        <ele>178.9</ele>
        <time>2021-12-19T10:07:08Z</time>
      </trkpt>
      <trkpt lat="44.55659" lon="0.97606">
        <ele>178.6</ele>
        <time>2021-12-19T10:07:09Z</time>
      </trkpt>
      <trkpt lat="44.55648" lon="0.97608">
        <ele>178.7</ele>
        <time>2021-12-19T10:07:11Z</time>
      </trkpt>
      <trkpt lat="44.5563" lon="0.97619">
        <ele>179.2</ele>
        <time>2021-12-19T10:07:15Z</time>
      </trkpt>
      <trkpt lat="44.55626" lon="0.97622">
        <ele>179.5</ele>
        <time>2021-12-19T10:07:16Z</time>
      </trkpt>
      <trkpt lat="44.55619" lon="0.97628">
        <ele>179.8</ele>
        <time>2021-12-19T10:07:18Z</time>
      </trkpt>
      <trkpt lat="44.55612" lon="0.97633">
        <ele>180.4</ele>
        <time>2021-12-19T10:07:20Z</time>
      </trkpt>
      <trkpt lat="44.55604" lon="0.9764">
        <ele>180.8</ele>
        <time>2021-12-19T10:07:22Z</time>
      </trkpt>
      <trkpt lat="44.55585" lon="0.97657">
        <ele>182.1</ele>
        <time>2021-12-19T10:07:28Z</time>
      </trkpt>
      <trkpt lat="44.55569" lon="0.97678">
        <ele>183.9</ele>
        <time>2021-12-19T10:07:35Z</time>
      </trkpt>
      <trkpt lat="44.55557" lon="0.97692">
        <ele>185.4</ele>
        <time>2021-12-19T10:07:41Z</time>
      </trkpt>
      <trkpt lat="44.55549" lon="0.97708">
        <ele>186.7</ele>
        <time>2021-12-19T10:07:46Z</time>
      </trkpt>
      <trkpt lat="44.55542" lon="0.97727">
        <ele>187.6</ele>
        <time>2021-12-19T10:07:52Z</time>
      </trkpt>
      <trkpt lat="44.55533" lon="0.97745">
        <ele>188</ele>
        <time>2021-12-19T10:07:58Z</time>
      </trkpt>
      <trkpt lat="44.55521" lon="0.9776">
        <ele>187.8</ele>
        <time>2021-12-19T10:08:03Z</time>
      </trkpt>
      <trkpt lat="44.55504" lon="0.97774">
        <ele>187.3</ele>
        <time>2021-12-19T10:08:08Z</time>
      </trkpt>
      <trkpt lat="44.55491" lon="0.97783">
        <ele>186.5</ele>
        <time>2021-12-19T10:08:12Z</time>
      </trkpt>
      <trkpt lat="44.5547" lon="0.97801">
        <ele>185.2</ele>
        <time>2021-12-19T10:08:17Z</time>
      </trkpt>
      <trkpt lat="44.55439" lon="0.97833">
        <ele>182.1</ele>
        <time>2021-12-19T10:08:23Z</time>
      </trkpt>
      <trkpt lat="44.55414" lon="0.97865">
        <ele>179.6</ele>
        <time>2021-12-19T10:08:29Z</time>
      </trkpt>
      <trkpt lat="44.5541" lon="0.97869">
        <ele>179.3</ele>
        <time>2021-12-19T10:08:30Z</time>
      </trkpt>
      <trkpt lat="44.554" lon="0.97875">
        <ele>178.1</ele>
        <time>2021-12-19T10:08:32Z</time>
      </trkpt>
      <trkpt lat="44.5539" lon="0.97881">
        <ele>177.1</ele>
        <time>2021-12-19T10:08:34Z</time>
      </trkpt>
      <trkpt lat="44.55385" lon="0.97888">
        <ele>176.4</ele>
        <time>2021-12-19T10:08:36Z</time>
      </trkpt>
      <trkpt lat="44.55382" lon="0.97895">
        <ele>176.4</ele>
        <time>2021-12-19T10:08:38Z</time>
      </trkpt>
      <trkpt lat="44.55382" lon="0.97905">
        <ele>176.7</ele>
        <time>2021-12-19T10:08:40Z</time>
      </trkpt>
      <trkpt lat="44.55378" lon="0.9792">
        <ele>177.1</ele>
        <time>2021-12-19T10:08:43Z</time>
      </trkpt>
      <trkpt lat="44.55371" lon="0.97937">
        <ele>176.8</ele>
        <time>2021-12-19T10:08:47Z</time>
      </trkpt>
      <trkpt lat="44.55364" lon="0.97951">
        <ele>176.9</ele>
        <time>2021-12-19T10:08:51Z</time>
      </trkpt>
      <trkpt lat="44.55352" lon="0.9798">
        <ele>176.7</ele>
        <time>2021-12-19T10:08:56Z</time>
      </trkpt>
      <trkpt lat="44.55345" lon="0.97998">
        <ele>176.7</ele>
        <time>2021-12-19T10:08:59Z</time>
      </trkpt>
      <trkpt lat="44.55333" lon="0.9802">
        <ele>176.7</ele>
        <time>2021-12-19T10:09:04Z</time>
      </trkpt>
      <trkpt lat="44.55321" lon="0.98024">
        <ele>177.1</ele>
        <time>2021-12-19T10:09:08Z</time>
      </trkpt>
      <trkpt lat="44.55309" lon="0.98023">
        <ele>177.9</ele>
        <time>2021-12-19T10:09:13Z</time>
      </trkpt>
      <trkpt lat="44.55299" lon="0.98018">
        <ele>178.4</ele>
        <time>2021-12-19T10:09:17Z</time>
      </trkpt>
      <trkpt lat="44.55295" lon="0.98009">
        <ele>177.9</ele>
        <time>2021-12-19T10:09:21Z</time>
      </trkpt>
      <trkpt lat="44.55294" lon="0.97999">
        <ele>177.6</ele>
        <time>2021-12-19T10:09:24Z</time>
      </trkpt>
      <trkpt lat="44.55294" lon="0.97992">
        <ele>177.4</ele>
        <time>2021-12-19T10:09:26Z</time>
      </trkpt>
      <trkpt lat="44.553" lon="0.9797">
        <ele>177.5</ele>
        <time>2021-12-19T10:09:32Z</time>
      </trkpt>
      <trkpt lat="44.55301" lon="0.97966">
        <ele>177.6</ele>
        <time>2021-12-19T10:09:33Z</time>
      </trkpt>
      <trkpt lat="44.55302" lon="0.97952">
        <ele>177.7</ele>
        <time>2021-12-19T10:09:36Z</time>
      </trkpt>
      <trkpt lat="44.553" lon="0.97925">
        <ele>178.2</ele>
        <time>2021-12-19T10:09:41Z</time>
      </trkpt>
      <trkpt lat="44.553" lon="0.97921">
        <ele>178.4</ele>
        <time>2021-12-19T10:09:42Z</time>
      </trkpt>
      <trkpt lat="44.55298" lon="0.97909">
        <ele>178.9</ele>
        <time>2021-12-19T10:09:45Z</time>
      </trkpt>
      <trkpt lat="44.55295" lon="0.97893">
        <ele>179.6</ele>
        <time>2021-12-19T10:09:48Z</time>
      </trkpt>
      <trkpt lat="44.55295" lon="0.97886">
        <ele>179.7</ele>
        <time>2021-12-19T10:09:49Z</time>
      </trkpt>
      <trkpt lat="44.55297" lon="0.97871">
        <ele>179.5</ele>
        <time>2021-12-19T10:09:51Z</time>
      </trkpt>
      <trkpt lat="44.55296" lon="0.97855">
        <ele>178.6</ele>
        <time>2021-12-19T10:09:53Z</time>
      </trkpt>
      <trkpt lat="44.55288" lon="0.9784">
        <ele>177.5</ele>
        <time>2021-12-19T10:09:55Z</time>
      </trkpt>
      <trkpt lat="44.55284" lon="0.97833">
        <ele>177</ele>
        <time>2021-12-19T10:09:56Z</time>
      </trkpt>
      <trkpt lat="44.55276" lon="0.97819">
        <ele>176.1</ele>
        <time>2021-12-19T10:09:58Z</time>
      </trkpt>
      <trkpt lat="44.55271" lon="0.97813">
        <ele>175.8</ele>
        <time>2021-12-19T10:09:59Z</time>
      </trkpt>
      <trkpt lat="44.55266" lon="0.97806">
        <ele>175.5</ele>
        <time>2021-12-19T10:10:00Z</time>
      </trkpt>
      <trkpt lat="44.55253" lon="0.97787">
        <ele>174.8</ele>
        <time>2021-12-19T10:10:03Z</time>
      </trkpt>
      <trkpt lat="44.55249" lon="0.9778">
        <ele>174.6</ele>
        <time>2021-12-19T10:10:04Z</time>
      </trkpt>
      <trkpt lat="44.55234" lon="0.97766">
        <ele>173.8</ele>
        <time>2021-12-19T10:10:07Z</time>
      </trkpt>
      <trkpt lat="44.5523" lon="0.97762">
        <ele>173.6</ele>
        <time>2021-12-19T10:10:08Z</time>
      </trkpt>
      <trkpt lat="44.55222" lon="0.97756">
        <ele>173.1</ele>
        <time>2021-12-19T10:10:10Z</time>
      </trkpt>
      <trkpt lat="44.55215" lon="0.97749">
        <ele>172.9</ele>
        <time>2021-12-19T10:10:12Z</time>
      </trkpt>
      <trkpt lat="44.55198" lon="0.97737">
        <ele>172.7</ele>
        <time>2021-12-19T10:10:16Z</time>
      </trkpt>
      <trkpt lat="44.55185" lon="0.97722">
        <ele>172.4</ele>
        <time>2021-12-19T10:10:20Z</time>
      </trkpt>
      <trkpt lat="44.55184" lon="0.97717">
        <ele>172.4</ele>
        <time>2021-12-19T10:10:21Z</time>
      </trkpt>
      <trkpt lat="44.55179" lon="0.977">
        <ele>172.2</ele>
        <time>2021-12-19T10:10:24Z</time>
      </trkpt>
      <trkpt lat="44.55173" lon="0.97682">
        <ele>171.8</ele>
        <time>2021-12-19T10:10:27Z</time>
      </trkpt>
      <trkpt lat="44.55169" lon="0.97667">
        <ele>171.4</ele>
        <time>2021-12-19T10:10:29Z</time>
      </trkpt>
      <trkpt lat="44.55167" lon="0.9766">
        <ele>171.2</ele>
        <time>2021-12-19T10:10:30Z</time>
      </trkpt>
      <trkpt lat="44.55163" lon="0.97647">
        <ele>170.8</ele>
        <time>2021-12-19T10:10:32Z</time>
      </trkpt>
      <trkpt lat="44.55162" lon="0.9764">
        <ele>170.5</ele>
        <time>2021-12-19T10:10:33Z</time>
      </trkpt>
      <trkpt lat="44.55157" lon="0.97609">
        <ele>169.1</ele>
        <time>2021-12-19T10:10:37Z</time>
      </trkpt>
      <trkpt lat="44.55158" lon="0.97576">
        <ele>167.8</ele>
        <time>2021-12-19T10:10:41Z</time>
      </trkpt>
      <trkpt lat="44.55158" lon="0.97568">
        <ele>167.4</ele>
        <time>2021-12-19T10:10:42Z</time>
      </trkpt>
      <trkpt lat="44.55156" lon="0.97553">
        <ele>166.9</ele>
        <time>2021-12-19T10:10:44Z</time>
      </trkpt>
      <trkpt lat="44.55153" lon="0.97546">
        <ele>166.7</ele>
        <time>2021-12-19T10:10:45Z</time>
      </trkpt>
      <trkpt lat="44.55144" lon="0.97526">
        <ele>166.1</ele>
        <time>2021-12-19T10:10:49Z</time>
      </trkpt>
      <trkpt lat="44.55138" lon="0.97508">
        <ele>165.5</ele>
        <time>2021-12-19T10:10:52Z</time>
      </trkpt>
      <trkpt lat="44.55141" lon="0.97495">
        <ele>165</ele>
        <time>2021-12-19T10:10:54Z</time>
      </trkpt>
      <trkpt lat="44.55142" lon="0.97488">
        <ele>164.7</ele>
        <time>2021-12-19T10:10:55Z</time>
      </trkpt>
      <trkpt lat="44.55144" lon="0.97481">
        <ele>164.2</ele>
        <time>2021-12-19T10:10:56Z</time>
      </trkpt>
      <trkpt lat="44.55148" lon="0.97456">
        <ele>162.5</ele>
        <time>2021-12-19T10:10:59Z</time>
      </trkpt>
      <trkpt lat="44.5515" lon="0.97446">
        <ele>161.8</ele>
        <time>2021-12-19T10:11:00Z</time>
      </trkpt>
      <trkpt lat="44.55153" lon="0.97426">
        <ele>160.4</ele>
        <time>2021-12-19T10:11:02Z</time>
      </trkpt>
      <trkpt lat="44.55153" lon="0.97406">
        <ele>159.1</ele>
        <time>2021-12-19T10:11:04Z</time>
      </trkpt>
      <trkpt lat="44.55155" lon="0.97395">
        <ele>158.3</ele>
        <time>2021-12-19T10:11:05Z</time>
      </trkpt>
      <trkpt lat="44.55156" lon="0.97384">
        <ele>157.6</ele>
        <time>2021-12-19T10:11:06Z</time>
      </trkpt>
      <trkpt lat="44.55158" lon="0.97364">
        <ele>156.4</ele>
        <time>2021-12-19T10:11:08Z</time>
      </trkpt>
      <trkpt lat="44.55158" lon="0.97345">
        <ele>155.3</ele>
        <time>2021-12-19T10:11:10Z</time>
      </trkpt>
      <trkpt lat="44.55156" lon="0.97324">
        <ele>154.1</ele>
        <time>2021-12-19T10:11:12Z</time>
      </trkpt>
      <trkpt lat="44.55152" lon="0.97277">
        <ele>151.7</ele>
        <time>2021-12-19T10:11:17Z</time>
      </trkpt>
      <trkpt lat="44.55151" lon="0.97261">
        <ele>150.7</ele>
        <time>2021-12-19T10:11:19Z</time>
      </trkpt>
      <trkpt lat="44.55154" lon="0.97247">
        <ele>149.9</ele>
        <time>2021-12-19T10:11:21Z</time>
      </trkpt>
      <trkpt lat="44.55153" lon="0.97208">
        <ele>147.6</ele>
        <time>2021-12-19T10:11:26Z</time>
      </trkpt>
      <trkpt lat="44.55156" lon="0.97185">
        <ele>146.2</ele>
        <time>2021-12-19T10:11:30Z</time>
      </trkpt>
      <trkpt lat="44.55162" lon="0.97172">
        <ele>145.5</ele>
        <time>2021-12-19T10:11:32Z</time>
      </trkpt>
      <trkpt lat="44.55165" lon="0.97165">
        <ele>145.2</ele>
        <time>2021-12-19T10:11:33Z</time>
      </trkpt>
      <trkpt lat="44.55169" lon="0.97149">
        <ele>144.5</ele>
        <time>2021-12-19T10:11:35Z</time>
      </trkpt>
      <trkpt lat="44.55171" lon="0.97135">
        <ele>143.8</ele>
        <time>2021-12-19T10:11:37Z</time>
      </trkpt>
      <trkpt lat="44.55178" lon="0.97113">
        <ele>143.1</ele>
        <time>2021-12-19T10:11:41Z</time>
      </trkpt>
      <trkpt lat="44.5518" lon="0.9711">
        <ele>143</ele>
        <time>2021-12-19T10:11:42Z</time>
      </trkpt>
      <trkpt lat="44.55187" lon="0.97104">
        <ele>142.8</ele>
        <time>2021-12-19T10:11:45Z</time>
      </trkpt>
      <trkpt lat="44.55197" lon="0.97099">
        <ele>142.5</ele>
        <time>2021-12-19T10:11:50Z</time>
      </trkpt>
      <trkpt lat="44.55203" lon="0.97096">
        <ele>142.4</ele>
        <time>2021-12-19T10:12:10Z</time>
      </trkpt>
      <trkpt lat="44.55209" lon="0.97095">
        <ele>142.2</ele>
        <time>2021-12-19T10:12:12Z</time>
      </trkpt>
      <trkpt lat="44.55219" lon="0.97085">
        <ele>142.1</ele>
        <time>2021-12-19T10:12:16Z</time>
      </trkpt>
      <trkpt lat="44.55223" lon="0.97073">
        <ele>142.2</ele>
        <time>2021-12-19T10:12:19Z</time>
      </trkpt>
      <trkpt lat="44.55223" lon="0.97068">
        <ele>142.2</ele>
        <time>2021-12-19T10:12:20Z</time>
      </trkpt>
      <trkpt lat="44.55221" lon="0.97065">
        <ele>142.2</ele>
        <time>2021-12-19T10:12:21Z</time>
      </trkpt>
      <trkpt lat="44.55217" lon="0.97057">
        <ele>142.2</ele>
        <time>2021-12-19T10:12:24Z</time>
      </trkpt>
      <trkpt lat="44.55213" lon="0.97051">
        <ele>142.2</ele>
        <time>2021-12-19T10:12:26Z</time>
      </trkpt>
      <trkpt lat="44.55209" lon="0.97044">
        <ele>142.1</ele>
        <time>2021-12-19T10:12:28Z</time>
      </trkpt>
      <trkpt lat="44.55206" lon="0.97019">
        <ele>142.1</ele>
        <time>2021-12-19T10:12:33Z</time>
      </trkpt>
      <trkpt lat="44.55204" lon="0.97013">
        <ele>142</ele>
        <time>2021-12-19T10:12:34Z</time>
      </trkpt>
      <trkpt lat="44.55203" lon="0.96995">
        <ele>141.5</ele>
        <time>2021-12-19T10:12:37Z</time>
      </trkpt>
      <trkpt lat="44.55204" lon="0.96969">
        <ele>140.6</ele>
        <time>2021-12-19T10:12:41Z</time>
      </trkpt>
      <trkpt lat="44.55209" lon="0.96948">
        <ele>139.9</ele>
        <time>2021-12-19T10:12:44Z</time>
      </trkpt>
      <trkpt lat="44.55214" lon="0.96936">
        <ele>139.3</ele>
        <time>2021-12-19T10:12:46Z</time>
      </trkpt>
      <trkpt lat="44.5522" lon="0.96925">
        <ele>138.8</ele>
        <time>2021-12-19T10:12:48Z</time>
      </trkpt>
      <trkpt lat="44.55236" lon="0.96901">
        <ele>138</ele>
        <time>2021-12-19T10:12:52Z</time>
      </trkpt>
      <trkpt lat="44.55241" lon="0.96896">
        <ele>137.8</ele>
        <time>2021-12-19T10:12:53Z</time>
      </trkpt>
      <trkpt lat="44.55258" lon="0.96876">
        <ele>137.3</ele>
        <time>2021-12-19T10:12:57Z</time>
      </trkpt>
      <trkpt lat="44.5527" lon="0.96859">
        <ele>137.1</ele>
        <time>2021-12-19T10:13:00Z</time>
      </trkpt>
      <trkpt lat="44.55275" lon="0.96855">
        <ele>137.1</ele>
        <time>2021-12-19T10:13:01Z</time>
      </trkpt>
      <trkpt lat="44.55284" lon="0.96845">
        <ele>137.1</ele>
        <time>2021-12-19T10:13:03Z</time>
      </trkpt>
      <trkpt lat="44.55293" lon="0.96833">
        <ele>137.2</ele>
        <time>2021-12-19T10:13:05Z</time>
      </trkpt>
      <trkpt lat="44.55296" lon="0.96827">
        <ele>137.3</ele>
        <time>2021-12-19T10:13:06Z</time>
      </trkpt>
      <trkpt lat="44.55302" lon="0.96813">
        <ele>137.5</ele>
        <time>2021-12-19T10:13:08Z</time>
      </trkpt>
      <trkpt lat="44.55305" lon="0.96806">
        <ele>137.6</ele>
        <time>2021-12-19T10:13:09Z</time>
      </trkpt>
      <trkpt lat="44.55311" lon="0.96785">
        <ele>137.7</ele>
        <time>2021-12-19T10:13:12Z</time>
      </trkpt>
      <trkpt lat="44.55314" lon="0.96773">
        <ele>137.5</ele>
        <time>2021-12-19T10:13:14Z</time>
      </trkpt>
      <trkpt lat="44.5532" lon="0.9676">
        <ele>137.1</ele>
        <time>2021-12-19T10:13:16Z</time>
      </trkpt>
      <trkpt lat="44.55328" lon="0.96749">
        <ele>136.7</ele>
        <time>2021-12-19T10:13:18Z</time>
      </trkpt>
      <trkpt lat="44.55337" lon="0.96742">
        <ele>136.3</ele>
        <time>2021-12-19T10:13:20Z</time>
      </trkpt>
      <trkpt lat="44.55348" lon="0.96736">
        <ele>136</ele>
        <time>2021-12-19T10:13:23Z</time>
      </trkpt>
      <trkpt lat="44.5535" lon="0.96733">
        <ele>136</ele>
        <time>2021-12-19T10:13:24Z</time>
      </trkpt>
      <trkpt lat="44.55343" lon="0.96721">
        <ele>135.6</ele>
        <time>2021-12-19T10:13:27Z</time>
      </trkpt>
      <trkpt lat="44.55324" lon="0.96693">
        <ele>134.1</ele>
        <time>2021-12-19T10:13:32Z</time>
      </trkpt>
      <trkpt lat="44.55296" lon="0.96652">
        <ele>132.1</ele>
        <time>2021-12-19T10:13:38Z</time>
      </trkpt>
      <trkpt lat="44.55273" lon="0.96615">
        <ele>130.6</ele>
        <time>2021-12-19T10:13:42Z</time>
      </trkpt>
      <trkpt lat="44.55265" lon="0.96594">
        <ele>130.1</ele>
        <time>2021-12-19T10:13:44Z</time>
      </trkpt>
      <trkpt lat="44.55259" lon="0.96573">
        <ele>129.7</ele>
        <time>2021-12-19T10:13:46Z</time>
      </trkpt>
      <trkpt lat="44.55249" lon="0.96532">
        <ele>129</ele>
        <time>2021-12-19T10:13:50Z</time>
      </trkpt>
      <trkpt lat="44.55246" lon="0.96491">
        <ele>128.6</ele>
        <time>2021-12-19T10:13:54Z</time>
      </trkpt>
      <trkpt lat="44.55246" lon="0.96481">
        <ele>128.5</ele>
        <time>2021-12-19T10:13:55Z</time>
      </trkpt>
      <trkpt lat="44.55247" lon="0.96472">
        <ele>128.4</ele>
        <time>2021-12-19T10:13:56Z</time>
      </trkpt>
      <trkpt lat="44.55253" lon="0.96443">
        <ele>128.1</ele>
        <time>2021-12-19T10:13:59Z</time>
      </trkpt>
      <trkpt lat="44.55258" lon="0.96425">
        <ele>127.9</ele>
        <time>2021-12-19T10:14:01Z</time>
      </trkpt>
      <trkpt lat="44.55272" lon="0.96389">
        <ele>127.4</ele>
        <time>2021-12-19T10:14:05Z</time>
      </trkpt>
      <trkpt lat="44.55286" lon="0.96342">
        <ele>126.7</ele>
        <time>2021-12-19T10:14:10Z</time>
      </trkpt>
      <trkpt lat="44.55293" lon="0.96281">
        <ele>125.7</ele>
        <time>2021-12-19T10:14:16Z</time>
      </trkpt>
      <trkpt lat="44.55296" lon="0.96251">
        <ele>125.2</ele>
        <time>2021-12-19T10:14:19Z</time>
      </trkpt>
      <trkpt lat="44.55293" lon="0.9623">
        <ele>124.9</ele>
        <time>2021-12-19T10:14:21Z</time>
      </trkpt>
      <trkpt lat="44.55272" lon="0.96168">
        <ele>123.9</ele>
        <time>2021-12-19T10:14:27Z</time>
      </trkpt>
      <trkpt lat="44.55247" lon="0.96127">
        <ele>123.1</ele>
        <time>2021-12-19T10:14:32Z</time>
      </trkpt>
      <trkpt lat="44.55236" lon="0.96112">
        <ele>122.7</ele>
        <time>2021-12-19T10:14:34Z</time>
      </trkpt>
      <trkpt lat="44.55226" lon="0.96095">
        <ele>122.2</ele>
        <time>2021-12-19T10:14:36Z</time>
      </trkpt>
      <trkpt lat="44.55215" lon="0.96067">
        <ele>121.5</ele>
        <time>2021-12-19T10:14:39Z</time>
      </trkpt>
      <trkpt lat="44.55212" lon="0.96056">
        <ele>121.2</ele>
        <time>2021-12-19T10:14:40Z</time>
      </trkpt>
      <trkpt lat="44.55211" lon="0.96045">
        <ele>121</ele>
        <time>2021-12-19T10:14:41Z</time>
      </trkpt>
      <trkpt lat="44.55212" lon="0.96022">
        <ele>120.4</ele>
        <time>2021-12-19T10:14:43Z</time>
      </trkpt>
      <trkpt lat="44.55217" lon="0.96">
        <ele>119.7</ele>
        <time>2021-12-19T10:14:45Z</time>
      </trkpt>
      <trkpt lat="44.55221" lon="0.95989">
        <ele>119.4</ele>
        <time>2021-12-19T10:14:46Z</time>
      </trkpt>
      <trkpt lat="44.5525" lon="0.95915">
        <ele>117.5</ele>
        <time>2021-12-19T10:14:53Z</time>
      </trkpt>
      <trkpt lat="44.55282" lon="0.95841">
        <ele>116.5</ele>
        <time>2021-12-19T10:15:00Z</time>
      </trkpt>
      <trkpt lat="44.55306" lon="0.95813">
        <ele>116.4</ele>
        <time>2021-12-19T10:15:04Z</time>
      </trkpt>
      <trkpt lat="44.55319" lon="0.958">
        <ele>116.3</ele>
        <time>2021-12-19T10:15:06Z</time>
      </trkpt>
      <trkpt lat="44.55327" lon="0.95783">
        <ele>116.2</ele>
        <time>2021-12-19T10:15:08Z</time>
      </trkpt>
      <trkpt lat="44.55333" lon="0.95763">
        <ele>116.1</ele>
        <time>2021-12-19T10:15:10Z</time>
      </trkpt>
      <trkpt lat="44.55336" lon="0.95744">
        <ele>116</ele>
        <time>2021-12-19T10:15:12Z</time>
      </trkpt>
      <trkpt lat="44.55339" lon="0.9572">
        <ele>115.7</ele>
        <time>2021-12-19T10:15:15Z</time>
      </trkpt>
      <trkpt lat="44.55337" lon="0.95715">
        <ele>116.2</ele>
        <time>2021-12-19T10:15:16Z</time>
      </trkpt>
      <trkpt lat="44.55325" lon="0.95707">
        <ele>117.5</ele>
        <time>2021-12-19T10:15:19Z</time>
      </trkpt>
      <trkpt lat="44.55315" lon="0.95703">
        <ele>118.6</ele>
        <time>2021-12-19T10:15:21Z</time>
      </trkpt>
      <trkpt lat="44.55305" lon="0.957">
        <ele>119.7</ele>
        <time>2021-12-19T10:15:23Z</time>
      </trkpt>
      <trkpt lat="44.55299" lon="0.957">
        <ele>120.3</ele>
        <time>2021-12-19T10:15:24Z</time>
      </trkpt>
      <trkpt lat="44.55294" lon="0.95702">
        <ele>120.9</ele>
        <time>2021-12-19T10:15:25Z</time>
      </trkpt>
      <trkpt lat="44.55282" lon="0.95706">
        <ele>122.4</ele>
        <time>2021-12-19T10:15:28Z</time>
      </trkpt>
      <trkpt lat="44.55278" lon="0.95706">
        <ele>122.1</ele>
        <time>2021-12-19T10:15:31Z</time>
      </trkpt>
      <trkpt lat="44.5528" lon="0.95705">
        <ele>121.9</ele>
        <time>2021-12-19T10:16:09Z</time>
      </trkpt>
      <trkpt lat="44.55283" lon="0.95706">
        <ele>121.6</ele>
        <time>2021-12-19T10:16:12Z</time>
      </trkpt>
      <trkpt lat="44.55294" lon="0.95703">
        <ele>120.5</ele>
        <time>2021-12-19T10:16:17Z</time>
      </trkpt>
      <trkpt lat="44.55301" lon="0.95699">
        <ele>119.8</ele>
        <time>2021-12-19T10:16:21Z</time>
      </trkpt>
      <trkpt lat="44.55317" lon="0.95702">
        <ele>118.2</ele>
        <time>2021-12-19T10:16:27Z</time>
      </trkpt>
      <trkpt lat="44.55333" lon="0.95712">
        <ele>115.7</ele>
        <time>2021-12-19T10:16:32Z</time>
      </trkpt>
      <trkpt lat="44.55336" lon="0.95712">
        <ele>115.7</ele>
        <time>2021-12-19T10:16:33Z</time>
      </trkpt>
      <trkpt lat="44.55341" lon="0.95708">
        <ele>115.6</ele>
        <time>2021-12-19T10:16:35Z</time>
      </trkpt>
      <trkpt lat="44.5535" lon="0.9569">
        <ele>115.3</ele>
        <time>2021-12-19T10:16:39Z</time>
      </trkpt>
      <trkpt lat="44.55353" lon="0.95686">
        <ele>115.2</ele>
        <time>2021-12-19T10:16:40Z</time>
      </trkpt>
      <trkpt lat="44.55372" lon="0.95665">
        <ele>114.8</ele>
        <time>2021-12-19T10:16:45Z</time>
      </trkpt>
      <trkpt lat="44.55384" lon="0.95651">
        <ele>114.6</ele>
        <time>2021-12-19T10:16:48Z</time>
      </trkpt>
      <trkpt lat="44.55392" lon="0.95639">
        <ele>114.5</ele>
        <time>2021-12-19T10:16:50Z</time>
      </trkpt>
      <trkpt lat="44.55395" lon="0.95632">
        <ele>114.4</ele>
        <time>2021-12-19T10:16:51Z</time>
      </trkpt>
      <trkpt lat="44.55405" lon="0.9561">
        <ele>114.2</ele>
        <time>2021-12-19T10:16:54Z</time>
      </trkpt>
      <trkpt lat="44.55409" lon="0.95593">
        <ele>114</ele>
        <time>2021-12-19T10:16:56Z</time>
      </trkpt>
      <trkpt lat="44.55421" lon="0.95539">
        <ele>113.5</ele>
        <time>2021-12-19T10:17:03Z</time>
      </trkpt>
      <trkpt lat="44.55426" lon="0.95515">
        <ele>113.3</ele>
        <time>2021-12-19T10:17:06Z</time>
      </trkpt>
      <trkpt lat="44.55431" lon="0.95492">
        <ele>113</ele>
        <time>2021-12-19T10:17:09Z</time>
      </trkpt>
      <trkpt lat="44.55434" lon="0.95476">
        <ele>112.7</ele>
        <time>2021-12-19T10:17:11Z</time>
      </trkpt>
      <trkpt lat="44.55435" lon="0.9546">
        <ele>112.5</ele>
        <time>2021-12-19T10:17:13Z</time>
      </trkpt>
      <trkpt lat="44.55434" lon="0.95451">
        <ele>112.4</ele>
        <time>2021-12-19T10:17:14Z</time>
      </trkpt>
      <trkpt lat="44.55432" lon="0.95434">
        <ele>112.1</ele>
        <time>2021-12-19T10:17:16Z</time>
      </trkpt>
      <trkpt lat="44.55426" lon="0.95409">
        <ele>111.6</ele>
        <time>2021-12-19T10:17:19Z</time>
      </trkpt>
      <trkpt lat="44.55417" lon="0.95361">
        <ele>110.5</ele>
        <time>2021-12-19T10:17:24Z</time>
      </trkpt>
      <trkpt lat="44.55413" lon="0.95301">
        <ele>108.9</ele>
        <time>2021-12-19T10:17:30Z</time>
      </trkpt>
      <trkpt lat="44.55411" lon="0.95262">
        <ele>107.9</ele>
        <time>2021-12-19T10:17:34Z</time>
      </trkpt>
      <trkpt lat="44.55409" lon="0.95243">
        <ele>107.4</ele>
        <time>2021-12-19T10:17:36Z</time>
      </trkpt>
      <trkpt lat="44.55405" lon="0.95223">
        <ele>106.8</ele>
        <time>2021-12-19T10:17:38Z</time>
      </trkpt>
      <trkpt lat="44.55396" lon="0.95204">
        <ele>106.1</ele>
        <time>2021-12-19T10:17:40Z</time>
      </trkpt>
      <trkpt lat="44.55374" lon="0.95169">
        <ele>104.8</ele>
        <time>2021-12-19T10:17:44Z</time>
      </trkpt>
      <trkpt lat="44.55369" lon="0.95158">
        <ele>104.5</ele>
        <time>2021-12-19T10:17:45Z</time>
      </trkpt>
      <trkpt lat="44.55365" lon="0.95148">
        <ele>104.2</ele>
        <time>2021-12-19T10:17:46Z</time>
      </trkpt>
      <trkpt lat="44.55357" lon="0.95115">
        <ele>103.5</ele>
        <time>2021-12-19T10:17:49Z</time>
      </trkpt>
      <trkpt lat="44.55348" lon="0.95072">
        <ele>102.8</ele>
        <time>2021-12-19T10:17:53Z</time>
      </trkpt>
      <trkpt lat="44.55347" lon="0.95061">
        <ele>102.7</ele>
        <time>2021-12-19T10:17:54Z</time>
      </trkpt>
      <trkpt lat="44.55342" lon="0.95009">
        <ele>102.7</ele>
        <time>2021-12-19T10:17:59Z</time>
      </trkpt>
      <trkpt lat="44.55346" lon="0.9499">
        <ele>103</ele>
        <time>2021-12-19T10:18:01Z</time>
      </trkpt>
      <trkpt lat="44.55351" lon="0.94982">
        <ele>103.1</ele>
        <time>2021-12-19T10:18:02Z</time>
      </trkpt>
      <trkpt lat="44.55356" lon="0.94978">
        <ele>103.2</ele>
        <time>2021-12-19T10:18:03Z</time>
      </trkpt>
      <trkpt lat="44.55368" lon="0.94972">
        <ele>103.3</ele>
        <time>2021-12-19T10:18:05Z</time>
      </trkpt>
      <trkpt lat="44.55379" lon="0.94967">
        <ele>103.4</ele>
        <time>2021-12-19T10:18:07Z</time>
      </trkpt>
      <trkpt lat="44.55387" lon="0.94954">
        <ele>103.2</ele>
        <time>2021-12-19T10:18:09Z</time>
      </trkpt>
      <trkpt lat="44.55383" lon="0.94935">
        <ele>102.3</ele>
        <time>2021-12-19T10:18:11Z</time>
      </trkpt>
      <trkpt lat="44.5536" lon="0.9489">
        <ele>100.6</ele>
        <time>2021-12-19T10:18:16Z</time>
      </trkpt>
      <trkpt lat="44.55356" lon="0.9488">
        <ele>100.3</ele>
        <time>2021-12-19T10:18:17Z</time>
      </trkpt>
      <trkpt lat="44.55355" lon="0.94858">
        <ele>99.9</ele>
        <time>2021-12-19T10:18:19Z</time>
      </trkpt>
      <trkpt lat="44.55364" lon="0.94807">
        <ele>99.4</ele>
        <time>2021-12-19T10:18:24Z</time>
      </trkpt>
      <trkpt lat="44.55373" lon="0.94761">
        <ele>99</ele>
        <time>2021-12-19T10:18:29Z</time>
      </trkpt>
      <trkpt lat="44.55372" lon="0.94751">
        <ele>98.9</ele>
        <time>2021-12-19T10:18:30Z</time>
      </trkpt>
      <trkpt lat="44.5537" lon="0.94733">
        <ele>98.8</ele>
        <time>2021-12-19T10:18:32Z</time>
      </trkpt>
      <trkpt lat="44.55366" lon="0.94715">
        <ele>98.7</ele>
        <time>2021-12-19T10:18:34Z</time>
      </trkpt>
      <trkpt lat="44.55363" lon="0.94707">
        <ele>98.6</ele>
        <time>2021-12-19T10:18:35Z</time>
      </trkpt>
      <trkpt lat="44.55353" lon="0.94694">
        <ele>98.6</ele>
        <time>2021-12-19T10:18:37Z</time>
      </trkpt>
      <trkpt lat="44.5534" lon="0.9469">
        <ele>98.8</ele>
        <time>2021-12-19T10:18:39Z</time>
      </trkpt>
      <trkpt lat="44.55333" lon="0.94689">
        <ele>98.8</ele>
        <time>2021-12-19T10:18:40Z</time>
      </trkpt>
      <trkpt lat="44.55302" lon="0.94692">
        <ele>98.9</ele>
        <time>2021-12-19T10:18:45Z</time>
      </trkpt>
      <trkpt lat="44.55275" lon="0.94694">
        <ele>98.9</ele>
        <time>2021-12-19T10:18:50Z</time>
      </trkpt>
      <trkpt lat="44.55236" lon="0.94703">
        <ele>98.7</ele>
        <time>2021-12-19T10:18:57Z</time>
      </trkpt>
      <trkpt lat="44.55231" lon="0.94703">
        <ele>98.6</ele>
        <time>2021-12-19T10:18:58Z</time>
      </trkpt>
      <trkpt lat="44.55226" lon="0.94697">
        <ele>98.6</ele>
        <time>2021-12-19T10:19:00Z</time>
      </trkpt>
      <trkpt lat="44.55226" lon="0.94694">
        <ele>98.6</ele>
        <time>2021-12-19T10:19:01Z</time>
      </trkpt>
      <trkpt lat="44.55227" lon="0.94693">
        <ele>98.6</ele>
        <time>2021-12-19T10:19:02Z</time>
      </trkpt>
      <trkpt lat="44.55236" lon="0.94687">
        <ele>98.7</ele>
        <time>2021-12-19T10:19:08Z</time>
      </trkpt>
      <trkpt lat="44.55241" lon="0.94683">
        <ele>98.8</ele>
        <time>2021-12-19T10:19:12Z</time>
      </trkpt>
      <trkpt lat="44.55245" lon="0.94679">
        <ele>98.8</ele>
        <time>2021-12-19T10:19:15Z</time>
      </trkpt>
      <trkpt lat="44.55254" lon="0.94675">
        <ele>98.9</ele>
        <time>2021-12-19T10:19:20Z</time>
      </trkpt>
      <trkpt lat="44.55259" lon="0.94668">
        <ele>99.7</ele>
        <time>2021-12-19T10:19:23Z</time>
      </trkpt>
      <trkpt lat="44.5526" lon="0.94663">
        <ele>100.4</ele>
        <time>2021-12-19T10:19:25Z</time>
      </trkpt>
      <trkpt lat="44.55257" lon="0.94654">
        <ele>101.7</ele>
        <time>2021-12-19T10:19:30Z</time>
      </trkpt>
      <trkpt lat="44.55255" lon="0.94644">
        <ele>103.5</ele>
        <time>2021-12-19T10:19:35Z</time>
      </trkpt>
      <trkpt lat="44.55258" lon="0.94628">
        <ele>106.2</ele>
        <time>2021-12-19T10:19:41Z</time>
      </trkpt>
      <trkpt lat="44.55261" lon="0.94614">
        <ele>108</ele>
        <time>2021-12-19T10:19:46Z</time>
      </trkpt>
      <trkpt lat="44.55262" lon="0.94612">
        <ele>108.1</ele>
        <time>2021-12-19T10:19:47Z</time>
      </trkpt>
      <trkpt lat="44.55264" lon="0.94607">
        <ele>108.8</ele>
        <time>2021-12-19T10:19:49Z</time>
      </trkpt>
      <trkpt lat="44.55265" lon="0.946">
        <ele>110.1</ele>
        <time>2021-12-19T10:19:52Z</time>
      </trkpt>
      <trkpt lat="44.55267" lon="0.94591">
        <ele>111.6</ele>
        <time>2021-12-19T10:19:56Z</time>
      </trkpt>
      <trkpt lat="44.55269" lon="0.94586">
        <ele>112.5</ele>
        <time>2021-12-19T10:19:58Z</time>
      </trkpt>
      <trkpt lat="44.55274" lon="0.94578">
        <ele>114.2</ele>
        <time>2021-12-19T10:20:03Z</time>
      </trkpt>
      <trkpt lat="44.55275" lon="0.94576">
        <ele>115.2</ele>
        <time>2021-12-19T10:20:04Z</time>
      </trkpt>
      <trkpt lat="44.55276" lon="0.94568">
        <ele>116.7</ele>
        <time>2021-12-19T10:20:08Z</time>
      </trkpt>
      <trkpt lat="44.55277" lon="0.94566">
        <ele>116.8</ele>
        <time>2021-12-19T10:20:09Z</time>
      </trkpt>
      <trkpt lat="44.55279" lon="0.9456">
        <ele>117.6</ele>
        <time>2021-12-19T10:20:12Z</time>
      </trkpt>
      <trkpt lat="44.55279" lon="0.94556">
        <ele>118.4</ele>
        <time>2021-12-19T10:20:14Z</time>
      </trkpt>
      <trkpt lat="44.55279" lon="0.9455">
        <ele>119.7</ele>
        <time>2021-12-19T10:20:17Z</time>
      </trkpt>
      <trkpt lat="44.5528" lon="0.94546">
        <ele>120.3</ele>
        <time>2021-12-19T10:20:19Z</time>
      </trkpt>
      <trkpt lat="44.55282" lon="0.94543">
        <ele>120.4</ele>
        <time>2021-12-19T10:20:21Z</time>
      </trkpt>
      <trkpt lat="44.55283" lon="0.94536">
        <ele>121.6</ele>
        <time>2021-12-19T10:20:24Z</time>
      </trkpt>
      <trkpt lat="44.55286" lon="0.94522">
        <ele>123.1</ele>
        <time>2021-12-19T10:20:30Z</time>
      </trkpt>
      <trkpt lat="44.55287" lon="0.94518">
        <ele>123.5</ele>
        <time>2021-12-19T10:20:32Z</time>
      </trkpt>
      <trkpt lat="44.55288" lon="0.94513">
        <ele>124.1</ele>
        <time>2021-12-19T10:20:35Z</time>
      </trkpt>
      <trkpt lat="44.55289" lon="0.94505">
        <ele>125.4</ele>
        <time>2021-12-19T10:20:40Z</time>
      </trkpt>
      <trkpt lat="44.55295" lon="0.94498">
        <ele>126.2</ele>
        <time>2021-12-19T10:20:45Z</time>
      </trkpt>
      <trkpt lat="44.55296" lon="0.94496">
        <ele>126</ele>
        <time>2021-12-19T10:20:46Z</time>
      </trkpt>
      <trkpt lat="44.55298" lon="0.94493">
        <ele>126.8</ele>
        <time>2021-12-19T10:20:48Z</time>
      </trkpt>
      <trkpt lat="44.55299" lon="0.9449">
        <ele>127.3</ele>
        <time>2021-12-19T10:20:49Z</time>
      </trkpt>
      <trkpt lat="44.55301" lon="0.94487">
        <ele>127.4</ele>
        <time>2021-12-19T10:20:51Z</time>
      </trkpt>
      <trkpt lat="44.55302" lon="0.94481">
        <ele>128.7</ele>
        <time>2021-12-19T10:20:54Z</time>
      </trkpt>
      <trkpt lat="44.55304" lon="0.94477">
        <ele>129.4</ele>
        <time>2021-12-19T10:20:56Z</time>
      </trkpt>
      <trkpt lat="44.55309" lon="0.9447">
        <ele>130</ele>
        <time>2021-12-19T10:21:00Z</time>
      </trkpt>
      <trkpt lat="44.5531" lon="0.94468">
        <ele>130.2</ele>
        <time>2021-12-19T10:21:01Z</time>
      </trkpt>
      <trkpt lat="44.55318" lon="0.94459">
        <ele>130.5</ele>
        <time>2021-12-19T10:21:07Z</time>
      </trkpt>
      <trkpt lat="44.55325" lon="0.9445">
        <ele>131.1</ele>
        <time>2021-12-19T10:21:13Z</time>
      </trkpt>
      <trkpt lat="44.55334" lon="0.94438">
        <ele>132.1</ele>
        <time>2021-12-19T10:21:19Z</time>
      </trkpt>
      <trkpt lat="44.55341" lon="0.94425">
        <ele>133.2</ele>
        <time>2021-12-19T10:21:26Z</time>
      </trkpt>
      <trkpt lat="44.55342" lon="0.94419">
        <ele>133.5</ele>
        <time>2021-12-19T10:21:29Z</time>
      </trkpt>
      <trkpt lat="44.55344" lon="0.94414">
        <ele>133.9</ele>
        <time>2021-12-19T10:21:31Z</time>
      </trkpt>
      <trkpt lat="44.55347" lon="0.94408">
        <ele>134.4</ele>
        <time>2021-12-19T10:21:34Z</time>
      </trkpt>
      <trkpt lat="44.55348" lon="0.94403">
        <ele>134.6</ele>
        <time>2021-12-19T10:21:36Z</time>
      </trkpt>
      <trkpt lat="44.5535" lon="0.94387">
        <ele>135.3</ele>
        <time>2021-12-19T10:21:43Z</time>
      </trkpt>
      <trkpt lat="44.55352" lon="0.94382">
        <ele>135.5</ele>
        <time>2021-12-19T10:21:45Z</time>
      </trkpt>
      <trkpt lat="44.55354" lon="0.94377">
        <ele>135.7</ele>
        <time>2021-12-19T10:21:47Z</time>
      </trkpt>
      <trkpt lat="44.5536" lon="0.94361">
        <ele>136.2</ele>
        <time>2021-12-19T10:21:54Z</time>
      </trkpt>
      <trkpt lat="44.55367" lon="0.94352">
        <ele>136.6</ele>
        <time>2021-12-19T10:21:59Z</time>
      </trkpt>
      <trkpt lat="44.55372" lon="0.94345">
        <ele>137.1</ele>
        <time>2021-12-19T10:22:04Z</time>
      </trkpt>
      <trkpt lat="44.55375" lon="0.94341">
        <ele>137.1</ele>
        <time>2021-12-19T10:22:07Z</time>
      </trkpt>
      <trkpt lat="44.55378" lon="0.94338">
        <ele>137.2</ele>
        <time>2021-12-19T10:22:09Z</time>
      </trkpt>
      <trkpt lat="44.5538" lon="0.94332">
        <ele>137.6</ele>
        <time>2021-12-19T10:22:14Z</time>
      </trkpt>
      <trkpt lat="44.55386" lon="0.94324">
        <ele>137.5</ele>
        <time>2021-12-19T10:22:20Z</time>
      </trkpt>
      <trkpt lat="44.55388" lon="0.94322">
        <ele>137.6</ele>
        <time>2021-12-19T10:22:23Z</time>
      </trkpt>
      <trkpt lat="44.55392" lon="0.94317">
        <ele>137.8</ele>
        <time>2021-12-19T10:22:27Z</time>
      </trkpt>
      <trkpt lat="44.55394" lon="0.94315">
        <ele>137.7</ele>
        <time>2021-12-19T10:22:28Z</time>
      </trkpt>
      <trkpt lat="44.55396" lon="0.94307">
        <ele>138.3</ele>
        <time>2021-12-19T10:22:33Z</time>
      </trkpt>
      <trkpt lat="44.55395" lon="0.94301">
        <ele>139</ele>
        <time>2021-12-19T10:22:36Z</time>
      </trkpt>
      <trkpt lat="44.55395" lon="0.94295">
        <ele>139.4</ele>
        <time>2021-12-19T10:22:38Z</time>
      </trkpt>
      <trkpt lat="44.55393" lon="0.94291">
        <ele>139.9</ele>
        <time>2021-12-19T10:22:40Z</time>
      </trkpt>
      <trkpt lat="44.55392" lon="0.94286">
        <ele>140.4</ele>
        <time>2021-12-19T10:22:42Z</time>
      </trkpt>
      <trkpt lat="44.55388" lon="0.94276">
        <ele>141.9</ele>
        <time>2021-12-19T10:22:47Z</time>
      </trkpt>
      <trkpt lat="44.55387" lon="0.9427">
        <ele>142.6</ele>
        <time>2021-12-19T10:22:49Z</time>
      </trkpt>
      <trkpt lat="44.55385" lon="0.94265">
        <ele>143.2</ele>
        <time>2021-12-19T10:22:51Z</time>
      </trkpt>
      <trkpt lat="44.55384" lon="0.94263">
        <ele>144</ele>
        <time>2021-12-19T10:22:52Z</time>
      </trkpt>
      <trkpt lat="44.55383" lon="0.9426">
        <ele>144.1</ele>
        <time>2021-12-19T10:22:53Z</time>
      </trkpt>
      <trkpt lat="44.55383" lon="0.94251">
        <ele>145.2</ele>
        <time>2021-12-19T10:22:56Z</time>
      </trkpt>
      <trkpt lat="44.55382" lon="0.94248">
        <ele>145.9</ele>
        <time>2021-12-19T10:22:57Z</time>
      </trkpt>
      <trkpt lat="44.55382" lon="0.9424">
        <ele>147</ele>
        <time>2021-12-19T10:23:00Z</time>
      </trkpt>
      <trkpt lat="44.55381" lon="0.94237">
        <ele>147.6</ele>
        <time>2021-12-19T10:23:01Z</time>
      </trkpt>
      <trkpt lat="44.55378" lon="0.9423">
        <ele>148.3</ele>
        <time>2021-12-19T10:23:04Z</time>
      </trkpt>
      <trkpt lat="44.55377" lon="0.94228">
        <ele>148.9</ele>
        <time>2021-12-19T10:23:05Z</time>
      </trkpt>
      <trkpt lat="44.55373" lon="0.94225">
        <ele>149.6</ele>
        <time>2021-12-19T10:23:09Z</time>
      </trkpt>
      <trkpt lat="44.55368" lon="0.9422">
        <ele>150.4</ele>
        <time>2021-12-19T10:23:13Z</time>
      </trkpt>
      <trkpt lat="44.55364" lon="0.94222">
        <ele>150.1</ele>
        <time>2021-12-19T10:23:18Z</time>
      </trkpt>
      <trkpt lat="44.55359" lon="0.94226">
        <ele>150</ele>
        <time>2021-12-19T10:23:23Z</time>
      </trkpt>
      <trkpt lat="44.55356" lon="0.94224">
        <ele>150.8</ele>
        <time>2021-12-19T10:23:25Z</time>
      </trkpt>
      <trkpt lat="44.55351" lon="0.94222">
        <ele>151.1</ele>
        <time>2021-12-19T10:23:28Z</time>
      </trkpt>
      <trkpt lat="44.55345" lon="0.94214">
        <ele>152.7</ele>
        <time>2021-12-19T10:23:34Z</time>
      </trkpt>
      <trkpt lat="44.55343" lon="0.94211">
        <ele>153.6</ele>
        <time>2021-12-19T10:23:36Z</time>
      </trkpt>
      <trkpt lat="44.55341" lon="0.94209">
        <ele>153.9</ele>
        <time>2021-12-19T10:23:38Z</time>
      </trkpt>
      <trkpt lat="44.5534" lon="0.94207">
        <ele>154.6</ele>
        <time>2021-12-19T10:23:39Z</time>
      </trkpt>
      <trkpt lat="44.55338" lon="0.94201">
        <ele>155.5</ele>
        <time>2021-12-19T10:23:42Z</time>
      </trkpt>
      <trkpt lat="44.55336" lon="0.94198">
        <ele>156.2</ele>
        <time>2021-12-19T10:23:44Z</time>
      </trkpt>
      <trkpt lat="44.55334" lon="0.94193">
        <ele>157.1</ele>
        <time>2021-12-19T10:23:46Z</time>
      </trkpt>
      <trkpt lat="44.55331" lon="0.94178">
        <ele>159.3</ele>
        <time>2021-12-19T10:23:53Z</time>
      </trkpt>
      <trkpt lat="44.5533" lon="0.94174">
        <ele>160.1</ele>
        <time>2021-12-19T10:23:55Z</time>
      </trkpt>
      <trkpt lat="44.55328" lon="0.94172">
        <ele>161</ele>
        <time>2021-12-19T10:23:57Z</time>
      </trkpt>
      <trkpt lat="44.55326" lon="0.94169">
        <ele>161.8</ele>
        <time>2021-12-19T10:23:59Z</time>
      </trkpt>
      <trkpt lat="44.55324" lon="0.94163">
        <ele>162.7</ele>
        <time>2021-12-19T10:24:02Z</time>
      </trkpt>
      <trkpt lat="44.55317" lon="0.94151">
        <ele>165.2</ele>
        <time>2021-12-19T10:24:09Z</time>
      </trkpt>
      <trkpt lat="44.55317" lon="0.9415">
        <ele>165.4</ele>
        <time>2021-12-19T10:24:10Z</time>
      </trkpt>
      <trkpt lat="44.55315" lon="0.94146">
        <ele>166.2</ele>
        <time>2021-12-19T10:24:12Z</time>
      </trkpt>
      <trkpt lat="44.55312" lon="0.94143">
        <ele>167.2</ele>
        <time>2021-12-19T10:24:14Z</time>
      </trkpt>
      <trkpt lat="44.55311" lon="0.94141">
        <ele>167.4</ele>
        <time>2021-12-19T10:24:15Z</time>
      </trkpt>
      <trkpt lat="44.55305" lon="0.94134">
        <ele>168.8</ele>
        <time>2021-12-19T10:24:20Z</time>
      </trkpt>
      <trkpt lat="44.55304" lon="0.94132">
        <ele>169</ele>
        <time>2021-12-19T10:24:21Z</time>
      </trkpt>
      <trkpt lat="44.55301" lon="0.94124">
        <ele>170.2</ele>
        <time>2021-12-19T10:24:24Z</time>
      </trkpt>
      <trkpt lat="44.55295" lon="0.94112">
        <ele>171.6</ele>
        <time>2021-12-19T10:24:30Z</time>
      </trkpt>
      <trkpt lat="44.55294" lon="0.9411">
        <ele>171.7</ele>
        <time>2021-12-19T10:24:31Z</time>
      </trkpt>
      <trkpt lat="44.55293" lon="0.94106">
        <ele>172.3</ele>
        <time>2021-12-19T10:24:33Z</time>
      </trkpt>
      <trkpt lat="44.55292" lon="0.94102">
        <ele>172.9</ele>
        <time>2021-12-19T10:24:35Z</time>
      </trkpt>
      <trkpt lat="44.55294" lon="0.94089">
        <ele>174.4</ele>
        <time>2021-12-19T10:24:41Z</time>
      </trkpt>
      <trkpt lat="44.55296" lon="0.94081">
        <ele>175.5</ele>
        <time>2021-12-19T10:24:45Z</time>
      </trkpt>
      <trkpt lat="44.55297" lon="0.94077">
        <ele>176.1</ele>
        <time>2021-12-19T10:24:47Z</time>
      </trkpt>
      <trkpt lat="44.55299" lon="0.94067">
        <ele>177.1</ele>
        <time>2021-12-19T10:24:52Z</time>
      </trkpt>
      <trkpt lat="44.55301" lon="0.94058">
        <ele>177.9</ele>
        <time>2021-12-19T10:24:56Z</time>
      </trkpt>
      <trkpt lat="44.553" lon="0.94053">
        <ele>178.6</ele>
        <time>2021-12-19T10:24:58Z</time>
      </trkpt>
      <trkpt lat="44.553" lon="0.94046">
        <ele>179</ele>
        <time>2021-12-19T10:25:01Z</time>
      </trkpt>
      <trkpt lat="44.553" lon="0.94041">
        <ele>179.4</ele>
        <time>2021-12-19T10:25:03Z</time>
      </trkpt>
      <trkpt lat="44.55305" lon="0.9402">
        <ele>180</ele>
        <time>2021-12-19T10:25:11Z</time>
      </trkpt>
      <trkpt lat="44.55312" lon="0.94007">
        <ele>180.2</ele>
        <time>2021-12-19T10:25:17Z</time>
      </trkpt>
      <trkpt lat="44.55318" lon="0.93997">
        <ele>180.6</ele>
        <time>2021-12-19T10:25:22Z</time>
      </trkpt>
      <trkpt lat="44.5532" lon="0.93992">
        <ele>180.9</ele>
        <time>2021-12-19T10:25:24Z</time>
      </trkpt>
      <trkpt lat="44.55321" lon="0.93987">
        <ele>181.1</ele>
        <time>2021-12-19T10:25:28Z</time>
      </trkpt>
      <trkpt lat="44.55323" lon="0.93984">
        <ele>181.3</ele>
        <time>2021-12-19T10:26:57Z</time>
      </trkpt>
      <trkpt lat="44.55335" lon="0.93979">
        <ele>181.9</ele>
        <time>2021-12-19T10:27:03Z</time>
      </trkpt>
      <trkpt lat="44.55353" lon="0.93967">
        <ele>182.8</ele>
        <time>2021-12-19T10:27:09Z</time>
      </trkpt>
      <trkpt lat="44.55375" lon="0.9395">
        <ele>183.9</ele>
        <time>2021-12-19T10:27:17Z</time>
      </trkpt>
      <trkpt lat="44.5539" lon="0.93938">
        <ele>184.8</ele>
        <time>2021-12-19T10:27:23Z</time>
      </trkpt>
      <trkpt lat="44.55406" lon="0.93925">
        <ele>185.6</ele>
        <time>2021-12-19T10:27:29Z</time>
      </trkpt>
      <trkpt lat="44.55421" lon="0.93909">
        <ele>186.7</ele>
        <time>2021-12-19T10:27:35Z</time>
      </trkpt>
      <trkpt lat="44.55435" lon="0.93888">
        <ele>187.8</ele>
        <time>2021-12-19T10:27:42Z</time>
      </trkpt>
      <trkpt lat="44.55447" lon="0.93869">
        <ele>188.8</ele>
        <time>2021-12-19T10:27:48Z</time>
      </trkpt>
      <trkpt lat="44.55463" lon="0.93849">
        <ele>189.9</ele>
        <time>2021-12-19T10:27:55Z</time>
      </trkpt>
      <trkpt lat="44.55475" lon="0.93831">
        <ele>190.6</ele>
        <time>2021-12-19T10:28:01Z</time>
      </trkpt>
      <trkpt lat="44.55485" lon="0.93816">
        <ele>191.2</ele>
        <time>2021-12-19T10:28:06Z</time>
      </trkpt>
      <trkpt lat="44.55499" lon="0.938">
        <ele>191.9</ele>
        <time>2021-12-19T10:28:12Z</time>
      </trkpt>
      <trkpt lat="44.55515" lon="0.93781">
        <ele>192.7</ele>
        <time>2021-12-19T10:28:19Z</time>
      </trkpt>
      <trkpt lat="44.55521" lon="0.9377">
        <ele>193</ele>
        <time>2021-12-19T10:28:24Z</time>
      </trkpt>
      <trkpt lat="44.55527" lon="0.93755">
        <ele>193.3</ele>
        <time>2021-12-19T10:28:29Z</time>
      </trkpt>
      <trkpt lat="44.5553" lon="0.93742">
        <ele>193.4</ele>
        <time>2021-12-19T10:28:33Z</time>
      </trkpt>
      <trkpt lat="44.5553" lon="0.9374">
        <ele>193.4</ele>
        <time>2021-12-19T10:28:34Z</time>
      </trkpt>
      <trkpt lat="44.5553" lon="0.93737">
        <ele>193.5</ele>
        <time>2021-12-19T10:28:36Z</time>
      </trkpt>
      <trkpt lat="44.55531" lon="0.93731">
        <ele>193.5</ele>
        <time>2021-12-19T10:30:00Z</time>
      </trkpt>
      <trkpt lat="44.55536" lon="0.93709">
        <ele>193.5</ele>
        <time>2021-12-19T10:30:06Z</time>
      </trkpt>
      <trkpt lat="44.55537" lon="0.93703">
        <ele>193.5</ele>
        <time>2021-12-19T10:30:07Z</time>
      </trkpt>
      <trkpt lat="44.55542" lon="0.93684">
        <ele>193.4</ele>
        <time>2021-12-19T10:30:10Z</time>
      </trkpt>
      <trkpt lat="44.55552" lon="0.93656">
        <ele>193.2</ele>
        <time>2021-12-19T10:30:14Z</time>
      </trkpt>
      <trkpt lat="44.55559" lon="0.93647">
        <ele>193.1</ele>
        <time>2021-12-19T10:30:16Z</time>
      </trkpt>
      <trkpt lat="44.55572" lon="0.93632">
        <ele>193</ele>
        <time>2021-12-19T10:30:21Z</time>
      </trkpt>
      <trkpt lat="44.55579" lon="0.93624">
        <ele>192.9</ele>
        <time>2021-12-19T10:30:26Z</time>
      </trkpt>
      <trkpt lat="44.5558" lon="0.93623">
        <ele>193</ele>
        <time>2021-12-19T10:30:27Z</time>
      </trkpt>
      <trkpt lat="44.55585" lon="0.93619">
        <ele>193</ele>
        <time>2021-12-19T10:30:31Z</time>
      </trkpt>
      <trkpt lat="44.55588" lon="0.93618">
        <ele>193.1</ele>
        <time>2021-12-19T10:30:35Z</time>
      </trkpt>
      <trkpt lat="44.55637" lon="0.93575">
        <ele>195.4</ele>
        <time>2021-12-19T10:31:22Z</time>
      </trkpt>
      <trkpt lat="44.55641" lon="0.93568">
        <ele>197</ele>
        <time>2021-12-19T10:31:26Z</time>
      </trkpt>
      <trkpt lat="44.55643" lon="0.93565">
        <ele>197.2</ele>
        <time>2021-12-19T10:31:28Z</time>
      </trkpt>
      <trkpt lat="44.55646" lon="0.93559">
        <ele>198.6</ele>
        <time>2021-12-19T10:31:32Z</time>
      </trkpt>
      <trkpt lat="44.55651" lon="0.9355">
        <ele>200</ele>
        <time>2021-12-19T10:31:38Z</time>
      </trkpt>
      <trkpt lat="44.55654" lon="0.93541">
        <ele>201</ele>
        <time>2021-12-19T10:31:44Z</time>
      </trkpt>
      <trkpt lat="44.55656" lon="0.93535">
        <ele>201.4</ele>
        <time>2021-12-19T10:31:47Z</time>
      </trkpt>
      <trkpt lat="44.55659" lon="0.93531">
        <ele>201.9</ele>
        <time>2021-12-19T10:31:49Z</time>
      </trkpt>
      <trkpt lat="44.55662" lon="0.93525">
        <ele>202.5</ele>
        <time>2021-12-19T10:31:53Z</time>
      </trkpt>
      <trkpt lat="44.55668" lon="0.93513">
        <ele>203.3</ele>
        <time>2021-12-19T10:31:59Z</time>
      </trkpt>
      <trkpt lat="44.5567" lon="0.93509">
        <ele>203.6</ele>
        <time>2021-12-19T10:32:01Z</time>
      </trkpt>
      <trkpt lat="44.55673" lon="0.93504">
        <ele>204.3</ele>
        <time>2021-12-19T10:32:04Z</time>
      </trkpt>
      <trkpt lat="44.55677" lon="0.93496">
        <ele>204.7</ele>
        <time>2021-12-19T10:32:09Z</time>
      </trkpt>
      <trkpt lat="44.55678" lon="0.93494">
        <ele>205.1</ele>
        <time>2021-12-19T10:32:10Z</time>
      </trkpt>
      <trkpt lat="44.55681" lon="0.93486">
        <ele>205.8</ele>
        <time>2021-12-19T10:32:14Z</time>
      </trkpt>
      <trkpt lat="44.55686" lon="0.93476">
        <ele>206.4</ele>
        <time>2021-12-19T10:32:18Z</time>
      </trkpt>
      <trkpt lat="44.55689" lon="0.93471">
        <ele>206.8</ele>
        <time>2021-12-19T10:32:20Z</time>
      </trkpt>
      <trkpt lat="44.55692" lon="0.93464">
        <ele>207.3</ele>
        <time>2021-12-19T10:32:23Z</time>
      </trkpt>
      <trkpt lat="44.55696" lon="0.93454">
        <ele>207.9</ele>
        <time>2021-12-19T10:32:28Z</time>
      </trkpt>
      <trkpt lat="44.557" lon="0.9345">
        <ele>208.4</ele>
        <time>2021-12-19T10:32:30Z</time>
      </trkpt>
      <trkpt lat="44.55702" lon="0.93445">
        <ele>208.6</ele>
        <time>2021-12-19T10:32:32Z</time>
      </trkpt>
      <trkpt lat="44.55707" lon="0.93435">
        <ele>209</ele>
        <time>2021-12-19T10:32:36Z</time>
      </trkpt>
      <trkpt lat="44.55708" lon="0.93433">
        <ele>209.2</ele>
        <time>2021-12-19T10:32:37Z</time>
      </trkpt>
      <trkpt lat="44.55709" lon="0.93431">
        <ele>209.6</ele>
        <time>2021-12-19T10:32:38Z</time>
      </trkpt>
      <trkpt lat="44.55712" lon="0.93427">
        <ele>209.8</ele>
        <time>2021-12-19T10:32:40Z</time>
      </trkpt>
      <trkpt lat="44.55715" lon="0.93417">
        <ele>209.1</ele>
        <time>2021-12-19T10:32:43Z</time>
      </trkpt>
      <trkpt lat="44.55716" lon="0.93412">
        <ele>209</ele>
        <time>2021-12-19T10:32:44Z</time>
      </trkpt>
      <trkpt lat="44.55727" lon="0.9339">
        <ele>207.3</ele>
        <time>2021-12-19T10:32:48Z</time>
      </trkpt>
      <trkpt lat="44.55733" lon="0.93377">
        <ele>206.8</ele>
        <time>2021-12-19T10:32:50Z</time>
      </trkpt>
      <trkpt lat="44.55738" lon="0.93361">
        <ele>205.9</ele>
        <time>2021-12-19T10:32:52Z</time>
      </trkpt>
      <trkpt lat="44.55741" lon="0.93343">
        <ele>205.1</ele>
        <time>2021-12-19T10:32:54Z</time>
      </trkpt>
      <trkpt lat="44.55739" lon="0.93326">
        <ele>204.6</ele>
        <time>2021-12-19T10:32:56Z</time>
      </trkpt>
      <trkpt lat="44.5573" lon="0.93298">
        <ele>203.8</ele>
        <time>2021-12-19T10:33:00Z</time>
      </trkpt>
      <trkpt lat="44.55727" lon="0.93285">
        <ele>203.4</ele>
        <time>2021-12-19T10:33:02Z</time>
      </trkpt>
      <trkpt lat="44.55726" lon="0.93269">
        <ele>202.9</ele>
        <time>2021-12-19T10:33:04Z</time>
      </trkpt>
      <trkpt lat="44.55728" lon="0.93253">
        <ele>202.9</ele>
        <time>2021-12-19T10:33:06Z</time>
      </trkpt>
      <trkpt lat="44.5573" lon="0.93236">
        <ele>202.9</ele>
        <time>2021-12-19T10:33:08Z</time>
      </trkpt>
      <trkpt lat="44.55733" lon="0.93221">
        <ele>202.7</ele>
        <time>2021-12-19T10:33:10Z</time>
      </trkpt>
      <trkpt lat="44.55737" lon="0.93206">
        <ele>202.2</ele>
        <time>2021-12-19T10:33:12Z</time>
      </trkpt>
      <trkpt lat="44.55742" lon="0.93186">
        <ele>202.1</ele>
        <time>2021-12-19T10:33:15Z</time>
      </trkpt>
      <trkpt lat="44.55747" lon="0.93177">
        <ele>202.4</ele>
        <time>2021-12-19T10:33:17Z</time>
      </trkpt>
      <trkpt lat="44.55757" lon="0.93149">
        <ele>203.3</ele>
        <time>2021-12-19T10:33:23Z</time>
      </trkpt>
      <trkpt lat="44.55765" lon="0.93131">
        <ele>203.8</ele>
        <time>2021-12-19T10:33:29Z</time>
      </trkpt>
      <trkpt lat="44.55773" lon="0.93114">
        <ele>204.5</ele>
        <time>2021-12-19T10:33:34Z</time>
      </trkpt>
      <trkpt lat="44.55782" lon="0.93094">
        <ele>205.2</ele>
        <time>2021-12-19T10:33:39Z</time>
      </trkpt>
      <trkpt lat="44.55793" lon="0.93072">
        <ele>205.7</ele>
        <time>2021-12-19T10:33:45Z</time>
      </trkpt>
      <trkpt lat="44.55794" lon="0.93055">
        <ele>206.2</ele>
        <time>2021-12-19T10:33:49Z</time>
      </trkpt>
      <trkpt lat="44.5579" lon="0.93037">
        <ele>206.7</ele>
        <time>2021-12-19T10:33:54Z</time>
      </trkpt>
      <trkpt lat="44.55794" lon="0.93014">
        <ele>206.9</ele>
        <time>2021-12-19T10:33:59Z</time>
      </trkpt>
      <trkpt lat="44.55805" lon="0.92973">
        <ele>206.6</ele>
        <time>2021-12-19T10:34:06Z</time>
      </trkpt>
      <trkpt lat="44.55812" lon="0.92932">
        <ele>206</ele>
        <time>2021-12-19T10:34:11Z</time>
      </trkpt>
      <trkpt lat="44.55814" lon="0.92898">
        <ele>205.6</ele>
        <time>2021-12-19T10:34:15Z</time>
      </trkpt>
      <trkpt lat="44.55814" lon="0.92881">
        <ele>205.6</ele>
        <time>2021-12-19T10:34:17Z</time>
      </trkpt>
      <trkpt lat="44.55815" lon="0.92837">
        <ele>205.7</ele>
        <time>2021-12-19T10:34:23Z</time>
      </trkpt>
      <trkpt lat="44.55816" lon="0.92823">
        <ele>206</ele>
        <time>2021-12-19T10:34:25Z</time>
      </trkpt>
      <trkpt lat="44.5582" lon="0.92807">
        <ele>206.4</ele>
        <time>2021-12-19T10:34:28Z</time>
      </trkpt>
      <trkpt lat="44.55823" lon="0.92802">
        <ele>206.7</ele>
        <time>2021-12-19T10:34:29Z</time>
      </trkpt>
      <trkpt lat="44.55834" lon="0.92782">
        <ele>207.7</ele>
        <time>2021-12-19T10:34:33Z</time>
      </trkpt>
      <trkpt lat="44.55851" lon="0.92754">
        <ele>209.3</ele>
        <time>2021-12-19T10:34:39Z</time>
      </trkpt>
      <trkpt lat="44.55856" lon="0.92745">
        <ele>210.6</ele>
        <time>2021-12-19T10:34:41Z</time>
      </trkpt>
      <trkpt lat="44.55863" lon="0.92734">
        <ele>212.2</ele>
        <time>2021-12-19T10:34:43Z</time>
      </trkpt>
      <trkpt lat="44.55873" lon="0.92716">
        <ele>214.3</ele>
        <time>2021-12-19T10:34:47Z</time>
      </trkpt>
      <trkpt lat="44.55888" lon="0.92695">
        <ele>217.4</ele>
        <time>2021-12-19T10:34:52Z</time>
      </trkpt>
      <trkpt lat="44.5589" lon="0.9269">
        <ele>218.2</ele>
        <time>2021-12-19T10:34:53Z</time>
      </trkpt>
      <trkpt lat="44.55899" lon="0.92672">
        <ele>219.8</ele>
        <time>2021-12-19T10:34:57Z</time>
      </trkpt>
      <trkpt lat="44.55903" lon="0.92659">
        <ele>220.2</ele>
        <time>2021-12-19T10:35:00Z</time>
      </trkpt>
      <trkpt lat="44.55904" lon="0.92655">
        <ele>220.3</ele>
        <time>2021-12-19T10:35:01Z</time>
      </trkpt>
      <trkpt lat="44.55912" lon="0.92626">
        <ele>220.1</ele>
        <time>2021-12-19T10:35:07Z</time>
      </trkpt>
      <trkpt lat="44.55915" lon="0.92614">
        <ele>220</ele>
        <time>2021-12-19T10:35:09Z</time>
      </trkpt>
      <trkpt lat="44.5592" lon="0.92597">
        <ele>220.1</ele>
        <time>2021-12-19T10:35:12Z</time>
      </trkpt>
      <trkpt lat="44.55927" lon="0.92574">
        <ele>219.8</ele>
        <time>2021-12-19T10:35:17Z</time>
      </trkpt>
      <trkpt lat="44.55931" lon="0.92547">
        <ele>218.2</ele>
        <time>2021-12-19T10:35:23Z</time>
      </trkpt>
      <trkpt lat="44.55937" lon="0.92517">
        <ele>216.1</ele>
        <time>2021-12-19T10:35:29Z</time>
      </trkpt>
      <trkpt lat="44.55945" lon="0.92487">
        <ele>215.5</ele>
        <time>2021-12-19T10:35:35Z</time>
      </trkpt>
      <trkpt lat="44.55952" lon="0.92468">
        <ele>215.6</ele>
        <time>2021-12-19T10:35:39Z</time>
      </trkpt>
      <trkpt lat="44.55967" lon="0.92439">
        <ele>216.1</ele>
        <time>2021-12-19T10:35:45Z</time>
      </trkpt>
      <trkpt lat="44.5598" lon="0.9241">
        <ele>215.9</ele>
        <time>2021-12-19T10:35:51Z</time>
      </trkpt>
      <trkpt lat="44.55993" lon="0.92384">
        <ele>215.6</ele>
        <time>2021-12-19T10:35:56Z</time>
      </trkpt>
      <trkpt lat="44.56001" lon="0.92361">
        <ele>215.2</ele>
        <time>2021-12-19T10:36:01Z</time>
      </trkpt>
      <trkpt lat="44.56005" lon="0.92338">
        <ele>214.3</ele>
        <time>2021-12-19T10:36:06Z</time>
      </trkpt>
      <trkpt lat="44.56007" lon="0.92321">
        <ele>213.8</ele>
        <time>2021-12-19T10:36:09Z</time>
      </trkpt>
      <trkpt lat="44.56009" lon="0.92308">
        <ele>213.5</ele>
        <time>2021-12-19T10:36:11Z</time>
      </trkpt>
      <trkpt lat="44.56015" lon="0.92276">
        <ele>213</ele>
        <time>2021-12-19T10:36:15Z</time>
      </trkpt>
      <trkpt lat="44.56021" lon="0.92249">
        <ele>212.8</ele>
        <time>2021-12-19T10:36:18Z</time>
      </trkpt>
      <trkpt lat="44.56023" lon="0.9224">
        <ele>212.8</ele>
        <time>2021-12-19T10:36:19Z</time>
      </trkpt>
      <trkpt lat="44.56039" lon="0.92198">
        <ele>212.9</ele>
        <time>2021-12-19T10:36:24Z</time>
      </trkpt>
      <trkpt lat="44.56053" lon="0.9216">
        <ele>211</ele>
        <time>2021-12-19T10:36:29Z</time>
      </trkpt>
      <trkpt lat="44.56055" lon="0.92154">
        <ele>210.6</ele>
        <time>2021-12-19T10:36:30Z</time>
      </trkpt>
      <trkpt lat="44.56059" lon="0.92131">
        <ele>209.4</ele>
        <time>2021-12-19T10:36:34Z</time>
      </trkpt>
      <trkpt lat="44.56062" lon="0.92102">
        <ele>211.5</ele>
        <time>2021-12-19T10:36:40Z</time>
      </trkpt>
      <trkpt lat="44.56062" lon="0.9209">
        <ele>212</ele>
        <time>2021-12-19T10:36:43Z</time>
      </trkpt>
      <trkpt lat="44.56066" lon="0.92072">
        <ele>212.8</ele>
        <time>2021-12-19T10:36:48Z</time>
      </trkpt>
      <trkpt lat="44.56071" lon="0.92055">
        <ele>213.6</ele>
        <time>2021-12-19T10:36:53Z</time>
      </trkpt>
      <trkpt lat="44.56078" lon="0.92043">
        <ele>214.4</ele>
        <time>2021-12-19T10:36:59Z</time>
      </trkpt>
      <trkpt lat="44.56088" lon="0.92034">
        <ele>215.5</ele>
        <time>2021-12-19T10:37:04Z</time>
      </trkpt>
      <trkpt lat="44.56093" lon="0.92032">
        <ele>216.3</ele>
        <time>2021-12-19T10:37:07Z</time>
      </trkpt>
      <trkpt lat="44.56095" lon="0.92032">
        <ele>216.6</ele>
        <time>2021-12-19T10:37:08Z</time>
      </trkpt>
      <trkpt lat="44.56102" lon="0.92028">
        <ele>217.2</ele>
        <time>2021-12-19T10:37:12Z</time>
      </trkpt>
      <trkpt lat="44.56116" lon="0.92017">
        <ele>218.8</ele>
        <time>2021-12-19T10:37:19Z</time>
      </trkpt>
      <trkpt lat="44.56126" lon="0.9201">
        <ele>219.8</ele>
        <time>2021-12-19T10:37:24Z</time>
      </trkpt>
      <trkpt lat="44.56136" lon="0.92008">
        <ele>220.7</ele>
        <time>2021-12-19T10:37:29Z</time>
      </trkpt>
      <trkpt lat="44.56146" lon="0.92003">
        <ele>221.6</ele>
        <time>2021-12-19T10:37:34Z</time>
      </trkpt>
      <trkpt lat="44.56157" lon="0.91997">
        <ele>222.2</ele>
        <time>2021-12-19T10:37:41Z</time>
      </trkpt>
      <trkpt lat="44.56169" lon="0.91995">
        <ele>223.1</ele>
        <time>2021-12-19T10:37:48Z</time>
      </trkpt>
      <trkpt lat="44.56181" lon="0.91993">
        <ele>223.6</ele>
        <time>2021-12-19T10:37:54Z</time>
      </trkpt>
      <trkpt lat="44.56192" lon="0.9199">
        <ele>223.9</ele>
        <time>2021-12-19T10:37:58Z</time>
      </trkpt>
      <trkpt lat="44.56211" lon="0.91988">
        <ele>224</ele>
        <time>2021-12-19T10:38:04Z</time>
      </trkpt>
      <trkpt lat="44.56234" lon="0.91989">
        <ele>224.1</ele>
        <time>2021-12-19T10:38:10Z</time>
      </trkpt>
      <trkpt lat="44.56266" lon="0.91981">
        <ele>223.8</ele>
        <time>2021-12-19T10:38:17Z</time>
      </trkpt>
      <trkpt lat="44.56281" lon="0.91976">
        <ele>223.7</ele>
        <time>2021-12-19T10:38:22Z</time>
      </trkpt>
      <trkpt lat="44.56292" lon="0.91973">
        <ele>223.8</ele>
        <time>2021-12-19T10:38:27Z</time>
      </trkpt>
      <trkpt lat="44.56304" lon="0.9197">
        <ele>223.8</ele>
        <time>2021-12-19T10:38:32Z</time>
      </trkpt>
      <trkpt lat="44.56315" lon="0.91963">
        <ele>223.6</ele>
        <time>2021-12-19T10:38:37Z</time>
      </trkpt>
      <trkpt lat="44.56329" lon="0.91955">
        <ele>222.7</ele>
        <time>2021-12-19T10:38:42Z</time>
      </trkpt>
      <trkpt lat="44.56344" lon="0.91946">
        <ele>221.7</ele>
        <time>2021-12-19T10:38:46Z</time>
      </trkpt>
      <trkpt lat="44.56356" lon="0.91938">
        <ele>220.5</ele>
        <time>2021-12-19T10:38:50Z</time>
      </trkpt>
      <trkpt lat="44.56374" lon="0.91929">
        <ele>219</ele>
        <time>2021-12-19T10:38:55Z</time>
      </trkpt>
      <trkpt lat="44.56403" lon="0.91913">
        <ele>215.9</ele>
        <time>2021-12-19T10:39:02Z</time>
      </trkpt>
      <trkpt lat="44.56419" lon="0.91903">
        <ele>216.6</ele>
        <time>2021-12-19T10:39:06Z</time>
      </trkpt>
      <trkpt lat="44.56435" lon="0.91889">
        <ele>217.3</ele>
        <time>2021-12-19T10:39:10Z</time>
      </trkpt>
      <trkpt lat="44.56439" lon="0.91885">
        <ele>217.5</ele>
        <time>2021-12-19T10:39:11Z</time>
      </trkpt>
      <trkpt lat="44.56444" lon="0.91877">
        <ele>217.8</ele>
        <time>2021-12-19T10:39:13Z</time>
      </trkpt>
      <trkpt lat="44.56445" lon="0.91871">
        <ele>217.9</ele>
        <time>2021-12-19T10:39:14Z</time>
      </trkpt>
      <trkpt lat="44.56448" lon="0.91854">
        <ele>217.6</ele>
        <time>2021-12-19T10:39:17Z</time>
      </trkpt>
      <trkpt lat="44.56448" lon="0.91842">
        <ele>217.4</ele>
        <time>2021-12-19T10:39:19Z</time>
      </trkpt>
      <trkpt lat="44.56443" lon="0.91802">
        <ele>216.7</ele>
        <time>2021-12-19T10:39:25Z</time>
      </trkpt>
      <trkpt lat="44.5644" lon="0.9178">
        <ele>216.1</ele>
        <time>2021-12-19T10:39:29Z</time>
      </trkpt>
      <trkpt lat="44.56439" lon="0.91776">
        <ele>216</ele>
        <time>2021-12-19T10:39:32Z</time>
      </trkpt>
      <trkpt lat="44.56435" lon="0.91769">
        <ele>215.7</ele>
        <time>2021-12-19T10:39:37Z</time>
      </trkpt>
      <trkpt lat="44.5643" lon="0.91762">
        <ele>215.4</ele>
        <time>2021-12-19T10:39:40Z</time>
      </trkpt>
      <trkpt lat="44.56413" lon="0.9174">
        <ele>214.6</ele>
        <time>2021-12-19T10:39:46Z</time>
      </trkpt>
      <trkpt lat="44.56394" lon="0.91709">
        <ele>214.4</ele>
        <time>2021-12-19T10:39:53Z</time>
      </trkpt>
      <trkpt lat="44.56388" lon="0.91687">
        <ele>214.5</ele>
        <time>2021-12-19T10:39:58Z</time>
      </trkpt>
      <trkpt lat="44.56381" lon="0.91664">
        <ele>214.9</ele>
        <time>2021-12-19T10:40:03Z</time>
      </trkpt>
      <trkpt lat="44.56363" lon="0.9165">
        <ele>215.5</ele>
        <time>2021-12-19T10:40:09Z</time>
      </trkpt>
      <trkpt lat="44.56341" lon="0.91635">
        <ele>216.6</ele>
        <time>2021-12-19T10:40:16Z</time>
      </trkpt>
      <trkpt lat="44.5632" lon="0.91621">
        <ele>217.9</ele>
        <time>2021-12-19T10:40:23Z</time>
      </trkpt>
      <trkpt lat="44.56305" lon="0.91614">
        <ele>218.7</ele>
        <time>2021-12-19T10:40:28Z</time>
      </trkpt>
      <trkpt lat="44.56282" lon="0.91612">
        <ele>219.5</ele>
        <time>2021-12-19T10:40:35Z</time>
      </trkpt>
      <trkpt lat="44.56259" lon="0.9161">
        <ele>219.5</ele>
        <time>2021-12-19T10:40:41Z</time>
      </trkpt>
      <trkpt lat="44.56237" lon="0.91605">
        <ele>219.2</ele>
        <time>2021-12-19T10:40:46Z</time>
      </trkpt>
      <trkpt lat="44.56233" lon="0.91602">
        <ele>219.1</ele>
        <time>2021-12-19T10:40:47Z</time>
      </trkpt>
      <trkpt lat="44.56229" lon="0.916">
        <ele>219</ele>
        <time>2021-12-19T10:40:48Z</time>
      </trkpt>
      <trkpt lat="44.5622" lon="0.91593">
        <ele>218.7</ele>
        <time>2021-12-19T10:40:50Z</time>
      </trkpt>
      <trkpt lat="44.56216" lon="0.91588">
        <ele>218.6</ele>
        <time>2021-12-19T10:40:51Z</time>
      </trkpt>
      <trkpt lat="44.56215" lon="0.91582">
        <ele>218.5</ele>
        <time>2021-12-19T10:40:52Z</time>
      </trkpt>
      <trkpt lat="44.56216" lon="0.91569">
        <ele>218.1</ele>
        <time>2021-12-19T10:40:54Z</time>
      </trkpt>
      <trkpt lat="44.56217" lon="0.91563">
        <ele>217.9</ele>
        <time>2021-12-19T10:40:55Z</time>
      </trkpt>
      <trkpt lat="44.5622" lon="0.91538">
        <ele>217.1</ele>
        <time>2021-12-19T10:40:59Z</time>
      </trkpt>
      <trkpt lat="44.56226" lon="0.91505">
        <ele>216.5</ele>
        <time>2021-12-19T10:41:04Z</time>
      </trkpt>
      <trkpt lat="44.56228" lon="0.91493">
        <ele>216.4</ele>
        <time>2021-12-19T10:41:06Z</time>
      </trkpt>
      <trkpt lat="44.56234" lon="0.91476">
        <ele>216.1</ele>
        <time>2021-12-19T10:41:09Z</time>
      </trkpt>
      <trkpt lat="44.56245" lon="0.91442">
        <ele>215.3</ele>
        <time>2021-12-19T10:41:14Z</time>
      </trkpt>
      <trkpt lat="44.56252" lon="0.91424">
        <ele>214.6</ele>
        <time>2021-12-19T10:41:16Z</time>
      </trkpt>
      <trkpt lat="44.56255" lon="0.91403">
        <ele>213.7</ele>
        <time>2021-12-19T10:41:18Z</time>
      </trkpt>
      <trkpt lat="44.56253" lon="0.91379">
        <ele>212.3</ele>
        <time>2021-12-19T10:41:20Z</time>
      </trkpt>
      <trkpt lat="44.56251" lon="0.91365">
        <ele>211.4</ele>
        <time>2021-12-19T10:41:21Z</time>
      </trkpt>
      <trkpt lat="44.56234" lon="0.9128">
        <ele>205.5</ele>
        <time>2021-12-19T10:41:27Z</time>
      </trkpt>
      <trkpt lat="44.56224" lon="0.91243">
        <ele>202.7</ele>
        <time>2021-12-19T10:41:30Z</time>
      </trkpt>
      <trkpt lat="44.56219" lon="0.91233">
        <ele>201.7</ele>
        <time>2021-12-19T10:41:31Z</time>
      </trkpt>
      <trkpt lat="44.56206" lon="0.91214">
        <ele>199.6</ele>
        <time>2021-12-19T10:41:33Z</time>
      </trkpt>
      <trkpt lat="44.562" lon="0.91202">
        <ele>198.5</ele>
        <time>2021-12-19T10:41:34Z</time>
      </trkpt>
      <trkpt lat="44.56189" lon="0.91178">
        <ele>196.7</ele>
        <time>2021-12-19T10:41:36Z</time>
      </trkpt>
      <trkpt lat="44.56182" lon="0.91152">
        <ele>195.2</ele>
        <time>2021-12-19T10:41:38Z</time>
      </trkpt>
      <trkpt lat="44.56171" lon="0.91091">
        <ele>192</ele>
        <time>2021-12-19T10:41:43Z</time>
      </trkpt>
      <trkpt lat="44.56164" lon="0.91071">
        <ele>191.5</ele>
        <time>2021-12-19T10:41:45Z</time>
      </trkpt>
      <trkpt lat="44.56159" lon="0.91061">
        <ele>191.4</ele>
        <time>2021-12-19T10:41:46Z</time>
      </trkpt>
      <trkpt lat="44.56144" lon="0.91036">
        <ele>191.9</ele>
        <time>2021-12-19T10:41:49Z</time>
      </trkpt>
      <trkpt lat="44.56141" lon="0.91027">
        <ele>192.3</ele>
        <time>2021-12-19T10:41:50Z</time>
      </trkpt>
      <trkpt lat="44.56135" lon="0.91011">
        <ele>193.4</ele>
        <time>2021-12-19T10:41:52Z</time>
      </trkpt>
      <trkpt lat="44.5613" lon="0.90999">
        <ele>194.7</ele>
        <time>2021-12-19T10:41:54Z</time>
      </trkpt>
      <trkpt lat="44.56125" lon="0.9099">
        <ele>196.1</ele>
        <time>2021-12-19T10:41:56Z</time>
      </trkpt>
      <trkpt lat="44.5612" lon="0.90974">
        <ele>198.5</ele>
        <time>2021-12-19T10:41:59Z</time>
      </trkpt>
      <trkpt lat="44.56112" lon="0.90944">
        <ele>202.5</ele>
        <time>2021-12-19T10:42:05Z</time>
      </trkpt>
      <trkpt lat="44.56105" lon="0.90915">
        <ele>205.1</ele>
        <time>2021-12-19T10:42:10Z</time>
      </trkpt>
      <trkpt lat="44.561" lon="0.90879">
        <ele>207.1</ele>
        <time>2021-12-19T10:42:16Z</time>
      </trkpt>
      <trkpt lat="44.56093" lon="0.90855">
        <ele>208.2</ele>
        <time>2021-12-19T10:42:21Z</time>
      </trkpt>
      <trkpt lat="44.56081" lon="0.90839">
        <ele>208.9</ele>
        <time>2021-12-19T10:42:26Z</time>
      </trkpt>
      <trkpt lat="44.56081" lon="0.90821">
        <ele>209.6</ele>
        <time>2021-12-19T10:42:30Z</time>
      </trkpt>
      <trkpt lat="44.56087" lon="0.90798">
        <ele>210.3</ele>
        <time>2021-12-19T10:42:36Z</time>
      </trkpt>
      <trkpt lat="44.56089" lon="0.90794">
        <ele>210.4</ele>
        <time>2021-12-19T10:42:39Z</time>
      </trkpt>
      <trkpt lat="44.56091" lon="0.90785">
        <ele>210.6</ele>
        <time>2021-12-19T10:42:53Z</time>
      </trkpt>
      <trkpt lat="44.56093" lon="0.90778">
        <ele>210.6</ele>
        <time>2021-12-19T10:42:56Z</time>
      </trkpt>
      <trkpt lat="44.56094" lon="0.90774">
        <ele>210.7</ele>
        <time>2021-12-19T10:42:58Z</time>
      </trkpt>
      <trkpt lat="44.56098" lon="0.90763">
        <ele>210.7</ele>
        <time>2021-12-19T10:43:02Z</time>
      </trkpt>
      <trkpt lat="44.561" lon="0.90755">
        <ele>210.7</ele>
        <time>2021-12-19T10:43:04Z</time>
      </trkpt>
      <trkpt lat="44.56102" lon="0.90747">
        <ele>210.8</ele>
        <time>2021-12-19T10:43:06Z</time>
      </trkpt>
      <trkpt lat="44.56112" lon="0.90722">
        <ele>210.8</ele>
        <time>2021-12-19T10:43:13Z</time>
      </trkpt>
      <trkpt lat="44.56125" lon="0.90702">
        <ele>210.9</ele>
        <time>2021-12-19T10:43:18Z</time>
      </trkpt>
      <trkpt lat="44.56139" lon="0.90667">
        <ele>211.3</ele>
        <time>2021-12-19T10:43:25Z</time>
      </trkpt>
      <trkpt lat="44.56149" lon="0.9062">
        <ele>211.6</ele>
        <time>2021-12-19T10:43:33Z</time>
      </trkpt>
      <trkpt lat="44.56156" lon="0.90589">
        <ele>212.3</ele>
        <time>2021-12-19T10:43:39Z</time>
      </trkpt>
      <trkpt lat="44.56162" lon="0.90566">
        <ele>212.9</ele>
        <time>2021-12-19T10:43:45Z</time>
      </trkpt>
      <trkpt lat="44.56168" lon="0.90551">
        <ele>213</ele>
        <time>2021-12-19T10:43:49Z</time>
      </trkpt>
      <trkpt lat="44.56175" lon="0.90525">
        <ele>213.1</ele>
        <time>2021-12-19T10:43:55Z</time>
      </trkpt>
      <trkpt lat="44.56186" lon="0.90498">
        <ele>212.7</ele>
        <time>2021-12-19T10:44:02Z</time>
      </trkpt>
      <trkpt lat="44.56195" lon="0.90475">
        <ele>212.2</ele>
        <time>2021-12-19T10:44:08Z</time>
      </trkpt>
      <trkpt lat="44.56207" lon="0.90446">
        <ele>211.3</ele>
        <time>2021-12-19T10:44:14Z</time>
      </trkpt>
      <trkpt lat="44.56212" lon="0.90435">
        <ele>211</ele>
        <time>2021-12-19T10:44:16Z</time>
      </trkpt>
      <trkpt lat="44.56218" lon="0.90423">
        <ele>210.7</ele>
        <time>2021-12-19T10:44:18Z</time>
      </trkpt>
      <trkpt lat="44.56229" lon="0.90394">
        <ele>210</ele>
        <time>2021-12-19T10:44:22Z</time>
      </trkpt>
      <trkpt lat="44.56236" lon="0.90367">
        <ele>209.4</ele>
        <time>2021-12-19T10:44:25Z</time>
      </trkpt>
      <trkpt lat="44.56235" lon="0.90349">
        <ele>208.7</ele>
        <time>2021-12-19T10:44:27Z</time>
      </trkpt>
      <trkpt lat="44.56233" lon="0.90341">
        <ele>208.6</ele>
        <time>2021-12-19T10:44:28Z</time>
      </trkpt>
      <trkpt lat="44.56226" lon="0.90318">
        <ele>207.8</ele>
        <time>2021-12-19T10:44:31Z</time>
      </trkpt>
      <trkpt lat="44.56223" lon="0.90311">
        <ele>207.4</ele>
        <time>2021-12-19T10:44:32Z</time>
      </trkpt>
      <trkpt lat="44.56216" lon="0.9029">
        <ele>207.1</ele>
        <time>2021-12-19T10:44:35Z</time>
      </trkpt>
      <trkpt lat="44.56213" lon="0.90283">
        <ele>206.8</ele>
        <time>2021-12-19T10:44:36Z</time>
      </trkpt>
      <trkpt lat="44.56201" lon="0.90253">
        <ele>206.2</ele>
        <time>2021-12-19T10:44:40Z</time>
      </trkpt>
      <trkpt lat="44.56193" lon="0.90241">
        <ele>206</ele>
        <time>2021-12-19T10:44:42Z</time>
      </trkpt>
      <trkpt lat="44.56187" lon="0.90229">
        <ele>205.7</ele>
        <time>2021-12-19T10:44:44Z</time>
      </trkpt>
      <trkpt lat="44.56185" lon="0.90214">
        <ele>205.2</ele>
        <time>2021-12-19T10:44:46Z</time>
      </trkpt>
      <trkpt lat="44.56185" lon="0.90206">
        <ele>204.9</ele>
        <time>2021-12-19T10:44:47Z</time>
      </trkpt>
      <trkpt lat="44.56184" lon="0.902">
        <ele>204.7</ele>
        <time>2021-12-19T10:44:48Z</time>
      </trkpt>
      <trkpt lat="44.56183" lon="0.90192">
        <ele>204.3</ele>
        <time>2021-12-19T10:44:50Z</time>
      </trkpt>
      <trkpt lat="44.56182" lon="0.9019">
        <ele>204</ele>
        <time>2021-12-19T10:44:53Z</time>
      </trkpt>
      <trkpt lat="44.5618" lon="0.90182">
        <ele>203.6</ele>
        <time>2021-12-19T10:46:39Z</time>
      </trkpt>
      <trkpt lat="44.56178" lon="0.90176">
        <ele>203.4</ele>
        <time>2021-12-19T10:46:41Z</time>
      </trkpt>
      <trkpt lat="44.56174" lon="0.90167">
        <ele>203</ele>
        <time>2021-12-19T10:46:45Z</time>
      </trkpt>
      <trkpt lat="44.5617" lon="0.90157">
        <ele>202.7</ele>
        <time>2021-12-19T10:48:17Z</time>
      </trkpt>
      <trkpt lat="44.56169" lon="0.9013">
        <ele>201.8</ele>
        <time>2021-12-19T10:48:22Z</time>
      </trkpt>
      <trkpt lat="44.56169" lon="0.90117">
        <ele>201.2</ele>
        <time>2021-12-19T10:48:24Z</time>
      </trkpt>
      <trkpt lat="44.56165" lon="0.90104">
        <ele>200.6</ele>
        <time>2021-12-19T10:48:26Z</time>
      </trkpt>
      <trkpt lat="44.56154" lon="0.90076">
        <ele>198.7</ele>
        <time>2021-12-19T10:48:30Z</time>
      </trkpt>
      <trkpt lat="44.56152" lon="0.90069">
        <ele>198.1</ele>
        <time>2021-12-19T10:48:31Z</time>
      </trkpt>
      <trkpt lat="44.56144" lon="0.90041">
        <ele>196.2</ele>
        <time>2021-12-19T10:48:35Z</time>
      </trkpt>
      <trkpt lat="44.56133" lon="0.90013">
        <ele>194</ele>
        <time>2021-12-19T10:48:39Z</time>
      </trkpt>
      <trkpt lat="44.56134" lon="0.89997">
        <ele>192.9</ele>
        <time>2021-12-19T10:48:42Z</time>
      </trkpt>
      <trkpt lat="44.56146" lon="0.89972">
        <ele>191.5</ele>
        <time>2021-12-19T10:48:47Z</time>
      </trkpt>
      <trkpt lat="44.56156" lon="0.89949">
        <ele>189.4</ele>
        <time>2021-12-19T10:48:51Z</time>
      </trkpt>
      <trkpt lat="44.56162" lon="0.89938">
        <ele>188</ele>
        <time>2021-12-19T10:48:53Z</time>
      </trkpt>
      <trkpt lat="44.56171" lon="0.8992">
        <ele>185.5</ele>
        <time>2021-12-19T10:48:56Z</time>
      </trkpt>
      <trkpt lat="44.56193" lon="0.89882">
        <ele>183.3</ele>
        <time>2021-12-19T10:49:02Z</time>
      </trkpt>
      <trkpt lat="44.56208" lon="0.89855">
        <ele>181.6</ele>
        <time>2021-12-19T10:49:06Z</time>
      </trkpt>
      <trkpt lat="44.56227" lon="0.89812">
        <ele>179.5</ele>
        <time>2021-12-19T10:49:11Z</time>
      </trkpt>
      <trkpt lat="44.56232" lon="0.89786">
        <ele>179.6</ele>
        <time>2021-12-19T10:49:14Z</time>
      </trkpt>
      <trkpt lat="44.56234" lon="0.89777">
        <ele>179.5</ele>
        <time>2021-12-19T10:49:15Z</time>
      </trkpt>
      <trkpt lat="44.56235" lon="0.89769">
        <ele>179.5</ele>
        <time>2021-12-19T10:49:16Z</time>
      </trkpt>
      <trkpt lat="44.5624" lon="0.89746">
        <ele>179.2</ele>
        <time>2021-12-19T10:49:19Z</time>
      </trkpt>
      <trkpt lat="44.56243" lon="0.8973">
        <ele>179.1</ele>
        <time>2021-12-19T10:49:21Z</time>
      </trkpt>
      <trkpt lat="44.56246" lon="0.89717">
        <ele>179.1</ele>
        <time>2021-12-19T10:49:23Z</time>
      </trkpt>
      <trkpt lat="44.56247" lon="0.8968">
        <ele>179.1</ele>
        <time>2021-12-19T10:49:29Z</time>
      </trkpt>
      <trkpt lat="44.56243" lon="0.89657">
        <ele>179.2</ele>
        <time>2021-12-19T10:49:34Z</time>
      </trkpt>
      <trkpt lat="44.5624" lon="0.89628">
        <ele>179.2</ele>
        <time>2021-12-19T10:49:41Z</time>
      </trkpt>
      <trkpt lat="44.56241" lon="0.89617">
        <ele>179.1</ele>
        <time>2021-12-19T10:49:43Z</time>
      </trkpt>
      <trkpt lat="44.56244" lon="0.89606">
        <ele>178.9</ele>
        <time>2021-12-19T10:49:45Z</time>
      </trkpt>
      <trkpt lat="44.56256" lon="0.89579">
        <ele>178.7</ele>
        <time>2021-12-19T10:49:51Z</time>
      </trkpt>
      <trkpt lat="44.56269" lon="0.89549">
        <ele>178.9</ele>
        <time>2021-12-19T10:49:58Z</time>
      </trkpt>
      <trkpt lat="44.56282" lon="0.89526">
        <ele>179.2</ele>
        <time>2021-12-19T10:50:04Z</time>
      </trkpt>
      <trkpt lat="44.56293" lon="0.89504">
        <ele>179.5</ele>
        <time>2021-12-19T10:50:10Z</time>
      </trkpt>
      <trkpt lat="44.56302" lon="0.89486">
        <ele>179.2</ele>
        <time>2021-12-19T10:50:15Z</time>
      </trkpt>
      <trkpt lat="44.56301" lon="0.89467">
        <ele>178.6</ele>
        <time>2021-12-19T10:50:19Z</time>
      </trkpt>
      <trkpt lat="44.56298" lon="0.89456">
        <ele>178.1</ele>
        <time>2021-12-19T10:50:21Z</time>
      </trkpt>
      <trkpt lat="44.56287" lon="0.8944">
        <ele>177.2</ele>
        <time>2021-12-19T10:50:24Z</time>
      </trkpt>
      <trkpt lat="44.56282" lon="0.89435">
        <ele>176.8</ele>
        <time>2021-12-19T10:50:25Z</time>
      </trkpt>
      <trkpt lat="44.56272" lon="0.89426">
        <ele>176</ele>
        <time>2021-12-19T10:50:27Z</time>
      </trkpt>
      <trkpt lat="44.56266" lon="0.89421">
        <ele>175.6</ele>
        <time>2021-12-19T10:50:28Z</time>
      </trkpt>
      <trkpt lat="44.56253" lon="0.89408">
        <ele>174.9</ele>
        <time>2021-12-19T10:50:30Z</time>
      </trkpt>
      <trkpt lat="44.56242" lon="0.89391">
        <ele>174.4</ele>
        <time>2021-12-19T10:50:32Z</time>
      </trkpt>
      <trkpt lat="44.56229" lon="0.8935">
        <ele>173.6</ele>
        <time>2021-12-19T10:50:36Z</time>
      </trkpt>
      <trkpt lat="44.56219" lon="0.8932">
        <ele>172.6</ele>
        <time>2021-12-19T10:50:39Z</time>
      </trkpt>
      <trkpt lat="44.56209" lon="0.89302">
        <ele>171.8</ele>
        <time>2021-12-19T10:50:41Z</time>
      </trkpt>
      <trkpt lat="44.56188" lon="0.89263">
        <ele>170.2</ele>
        <time>2021-12-19T10:50:45Z</time>
      </trkpt>
      <trkpt lat="44.56184" lon="0.89252">
        <ele>169.7</ele>
        <time>2021-12-19T10:50:46Z</time>
      </trkpt>
      <trkpt lat="44.56182" lon="0.8924">
        <ele>169.3</ele>
        <time>2021-12-19T10:50:47Z</time>
      </trkpt>
      <trkpt lat="44.56181" lon="0.89214">
        <ele>168.1</ele>
        <time>2021-12-19T10:50:49Z</time>
      </trkpt>
      <trkpt lat="44.56183" lon="0.89172">
        <ele>165.3</ele>
        <time>2021-12-19T10:50:52Z</time>
      </trkpt>
      <trkpt lat="44.56181" lon="0.89157">
        <ele>163.9</ele>
        <time>2021-12-19T10:50:53Z</time>
      </trkpt>
      <trkpt lat="44.56178" lon="0.89142">
        <ele>162.4</ele>
        <time>2021-12-19T10:50:54Z</time>
      </trkpt>
      <trkpt lat="44.56168" lon="0.89111">
        <ele>159.4</ele>
        <time>2021-12-19T10:50:56Z</time>
      </trkpt>
      <trkpt lat="44.56158" lon="0.89056">
        <ele>154.3</ele>
        <time>2021-12-19T10:50:59Z</time>
      </trkpt>
      <trkpt lat="44.56144" lon="0.89002">
        <ele>150.4</ele>
        <time>2021-12-19T10:51:02Z</time>
      </trkpt>
      <trkpt lat="44.56137" lon="0.88987">
        <ele>149.2</ele>
        <time>2021-12-19T10:51:03Z</time>
      </trkpt>
      <trkpt lat="44.56119" lon="0.88965">
        <ele>147</ele>
        <time>2021-12-19T10:51:05Z</time>
      </trkpt>
      <trkpt lat="44.56075" lon="0.88934">
        <ele>142.6</ele>
        <time>2021-12-19T10:51:09Z</time>
      </trkpt>
      <trkpt lat="44.56024" lon="0.8889">
        <ele>137.2</ele>
        <time>2021-12-19T10:51:14Z</time>
      </trkpt>
      <trkpt lat="44.56002" lon="0.88858">
        <ele>133.7</ele>
        <time>2021-12-19T10:51:17Z</time>
      </trkpt>
      <trkpt lat="44.55995" lon="0.88846">
        <ele>132.5</ele>
        <time>2021-12-19T10:51:18Z</time>
      </trkpt>
      <trkpt lat="44.55985" lon="0.88823">
        <ele>130.5</ele>
        <time>2021-12-19T10:51:20Z</time>
      </trkpt>
      <trkpt lat="44.55978" lon="0.88799">
        <ele>128.6</ele>
        <time>2021-12-19T10:51:22Z</time>
      </trkpt>
      <trkpt lat="44.55976" lon="0.88787">
        <ele>127.8</ele>
        <time>2021-12-19T10:51:23Z</time>
      </trkpt>
      <trkpt lat="44.55976" lon="0.88763">
        <ele>126.4</ele>
        <time>2021-12-19T10:51:25Z</time>
      </trkpt>
      <trkpt lat="44.55981" lon="0.88742">
        <ele>125.2</ele>
        <time>2021-12-19T10:51:27Z</time>
      </trkpt>
      <trkpt lat="44.55985" lon="0.88731">
        <ele>124.6</ele>
        <time>2021-12-19T10:51:28Z</time>
      </trkpt>
      <trkpt lat="44.56003" lon="0.8869">
        <ele>122.7</ele>
        <time>2021-12-19T10:51:32Z</time>
      </trkpt>
      <trkpt lat="44.56006" lon="0.88679">
        <ele>122.4</ele>
        <time>2021-12-19T10:51:33Z</time>
      </trkpt>
      <trkpt lat="44.56008" lon="0.88667">
        <ele>122.1</ele>
        <time>2021-12-19T10:51:34Z</time>
      </trkpt>
      <trkpt lat="44.56009" lon="0.88633">
        <ele>121.8</ele>
        <time>2021-12-19T10:51:37Z</time>
      </trkpt>
      <trkpt lat="44.56011" lon="0.886">
        <ele>121.1</ele>
        <time>2021-12-19T10:51:41Z</time>
      </trkpt>
      <trkpt lat="44.56019" lon="0.88575">
        <ele>121</ele>
        <time>2021-12-19T10:51:46Z</time>
      </trkpt>
      <trkpt lat="44.5603" lon="0.88566">
        <ele>121.3</ele>
        <time>2021-12-19T10:51:50Z</time>
      </trkpt>
      <trkpt lat="44.56049" lon="0.8856">
        <ele>122.6</ele>
        <time>2021-12-19T10:51:56Z</time>
      </trkpt>
      <trkpt lat="44.56067" lon="0.88565">
        <ele>124.2</ele>
        <time>2021-12-19T10:52:02Z</time>
      </trkpt>
      <trkpt lat="44.56076" lon="0.88575">
        <ele>125.4</ele>
        <time>2021-12-19T10:52:07Z</time>
      </trkpt>
      <trkpt lat="44.56083" lon="0.88583">
        <ele>126.4</ele>
        <time>2021-12-19T10:52:11Z</time>
      </trkpt>
      <trkpt lat="44.56084" lon="0.88586">
        <ele>126.7</ele>
        <time>2021-12-19T10:52:12Z</time>
      </trkpt>
      <trkpt lat="44.56087" lon="0.88591">
        <ele>127.3</ele>
        <time>2021-12-19T10:52:14Z</time>
      </trkpt>
      <trkpt lat="44.5609" lon="0.88594">
        <ele>127.6</ele>
        <time>2021-12-19T10:52:15Z</time>
      </trkpt>
      <trkpt lat="44.56098" lon="0.8861">
        <ele>129.1</ele>
        <time>2021-12-19T10:52:21Z</time>
      </trkpt>
      <trkpt lat="44.56099" lon="0.88612">
        <ele>129.2</ele>
        <time>2021-12-19T10:52:22Z</time>
      </trkpt>
      <trkpt lat="44.56103" lon="0.88616">
        <ele>129.7</ele>
        <time>2021-12-19T10:52:25Z</time>
      </trkpt>
      <trkpt lat="44.56104" lon="0.88618">
        <ele>130</ele>
        <time>2021-12-19T10:52:26Z</time>
      </trkpt>
      <trkpt lat="44.56112" lon="0.88631">
        <ele>131.1</ele>
        <time>2021-12-19T10:52:32Z</time>
      </trkpt>
      <trkpt lat="44.56124" lon="0.88646">
        <ele>132.7</ele>
        <time>2021-12-19T10:52:40Z</time>
      </trkpt>
      <trkpt lat="44.56131" lon="0.88653">
        <ele>133.5</ele>
        <time>2021-12-19T10:52:45Z</time>
      </trkpt>
      <trkpt lat="44.56139" lon="0.88656">
        <ele>134.3</ele>
        <time>2021-12-19T10:52:49Z</time>
      </trkpt>
      <trkpt lat="44.56143" lon="0.88655">
        <ele>134.7</ele>
        <time>2021-12-19T10:52:51Z</time>
      </trkpt>
      <trkpt lat="44.56151" lon="0.88646">
        <ele>135.8</ele>
        <time>2021-12-19T10:52:56Z</time>
      </trkpt>
      <trkpt lat="44.5616" lon="0.88634">
        <ele>137</ele>
        <time>2021-12-19T10:53:02Z</time>
      </trkpt>
      <trkpt lat="44.56173" lon="0.88618">
        <ele>138.6</ele>
        <time>2021-12-19T10:53:09Z</time>
      </trkpt>
      <trkpt lat="44.56183" lon="0.88607">
        <ele>139.9</ele>
        <time>2021-12-19T10:53:14Z</time>
      </trkpt>
      <trkpt lat="44.56193" lon="0.88597">
        <ele>141.4</ele>
        <time>2021-12-19T10:53:19Z</time>
      </trkpt>
      <trkpt lat="44.56205" lon="0.88586">
        <ele>143</ele>
        <time>2021-12-19T10:53:25Z</time>
      </trkpt>
      <trkpt lat="44.56214" lon="0.88578">
        <ele>144.1</ele>
        <time>2021-12-19T10:53:30Z</time>
      </trkpt>
      <trkpt lat="44.56225" lon="0.88566">
        <ele>145.4</ele>
        <time>2021-12-19T10:53:36Z</time>
      </trkpt>
      <trkpt lat="44.56234" lon="0.88556">
        <ele>146.7</ele>
        <time>2021-12-19T10:53:41Z</time>
      </trkpt>
      <trkpt lat="44.56236" lon="0.88555">
        <ele>146.9</ele>
        <time>2021-12-19T10:53:42Z</time>
      </trkpt>
      <trkpt lat="44.56247" lon="0.88543">
        <ele>148.2</ele>
        <time>2021-12-19T10:53:48Z</time>
      </trkpt>
      <trkpt lat="44.56254" lon="0.88535">
        <ele>149.2</ele>
        <time>2021-12-19T10:53:52Z</time>
      </trkpt>
      <trkpt lat="44.56256" lon="0.88533">
        <ele>149.4</ele>
        <time>2021-12-19T10:53:53Z</time>
      </trkpt>
      <trkpt lat="44.56265" lon="0.88525">
        <ele>150.4</ele>
        <time>2021-12-19T10:53:59Z</time>
      </trkpt>
      <trkpt lat="44.56277" lon="0.88511">
        <ele>152</ele>
        <time>2021-12-19T10:54:06Z</time>
      </trkpt>
      <trkpt lat="44.56282" lon="0.88504">
        <ele>152.8</ele>
        <time>2021-12-19T10:54:10Z</time>
      </trkpt>
      <trkpt lat="44.56294" lon="0.88491">
        <ele>154.2</ele>
        <time>2021-12-19T10:54:16Z</time>
      </trkpt>
      <trkpt lat="44.56311" lon="0.88482">
        <ele>155.9</ele>
        <time>2021-12-19T10:54:23Z</time>
      </trkpt>
      <trkpt lat="44.56325" lon="0.88482">
        <ele>157.4</ele>
        <time>2021-12-19T10:54:29Z</time>
      </trkpt>
      <trkpt lat="44.56338" lon="0.88482">
        <ele>158.8</ele>
        <time>2021-12-19T10:54:35Z</time>
      </trkpt>
      <trkpt lat="44.56353" lon="0.8848">
        <ele>160.5</ele>
        <time>2021-12-19T10:54:42Z</time>
      </trkpt>
      <trkpt lat="44.56373" lon="0.88477">
        <ele>162.8</ele>
        <time>2021-12-19T10:54:51Z</time>
      </trkpt>
      <trkpt lat="44.56389" lon="0.88471">
        <ele>164.5</ele>
        <time>2021-12-19T10:54:58Z</time>
      </trkpt>
      <trkpt lat="44.56404" lon="0.88467">
        <ele>166.2</ele>
        <time>2021-12-19T10:55:05Z</time>
      </trkpt>
      <trkpt lat="44.56422" lon="0.88462">
        <ele>168.1</ele>
        <time>2021-12-19T10:55:13Z</time>
      </trkpt>
      <trkpt lat="44.56442" lon="0.88456">
        <ele>170.1</ele>
        <time>2021-12-19T10:55:22Z</time>
      </trkpt>
      <trkpt lat="44.56462" lon="0.8845">
        <ele>172.2</ele>
        <time>2021-12-19T10:55:31Z</time>
      </trkpt>
      <trkpt lat="44.56474" lon="0.88449">
        <ele>173.6</ele>
        <time>2021-12-19T10:55:37Z</time>
      </trkpt>
      <trkpt lat="44.56488" lon="0.88448">
        <ele>175</ele>
        <time>2021-12-19T10:55:43Z</time>
      </trkpt>
      <trkpt lat="44.565" lon="0.88445">
        <ele>176.2</ele>
        <time>2021-12-19T10:55:49Z</time>
      </trkpt>
      <trkpt lat="44.56511" lon="0.88438">
        <ele>177.4</ele>
        <time>2021-12-19T10:55:55Z</time>
      </trkpt>
      <trkpt lat="44.56525" lon="0.88426">
        <ele>179</ele>
        <time>2021-12-19T10:56:02Z</time>
      </trkpt>
      <trkpt lat="44.56534" lon="0.88417">
        <ele>179.9</ele>
        <time>2021-12-19T10:56:07Z</time>
      </trkpt>
      <trkpt lat="44.56542" lon="0.88408">
        <ele>180.8</ele>
        <time>2021-12-19T10:56:12Z</time>
      </trkpt>
      <trkpt lat="44.5655" lon="0.88396">
        <ele>181.6</ele>
        <time>2021-12-19T10:56:17Z</time>
      </trkpt>
      <trkpt lat="44.56563" lon="0.88374">
        <ele>183.1</ele>
        <time>2021-12-19T10:56:24Z</time>
      </trkpt>
      <trkpt lat="44.56571" lon="0.88354">
        <ele>184.1</ele>
        <time>2021-12-19T10:56:29Z</time>
      </trkpt>
      <trkpt lat="44.56583" lon="0.88323">
        <ele>185.4</ele>
        <time>2021-12-19T10:56:35Z</time>
      </trkpt>
      <trkpt lat="44.56598" lon="0.88294">
        <ele>186.7</ele>
        <time>2021-12-19T10:56:41Z</time>
      </trkpt>
      <trkpt lat="44.56614" lon="0.88273">
        <ele>188.3</ele>
        <time>2021-12-19T10:56:47Z</time>
      </trkpt>
      <trkpt lat="44.56625" lon="0.88258">
        <ele>189.3</ele>
        <time>2021-12-19T10:56:52Z</time>
      </trkpt>
      <trkpt lat="44.56638" lon="0.88236">
        <ele>190.8</ele>
        <time>2021-12-19T10:56:59Z</time>
      </trkpt>
      <trkpt lat="44.56644" lon="0.88221">
        <ele>191.6</ele>
        <time>2021-12-19T10:57:04Z</time>
      </trkpt>
      <trkpt lat="44.56652" lon="0.88202">
        <ele>192.7</ele>
        <time>2021-12-19T10:57:11Z</time>
      </trkpt>
      <trkpt lat="44.56661" lon="0.88184">
        <ele>193.8</ele>
        <time>2021-12-19T10:57:17Z</time>
      </trkpt>
      <trkpt lat="44.56668" lon="0.88163">
        <ele>195</ele>
        <time>2021-12-19T10:57:23Z</time>
      </trkpt>
      <trkpt lat="44.56677" lon="0.88134">
        <ele>196.4</ele>
        <time>2021-12-19T10:57:30Z</time>
      </trkpt>
      <trkpt lat="44.56684" lon="0.88109">
        <ele>197.3</ele>
        <time>2021-12-19T10:57:36Z</time>
      </trkpt>
      <trkpt lat="44.56694" lon="0.88075">
        <ele>197.6</ele>
        <time>2021-12-19T10:57:44Z</time>
      </trkpt>
      <trkpt lat="44.56703" lon="0.88035">
        <ele>197.1</ele>
        <time>2021-12-19T10:57:51Z</time>
      </trkpt>
      <trkpt lat="44.56707" lon="0.88016">
        <ele>196.9</ele>
        <time>2021-12-19T10:57:54Z</time>
      </trkpt>
      <trkpt lat="44.56709" lon="0.87999">
        <ele>196.9</ele>
        <time>2021-12-19T10:57:57Z</time>
      </trkpt>
      <trkpt lat="44.56715" lon="0.87965">
        <ele>197.3</ele>
        <time>2021-12-19T10:58:03Z</time>
      </trkpt>
      <trkpt lat="44.56722" lon="0.87922">
        <ele>197.7</ele>
        <time>2021-12-19T10:58:10Z</time>
      </trkpt>
      <trkpt lat="44.56729" lon="0.87881">
        <ele>197.3</ele>
        <time>2021-12-19T10:58:16Z</time>
      </trkpt>
      <trkpt lat="44.56736" lon="0.87833">
        <ele>196.6</ele>
        <time>2021-12-19T10:58:23Z</time>
      </trkpt>
      <trkpt lat="44.56747" lon="0.87766">
        <ele>195.2</ele>
        <time>2021-12-19T10:58:32Z</time>
      </trkpt>
      <trkpt lat="44.56756" lon="0.87716">
        <ele>193.9</ele>
        <time>2021-12-19T10:58:38Z</time>
      </trkpt>
      <trkpt lat="44.56771" lon="0.87635">
        <ele>191.8</ele>
        <time>2021-12-19T10:58:47Z</time>
      </trkpt>
      <trkpt lat="44.56791" lon="0.87578">
        <ele>190.8</ele>
        <time>2021-12-19T10:58:54Z</time>
      </trkpt>
      <trkpt lat="44.56813" lon="0.87527">
        <ele>190.3</ele>
        <time>2021-12-19T10:59:01Z</time>
      </trkpt>
      <trkpt lat="44.5684" lon="0.87463">
        <ele>190.9</ele>
        <time>2021-12-19T10:59:10Z</time>
      </trkpt>
      <trkpt lat="44.56846" lon="0.87448">
        <ele>191.3</ele>
        <time>2021-12-19T10:59:12Z</time>
      </trkpt>
      <trkpt lat="44.56851" lon="0.87432">
        <ele>191.9</ele>
        <time>2021-12-19T10:59:14Z</time>
      </trkpt>
      <trkpt lat="44.56854" lon="0.87425">
        <ele>192.3</ele>
        <time>2021-12-19T10:59:15Z</time>
      </trkpt>
      <trkpt lat="44.5686" lon="0.8741">
        <ele>193</ele>
        <time>2021-12-19T10:59:17Z</time>
      </trkpt>
      <trkpt lat="44.56867" lon="0.87396">
        <ele>193.8</ele>
        <time>2021-12-19T10:59:19Z</time>
      </trkpt>
      <trkpt lat="44.56883" lon="0.87366">
        <ele>195.8</ele>
        <time>2021-12-19T10:59:24Z</time>
      </trkpt>
      <trkpt lat="44.56888" lon="0.87354">
        <ele>196.6</ele>
        <time>2021-12-19T10:59:27Z</time>
      </trkpt>
      <trkpt lat="44.56891" lon="0.87351">
        <ele>196.8</ele>
        <time>2021-12-19T10:59:28Z</time>
      </trkpt>
      <trkpt lat="44.56892" lon="0.87349">
        <ele>197</ele>
        <time>2021-12-19T10:59:29Z</time>
      </trkpt>
      <trkpt lat="44.56894" lon="0.87345">
        <ele>197.2</ele>
        <time>2021-12-19T10:59:31Z</time>
      </trkpt>
      <trkpt lat="44.56895" lon="0.87344">
        <ele>197.4</ele>
        <time>2021-12-19T10:59:32Z</time>
      </trkpt>
      <trkpt lat="44.56902" lon="0.87332">
        <ele>198.4</ele>
        <time>2021-12-19T10:59:37Z</time>
      </trkpt>
      <trkpt lat="44.56914" lon="0.87315">
        <ele>200.1</ele>
        <time>2021-12-19T10:59:44Z</time>
      </trkpt>
      <trkpt lat="44.5693" lon="0.87297">
        <ele>202</ele>
        <time>2021-12-19T10:59:52Z</time>
      </trkpt>
      <trkpt lat="44.56942" lon="0.87284">
        <ele>203.4</ele>
        <time>2021-12-19T10:59:58Z</time>
      </trkpt>
      <trkpt lat="44.56958" lon="0.87272">
        <ele>205</ele>
        <time>2021-12-19T11:00:05Z</time>
      </trkpt>
      <trkpt lat="44.56979" lon="0.87262">
        <ele>206.7</ele>
        <time>2021-12-19T11:00:13Z</time>
      </trkpt>
      <trkpt lat="44.57001" lon="0.87252">
        <ele>208.2</ele>
        <time>2021-12-19T11:00:20Z</time>
      </trkpt>
      <trkpt lat="44.57025" lon="0.87242">
        <ele>209.2</ele>
        <time>2021-12-19T11:00:27Z</time>
      </trkpt>
      <trkpt lat="44.57046" lon="0.87231">
        <ele>209.6</ele>
        <time>2021-12-19T11:00:33Z</time>
      </trkpt>
      <trkpt lat="44.57071" lon="0.87215">
        <ele>209.6</ele>
        <time>2021-12-19T11:00:40Z</time>
      </trkpt>
      <trkpt lat="44.57093" lon="0.87197">
        <ele>209.3</ele>
        <time>2021-12-19T11:00:47Z</time>
      </trkpt>
      <trkpt lat="44.57107" lon="0.87181">
        <ele>209.1</ele>
        <time>2021-12-19T11:00:52Z</time>
      </trkpt>
      <trkpt lat="44.57116" lon="0.87169">
        <ele>209.1</ele>
        <time>2021-12-19T11:00:55Z</time>
      </trkpt>
      <trkpt lat="44.57123" lon="0.87156">
        <ele>209</ele>
        <time>2021-12-19T11:00:58Z</time>
      </trkpt>
      <trkpt lat="44.57126" lon="0.87145">
        <ele>208.9</ele>
        <time>2021-12-19T11:01:02Z</time>
      </trkpt>
      <trkpt lat="44.57126" lon="0.87144">
        <ele>208.9</ele>
        <time>2021-12-19T11:01:04Z</time>
      </trkpt>
      <trkpt lat="44.57124" lon="0.87142">
        <ele>208.9</ele>
        <time>2021-12-19T11:01:06Z</time>
      </trkpt>
      <trkpt lat="44.57122" lon="0.87141">
        <ele>208.8</ele>
        <time>2021-12-19T11:01:07Z</time>
      </trkpt>
      <trkpt lat="44.57117" lon="0.87139">
        <ele>208.7</ele>
        <time>2021-12-19T11:01:09Z</time>
      </trkpt>
      <trkpt lat="44.57113" lon="0.87137">
        <ele>208.6</ele>
        <time>2021-12-19T11:01:11Z</time>
      </trkpt>
      <trkpt lat="44.5711" lon="0.87137">
        <ele>208.6</ele>
        <time>2021-12-19T11:01:14Z</time>
      </trkpt>
      <trkpt lat="44.57104" lon="0.87134">
        <ele>208.4</ele>
        <time>2021-12-19T11:01:16Z</time>
      </trkpt>
      <trkpt lat="44.57102" lon="0.87127">
        <ele>208.2</ele>
        <time>2021-12-19T11:01:18Z</time>
      </trkpt>
      <trkpt lat="44.57103" lon="0.87121">
        <ele>208.1</ele>
        <time>2021-12-19T11:01:20Z</time>
      </trkpt>
      <trkpt lat="44.57107" lon="0.87116">
        <ele>207.9</ele>
        <time>2021-12-19T11:01:22Z</time>
      </trkpt>
      <trkpt lat="44.57108" lon="0.87114">
        <ele>207.8</ele>
        <time>2021-12-19T11:01:24Z</time>
      </trkpt>
      <trkpt lat="44.57103" lon="0.87123">
        <ele>207.4</ele>
        <time>2021-12-19T11:01:35Z</time>
      </trkpt>
      <trkpt lat="44.57103" lon="0.87128">
        <ele>207.2</ele>
        <time>2021-12-19T11:01:38Z</time>
      </trkpt>
      <trkpt lat="44.57105" lon="0.87128">
        <ele>207.2</ele>
        <time>2021-12-19T11:01:39Z</time>
      </trkpt>
      <trkpt lat="44.57109" lon="0.87128">
        <ele>207</ele>
        <time>2021-12-19T11:01:41Z</time>
      </trkpt>
      <trkpt lat="44.57113" lon="0.87129">
        <ele>206.7</ele>
        <time>2021-12-19T11:01:44Z</time>
      </trkpt>
      <trkpt lat="44.57118" lon="0.87128">
        <ele>206.5</ele>
        <time>2021-12-19T11:01:48Z</time>
      </trkpt>
      <trkpt lat="44.5712" lon="0.87123">
        <ele>206.3</ele>
        <time>2021-12-19T11:01:52Z</time>
      </trkpt>
      <trkpt lat="44.57122" lon="0.87118">
        <ele>206</ele>
        <time>2021-12-19T11:01:54Z</time>
      </trkpt>
      <trkpt lat="44.57121" lon="0.87115">
        <ele>205.9</ele>
        <time>2021-12-19T11:01:55Z</time>
      </trkpt>
      <trkpt lat="44.57121" lon="0.87109">
        <ele>205.7</ele>
        <time>2021-12-19T11:01:57Z</time>
      </trkpt>
      <trkpt lat="44.57121" lon="0.87107">
        <ele>205.6</ele>
        <time>2021-12-19T11:01:59Z</time>
      </trkpt>
      <trkpt lat="44.57121" lon="0.87097">
        <ele>205.2</ele>
        <time>2021-12-19T11:02:19Z</time>
      </trkpt>
      <trkpt lat="44.57123" lon="0.87088">
        <ele>204.8</ele>
        <time>2021-12-19T11:02:21Z</time>
      </trkpt>
      <trkpt lat="44.57129" lon="0.87077">
        <ele>204.2</ele>
        <time>2021-12-19T11:02:25Z</time>
      </trkpt>
      <trkpt lat="44.57135" lon="0.87066">
        <ele>203.7</ele>
        <time>2021-12-19T11:02:30Z</time>
      </trkpt>
      <trkpt lat="44.5714" lon="0.87051">
        <ele>202.9</ele>
        <time>2021-12-19T11:02:36Z</time>
      </trkpt>
      <trkpt lat="44.57141" lon="0.87049">
        <ele>202.8</ele>
        <time>2021-12-19T11:02:37Z</time>
      </trkpt>
      <trkpt lat="44.57144" lon="0.87041">
        <ele>202.3</ele>
        <time>2021-12-19T11:02:40Z</time>
      </trkpt>
      <trkpt lat="44.5715" lon="0.87029">
        <ele>201.6</ele>
        <time>2021-12-19T11:02:44Z</time>
      </trkpt>
      <trkpt lat="44.5715" lon="0.87008">
        <ele>200.7</ele>
        <time>2021-12-19T11:02:49Z</time>
      </trkpt>
      <trkpt lat="44.57158" lon="0.87002">
        <ele>200.2</ele>
        <time>2021-12-19T11:02:52Z</time>
      </trkpt>
      <trkpt lat="44.57168" lon="0.86991">
        <ele>199.4</ele>
        <time>2021-12-19T11:02:56Z</time>
      </trkpt>
      <trkpt lat="44.57169" lon="0.86974">
        <ele>199.2</ele>
        <time>2021-12-19T11:03:00Z</time>
      </trkpt>
      <trkpt lat="44.5717" lon="0.86965">
        <ele>199</ele>
        <time>2021-12-19T11:03:02Z</time>
      </trkpt>
      <trkpt lat="44.57171" lon="0.86961">
        <ele>199</ele>
        <time>2021-12-19T11:03:03Z</time>
      </trkpt>
      <trkpt lat="44.57176" lon="0.8695">
        <ele>198.9</ele>
        <time>2021-12-19T11:03:06Z</time>
      </trkpt>
      <trkpt lat="44.57177" lon="0.86945">
        <ele>198.8</ele>
        <time>2021-12-19T11:03:07Z</time>
      </trkpt>
      <trkpt lat="44.57178" lon="0.86942">
        <ele>198.8</ele>
        <time>2021-12-19T11:03:08Z</time>
      </trkpt>
      <trkpt lat="44.57185" lon="0.86933">
        <ele>198.8</ele>
        <time>2021-12-19T11:03:11Z</time>
      </trkpt>
      <trkpt lat="44.5719" lon="0.86923">
        <ele>198.7</ele>
        <time>2021-12-19T11:03:14Z</time>
      </trkpt>
      <trkpt lat="44.5719" lon="0.86919">
        <ele>198.7</ele>
        <time>2021-12-19T11:03:15Z</time>
      </trkpt>
      <trkpt lat="44.5719" lon="0.86912">
        <ele>198.6</ele>
        <time>2021-12-19T11:03:17Z</time>
      </trkpt>
      <trkpt lat="44.57193" lon="0.86905">
        <ele>198.6</ele>
        <time>2021-12-19T11:03:20Z</time>
      </trkpt>
      <trkpt lat="44.57194" lon="0.86903">
        <ele>198.6</ele>
        <time>2021-12-19T11:03:21Z</time>
      </trkpt>
      <trkpt lat="44.572" lon="0.86898">
        <ele>198.5</ele>
        <time>2021-12-19T11:03:24Z</time>
      </trkpt>
      <trkpt lat="44.57209" lon="0.86886">
        <ele>198.4</ele>
        <time>2021-12-19T11:03:28Z</time>
      </trkpt>
      <trkpt lat="44.57218" lon="0.86866">
        <ele>198.7</ele>
        <time>2021-12-19T11:03:33Z</time>
      </trkpt>
      <trkpt lat="44.57228" lon="0.86848">
        <ele>198.9</ele>
        <time>2021-12-19T11:03:38Z</time>
      </trkpt>
      <trkpt lat="44.57235" lon="0.86828">
        <ele>199</ele>
        <time>2021-12-19T11:03:42Z</time>
      </trkpt>
      <trkpt lat="44.57241" lon="0.86809">
        <ele>199</ele>
        <time>2021-12-19T11:03:46Z</time>
      </trkpt>
      <trkpt lat="44.57249" lon="0.86782">
        <ele>198.8</ele>
        <time>2021-12-19T11:03:51Z</time>
      </trkpt>
      <trkpt lat="44.57257" lon="0.86757">
        <ele>198.6</ele>
        <time>2021-12-19T11:03:55Z</time>
      </trkpt>
      <trkpt lat="44.57259" lon="0.8675">
        <ele>198.6</ele>
        <time>2021-12-19T11:03:56Z</time>
      </trkpt>
      <trkpt lat="44.57265" lon="0.86737">
        <ele>198.6</ele>
        <time>2021-12-19T11:03:58Z</time>
      </trkpt>
      <trkpt lat="44.57271" lon="0.86724">
        <ele>198.8</ele>
        <time>2021-12-19T11:04:00Z</time>
      </trkpt>
      <trkpt lat="44.57287" lon="0.86681">
        <ele>199.4</ele>
        <time>2021-12-19T11:04:06Z</time>
      </trkpt>
      <trkpt lat="44.573" lon="0.86648">
        <ele>199.9</ele>
        <time>2021-12-19T11:04:11Z</time>
      </trkpt>
      <trkpt lat="44.57314" lon="0.86614">
        <ele>200.3</ele>
        <time>2021-12-19T11:04:16Z</time>
      </trkpt>
      <trkpt lat="44.57317" lon="0.86607">
        <ele>200.3</ele>
        <time>2021-12-19T11:04:17Z</time>
      </trkpt>
      <trkpt lat="44.57335" lon="0.86559">
        <ele>200.2</ele>
        <time>2021-12-19T11:04:23Z</time>
      </trkpt>
      <trkpt lat="44.57338" lon="0.86551">
        <ele>200.1</ele>
        <time>2021-12-19T11:04:24Z</time>
      </trkpt>
      <trkpt lat="44.57348" lon="0.86516">
        <ele>200.1</ele>
        <time>2021-12-19T11:04:28Z</time>
      </trkpt>
      <trkpt lat="44.57354" lon="0.86491">
        <ele>200.2</ele>
        <time>2021-12-19T11:04:31Z</time>
      </trkpt>
      <trkpt lat="44.57356" lon="0.86477">
        <ele>200.1</ele>
        <time>2021-12-19T11:04:33Z</time>
      </trkpt>
      <trkpt lat="44.57357" lon="0.86461">
        <ele>200.1</ele>
        <time>2021-12-19T11:04:38Z</time>
      </trkpt>
      <trkpt lat="44.57357" lon="0.86453">
        <ele>200.1</ele>
        <time>2021-12-19T11:06:00Z</time>
      </trkpt>
      <trkpt lat="44.57358" lon="0.86449">
        <ele>200.1</ele>
        <time>2021-12-19T11:06:01Z</time>
      </trkpt>
      <trkpt lat="44.57358" lon="0.86437">
        <ele>200</ele>
        <time>2021-12-19T11:06:03Z</time>
      </trkpt>
      <trkpt lat="44.57356" lon="0.86431">
        <ele>200</ele>
        <time>2021-12-19T11:06:04Z</time>
      </trkpt>
      <trkpt lat="44.57353" lon="0.86419">
        <ele>199.9</ele>
        <time>2021-12-19T11:06:06Z</time>
      </trkpt>
      <trkpt lat="44.57347" lon="0.86406">
        <ele>199.8</ele>
        <time>2021-12-19T11:06:08Z</time>
      </trkpt>
      <trkpt lat="44.5734" lon="0.86385">
        <ele>199.7</ele>
        <time>2021-12-19T11:06:11Z</time>
      </trkpt>
      <trkpt lat="44.57338" lon="0.86369">
        <ele>199.6</ele>
        <time>2021-12-19T11:06:13Z</time>
      </trkpt>
      <trkpt lat="44.57335" lon="0.86332">
        <ele>199.4</ele>
        <time>2021-12-19T11:06:18Z</time>
      </trkpt>
      <trkpt lat="44.57334" lon="0.86324">
        <ele>199.4</ele>
        <time>2021-12-19T11:06:19Z</time>
      </trkpt>
      <trkpt lat="44.57329" lon="0.86293">
        <ele>199.1</ele>
        <time>2021-12-19T11:06:23Z</time>
      </trkpt>
      <trkpt lat="44.57327" lon="0.86279">
        <ele>198.9</ele>
        <time>2021-12-19T11:06:25Z</time>
      </trkpt>
      <trkpt lat="44.57325" lon="0.86264">
        <ele>198.6</ele>
        <time>2021-12-19T11:06:27Z</time>
      </trkpt>
      <trkpt lat="44.57324" lon="0.86256">
        <ele>198.4</ele>
        <time>2021-12-19T11:06:28Z</time>
      </trkpt>
      <trkpt lat="44.57321" lon="0.86213">
        <ele>197.2</ele>
        <time>2021-12-19T11:06:33Z</time>
      </trkpt>
      <trkpt lat="44.57319" lon="0.86194">
        <ele>196.6</ele>
        <time>2021-12-19T11:06:35Z</time>
      </trkpt>
      <trkpt lat="44.57318" lon="0.86175">
        <ele>196.1</ele>
        <time>2021-12-19T11:06:37Z</time>
      </trkpt>
      <trkpt lat="44.57317" lon="0.86165">
        <ele>195.8</ele>
        <time>2021-12-19T11:06:38Z</time>
      </trkpt>
      <trkpt lat="44.57316" lon="0.86136">
        <ele>195</ele>
        <time>2021-12-19T11:06:41Z</time>
      </trkpt>
      <trkpt lat="44.57316" lon="0.86116">
        <ele>194.4</ele>
        <time>2021-12-19T11:06:43Z</time>
      </trkpt>
      <trkpt lat="44.57317" lon="0.86105">
        <ele>194.2</ele>
        <time>2021-12-19T11:06:44Z</time>
      </trkpt>
      <trkpt lat="44.57323" lon="0.86065">
        <ele>193</ele>
        <time>2021-12-19T11:06:48Z</time>
      </trkpt>
      <trkpt lat="44.5733" lon="0.86034">
        <ele>192.2</ele>
        <time>2021-12-19T11:06:51Z</time>
      </trkpt>
      <trkpt lat="44.57334" lon="0.86024">
        <ele>191.9</ele>
        <time>2021-12-19T11:06:52Z</time>
      </trkpt>
      <trkpt lat="44.57354" lon="0.85982">
        <ele>190.9</ele>
        <time>2021-12-19T11:06:57Z</time>
      </trkpt>
      <trkpt lat="44.57376" lon="0.85931">
        <ele>189.4</ele>
        <time>2021-12-19T11:07:03Z</time>
      </trkpt>
      <trkpt lat="44.5739" lon="0.85885">
        <ele>188.3</ele>
        <time>2021-12-19T11:07:08Z</time>
      </trkpt>
      <trkpt lat="44.57394" lon="0.85877">
        <ele>188.1</ele>
        <time>2021-12-19T11:07:09Z</time>
      </trkpt>
      <trkpt lat="44.57397" lon="0.85869">
        <ele>188</ele>
        <time>2021-12-19T11:07:10Z</time>
      </trkpt>
      <trkpt lat="44.57399" lon="0.85851">
        <ele>187.6</ele>
        <time>2021-12-19T11:07:12Z</time>
      </trkpt>
      <trkpt lat="44.574" lon="0.85842">
        <ele>187.5</ele>
        <time>2021-12-19T11:07:13Z</time>
      </trkpt>
      <trkpt lat="44.57407" lon="0.85817">
        <ele>187.3</ele>
        <time>2021-12-19T11:07:16Z</time>
      </trkpt>
      <trkpt lat="44.57413" lon="0.85773">
        <ele>186.9</ele>
        <time>2021-12-19T11:07:21Z</time>
      </trkpt>
      <trkpt lat="44.57411" lon="0.85728">
        <ele>187.1</ele>
        <time>2021-12-19T11:07:26Z</time>
      </trkpt>
      <trkpt lat="44.57411" lon="0.85697">
        <ele>187.2</ele>
        <time>2021-12-19T11:07:30Z</time>
      </trkpt>
      <trkpt lat="44.57411" lon="0.85666">
        <ele>186.8</ele>
        <time>2021-12-19T11:07:34Z</time>
      </trkpt>
      <trkpt lat="44.5741" lon="0.8566">
        <ele>186.6</ele>
        <time>2021-12-19T11:07:35Z</time>
      </trkpt>
      <trkpt lat="44.57407" lon="0.85636">
        <ele>186</ele>
        <time>2021-12-19T11:07:40Z</time>
      </trkpt>
      <trkpt lat="44.57407" lon="0.85619">
        <ele>185.7</ele>
        <time>2021-12-19T11:07:43Z</time>
      </trkpt>
      <trkpt lat="44.57406" lon="0.85612">
        <ele>185.5</ele>
        <time>2021-12-19T11:07:44Z</time>
      </trkpt>
      <trkpt lat="44.57406" lon="0.85589">
        <ele>184.8</ele>
        <time>2021-12-19T11:07:47Z</time>
      </trkpt>
      <trkpt lat="44.57406" lon="0.85571">
        <ele>184.2</ele>
        <time>2021-12-19T11:07:49Z</time>
      </trkpt>
      <trkpt lat="44.57407" lon="0.85533">
        <ele>182.5</ele>
        <time>2021-12-19T11:07:53Z</time>
      </trkpt>
      <trkpt lat="44.57408" lon="0.85522">
        <ele>182</ele>
        <time>2021-12-19T11:07:54Z</time>
      </trkpt>
      <trkpt lat="44.57408" lon="0.85511">
        <ele>181.7</ele>
        <time>2021-12-19T11:07:55Z</time>
      </trkpt>
      <trkpt lat="44.57406" lon="0.85479">
        <ele>180.8</ele>
        <time>2021-12-19T11:07:58Z</time>
      </trkpt>
      <trkpt lat="44.57405" lon="0.85471">
        <ele>180.6</ele>
        <time>2021-12-19T11:07:59Z</time>
      </trkpt>
      <trkpt lat="44.57401" lon="0.85465">
        <ele>180.4</ele>
        <time>2021-12-19T11:08:00Z</time>
      </trkpt>
      <trkpt lat="44.57397" lon="0.85461">
        <ele>180.2</ele>
        <time>2021-12-19T11:08:01Z</time>
      </trkpt>
      <trkpt lat="44.5739" lon="0.85457">
        <ele>180</ele>
        <time>2021-12-19T11:08:03Z</time>
      </trkpt>
      <trkpt lat="44.5739" lon="0.85447">
        <ele>179.6</ele>
        <time>2021-12-19T11:08:06Z</time>
      </trkpt>
      <trkpt lat="44.57382" lon="0.85445">
        <ele>179.1</ele>
        <time>2021-12-19T11:08:09Z</time>
      </trkpt>
      <trkpt lat="44.57374" lon="0.85446">
        <ele>178.5</ele>
        <time>2021-12-19T11:08:11Z</time>
      </trkpt>
      <trkpt lat="44.57366" lon="0.85444">
        <ele>178.1</ele>
        <time>2021-12-19T11:08:13Z</time>
      </trkpt>
      <trkpt lat="44.5736" lon="0.85437">
        <ele>177.6</ele>
        <time>2021-12-19T11:08:16Z</time>
      </trkpt>
      <trkpt lat="44.5736" lon="0.85433">
        <ele>177.4</ele>
        <time>2021-12-19T11:08:17Z</time>
      </trkpt>
      <trkpt lat="44.57356" lon="0.85415">
        <ele>176.7</ele>
        <time>2021-12-19T11:08:21Z</time>
      </trkpt>
      <trkpt lat="44.57351" lon="0.85405">
        <ele>176.2</ele>
        <time>2021-12-19T11:08:23Z</time>
      </trkpt>
      <trkpt lat="44.5735" lon="0.85395">
        <ele>175.9</ele>
        <time>2021-12-19T11:08:25Z</time>
      </trkpt>
      <trkpt lat="44.57357" lon="0.85377">
        <ele>175.7</ele>
        <time>2021-12-19T11:08:29Z</time>
      </trkpt>
      <trkpt lat="44.57371" lon="0.8536">
        <ele>176</ele>
        <time>2021-12-19T11:08:33Z</time>
      </trkpt>
      <trkpt lat="44.57375" lon="0.85356">
        <ele>176.2</ele>
        <time>2021-12-19T11:08:34Z</time>
      </trkpt>
      <trkpt lat="44.57379" lon="0.85352">
        <ele>176.4</ele>
        <time>2021-12-19T11:08:35Z</time>
      </trkpt>
      <trkpt lat="44.57392" lon="0.85336">
        <ele>177.1</ele>
        <time>2021-12-19T11:08:39Z</time>
      </trkpt>
      <trkpt lat="44.57405" lon="0.85319">
        <ele>178.1</ele>
        <time>2021-12-19T11:08:44Z</time>
      </trkpt>
      <trkpt lat="44.5741" lon="0.85307">
        <ele>178.8</ele>
        <time>2021-12-19T11:08:47Z</time>
      </trkpt>
      <trkpt lat="44.5741" lon="0.85303">
        <ele>178.8</ele>
        <time>2021-12-19T11:08:48Z</time>
      </trkpt>
      <trkpt lat="44.57398" lon="0.85293">
        <ele>179.1</ele>
        <time>2021-12-19T11:08:52Z</time>
      </trkpt>
      <trkpt lat="44.57383" lon="0.85278">
        <ele>179</ele>
        <time>2021-12-19T11:08:57Z</time>
      </trkpt>
      <trkpt lat="44.57373" lon="0.85267">
        <ele>178.7</ele>
        <time>2021-12-19T11:09:00Z</time>
      </trkpt>
      <trkpt lat="44.57367" lon="0.85258">
        <ele>178.5</ele>
        <time>2021-12-19T11:09:02Z</time>
      </trkpt>
      <trkpt lat="44.57364" lon="0.85252">
        <ele>178.4</ele>
        <time>2021-12-19T11:09:03Z</time>
      </trkpt>
      <trkpt lat="44.57362" lon="0.85245">
        <ele>178.2</ele>
        <time>2021-12-19T11:09:04Z</time>
      </trkpt>
      <trkpt lat="44.57358" lon="0.85231">
        <ele>177.9</ele>
        <time>2021-12-19T11:09:06Z</time>
      </trkpt>
      <trkpt lat="44.57355" lon="0.85224">
        <ele>177.7</ele>
        <time>2021-12-19T11:09:07Z</time>
      </trkpt>
      <trkpt lat="44.57335" lon="0.85176">
        <ele>176.6</ele>
        <time>2021-12-19T11:09:13Z</time>
      </trkpt>
      <trkpt lat="44.5732" lon="0.85143">
        <ele>175.8</ele>
        <time>2021-12-19T11:09:17Z</time>
      </trkpt>
      <trkpt lat="44.57312" lon="0.85127">
        <ele>175.6</ele>
        <time>2021-12-19T11:09:19Z</time>
      </trkpt>
      <trkpt lat="44.57288" lon="0.85076">
        <ele>174.8</ele>
        <time>2021-12-19T11:09:25Z</time>
      </trkpt>
      <trkpt lat="44.57273" lon="0.85042">
        <ele>174.3</ele>
        <time>2021-12-19T11:09:29Z</time>
      </trkpt>
      <trkpt lat="44.5727" lon="0.85033">
        <ele>174.2</ele>
        <time>2021-12-19T11:09:30Z</time>
      </trkpt>
      <trkpt lat="44.57263" lon="0.85005">
        <ele>174.1</ele>
        <time>2021-12-19T11:09:33Z</time>
      </trkpt>
      <trkpt lat="44.57261" lon="0.84996">
        <ele>174.2</ele>
        <time>2021-12-19T11:09:34Z</time>
      </trkpt>
      <trkpt lat="44.57252" lon="0.84969">
        <ele>174.4</ele>
        <time>2021-12-19T11:09:37Z</time>
      </trkpt>
      <trkpt lat="44.57249" lon="0.8495">
        <ele>174.8</ele>
        <time>2021-12-19T11:09:39Z</time>
      </trkpt>
      <trkpt lat="44.57246" lon="0.84905">
        <ele>176.3</ele>
        <time>2021-12-19T11:09:44Z</time>
      </trkpt>
      <trkpt lat="44.57244" lon="0.84889">
        <ele>176.9</ele>
        <time>2021-12-19T11:09:46Z</time>
      </trkpt>
      <trkpt lat="44.57237" lon="0.84865">
        <ele>177.6</ele>
        <time>2021-12-19T11:09:49Z</time>
      </trkpt>
      <trkpt lat="44.57227" lon="0.84816">
        <ele>178.2</ele>
        <time>2021-12-19T11:09:55Z</time>
      </trkpt>
      <trkpt lat="44.57226" lon="0.84809">
        <ele>178.2</ele>
        <time>2021-12-19T11:09:56Z</time>
      </trkpt>
      <trkpt lat="44.57226" lon="0.84794">
        <ele>178.2</ele>
        <time>2021-12-19T11:09:58Z</time>
      </trkpt>
      <trkpt lat="44.57226" lon="0.84765">
        <ele>178.2</ele>
        <time>2021-12-19T11:10:02Z</time>
      </trkpt>
      <trkpt lat="44.57225" lon="0.8475">
        <ele>178</ele>
        <time>2021-12-19T11:10:04Z</time>
      </trkpt>
      <trkpt lat="44.57219" lon="0.84702">
        <ele>177</ele>
        <time>2021-12-19T11:10:10Z</time>
      </trkpt>
      <trkpt lat="44.57221" lon="0.84646">
        <ele>175.6</ele>
        <time>2021-12-19T11:10:16Z</time>
      </trkpt>
      <trkpt lat="44.57217" lon="0.84584">
        <ele>173.9</ele>
        <time>2021-12-19T11:10:22Z</time>
      </trkpt>
      <trkpt lat="44.57207" lon="0.84512">
        <ele>173</ele>
        <time>2021-12-19T11:10:29Z</time>
      </trkpt>
      <trkpt lat="44.57197" lon="0.84478">
        <ele>172.4</ele>
        <time>2021-12-19T11:10:33Z</time>
      </trkpt>
      <trkpt lat="44.57178" lon="0.84421">
        <ele>169.6</ele>
        <time>2021-12-19T11:10:39Z</time>
      </trkpt>
      <trkpt lat="44.5716" lon="0.84364">
        <ele>166.1</ele>
        <time>2021-12-19T11:10:44Z</time>
      </trkpt>
      <trkpt lat="44.57143" lon="0.84304">
        <ele>163.7</ele>
        <time>2021-12-19T11:10:49Z</time>
      </trkpt>
      <trkpt lat="44.57129" lon="0.84245">
        <ele>162.7</ele>
        <time>2021-12-19T11:10:54Z</time>
      </trkpt>
      <trkpt lat="44.57109" lon="0.84193">
        <ele>162.7</ele>
        <time>2021-12-19T11:10:59Z</time>
      </trkpt>
      <trkpt lat="44.571" lon="0.84174">
        <ele>163</ele>
        <time>2021-12-19T11:11:01Z</time>
      </trkpt>
      <trkpt lat="44.57089" lon="0.84162">
        <ele>163.4</ele>
        <time>2021-12-19T11:11:03Z</time>
      </trkpt>
      <trkpt lat="44.57077" lon="0.84162">
        <ele>163.7</ele>
        <time>2021-12-19T11:11:05Z</time>
      </trkpt>
      <trkpt lat="44.5707" lon="0.84163">
        <ele>163.9</ele>
        <time>2021-12-19T11:11:06Z</time>
      </trkpt>
      <trkpt lat="44.57034" lon="0.84173">
        <ele>164.5</ele>
        <time>2021-12-19T11:11:12Z</time>
      </trkpt>
      <trkpt lat="44.57004" lon="0.84179">
        <ele>164.2</ele>
        <time>2021-12-19T11:11:17Z</time>
      </trkpt>
      <trkpt lat="44.56997" lon="0.84179">
        <ele>163.9</ele>
        <time>2021-12-19T11:11:18Z</time>
      </trkpt>
      <trkpt lat="44.56983" lon="0.84177">
        <ele>163.3</ele>
        <time>2021-12-19T11:11:20Z</time>
      </trkpt>
      <trkpt lat="44.5697" lon="0.84169">
        <ele>162.7</ele>
        <time>2021-12-19T11:11:22Z</time>
      </trkpt>
      <trkpt lat="44.5696" lon="0.84153">
        <ele>162.2</ele>
        <time>2021-12-19T11:11:24Z</time>
      </trkpt>
      <trkpt lat="44.56956" lon="0.84142">
        <ele>162</ele>
        <time>2021-12-19T11:11:25Z</time>
      </trkpt>
      <trkpt lat="44.56936" lon="0.84075">
        <ele>162.9</ele>
        <time>2021-12-19T11:11:32Z</time>
      </trkpt>
      <trkpt lat="44.56917" lon="0.84031">
        <ele>164</ele>
        <time>2021-12-19T11:11:38Z</time>
      </trkpt>
      <trkpt lat="44.56897" lon="0.83993">
        <ele>163.6</ele>
        <time>2021-12-19T11:11:44Z</time>
      </trkpt>
      <trkpt lat="44.5689" lon="0.83979">
        <ele>163.3</ele>
        <time>2021-12-19T11:11:46Z</time>
      </trkpt>
      <trkpt lat="44.56882" lon="0.83954">
        <ele>162.6</ele>
        <time>2021-12-19T11:11:49Z</time>
      </trkpt>
      <trkpt lat="44.5688" lon="0.83945">
        <ele>162.4</ele>
        <time>2021-12-19T11:11:50Z</time>
      </trkpt>
      <trkpt lat="44.56878" lon="0.83926">
        <ele>161.9</ele>
        <time>2021-12-19T11:11:52Z</time>
      </trkpt>
      <trkpt lat="44.56879" lon="0.83916">
        <ele>161.7</ele>
        <time>2021-12-19T11:11:53Z</time>
      </trkpt>
      <trkpt lat="44.56881" lon="0.83896">
        <ele>161.3</ele>
        <time>2021-12-19T11:11:55Z</time>
      </trkpt>
      <trkpt lat="44.56884" lon="0.83877">
        <ele>161.1</ele>
        <time>2021-12-19T11:11:57Z</time>
      </trkpt>
      <trkpt lat="44.56887" lon="0.83868">
        <ele>161.1</ele>
        <time>2021-12-19T11:11:58Z</time>
      </trkpt>
      <trkpt lat="44.56904" lon="0.83827">
        <ele>161.7</ele>
        <time>2021-12-19T11:12:03Z</time>
      </trkpt>
      <trkpt lat="44.56913" lon="0.83816">
        <ele>162.1</ele>
        <time>2021-12-19T11:12:05Z</time>
      </trkpt>
      <trkpt lat="44.56929" lon="0.83804">
        <ele>162.7</ele>
        <time>2021-12-19T11:12:08Z</time>
      </trkpt>
      <trkpt lat="44.56948" lon="0.83792">
        <ele>163.3</ele>
        <time>2021-12-19T11:12:12Z</time>
      </trkpt>
      <trkpt lat="44.56962" lon="0.8378">
        <ele>163.6</ele>
        <time>2021-12-19T11:12:15Z</time>
      </trkpt>
      <trkpt lat="44.56965" lon="0.83774">
        <ele>163.6</ele>
        <time>2021-12-19T11:12:16Z</time>
      </trkpt>
      <trkpt lat="44.56968" lon="0.83767">
        <ele>163.6</ele>
        <time>2021-12-19T11:12:17Z</time>
      </trkpt>
      <trkpt lat="44.56966" lon="0.83752">
        <ele>163.5</ele>
        <time>2021-12-19T11:12:19Z</time>
      </trkpt>
      <trkpt lat="44.56961" lon="0.83738">
        <ele>163.3</ele>
        <time>2021-12-19T11:12:21Z</time>
      </trkpt>
      <trkpt lat="44.56955" lon="0.83725">
        <ele>163</ele>
        <time>2021-12-19T11:12:23Z</time>
      </trkpt>
      <trkpt lat="44.56931" lon="0.83676">
        <ele>161.5</ele>
        <time>2021-12-19T11:12:30Z</time>
      </trkpt>
      <trkpt lat="44.56915" lon="0.83636">
        <ele>160.5</ele>
        <time>2021-12-19T11:12:35Z</time>
      </trkpt>
      <trkpt lat="44.56894" lon="0.83596">
        <ele>159.7</ele>
        <time>2021-12-19T11:12:40Z</time>
      </trkpt>
      <trkpt lat="44.56882" lon="0.83571">
        <ele>159.1</ele>
        <time>2021-12-19T11:12:43Z</time>
      </trkpt>
      <trkpt lat="44.56875" lon="0.83554">
        <ele>158.8</ele>
        <time>2021-12-19T11:12:45Z</time>
      </trkpt>
      <trkpt lat="44.56865" lon="0.8353">
        <ele>158.5</ele>
        <time>2021-12-19T11:12:48Z</time>
      </trkpt>
      <trkpt lat="44.56859" lon="0.83514">
        <ele>158.3</ele>
        <time>2021-12-19T11:12:50Z</time>
      </trkpt>
      <trkpt lat="44.56836" lon="0.83458">
        <ele>156.8</ele>
        <time>2021-12-19T11:12:57Z</time>
      </trkpt>
      <trkpt lat="44.5681" lon="0.83396">
        <ele>154.7</ele>
        <time>2021-12-19T11:13:04Z</time>
      </trkpt>
      <trkpt lat="44.56779" lon="0.83331">
        <ele>153</ele>
        <time>2021-12-19T11:13:11Z</time>
      </trkpt>
      <trkpt lat="44.56774" lon="0.83322">
        <ele>152.8</ele>
        <time>2021-12-19T11:13:12Z</time>
      </trkpt>
      <trkpt lat="44.56743" lon="0.83256">
        <ele>151.4</ele>
        <time>2021-12-19T11:13:19Z</time>
      </trkpt>
      <trkpt lat="44.56738" lon="0.83247">
        <ele>151.2</ele>
        <time>2021-12-19T11:13:20Z</time>
      </trkpt>
      <trkpt lat="44.56709" lon="0.83182">
        <ele>150.1</ele>
        <time>2021-12-19T11:13:27Z</time>
      </trkpt>
      <trkpt lat="44.56683" lon="0.83112">
        <ele>148.1</ele>
        <time>2021-12-19T11:13:34Z</time>
      </trkpt>
      <trkpt lat="44.56656" lon="0.8304">
        <ele>147.4</ele>
        <time>2021-12-19T11:13:41Z</time>
      </trkpt>
      <trkpt lat="44.56648" lon="0.8302">
        <ele>147.4</ele>
        <time>2021-12-19T11:13:43Z</time>
      </trkpt>
      <trkpt lat="44.56624" lon="0.82954">
        <ele>147.4</ele>
        <time>2021-12-19T11:13:50Z</time>
      </trkpt>
      <trkpt lat="44.56609" lon="0.82887">
        <ele>147.6</ele>
        <time>2021-12-19T11:13:57Z</time>
      </trkpt>
      <trkpt lat="44.56608" lon="0.82876">
        <ele>147.5</ele>
        <time>2021-12-19T11:13:58Z</time>
      </trkpt>
      <trkpt lat="44.56606" lon="0.82821">
        <ele>147.3</ele>
        <time>2021-12-19T11:14:03Z</time>
      </trkpt>
      <trkpt lat="44.56598" lon="0.82753">
        <ele>147.4</ele>
        <time>2021-12-19T11:14:09Z</time>
      </trkpt>
      <trkpt lat="44.56583" lon="0.82681">
        <ele>147.6</ele>
        <time>2021-12-19T11:14:16Z</time>
      </trkpt>
      <trkpt lat="44.56569" lon="0.82612">
        <ele>147.2</ele>
        <time>2021-12-19T11:14:23Z</time>
      </trkpt>
      <trkpt lat="44.56549" lon="0.82547">
        <ele>147.3</ele>
        <time>2021-12-19T11:14:30Z</time>
      </trkpt>
      <trkpt lat="44.56535" lon="0.82513">
        <ele>147.4</ele>
        <time>2021-12-19T11:14:34Z</time>
      </trkpt>
      <trkpt lat="44.56526" lon="0.82498">
        <ele>147.2</ele>
        <time>2021-12-19T11:14:36Z</time>
      </trkpt>
      <trkpt lat="44.565" lon="0.82472">
        <ele>147.3</ele>
        <time>2021-12-19T11:14:41Z</time>
      </trkpt>
      <trkpt lat="44.56467" lon="0.82443">
        <ele>147.3</ele>
        <time>2021-12-19T11:14:48Z</time>
        <extensions>
          <visugpx:TrkExtension xmlns:visugpx="https://www.visugpx.com/editgpx/">
            <visugpx:node>2</visugpx:node>
            </visugpx:TrkExtension>
        </extensions>
      </trkpt>
      <trkpt lat="44.56457" lon="0.82436">
        <ele>147</ele>
        <time>2021-12-19T07:46:03Z</time>
        <extensions>
          <visugpx:TrkExtension xmlns:visugpx="https://www.visugpx.com/editgpx/">
            <visugpx:node>3</visugpx:node>
            </visugpx:TrkExtension>
        </extensions>
      </trkpt>
      <trkpt lat="44.56479" lon="0.8246">
        <ele>147.4</ele>
        <time>2021-12-19T07:46:09Z</time>
      </trkpt>
      <trkpt lat="44.56506" lon="0.82483">
        <ele>147.3</ele>
        <time>2021-12-19T07:46:15Z</time>
        <extensions>
          <visugpx:TrkExtension xmlns:visugpx="https://www.visugpx.com/editgpx/">
            <visugpx:node>4</visugpx:node>
            </visugpx:TrkExtension>
        </extensions>
      </trkpt>
      <trkpt lat="44.56466" lon="0.82446">
        <ele>148.7</ele>
        <extensions>
          <visugpx:TrkExtension xmlns:visugpx="https://www.visugpx.com/editgpx/">
            <visugpx:node>5</visugpx:node>
            </visugpx:TrkExtension>
        </extensions>
      </trkpt>
      <trkpt lat="44.56484" lon="0.82395">
        <ele>150.3</ele>
      </trkpt>
      <trkpt lat="44.56484" lon="0.82381">
        <ele>150.4</ele>
      </trkpt>
      <trkpt lat="44.56481" lon="0.82366">
        <ele>150.3</ele>
      </trkpt>
      <trkpt lat="44.56481" lon="0.8235">
        <ele>150</ele>
      </trkpt>
      <trkpt lat="44.56508" lon="0.82249">
        <ele>150.3</ele>
      </trkpt>
      <trkpt lat="44.56513" lon="0.82251">
        <ele>150.5</ele>
      </trkpt>
      <trkpt lat="44.56515" lon="0.82276">
        <ele>151</ele>
      </trkpt>
      <trkpt lat="44.56519" lon="0.82285">
        <ele>151.5</ele>
      </trkpt>
      <trkpt lat="44.5653" lon="0.82294">
        <ele>152</ele>
      </trkpt>
      <trkpt lat="44.56559" lon="0.82299">
        <ele>151.6</ele>
      </trkpt>
      <trkpt lat="44.56575" lon="0.82299">
        <ele>151.1</ele>
      </trkpt>
      <trkpt lat="44.56587" lon="0.82295">
        <ele>150.5</ele>
      </trkpt>
      <trkpt lat="44.56595" lon="0.82276">
        <ele>149.6</ele>
      </trkpt>
      <trkpt lat="44.56596" lon="0.82229">
        <ele>148.7</ele>
      </trkpt>
      <trkpt lat="44.56603" lon="0.82189">
        <ele>147.6</ele>
      </trkpt>
      <trkpt lat="44.56616" lon="0.82177">
        <ele>146.8</ele>
      </trkpt>
      <trkpt lat="44.56652" lon="0.82154">
        <ele>145.5</ele>
      </trkpt>
      <trkpt lat="44.56702" lon="0.8213">
        <ele>144.3</ele>
      </trkpt>
      <trkpt lat="44.56714" lon="0.82132">
        <ele>144.2</ele>
      </trkpt>
      <trkpt lat="44.56732" lon="0.82156">
        <ele>143</ele>
      </trkpt>
      <trkpt lat="44.56749" lon="0.82161">
        <ele>142.2</ele>
      </trkpt>
      <trkpt lat="44.56782" lon="0.82205">
        <ele>139.7</ele>
      </trkpt>
      <trkpt lat="44.56791" lon="0.82207">
        <ele>139</ele>
      </trkpt>
      <trkpt lat="44.56802" lon="0.82199">
        <ele>138.3</ele>
      </trkpt>
      <trkpt lat="44.56808" lon="0.82185">
        <ele>137.5</ele>
      </trkpt>
      <trkpt lat="44.56811" lon="0.82163">
        <ele>136.9</ele>
      </trkpt>
      <trkpt lat="44.56816" lon="0.82156">
        <ele>136.9</ele>
      </trkpt>
      <trkpt lat="44.56828" lon="0.82152">
        <ele>136.3</ele>
      </trkpt>
      <trkpt lat="44.56842" lon="0.82162">
        <ele>135.7</ele>
      </trkpt>
      <trkpt lat="44.56902" lon="0.82155">
        <ele>134</ele>
      </trkpt>
      <trkpt lat="44.56911" lon="0.82161">
        <ele>134</ele>
      </trkpt>
      <trkpt lat="44.56928" lon="0.82185">
        <ele>135.6</ele>
      </trkpt>
      <trkpt lat="44.56937" lon="0.8219">
        <ele>135.9</ele>
      </trkpt>
      <trkpt lat="44.57002" lon="0.82184">
        <ele>137</ele>
      </trkpt>
      <trkpt lat="44.57012" lon="0.82184">
        <ele>137.3</ele>
      </trkpt>
      <trkpt lat="44.57021" lon="0.8219">
        <ele>137.6</ele>
      </trkpt>
      <trkpt lat="44.57033" lon="0.82182">
        <ele>137.6</ele>
      </trkpt>
      <trkpt lat="44.57038" lon="0.82183">
        <ele>137.6</ele>
      </trkpt>
      <trkpt lat="44.57053" lon="0.82198">
        <ele>138</ele>
      </trkpt>
      <trkpt lat="44.57062" lon="0.82211">
        <ele>137.9</ele>
      </trkpt>
      <trkpt lat="44.57076" lon="0.82242">
        <ele>138.2</ele>
      </trkpt>
      <trkpt lat="44.57083" lon="0.82257">
        <ele>138</ele>
      </trkpt>
      <trkpt lat="44.57108" lon="0.82323">
        <ele>136.1</ele>
      </trkpt>
      <trkpt lat="44.57129" lon="0.82349">
        <ele>134.8</ele>
      </trkpt>
      <trkpt lat="44.57176" lon="0.82388">
        <ele>132.7</ele>
      </trkpt>
      <trkpt lat="44.57222" lon="0.82408">
        <ele>130.3</ele>
      </trkpt>
      <trkpt lat="44.57264" lon="0.82397">
        <ele>129.2</ele>
      </trkpt>
      <trkpt lat="44.57277" lon="0.82397">
        <ele>128.7</ele>
      </trkpt>
      <trkpt lat="44.57295" lon="0.82403">
        <ele>127.9</ele>
      </trkpt>
      <trkpt lat="44.57321" lon="0.82416">
        <ele>126.5</ele>
      </trkpt>
      <trkpt lat="44.57355" lon="0.82423">
        <ele>124.4</ele>
      </trkpt>
      <trkpt lat="44.5739" lon="0.8244">
        <ele>122.1</ele>
      </trkpt>
      <trkpt lat="44.5741" lon="0.82458">
        <ele>120.9</ele>
      </trkpt>
      <trkpt lat="44.5746" lon="0.82486">
        <ele>116.4</ele>
      </trkpt>
      <trkpt lat="44.57504" lon="0.82506">
        <ele>114.9</ele>
      </trkpt>
      <trkpt lat="44.57526" lon="0.82504">
        <ele>114.2</ele>
      </trkpt>
      <trkpt lat="44.57543" lon="0.82515">
        <ele>114</ele>
      </trkpt>
      <trkpt lat="44.57564" lon="0.82567">
        <ele>116.1</ele>
      </trkpt>
      <trkpt lat="44.57581" lon="0.82593">
        <ele>119.9</ele>
      </trkpt>
      <trkpt lat="44.576" lon="0.8264">
        <ele>124.8</ele>
      </trkpt>
      <trkpt lat="44.57621" lon="0.82655">
        <ele>126.9</ele>
      </trkpt>
      <trkpt lat="44.57642" lon="0.82671">
        <ele>129.8</ele>
      </trkpt>
      <trkpt lat="44.57688" lon="0.82597">
        <ele>130.3</ele>
      </trkpt>
      <trkpt lat="44.57699" lon="0.82593">
        <ele>131.4</ele>
      </trkpt>
      <trkpt lat="44.57736" lon="0.82613">
        <ele>137.2</ele>
      </trkpt>
      <trkpt lat="44.57795" lon="0.826">
        <ele>139.9</ele>
      </trkpt>
      <trkpt lat="44.57866" lon="0.82536">
        <ele>140.8</ele>
      </trkpt>
      <trkpt lat="44.57955" lon="0.82467">
        <ele>145.2</ele>
      </trkpt>
      <trkpt lat="44.57974" lon="0.82462">
        <ele>146.3</ele>
      </trkpt>
      <trkpt lat="44.58004" lon="0.82472">
        <ele>147.8</ele>
      </trkpt>
      <trkpt lat="44.58009" lon="0.82473">
        <ele>147.7</ele>
      </trkpt>
      <trkpt lat="44.58011" lon="0.82451">
        <ele>146.7</ele>
      </trkpt>
      <trkpt lat="44.58012" lon="0.82417">
        <ele>145.4</ele>
      </trkpt>
      <trkpt lat="44.58006" lon="0.82342">
        <ele>143.5</ele>
      </trkpt>
      <trkpt lat="44.58" lon="0.8223">
        <ele>141</ele>
      </trkpt>
      <trkpt lat="44.58001" lon="0.82178">
        <ele>141.9</ele>
      </trkpt>
      <trkpt lat="44.58005" lon="0.82147">
        <ele>141.8</ele>
      </trkpt>
      <trkpt lat="44.58009" lon="0.82121">
        <ele>142.3</ele>
      </trkpt>
      <trkpt lat="44.58024" lon="0.82044">
        <ele>141.7</ele>
      </trkpt>
      <trkpt lat="44.58036" lon="0.81994">
        <ele>142.3</ele>
      </trkpt>
      <trkpt lat="44.5804" lon="0.81977">
        <ele>142.5</ele>
      </trkpt>
      <trkpt lat="44.58075" lon="0.81822">
        <ele>146</ele>
      </trkpt>
      <trkpt lat="44.58081" lon="0.81795">
        <ele>146.5</ele>
      </trkpt>
      <trkpt lat="44.58094" lon="0.81794">
        <ele>145.6</ele>
      </trkpt>
      <trkpt lat="44.58105" lon="0.818">
        <ele>144.6</ele>
      </trkpt>
      <trkpt lat="44.58125" lon="0.8182">
        <ele>141.7</ele>
      </trkpt>
      <trkpt lat="44.58147" lon="0.81835">
        <ele>139.4</ele>
      </trkpt>
      <trkpt lat="44.58154" lon="0.81837">
        <ele>139</ele>
      </trkpt>
      <trkpt lat="44.58161" lon="0.81832">
        <ele>138.4</ele>
      </trkpt>
      <trkpt lat="44.58183" lon="0.81786">
        <ele>137.5</ele>
      </trkpt>
      <trkpt lat="44.58198" lon="0.81769">
        <ele>137.1</ele>
      </trkpt>
      <trkpt lat="44.58249" lon="0.81701">
        <ele>136.8</ele>
      </trkpt>
      <trkpt lat="44.58279" lon="0.81649">
        <ele>135.9</ele>
      </trkpt>
      <trkpt lat="44.583" lon="0.81622">
        <ele>134.3</ele>
      </trkpt>
      <trkpt lat="44.58317" lon="0.81598">
        <ele>133.3</ele>
      </trkpt>
      <trkpt lat="44.58339" lon="0.81575">
        <ele>132.3</ele>
      </trkpt>
      <trkpt lat="44.58363" lon="0.81546">
        <ele>130.9</ele>
      </trkpt>
      <trkpt lat="44.58378" lon="0.81535">
        <ele>130.1</ele>
      </trkpt>
      <trkpt lat="44.58408" lon="0.81517">
        <ele>129</ele>
      </trkpt>
      <trkpt lat="44.58422" lon="0.81506">
        <ele>128.2</ele>
      </trkpt>
      <trkpt lat="44.58438" lon="0.81506">
        <ele>127.3</ele>
      </trkpt>
      <trkpt lat="44.58452" lon="0.81502">
        <ele>125.9</ele>
      </trkpt>
      <trkpt lat="44.58508" lon="0.81461">
        <ele>118.1</ele>
      </trkpt>
      <trkpt lat="44.58524" lon="0.8144">
        <ele>116.4</ele>
      </trkpt>
      <trkpt lat="44.58573" lon="0.81367">
        <ele>111.5</ele>
      </trkpt>
      <trkpt lat="44.58592" lon="0.81331">
        <ele>109.2</ele>
      </trkpt>
      <trkpt lat="44.58602" lon="0.81353">
        <ele>108.9</ele>
      </trkpt>
      <trkpt lat="44.58622" lon="0.81397">
        <ele>106.1</ele>
      </trkpt>
      <trkpt lat="44.5863" lon="0.81411">
        <ele>106</ele>
      </trkpt>
      <trkpt lat="44.58647" lon="0.81416">
        <ele>105.7</ele>
      </trkpt>
      <trkpt lat="44.58663" lon="0.81419">
        <ele>105.4</ele>
      </trkpt>
      <trkpt lat="44.58677" lon="0.81424">
        <ele>105.3</ele>
      </trkpt>
      <trkpt lat="44.58689" lon="0.81443">
        <ele>106.3</ele>
      </trkpt>
      <trkpt lat="44.5874" lon="0.81478">
        <ele>103.9</ele>
      </trkpt>
      <trkpt lat="44.58807" lon="0.81551">
        <ele>102.8</ele>
      </trkpt>
      <trkpt lat="44.58814" lon="0.81552">
        <ele>102.6</ele>
      </trkpt>
      <trkpt lat="44.58831" lon="0.81517">
        <ele>101.1</ele>
      </trkpt>
      <trkpt lat="44.58843" lon="0.8151">
        <ele>101</ele>
      </trkpt>
      <trkpt lat="44.58853" lon="0.81512">
        <ele>101</ele>
      </trkpt>
      <trkpt lat="44.58881" lon="0.8154">
        <ele>101.4</ele>
      </trkpt>
      <trkpt lat="44.58893" lon="0.81546">
        <ele>101.7</ele>
      </trkpt>
      <trkpt lat="44.58981" lon="0.81559">
        <ele>101.8</ele>
      </trkpt>
      <trkpt lat="44.59011" lon="0.81572">
        <ele>101.4</ele>
      </trkpt>
      <trkpt lat="44.59046" lon="0.81574">
        <ele>100.8</ele>
      </trkpt>
      <trkpt lat="44.59063" lon="0.81578">
        <ele>100.6</ele>
      </trkpt>
      <trkpt lat="44.59086" lon="0.81588">
        <ele>100.3</ele>
      </trkpt>
      <trkpt lat="44.59097" lon="0.81594">
        <ele>100.6</ele>
      </trkpt>
      <trkpt lat="44.59136" lon="0.81637">
        <ele>101.2</ele>
      </trkpt>
      <trkpt lat="44.59183" lon="0.81667">
        <ele>102</ele>
      </trkpt>
      <trkpt lat="44.59201" lon="0.81701">
        <ele>102.5</ele>
      </trkpt>
      <trkpt lat="44.59208" lon="0.81706">
        <ele>102.8</ele>
      </trkpt>
      <trkpt lat="44.59224" lon="0.81707">
        <ele>102.8</ele>
      </trkpt>
      <trkpt lat="44.59239" lon="0.8171">
        <ele>102.5</ele>
      </trkpt>
      <trkpt lat="44.59306" lon="0.81758">
        <ele>103.8</ele>
      </trkpt>
      <trkpt lat="44.59421" lon="0.81826">
        <ele>102.7</ele>
      </trkpt>
      <trkpt lat="44.59429" lon="0.81812">
        <ele>102.2</ele>
      </trkpt>
      <trkpt lat="44.59438" lon="0.81796">
        <ele>102</ele>
      </trkpt>
      <trkpt lat="44.59456" lon="0.81782">
        <ele>102.4</ele>
      </trkpt>
      <trkpt lat="44.59464" lon="0.81778">
        <ele>102.7</ele>
      </trkpt>
      <trkpt lat="44.59477" lon="0.81776">
        <ele>103</ele>
      </trkpt>
      <trkpt lat="44.59489" lon="0.81756">
        <ele>102.5</ele>
      </trkpt>
      <trkpt lat="44.59502" lon="0.81737">
        <ele>102.5</ele>
      </trkpt>
      <trkpt lat="44.59512" lon="0.81712">
        <ele>103</ele>
      </trkpt>
      <trkpt lat="44.59514" lon="0.81663">
        <ele>103.6</ele>
      </trkpt>
      <trkpt lat="44.59516" lon="0.8165">
        <ele>103.8</ele>
      </trkpt>
      <trkpt lat="44.59523" lon="0.8161">
        <ele>105.1</ele>
      </trkpt>
      <trkpt lat="44.59541" lon="0.81535">
        <ele>111.1</ele>
      </trkpt>
      <trkpt lat="44.59571" lon="0.81428">
        <ele>113.8</ele>
      </trkpt>
      <trkpt lat="44.59583" lon="0.8137">
        <ele>119</ele>
      </trkpt>
      <trkpt lat="44.59582" lon="0.81319">
        <ele>126.3</ele>
      </trkpt>
      <trkpt lat="44.59594" lon="0.81282">
        <ele>129.9</ele>
      </trkpt>
      <trkpt lat="44.59654" lon="0.81168">
        <ele>133.4</ele>
      </trkpt>
      <trkpt lat="44.59665" lon="0.81147">
        <ele>134.4</ele>
      </trkpt>
      <trkpt lat="44.59696" lon="0.8116">
        <ele>133.1</ele>
      </trkpt>
      <trkpt lat="44.5974" lon="0.81173">
        <ele>130.4</ele>
      </trkpt>
      <trkpt lat="44.59768" lon="0.81185">
        <ele>128.8</ele>
      </trkpt>
      <trkpt lat="44.59784" lon="0.81206">
        <ele>127</ele>
      </trkpt>
      <trkpt lat="44.59794" lon="0.81223">
        <ele>126.2</ele>
      </trkpt>
      <trkpt lat="44.59819" lon="0.81227">
        <ele>127.6</ele>
      </trkpt>
      <trkpt lat="44.59852" lon="0.81244">
        <ele>131.1</ele>
      </trkpt>
      <trkpt lat="44.59861" lon="0.81238">
        <ele>133</ele>
      </trkpt>
      <trkpt lat="44.59866" lon="0.81221">
        <ele>133.5</ele>
      </trkpt>
      <trkpt lat="44.59876" lon="0.81212">
        <ele>134.2</ele>
      </trkpt>
      <trkpt lat="44.59896" lon="0.81207">
        <ele>136.4</ele>
      </trkpt>
      <trkpt lat="44.59905" lon="0.81201">
        <ele>137.4</ele>
      </trkpt>
      <trkpt lat="44.59911" lon="0.81165">
        <ele>137.4</ele>
      </trkpt>
      <trkpt lat="44.59919" lon="0.81133">
        <ele>138.5</ele>
      </trkpt>
      <trkpt lat="44.59926" lon="0.81128">
        <ele>139.6</ele>
      </trkpt>
      <trkpt lat="44.59938" lon="0.8113">
        <ele>141.1</ele>
      </trkpt>
      <trkpt lat="44.59949" lon="0.81145">
        <ele>142.8</ele>
      </trkpt>
      <trkpt lat="44.59959" lon="0.81137">
        <ele>144</ele>
      </trkpt>
      <trkpt lat="44.59976" lon="0.81114">
        <ele>144.6</ele>
      </trkpt>
      <trkpt lat="44.60013" lon="0.81057">
        <ele>147.9</ele>
      </trkpt>
      <trkpt lat="44.6003" lon="0.81026">
        <ele>149.1</ele>
      </trkpt>
      <trkpt lat="44.60048" lon="0.8099">
        <ele>149.8</ele>
      </trkpt>
      <trkpt lat="44.60065" lon="0.80946">
        <ele>150.6</ele>
      </trkpt>
      <trkpt lat="44.6011" lon="0.80857">
        <ele>153.4</ele>
      </trkpt>
      <trkpt lat="44.6012" lon="0.80835">
        <ele>153.9</ele>
      </trkpt>
      <trkpt lat="44.60162" lon="0.80783">
        <ele>154.7</ele>
      </trkpt>
      <trkpt lat="44.60193" lon="0.80742">
        <ele>155.7</ele>
      </trkpt>
      <trkpt lat="44.60205" lon="0.8073">
        <ele>156.1</ele>
      </trkpt>
      <trkpt lat="44.60222" lon="0.80721">
        <ele>156.1</ele>
      </trkpt>
      <trkpt lat="44.60241" lon="0.80714">
        <ele>155.9</ele>
      </trkpt>
      <trkpt lat="44.60267" lon="0.80688">
        <ele>157.5</ele>
      </trkpt>
      <trkpt lat="44.60282" lon="0.80668">
        <ele>159.1</ele>
      </trkpt>
      <trkpt lat="44.60306" lon="0.8065">
        <ele>161.2</ele>
      </trkpt>
      <trkpt lat="44.60377" lon="0.80586">
        <ele>169</ele>
      </trkpt>
      <trkpt lat="44.60391" lon="0.80562">
        <ele>170.1</ele>
      </trkpt>
      <trkpt lat="44.60402" lon="0.80537">
        <ele>171.3</ele>
      </trkpt>
      <trkpt lat="44.60413" lon="0.8053">
        <ele>171.9</ele>
      </trkpt>
      <trkpt lat="44.60424" lon="0.80509">
        <ele>171.5</ele>
      </trkpt>
      <trkpt lat="44.60451" lon="0.80487">
        <ele>171.5</ele>
      </trkpt>
      <trkpt lat="44.60467" lon="0.80471">
        <ele>171</ele>
      </trkpt>
      <trkpt lat="44.60457" lon="0.80463">
        <ele>170.8</ele>
      </trkpt>
      <trkpt lat="44.60465" lon="0.80443">
        <ele>170.7</ele>
      </trkpt>
      <trkpt lat="44.60476" lon="0.80408">
        <ele>169.9</ele>
      </trkpt>
      <trkpt lat="44.60509" lon="0.8032">
        <ele>169.2</ele>
      </trkpt>
      <trkpt lat="44.60519" lon="0.80297">
        <ele>169.2</ele>
        <extensions>
          <visugpx:TrkExtension xmlns:visugpx="https://www.visugpx.com/editgpx/">
            <visugpx:node>6</visugpx:node>
            </visugpx:TrkExtension>
        </extensions>
      </trkpt>
    </trkseg>
  </trk>
</gpx>